<?xml version="1.0" encoding="UTF-8" standalone="no" ?>
<gpx xmlns="http://www.topografix.com/GPX/1/1" xmlns:xsi="http://www.w3.org/2001/XMLSchema-instance" xsi:schemaLocation="http://www.topografix.com/GPX/1/1 http://www.topografix.com/GPX/1/1/gpx.xsd" version="1.1" creator="VisuGPX - https://www.visugpx.com">
  <metadata>
    <name>Pornichet 14/04/2022</name>
    <desc><![CDATA[Sortie jeudi 14 avril 2022]]></desc>
  </metadata>
  <trk>
    <name><![CDATA[Pornichet Cyclisme]]></name>
    <trkseg>
      <trkpt lat="47.26357" lon="-2.31554">
        <ele>7.9</ele>
        <time>2022-04-14T07:20:25.000Z</time>
      </trkpt>
      <trkpt lat="47.26359" lon="-2.31554">
        <ele>8</ele>
        <time>2022-04-14T07:20:28.000Z</time>
      </trkpt>
      <trkpt lat="47.26365" lon="-2.31545">
        <ele>-0.40000000596046</ele>
        <time>2022-04-14T07:20:32.000Z</time>
      </trkpt>
      <trkpt lat="47.26365" lon="-2.31544">
        <ele>-0.40000000596046</ele>
        <time>2022-04-14T07:20:33.000Z</time>
      </trkpt>
      <trkpt lat="47.26359" lon="-2.3155">
        <ele>-0.40000000596046</ele>
        <time>2022-04-14T07:20:35.000Z</time>
      </trkpt>
      <trkpt lat="47.26359" lon="-2.31553">
        <ele>-0.40000000596046</ele>
        <time>2022-04-14T07:20:36.000Z</time>
      </trkpt>
      <trkpt lat="47.26362" lon="-2.31573">
        <ele>-0.40000000596046</ele>
        <time>2022-04-14T07:20:40.000Z</time>
      </trkpt>
      <trkpt lat="47.26362" lon="-2.31578">
        <ele>-0.40000000596046</ele>
        <time>2022-04-14T07:20:41.000Z</time>
      </trkpt>
      <trkpt lat="47.26365" lon="-2.31619">
        <ele>-0.40000000596046</ele>
        <time>2022-04-14T07:20:48.000Z</time>
      </trkpt>
      <trkpt lat="47.26367" lon="-2.31638">
        <ele>-0.40000000596046</ele>
        <time>2022-04-14T07:20:51.000Z</time>
      </trkpt>
      <trkpt lat="47.26366" lon="-2.31649">
        <ele>-0.40000000596046</ele>
        <time>2022-04-14T07:20:53.000Z</time>
      </trkpt>
      <trkpt lat="47.26364" lon="-2.31652">
        <ele>-0.80000001192093</ele>
        <time>2022-04-14T07:20:54.000Z</time>
      </trkpt>
      <trkpt lat="47.2636" lon="-2.31654">
        <ele>-1.2000000476837</ele>
        <time>2022-04-14T07:20:55.000Z</time>
      </trkpt>
      <trkpt lat="47.26356" lon="-2.31657">
        <ele>-1.6000000238419</ele>
        <time>2022-04-14T07:20:56.000Z</time>
      </trkpt>
      <trkpt lat="47.26352" lon="-2.31659">
        <ele>-2</ele>
        <time>2022-04-14T07:20:57.000Z</time>
      </trkpt>
      <trkpt lat="47.26347" lon="-2.31661">
        <ele>-2.5999999046326</ele>
        <time>2022-04-14T07:20:58.000Z</time>
      </trkpt>
      <trkpt lat="47.26317" lon="-2.31681">
        <ele>-2.5999999046326</ele>
        <time>2022-04-14T07:21:04.000Z</time>
      </trkpt>
      <trkpt lat="47.26295" lon="-2.31694">
        <ele>-2.5999999046326</ele>
        <time>2022-04-14T07:21:08.000Z</time>
      </trkpt>
      <trkpt lat="47.26289" lon="-2.31697">
        <ele>-3</ele>
        <time>2022-04-14T07:21:09.000Z</time>
      </trkpt>
      <trkpt lat="47.26284" lon="-2.317">
        <ele>-3.4000000953674</ele>
        <time>2022-04-14T07:21:10.000Z</time>
      </trkpt>
      <trkpt lat="47.26278" lon="-2.31703">
        <ele>-3.7999999523163</ele>
        <time>2022-04-14T07:21:11.000Z</time>
      </trkpt>
      <trkpt lat="47.26272" lon="-2.31705">
        <ele>-4.4000000953674</ele>
        <time>2022-04-14T07:21:12.000Z</time>
      </trkpt>
      <trkpt lat="47.26268" lon="-2.31709">
        <ele>-4.8000001907349</ele>
        <time>2022-04-14T07:21:13.000Z</time>
      </trkpt>
      <trkpt lat="47.26262" lon="-2.3172">
        <ele>-4.8000001907349</ele>
        <time>2022-04-14T07:21:15.000Z</time>
      </trkpt>
      <trkpt lat="47.26259" lon="-2.31728">
        <ele>-4.8000001907349</ele>
        <time>2022-04-14T07:21:17.000Z</time>
      </trkpt>
      <trkpt lat="47.2626" lon="-2.31734">
        <ele>-4.8000001907349</ele>
        <time>2022-04-14T07:21:18.000Z</time>
      </trkpt>
      <trkpt lat="47.26262" lon="-2.31757">
        <ele>-4.8000001907349</ele>
        <time>2022-04-14T07:21:22.000Z</time>
      </trkpt>
      <trkpt lat="47.26261" lon="-2.31768">
        <ele>-4.8000001907349</ele>
        <time>2022-04-14T07:21:24.000Z</time>
      </trkpt>
      <trkpt lat="47.26261" lon="-2.31781">
        <ele>-4.8000001907349</ele>
        <time>2022-04-14T07:21:26.000Z</time>
      </trkpt>
      <trkpt lat="47.26261" lon="-2.31794">
        <ele>-4.8000001907349</ele>
        <time>2022-04-14T07:21:28.000Z</time>
      </trkpt>
      <trkpt lat="47.2626" lon="-2.31801">
        <ele>-4.8000001907349</ele>
        <time>2022-04-14T07:21:29.000Z</time>
      </trkpt>
      <trkpt lat="47.26257" lon="-2.31829">
        <ele>-5.1999998092651</ele>
        <time>2022-04-14T07:21:33.000Z</time>
      </trkpt>
      <trkpt lat="47.26258" lon="-2.31836">
        <ele>-6</ele>
        <time>2022-04-14T07:21:34.000Z</time>
      </trkpt>
      <trkpt lat="47.26258" lon="-2.31843">
        <ele>-6.4000000953674</ele>
        <time>2022-04-14T07:21:35.000Z</time>
      </trkpt>
      <trkpt lat="47.26259" lon="-2.3185">
        <ele>-6.8000001907349</ele>
        <time>2022-04-14T07:21:36.000Z</time>
      </trkpt>
      <trkpt lat="47.26258" lon="-2.31863">
        <ele>-6.8000001907349</ele>
        <time>2022-04-14T07:21:38.000Z</time>
      </trkpt>
      <trkpt lat="47.26257" lon="-2.31868">
        <ele>-6.8000001907349</ele>
        <time>2022-04-14T07:21:39.000Z</time>
      </trkpt>
      <trkpt lat="47.26247" lon="-2.31886">
        <ele>-6.8000001907349</ele>
        <time>2022-04-14T07:21:44.000Z</time>
      </trkpt>
      <trkpt lat="47.26236" lon="-2.31898">
        <ele>-6.8000001907349</ele>
        <time>2022-04-14T07:21:47.000Z</time>
      </trkpt>
      <trkpt lat="47.26229" lon="-2.31909">
        <ele>-6.8000001907349</ele>
        <time>2022-04-14T07:21:49.000Z</time>
      </trkpt>
      <trkpt lat="47.26215" lon="-2.31933">
        <ele>-6.8000001907349</ele>
        <time>2022-04-14T07:21:54.000Z</time>
      </trkpt>
      <trkpt lat="47.2621" lon="-2.3194">
        <ele>-6.8000001907349</ele>
        <time>2022-04-14T07:21:56.000Z</time>
      </trkpt>
      <trkpt lat="47.262" lon="-2.31945">
        <ele>-6.8000001907349</ele>
        <time>2022-04-14T07:21:58.000Z</time>
      </trkpt>
      <trkpt lat="47.26189" lon="-2.31957">
        <ele>-6.8000001907349</ele>
        <time>2022-04-14T07:22:03.000Z</time>
      </trkpt>
      <trkpt lat="47.26176" lon="-2.31968">
        <ele>-6.8000001907349</ele>
        <time>2022-04-14T07:22:07.000Z</time>
      </trkpt>
      <trkpt lat="47.26175" lon="-2.31971">
        <ele>-6.8000001907349</ele>
        <time>2022-04-14T07:22:08.000Z</time>
      </trkpt>
      <trkpt lat="47.26169" lon="-2.31983">
        <ele>-6.8000001907349</ele>
        <time>2022-04-14T07:22:13.000Z</time>
      </trkpt>
      <trkpt lat="47.26154" lon="-2.31983">
        <ele>-6.8000001907349</ele>
        <time>2022-04-14T07:22:18.000Z</time>
      </trkpt>
      <trkpt lat="47.26141" lon="-2.31994">
        <ele>-6.8000001907349</ele>
        <time>2022-04-14T07:22:22.000Z</time>
      </trkpt>
      <trkpt lat="47.26139" lon="-2.31999">
        <ele>-6.8000001907349</ele>
        <time>2022-04-14T07:22:23.000Z</time>
      </trkpt>
      <trkpt lat="47.2613" lon="-2.32022">
        <ele>-6.8000001907349</ele>
        <time>2022-04-14T07:22:27.000Z</time>
      </trkpt>
      <trkpt lat="47.26122" lon="-2.32034">
        <ele>-6.8000001907349</ele>
        <time>2022-04-14T07:22:28.000Z</time>
      </trkpt>
      <trkpt lat="47.26117" lon="-2.32043">
        <ele>-6.8000001907349</ele>
        <time>2022-04-14T07:22:29.000Z</time>
      </trkpt>
      <trkpt lat="47.2611" lon="-2.32078">
        <ele>-6.8000001907349</ele>
        <time>2022-04-14T07:22:34.000Z</time>
      </trkpt>
      <trkpt lat="47.26093" lon="-2.32139">
        <ele>-6.8000001907349</ele>
        <time>2022-04-14T07:22:43.000Z</time>
      </trkpt>
      <trkpt lat="47.26077" lon="-2.32175">
        <ele>-6.8000001907349</ele>
        <time>2022-04-14T07:22:49.000Z</time>
      </trkpt>
      <trkpt lat="47.26071" lon="-2.32185">
        <ele>-6.8000001907349</ele>
        <time>2022-04-14T07:22:51.000Z</time>
      </trkpt>
      <trkpt lat="47.26057" lon="-2.32206">
        <ele>-6.8000001907349</ele>
        <time>2022-04-14T07:22:55.000Z</time>
      </trkpt>
      <trkpt lat="47.26033" lon="-2.32235">
        <ele>-6.8000001907349</ele>
        <time>2022-04-14T07:23:01.000Z</time>
      </trkpt>
      <trkpt lat="47.25997" lon="-2.32279">
        <ele>-6.8000001907349</ele>
        <time>2022-04-14T07:23:10.000Z</time>
      </trkpt>
      <trkpt lat="47.2597" lon="-2.32317">
        <ele>-6.8000001907349</ele>
        <time>2022-04-14T07:23:17.000Z</time>
      </trkpt>
      <trkpt lat="47.25935" lon="-2.32365">
        <ele>-6.8000001907349</ele>
        <time>2022-04-14T07:23:26.000Z</time>
      </trkpt>
      <trkpt lat="47.25911" lon="-2.32397">
        <ele>-6.4000000953674</ele>
        <time>2022-04-14T07:23:32.000Z</time>
      </trkpt>
      <trkpt lat="47.25907" lon="-2.32401">
        <ele>-6</ele>
        <time>2022-04-14T07:23:33.000Z</time>
      </trkpt>
      <trkpt lat="47.25904" lon="-2.32405">
        <ele>-5.5999999046326</ele>
        <time>2022-04-14T07:23:34.000Z</time>
      </trkpt>
      <trkpt lat="47.259" lon="-2.3241">
        <ele>-5.1999998092651</ele>
        <time>2022-04-14T07:23:35.000Z</time>
      </trkpt>
      <trkpt lat="47.25896" lon="-2.32414">
        <ele>-4.8000001907349</ele>
        <time>2022-04-14T07:23:36.000Z</time>
      </trkpt>
      <trkpt lat="47.25888" lon="-2.32431">
        <ele>-4.8000001907349</ele>
        <time>2022-04-14T07:23:40.000Z</time>
      </trkpt>
      <trkpt lat="47.25897" lon="-2.32442">
        <ele>-4.8000001907349</ele>
        <time>2022-04-14T07:23:43.000Z</time>
      </trkpt>
      <trkpt lat="47.25908" lon="-2.32456">
        <ele>-4.8000001907349</ele>
        <time>2022-04-14T07:23:46.000Z</time>
      </trkpt>
      <trkpt lat="47.25911" lon="-2.32461">
        <ele>-4.8000001907349</ele>
        <time>2022-04-14T07:23:47.000Z</time>
      </trkpt>
      <trkpt lat="47.25921" lon="-2.32495">
        <ele>-4.8000001907349</ele>
        <time>2022-04-14T07:23:52.000Z</time>
      </trkpt>
      <trkpt lat="47.25925" lon="-2.32507">
        <ele>-4.8000001907349</ele>
        <time>2022-04-14T07:23:54.000Z</time>
      </trkpt>
      <trkpt lat="47.25928" lon="-2.32521">
        <ele>-4.8000001907349</ele>
        <time>2022-04-14T07:23:56.000Z</time>
      </trkpt>
      <trkpt lat="47.25943" lon="-2.32578">
        <ele>-4.8000001907349</ele>
        <time>2022-04-14T07:24:04.000Z</time>
      </trkpt>
      <trkpt lat="47.25944" lon="-2.32585">
        <ele>-4.8000001907349</ele>
        <time>2022-04-14T07:24:05.000Z</time>
      </trkpt>
      <trkpt lat="47.25946" lon="-2.32606">
        <ele>-4.8000001907349</ele>
        <time>2022-04-14T07:24:08.000Z</time>
      </trkpt>
      <trkpt lat="47.25947" lon="-2.32613">
        <ele>-4.8000001907349</ele>
        <time>2022-04-14T07:24:09.000Z</time>
      </trkpt>
      <trkpt lat="47.25955" lon="-2.32621">
        <ele>-4.8000001907349</ele>
        <time>2022-04-14T07:24:12.000Z</time>
      </trkpt>
      <trkpt lat="47.25971" lon="-2.32623">
        <ele>-4.4000000953674</ele>
        <time>2022-04-14T07:24:16.000Z</time>
      </trkpt>
      <trkpt lat="47.25976" lon="-2.32622">
        <ele>-4</ele>
        <time>2022-04-14T07:24:17.000Z</time>
      </trkpt>
      <trkpt lat="47.2598" lon="-2.32621">
        <ele>-3.5999999046326</ele>
        <time>2022-04-14T07:24:18.000Z</time>
      </trkpt>
      <trkpt lat="47.25985" lon="-2.3262">
        <ele>-3.2000000476837</ele>
        <time>2022-04-14T07:24:19.000Z</time>
      </trkpt>
      <trkpt lat="47.25989" lon="-2.32619">
        <ele>-2.7999999523163</ele>
        <time>2022-04-14T07:24:20.000Z</time>
      </trkpt>
      <trkpt lat="47.26031" lon="-2.32614">
        <ele>-2.7999999523163</ele>
        <time>2022-04-14T07:24:29.000Z</time>
      </trkpt>
      <trkpt lat="47.26041" lon="-2.32613">
        <ele>-2.4000000953674</ele>
        <time>2022-04-14T07:24:31.000Z</time>
      </trkpt>
      <trkpt lat="47.26046" lon="-2.32611">
        <ele>-2</ele>
        <time>2022-04-14T07:24:32.000Z</time>
      </trkpt>
      <trkpt lat="47.2605" lon="-2.32611">
        <ele>-1.6000000238419</ele>
        <time>2022-04-14T07:24:33.000Z</time>
      </trkpt>
      <trkpt lat="47.26055" lon="-2.32609">
        <ele>-1.2000000476837</ele>
        <time>2022-04-14T07:24:34.000Z</time>
      </trkpt>
      <trkpt lat="47.2606" lon="-2.32609">
        <ele>-0.80000001192093</ele>
        <time>2022-04-14T07:24:35.000Z</time>
      </trkpt>
      <trkpt lat="47.26074" lon="-2.32607">
        <ele>-0.80000001192093</ele>
        <time>2022-04-14T07:24:38.000Z</time>
      </trkpt>
      <trkpt lat="47.26107" lon="-2.32606">
        <ele>-0.80000001192093</ele>
        <time>2022-04-14T07:24:45.000Z</time>
      </trkpt>
      <trkpt lat="47.26135" lon="-2.32613">
        <ele>-0.80000001192093</ele>
        <time>2022-04-14T07:24:51.000Z</time>
      </trkpt>
      <trkpt lat="47.26144" lon="-2.32617">
        <ele>-0.40000000596046</ele>
        <time>2022-04-14T07:24:53.000Z</time>
      </trkpt>
      <trkpt lat="47.26149" lon="-2.32619">
        <ele>8.3</ele>
        <time>2022-04-14T07:24:54.000Z</time>
      </trkpt>
      <trkpt lat="47.26154" lon="-2.32622">
        <ele>0.60000002384186</ele>
        <time>2022-04-14T07:24:55.000Z</time>
      </trkpt>
      <trkpt lat="47.26159" lon="-2.32625">
        <ele>1</ele>
        <time>2022-04-14T07:24:56.000Z</time>
      </trkpt>
      <trkpt lat="47.26163" lon="-2.32629">
        <ele>1.3999999761581</ele>
        <time>2022-04-14T07:24:57.000Z</time>
      </trkpt>
      <trkpt lat="47.26175" lon="-2.32639">
        <ele>1.3999999761581</ele>
        <time>2022-04-14T07:24:59.000Z</time>
      </trkpt>
      <trkpt lat="47.2621" lon="-2.32677">
        <ele>1.3999999761581</ele>
        <time>2022-04-14T07:25:06.000Z</time>
      </trkpt>
      <trkpt lat="47.26242" lon="-2.32723">
        <ele>1.3999999761581</ele>
        <time>2022-04-14T07:25:13.000Z</time>
      </trkpt>
      <trkpt lat="47.26271" lon="-2.32774">
        <ele>1.3999999761581</ele>
        <time>2022-04-14T07:25:20.000Z</time>
      </trkpt>
      <trkpt lat="47.26285" lon="-2.32821">
        <ele>1.3999999761581</ele>
        <time>2022-04-14T07:25:26.000Z</time>
      </trkpt>
      <trkpt lat="47.26286" lon="-2.32829">
        <ele>1.3999999761581</ele>
        <time>2022-04-14T07:25:27.000Z</time>
      </trkpt>
      <trkpt lat="47.26296" lon="-2.32849">
        <ele>1.3999999761581</ele>
        <time>2022-04-14T07:25:30.000Z</time>
      </trkpt>
      <trkpt lat="47.26312" lon="-2.32857">
        <ele>1.3999999761581</ele>
        <time>2022-04-14T07:25:33.000Z</time>
      </trkpt>
      <trkpt lat="47.26317" lon="-2.32862">
        <ele>1.3999999761581</ele>
        <time>2022-04-14T07:25:34.000Z</time>
      </trkpt>
      <trkpt lat="47.26323" lon="-2.32877">
        <ele>1.3999999761581</ele>
        <time>2022-04-14T07:25:36.000Z</time>
      </trkpt>
      <trkpt lat="47.26328" lon="-2.32893">
        <ele>1.3999999761581</ele>
        <time>2022-04-14T07:25:38.000Z</time>
      </trkpt>
      <trkpt lat="47.26341" lon="-2.32931">
        <ele>1.3999999761581</ele>
        <time>2022-04-14T07:25:43.000Z</time>
      </trkpt>
      <trkpt lat="47.26354" lon="-2.32967">
        <ele>1.3999999761581</ele>
        <time>2022-04-14T07:25:48.000Z</time>
      </trkpt>
      <trkpt lat="47.26362" lon="-2.32977">
        <ele>1.3999999761581</ele>
        <time>2022-04-14T07:25:50.000Z</time>
      </trkpt>
      <trkpt lat="47.26367" lon="-2.32999">
        <ele>1.3999999761581</ele>
        <time>2022-04-14T07:25:53.000Z</time>
      </trkpt>
      <trkpt lat="47.26368" lon="-2.33015">
        <ele>1.3999999761581</ele>
        <time>2022-04-14T07:25:55.000Z</time>
      </trkpt>
      <trkpt lat="47.2637" lon="-2.33047">
        <ele>1.3999999761581</ele>
        <time>2022-04-14T07:25:59.000Z</time>
      </trkpt>
      <trkpt lat="47.26374" lon="-2.33124">
        <ele>1.3999999761581</ele>
        <time>2022-04-14T07:26:08.000Z</time>
      </trkpt>
      <trkpt lat="47.26379" lon="-2.33205">
        <ele>1.3999999761581</ele>
        <time>2022-04-14T07:26:18.000Z</time>
      </trkpt>
      <trkpt lat="47.26382" lon="-2.33244">
        <ele>1.7999999523163</ele>
        <time>2022-04-14T07:26:23.000Z</time>
      </trkpt>
      <trkpt lat="47.26385" lon="-2.33252">
        <ele>2.2000000476837</ele>
        <time>2022-04-14T07:26:24.000Z</time>
      </trkpt>
      <trkpt lat="47.26387" lon="-2.33258">
        <ele>2.5999999046326</ele>
        <time>2022-04-14T07:26:25.000Z</time>
      </trkpt>
      <trkpt lat="47.26391" lon="-2.33262">
        <ele>3</ele>
        <time>2022-04-14T07:26:26.000Z</time>
      </trkpt>
      <trkpt lat="47.26396" lon="-2.33264">
        <ele>3.4000000953674</ele>
        <time>2022-04-14T07:26:27.000Z</time>
      </trkpt>
      <trkpt lat="47.26401" lon="-2.33266">
        <ele>3.4000000953674</ele>
        <time>2022-04-14T07:26:28.000Z</time>
      </trkpt>
      <trkpt lat="47.26417" lon="-2.33268">
        <ele>3.4000000953674</ele>
        <time>2022-04-14T07:26:31.000Z</time>
      </trkpt>
      <trkpt lat="47.26428" lon="-2.33268">
        <ele>3.4000000953674</ele>
        <time>2022-04-14T07:26:33.000Z</time>
      </trkpt>
      <trkpt lat="47.26468" lon="-2.33274">
        <ele>3.4000000953674</ele>
        <time>2022-04-14T07:26:41.000Z</time>
      </trkpt>
      <trkpt lat="47.26502" lon="-2.3328">
        <ele>3.7999999523163</ele>
        <time>2022-04-14T07:26:48.000Z</time>
      </trkpt>
      <trkpt lat="47.26506" lon="-2.33283">
        <ele>4.1999998092651</ele>
        <time>2022-04-14T07:26:49.000Z</time>
      </trkpt>
      <trkpt lat="47.2651" lon="-2.33287">
        <ele>4.5999999046326</ele>
        <time>2022-04-14T07:26:50.000Z</time>
      </trkpt>
      <trkpt lat="47.26515" lon="-2.3329">
        <ele>5</ele>
        <time>2022-04-14T07:26:51.000Z</time>
      </trkpt>
      <trkpt lat="47.26518" lon="-2.33294">
        <ele>5.4000000953674</ele>
        <time>2022-04-14T07:26:52.000Z</time>
      </trkpt>
      <trkpt lat="47.26528" lon="-2.33319">
        <ele>5.4000000953674</ele>
        <time>2022-04-14T07:26:56.000Z</time>
      </trkpt>
      <trkpt lat="47.26527" lon="-2.33342">
        <ele>5.4000000953674</ele>
        <time>2022-04-14T07:26:59.000Z</time>
      </trkpt>
      <trkpt lat="47.26534" lon="-2.3338">
        <ele>5.4000000953674</ele>
        <time>2022-04-14T07:27:04.000Z</time>
      </trkpt>
      <trkpt lat="47.26543" lon="-2.33409">
        <ele>5.4000000953674</ele>
        <time>2022-04-14T07:27:08.000Z</time>
      </trkpt>
      <trkpt lat="47.26546" lon="-2.33425">
        <ele>5.4000000953674</ele>
        <time>2022-04-14T07:27:10.000Z</time>
      </trkpt>
      <trkpt lat="47.26554" lon="-2.3348">
        <ele>5.4000000953674</ele>
        <time>2022-04-14T07:27:17.000Z</time>
      </trkpt>
      <trkpt lat="47.26563" lon="-2.33537">
        <ele>5.8000001907349</ele>
        <time>2022-04-14T07:27:25.000Z</time>
      </trkpt>
      <trkpt lat="47.26564" lon="-2.33543">
        <ele>6.1999998092651</ele>
        <time>2022-04-14T07:27:26.000Z</time>
      </trkpt>
      <trkpt lat="47.26566" lon="-2.3355">
        <ele>6.5999999046326</ele>
        <time>2022-04-14T07:27:27.000Z</time>
      </trkpt>
      <trkpt lat="47.26566" lon="-2.33558">
        <ele>7</ele>
        <time>2022-04-14T07:27:28.000Z</time>
      </trkpt>
      <trkpt lat="47.26567" lon="-2.33565">
        <ele>7.5999999046326</ele>
        <time>2022-04-14T07:27:29.000Z</time>
      </trkpt>
      <trkpt lat="47.26571" lon="-2.33593">
        <ele>7.5999999046326</ele>
        <time>2022-04-14T07:27:33.000Z</time>
      </trkpt>
      <trkpt lat="47.26578" lon="-2.3364">
        <ele>8</ele>
        <time>2022-04-14T07:27:40.000Z</time>
      </trkpt>
      <trkpt lat="47.26579" lon="-2.33646">
        <ele>8.3999996185303</ele>
        <time>2022-04-14T07:27:41.000Z</time>
      </trkpt>
      <trkpt lat="47.2658" lon="-2.33653">
        <ele>8.8000001907349</ele>
        <time>2022-04-14T07:27:42.000Z</time>
      </trkpt>
      <trkpt lat="47.26581" lon="-2.33659">
        <ele>9.1999998092651</ele>
        <time>2022-04-14T07:27:43.000Z</time>
      </trkpt>
      <trkpt lat="47.26583" lon="-2.33664">
        <ele>9.6000003814697</ele>
        <time>2022-04-14T07:27:44.000Z</time>
      </trkpt>
      <trkpt lat="47.26588" lon="-2.33674">
        <ele>9.6000003814697</ele>
        <time>2022-04-14T07:27:46.000Z</time>
      </trkpt>
      <trkpt lat="47.26593" lon="-2.33684">
        <ele>9.6000003814697</ele>
        <time>2022-04-14T07:27:48.000Z</time>
      </trkpt>
      <trkpt lat="47.26596" lon="-2.3369">
        <ele>10</ele>
        <time>2022-04-14T07:27:49.000Z</time>
      </trkpt>
      <trkpt lat="47.266" lon="-2.33694">
        <ele>10.60000038147</ele>
        <time>2022-04-14T07:27:50.000Z</time>
      </trkpt>
      <trkpt lat="47.26603" lon="-2.33698">
        <ele>11</ele>
        <time>2022-04-14T07:27:51.000Z</time>
      </trkpt>
      <trkpt lat="47.26606" lon="-2.33701">
        <ele>11.39999961853</ele>
        <time>2022-04-14T07:27:52.000Z</time>
      </trkpt>
      <trkpt lat="47.26609" lon="-2.33706">
        <ele>11.800000190735</ele>
        <time>2022-04-14T07:27:53.000Z</time>
      </trkpt>
      <trkpt lat="47.26612" lon="-2.33711">
        <ele>11.800000190735</ele>
        <time>2022-04-14T07:27:54.000Z</time>
      </trkpt>
      <trkpt lat="47.26624" lon="-2.33731">
        <ele>11.800000190735</ele>
        <time>2022-04-14T07:27:58.000Z</time>
      </trkpt>
      <trkpt lat="47.2663" lon="-2.33742">
        <ele>11.800000190735</ele>
        <time>2022-04-14T07:28:00.000Z</time>
      </trkpt>
      <trkpt lat="47.26641" lon="-2.33756">
        <ele>11.800000190735</ele>
        <time>2022-04-14T07:28:03.000Z</time>
      </trkpt>
      <trkpt lat="47.26647" lon="-2.33767">
        <ele>12.199999809265</ele>
        <time>2022-04-14T07:28:05.000Z</time>
      </trkpt>
      <trkpt lat="47.2665" lon="-2.33772">
        <ele>12.60000038147</ele>
        <time>2022-04-14T07:28:06.000Z</time>
      </trkpt>
      <trkpt lat="47.26653" lon="-2.33778">
        <ele>13</ele>
        <time>2022-04-14T07:28:07.000Z</time>
      </trkpt>
      <trkpt lat="47.26656" lon="-2.33783">
        <ele>13.39999961853</ele>
        <time>2022-04-14T07:28:08.000Z</time>
      </trkpt>
      <trkpt lat="47.2666" lon="-2.33788">
        <ele>13.800000190735</ele>
        <time>2022-04-14T07:28:09.000Z</time>
      </trkpt>
      <trkpt lat="47.26663" lon="-2.33794">
        <ele>13.800000190735</ele>
        <time>2022-04-14T07:28:10.000Z</time>
      </trkpt>
      <trkpt lat="47.26687" lon="-2.33831">
        <ele>13.800000190735</ele>
        <time>2022-04-14T07:28:17.000Z</time>
      </trkpt>
      <trkpt lat="47.26697" lon="-2.33848">
        <ele>13.800000190735</ele>
        <time>2022-04-14T07:28:20.000Z</time>
      </trkpt>
      <trkpt lat="47.26707" lon="-2.33863">
        <ele>13.800000190735</ele>
        <time>2022-04-14T07:28:23.000Z</time>
      </trkpt>
      <trkpt lat="47.26721" lon="-2.33886">
        <ele>14.199999809265</ele>
        <time>2022-04-14T07:28:27.000Z</time>
      </trkpt>
      <trkpt lat="47.26724" lon="-2.33891">
        <ele>14.60000038147</ele>
        <time>2022-04-14T07:28:28.000Z</time>
      </trkpt>
      <trkpt lat="47.26728" lon="-2.33897">
        <ele>15</ele>
        <time>2022-04-14T07:28:29.000Z</time>
      </trkpt>
      <trkpt lat="47.26732" lon="-2.33902">
        <ele>15.39999961853</ele>
        <time>2022-04-14T07:28:30.000Z</time>
      </trkpt>
      <trkpt lat="47.26735" lon="-2.33908">
        <ele>15.800000190735</ele>
        <time>2022-04-14T07:28:31.000Z</time>
      </trkpt>
      <trkpt lat="47.26756" lon="-2.33941">
        <ele>15.800000190735</ele>
        <time>2022-04-14T07:28:37.000Z</time>
      </trkpt>
      <trkpt lat="47.26763" lon="-2.33953">
        <ele>15.800000190735</ele>
        <time>2022-04-14T07:28:39.000Z</time>
      </trkpt>
      <trkpt lat="47.26774" lon="-2.33968">
        <ele>15.800000190735</ele>
        <time>2022-04-14T07:28:42.000Z</time>
      </trkpt>
      <trkpt lat="47.26796" lon="-2.34002">
        <ele>16.200000762939</ele>
        <time>2022-04-14T07:28:48.000Z</time>
      </trkpt>
      <trkpt lat="47.26799" lon="-2.34007">
        <ele>16.60000038147</ele>
        <time>2022-04-14T07:28:49.000Z</time>
      </trkpt>
      <trkpt lat="47.26803" lon="-2.34013">
        <ele>17</ele>
        <time>2022-04-14T07:28:50.000Z</time>
      </trkpt>
      <trkpt lat="47.26806" lon="-2.34019">
        <ele>17.39999961853</ele>
        <time>2022-04-14T07:28:51.000Z</time>
      </trkpt>
      <trkpt lat="47.26809" lon="-2.34024">
        <ele>18</ele>
        <time>2022-04-14T07:28:52.000Z</time>
      </trkpt>
      <trkpt lat="47.2682" lon="-2.34041">
        <ele>18</ele>
        <time>2022-04-14T07:28:55.000Z</time>
      </trkpt>
      <trkpt lat="47.26848" lon="-2.34085">
        <ele>18</ele>
        <time>2022-04-14T07:29:03.000Z</time>
      </trkpt>
      <trkpt lat="47.26868" lon="-2.34119">
        <ele>18</ele>
        <time>2022-04-14T07:29:09.000Z</time>
      </trkpt>
      <trkpt lat="47.26878" lon="-2.34136">
        <ele>18</ele>
        <time>2022-04-14T07:29:12.000Z</time>
      </trkpt>
      <trkpt lat="47.26882" lon="-2.34141">
        <ele>18.39999961853</ele>
        <time>2022-04-14T07:29:13.000Z</time>
      </trkpt>
      <trkpt lat="47.26886" lon="-2.34146">
        <ele>18.799999237061</ele>
        <time>2022-04-14T07:29:14.000Z</time>
      </trkpt>
      <trkpt lat="47.26889" lon="-2.34152">
        <ele>19.200000762939</ele>
        <time>2022-04-14T07:29:15.000Z</time>
      </trkpt>
      <trkpt lat="47.26893" lon="-2.34157">
        <ele>19.60000038147</ele>
        <time>2022-04-14T07:29:16.000Z</time>
      </trkpt>
      <trkpt lat="47.26897" lon="-2.34163">
        <ele>20.200000762939</ele>
        <time>2022-04-14T07:29:17.000Z</time>
      </trkpt>
      <trkpt lat="47.269" lon="-2.34169">
        <ele>20.200000762939</ele>
        <time>2022-04-14T07:29:18.000Z</time>
      </trkpt>
      <trkpt lat="47.2693" lon="-2.34214">
        <ele>20.200000762939</ele>
        <time>2022-04-14T07:29:26.000Z</time>
      </trkpt>
      <trkpt lat="47.26964" lon="-2.34266">
        <ele>20.200000762939</ele>
        <time>2022-04-14T07:29:35.000Z</time>
      </trkpt>
      <trkpt lat="47.26983" lon="-2.34297">
        <ele>20.200000762939</ele>
        <time>2022-04-14T07:29:41.000Z</time>
      </trkpt>
      <trkpt lat="47.26988" lon="-2.34308">
        <ele>20.200000762939</ele>
        <time>2022-04-14T07:29:43.000Z</time>
      </trkpt>
      <trkpt lat="47.27002" lon="-2.34317">
        <ele>20.200000762939</ele>
        <time>2022-04-14T07:29:47.000Z</time>
      </trkpt>
      <trkpt lat="47.27007" lon="-2.34317">
        <ele>20.200000762939</ele>
        <time>2022-04-14T07:29:48.000Z</time>
      </trkpt>
      <trkpt lat="47.27024" lon="-2.34319">
        <ele>20.60000038147</ele>
        <time>2022-04-14T07:29:52.000Z</time>
      </trkpt>
      <trkpt lat="47.27029" lon="-2.34319">
        <ele>21</ele>
        <time>2022-04-14T07:29:53.000Z</time>
      </trkpt>
      <trkpt lat="47.27033" lon="-2.34322">
        <ele>21.39999961853</ele>
        <time>2022-04-14T07:29:54.000Z</time>
      </trkpt>
      <trkpt lat="47.27037" lon="-2.34326">
        <ele>21.799999237061</ele>
        <time>2022-04-14T07:29:55.000Z</time>
      </trkpt>
      <trkpt lat="47.2704" lon="-2.34332">
        <ele>22.200000762939</ele>
        <time>2022-04-14T07:29:56.000Z</time>
      </trkpt>
      <trkpt lat="47.27042" lon="-2.3434">
        <ele>22.200000762939</ele>
        <time>2022-04-14T07:29:57.000Z</time>
      </trkpt>
      <trkpt lat="47.27043" lon="-2.34347">
        <ele>22.200000762939</ele>
        <time>2022-04-14T07:29:58.000Z</time>
      </trkpt>
      <trkpt lat="47.27053" lon="-2.34392">
        <ele>22.200000762939</ele>
        <time>2022-04-14T07:30:04.000Z</time>
      </trkpt>
      <trkpt lat="47.27072" lon="-2.34474">
        <ele>22.200000762939</ele>
        <time>2022-04-14T07:30:15.000Z</time>
      </trkpt>
      <trkpt lat="47.27085" lon="-2.34532">
        <ele>22.60000038147</ele>
        <time>2022-04-14T07:30:23.000Z</time>
      </trkpt>
      <trkpt lat="47.27087" lon="-2.34539">
        <ele>23</ele>
        <time>2022-04-14T07:30:24.000Z</time>
      </trkpt>
      <trkpt lat="47.27089" lon="-2.34546">
        <ele>23.39999961853</ele>
        <time>2022-04-14T07:30:25.000Z</time>
      </trkpt>
      <trkpt lat="47.2709" lon="-2.34553">
        <ele>23.799999237061</ele>
        <time>2022-04-14T07:30:26.000Z</time>
      </trkpt>
      <trkpt lat="47.27092" lon="-2.34561">
        <ele>24.200000762939</ele>
        <time>2022-04-14T07:30:27.000Z</time>
      </trkpt>
      <trkpt lat="47.27102" lon="-2.34606">
        <ele>24.200000762939</ele>
        <time>2022-04-14T07:30:33.000Z</time>
      </trkpt>
      <trkpt lat="47.2712" lon="-2.34684">
        <ele>24.200000762939</ele>
        <time>2022-04-14T07:30:42.000Z</time>
      </trkpt>
      <trkpt lat="47.27137" lon="-2.3476">
        <ele>24.200000762939</ele>
        <time>2022-04-14T07:30:51.000Z</time>
      </trkpt>
      <trkpt lat="47.27144" lon="-2.34794">
        <ele>24.200000762939</ele>
        <time>2022-04-14T07:30:55.000Z</time>
      </trkpt>
      <trkpt lat="47.27146" lon="-2.34802">
        <ele>24.60000038147</ele>
        <time>2022-04-14T07:30:56.000Z</time>
      </trkpt>
      <trkpt lat="47.27147" lon="-2.34811">
        <ele>25</ele>
        <time>2022-04-14T07:30:57.000Z</time>
      </trkpt>
      <trkpt lat="47.27149" lon="-2.34819">
        <ele>25.39999961853</ele>
        <time>2022-04-14T07:30:58.000Z</time>
      </trkpt>
      <trkpt lat="47.27151" lon="-2.34827">
        <ele>25.799999237061</ele>
        <time>2022-04-14T07:30:59.000Z</time>
      </trkpt>
      <trkpt lat="47.27153" lon="-2.34836">
        <ele>26.200000762939</ele>
        <time>2022-04-14T07:31:00.000Z</time>
      </trkpt>
      <trkpt lat="47.27164" lon="-2.34884">
        <ele>26.200000762939</ele>
        <time>2022-04-14T07:31:06.000Z</time>
      </trkpt>
      <trkpt lat="47.27179" lon="-2.3493">
        <ele>26.200000762939</ele>
        <time>2022-04-14T07:31:12.000Z</time>
      </trkpt>
      <trkpt lat="47.27186" lon="-2.34953">
        <ele>26.60000038147</ele>
        <time>2022-04-14T07:31:15.000Z</time>
      </trkpt>
      <trkpt lat="47.27188" lon="-2.3496">
        <ele>27</ele>
        <time>2022-04-14T07:31:16.000Z</time>
      </trkpt>
      <trkpt lat="47.27191" lon="-2.34968">
        <ele>27.39999961853</ele>
        <time>2022-04-14T07:31:17.000Z</time>
      </trkpt>
      <trkpt lat="47.27194" lon="-2.34975">
        <ele>27.799999237061</ele>
        <time>2022-04-14T07:31:18.000Z</time>
      </trkpt>
      <trkpt lat="47.27196" lon="-2.34983">
        <ele>28.39999961853</ele>
        <time>2022-04-14T07:31:19.000Z</time>
      </trkpt>
      <trkpt lat="47.27216" lon="-2.35038">
        <ele>28.39999961853</ele>
        <time>2022-04-14T07:31:27.000Z</time>
      </trkpt>
      <trkpt lat="47.2724" lon="-2.35095">
        <ele>28.39999961853</ele>
        <time>2022-04-14T07:31:35.000Z</time>
      </trkpt>
      <trkpt lat="47.27252" lon="-2.35119">
        <ele>28.39999961853</ele>
        <time>2022-04-14T07:31:39.000Z</time>
      </trkpt>
      <trkpt lat="47.27259" lon="-2.35121">
        <ele>28.39999961853</ele>
        <time>2022-04-14T07:31:41.000Z</time>
      </trkpt>
      <trkpt lat="47.27268" lon="-2.35116">
        <ele>28.39999961853</ele>
        <time>2022-04-14T07:31:43.000Z</time>
      </trkpt>
      <trkpt lat="47.27272" lon="-2.35114">
        <ele>28.799999237061</ele>
        <time>2022-04-14T07:31:44.000Z</time>
      </trkpt>
      <trkpt lat="47.27276" lon="-2.35112">
        <ele>29.200000762939</ele>
        <time>2022-04-14T07:31:45.000Z</time>
      </trkpt>
      <trkpt lat="47.2728" lon="-2.35111">
        <ele>29.60000038147</ele>
        <time>2022-04-14T07:31:46.000Z</time>
      </trkpt>
      <trkpt lat="47.27284" lon="-2.35109">
        <ele>30</ele>
        <time>2022-04-14T07:31:47.000Z</time>
      </trkpt>
      <trkpt lat="47.27288" lon="-2.35107">
        <ele>30.39999961853</ele>
        <time>2022-04-14T07:31:48.000Z</time>
      </trkpt>
      <trkpt lat="47.27296" lon="-2.35103">
        <ele>30.39999961853</ele>
        <time>2022-04-14T07:31:51.000Z</time>
      </trkpt>
      <trkpt lat="47.27304" lon="-2.35098">
        <ele>30.39999961853</ele>
        <time>2022-04-14T07:31:56.000Z</time>
      </trkpt>
      <trkpt lat="47.2731" lon="-2.35093">
        <ele>30.799999237061</ele>
        <time>2022-04-14T07:31:58.000Z</time>
      </trkpt>
      <trkpt lat="47.27313" lon="-2.35091">
        <ele>31.200000762939</ele>
        <time>2022-04-14T07:31:59.000Z</time>
      </trkpt>
      <trkpt lat="47.27316" lon="-2.35089">
        <ele>31.799999237061</ele>
        <time>2022-04-14T07:32:00.000Z</time>
      </trkpt>
      <trkpt lat="47.27319" lon="-2.35087">
        <ele>32.200000762939</ele>
        <time>2022-04-14T07:32:01.000Z</time>
      </trkpt>
      <trkpt lat="47.27322" lon="-2.35086">
        <ele>32.599998474121</ele>
        <time>2022-04-14T07:32:02.000Z</time>
      </trkpt>
      <trkpt lat="47.27332" lon="-2.35082">
        <ele>33</ele>
        <time>2022-04-14T07:32:05.000Z</time>
      </trkpt>
      <trkpt lat="47.27336" lon="-2.35081">
        <ele>33.400001525879</ele>
        <time>2022-04-14T07:32:06.000Z</time>
      </trkpt>
      <trkpt lat="47.27339" lon="-2.3508">
        <ele>34</ele>
        <time>2022-04-14T07:32:07.000Z</time>
      </trkpt>
      <trkpt lat="47.27342" lon="-2.35079">
        <ele>34.400001525879</ele>
        <time>2022-04-14T07:32:08.000Z</time>
      </trkpt>
      <trkpt lat="47.27345" lon="-2.35078">
        <ele>34.799999237061</ele>
        <time>2022-04-14T07:32:09.000Z</time>
      </trkpt>
      <trkpt lat="47.27359" lon="-2.35071">
        <ele>35.200000762939</ele>
        <time>2022-04-14T07:32:13.000Z</time>
      </trkpt>
      <trkpt lat="47.27363" lon="-2.35069">
        <ele>35.599998474121</ele>
        <time>2022-04-14T07:32:14.000Z</time>
      </trkpt>
      <trkpt lat="47.27366" lon="-2.35067">
        <ele>36.200000762939</ele>
        <time>2022-04-14T07:32:15.000Z</time>
      </trkpt>
      <trkpt lat="47.27369" lon="-2.35066">
        <ele>37</ele>
        <time>2022-04-14T07:32:16.000Z</time>
      </trkpt>
      <trkpt lat="47.27385" lon="-2.35057">
        <ele>37</ele>
        <time>2022-04-14T07:32:21.000Z</time>
      </trkpt>
      <trkpt lat="47.27393" lon="-2.35056">
        <ele>37</ele>
        <time>2022-04-14T07:32:24.000Z</time>
      </trkpt>
      <trkpt lat="47.27395" lon="-2.35057">
        <ele>37.400001525879</ele>
        <time>2022-04-14T07:32:25.000Z</time>
      </trkpt>
      <trkpt lat="47.27397" lon="-2.35061">
        <ele>37.799999237061</ele>
        <time>2022-04-14T07:32:26.000Z</time>
      </trkpt>
      <trkpt lat="47.27398" lon="-2.35066">
        <ele>38.200000762939</ele>
        <time>2022-04-14T07:32:27.000Z</time>
      </trkpt>
      <trkpt lat="47.274" lon="-2.35071">
        <ele>38.599998474121</ele>
        <time>2022-04-14T07:32:28.000Z</time>
      </trkpt>
      <trkpt lat="47.27402" lon="-2.35076">
        <ele>39</ele>
        <time>2022-04-14T07:32:29.000Z</time>
      </trkpt>
      <trkpt lat="47.27407" lon="-2.35094">
        <ele>39</ele>
        <time>2022-04-14T07:32:32.000Z</time>
      </trkpt>
      <trkpt lat="47.27417" lon="-2.35139">
        <ele>39</ele>
        <time>2022-04-14T07:32:40.000Z</time>
      </trkpt>
      <trkpt lat="47.27424" lon="-2.35167">
        <ele>39</ele>
        <time>2022-04-14T07:32:45.000Z</time>
      </trkpt>
      <trkpt lat="47.27427" lon="-2.35171">
        <ele>39</ele>
        <time>2022-04-14T07:32:46.000Z</time>
      </trkpt>
      <trkpt lat="47.27439" lon="-2.35169">
        <ele>39</ele>
        <time>2022-04-14T07:32:49.000Z</time>
      </trkpt>
      <trkpt lat="47.27446" lon="-2.35165">
        <ele>39</ele>
        <time>2022-04-14T07:32:51.000Z</time>
      </trkpt>
      <trkpt lat="47.2745" lon="-2.35163">
        <ele>39.400001525879</ele>
        <time>2022-04-14T07:32:52.000Z</time>
      </trkpt>
      <trkpt lat="47.27453" lon="-2.35161">
        <ele>39.799999237061</ele>
        <time>2022-04-14T07:32:53.000Z</time>
      </trkpt>
      <trkpt lat="47.27457" lon="-2.35159">
        <ele>40.400001525879</ele>
        <time>2022-04-14T07:32:54.000Z</time>
      </trkpt>
      <trkpt lat="47.2746" lon="-2.35157">
        <ele>40.799999237061</ele>
        <time>2022-04-14T07:32:55.000Z</time>
      </trkpt>
      <trkpt lat="47.27464" lon="-2.35155">
        <ele>41.200000762939</ele>
        <time>2022-04-14T07:32:56.000Z</time>
      </trkpt>
      <trkpt lat="47.27475" lon="-2.35151">
        <ele>41.599998474121</ele>
        <time>2022-04-14T07:32:59.000Z</time>
      </trkpt>
      <trkpt lat="47.27479" lon="-2.35149">
        <ele>42</ele>
        <time>2022-04-14T07:33:00.000Z</time>
      </trkpt>
      <trkpt lat="47.27482" lon="-2.35147">
        <ele>42.400001525879</ele>
        <time>2022-04-14T07:33:01.000Z</time>
      </trkpt>
      <trkpt lat="47.27486" lon="-2.35145">
        <ele>42.799999237061</ele>
        <time>2022-04-14T07:33:02.000Z</time>
      </trkpt>
      <trkpt lat="47.2749" lon="-2.35143">
        <ele>43.200000762939</ele>
        <time>2022-04-14T07:33:03.000Z</time>
      </trkpt>
      <trkpt lat="47.27502" lon="-2.35131">
        <ele>43.200000762939</ele>
        <time>2022-04-14T07:33:07.000Z</time>
      </trkpt>
      <trkpt lat="47.27507" lon="-2.35127">
        <ele>43.200000762939</ele>
        <time>2022-04-14T07:33:09.000Z</time>
      </trkpt>
      <trkpt lat="47.27513" lon="-2.35127">
        <ele>43.200000762939</ele>
        <time>2022-04-14T07:33:11.000Z</time>
      </trkpt>
      <trkpt lat="47.27516" lon="-2.35127">
        <ele>43.599998474121</ele>
        <time>2022-04-14T07:33:12.000Z</time>
      </trkpt>
      <trkpt lat="47.27519" lon="-2.35127">
        <ele>44.200000762939</ele>
        <time>2022-04-14T07:33:13.000Z</time>
      </trkpt>
      <trkpt lat="47.27522" lon="-2.35127">
        <ele>44.599998474121</ele>
        <time>2022-04-14T07:33:14.000Z</time>
      </trkpt>
      <trkpt lat="47.27526" lon="-2.35129">
        <ele>45</ele>
        <time>2022-04-14T07:33:15.000Z</time>
      </trkpt>
      <trkpt lat="47.2753" lon="-2.35131">
        <ele>45.400001525879</ele>
        <time>2022-04-14T07:33:16.000Z</time>
      </trkpt>
      <trkpt lat="47.27534" lon="-2.35131">
        <ele>45.400001525879</ele>
        <time>2022-04-14T07:33:17.000Z</time>
      </trkpt>
      <trkpt lat="47.27554" lon="-2.35128">
        <ele>45.400001525879</ele>
        <time>2022-04-14T07:33:22.000Z</time>
      </trkpt>
      <trkpt lat="47.27587" lon="-2.35124">
        <ele>45.400001525879</ele>
        <time>2022-04-14T07:33:29.000Z</time>
      </trkpt>
      <trkpt lat="47.27591" lon="-2.35125">
        <ele>45.400001525879</ele>
        <time>2022-04-14T07:33:30.000Z</time>
      </trkpt>
      <trkpt lat="47.276" lon="-2.35148">
        <ele>45.400001525879</ele>
        <time>2022-04-14T07:33:33.000Z</time>
      </trkpt>
      <trkpt lat="47.27609" lon="-2.35171">
        <ele>45.400001525879</ele>
        <time>2022-04-14T07:33:36.000Z</time>
      </trkpt>
      <trkpt lat="47.27625" lon="-2.35174">
        <ele>45.400001525879</ele>
        <time>2022-04-14T07:33:39.000Z</time>
      </trkpt>
      <trkpt lat="47.27631" lon="-2.35173">
        <ele>45.400001525879</ele>
        <time>2022-04-14T07:33:40.000Z</time>
      </trkpt>
      <trkpt lat="47.27658" lon="-2.35171">
        <ele>45.400001525879</ele>
        <time>2022-04-14T07:33:45.000Z</time>
      </trkpt>
      <trkpt lat="47.27669" lon="-2.35187">
        <ele>45.400001525879</ele>
        <time>2022-04-14T07:33:48.000Z</time>
      </trkpt>
      <trkpt lat="47.27669" lon="-2.35204">
        <ele>45.400001525879</ele>
        <time>2022-04-14T07:33:50.000Z</time>
      </trkpt>
      <trkpt lat="47.27671" lon="-2.35217">
        <ele>45.400001525879</ele>
        <time>2022-04-14T07:33:52.000Z</time>
      </trkpt>
      <trkpt lat="47.27674" lon="-2.35221">
        <ele>45</ele>
        <time>2022-04-14T07:33:53.000Z</time>
      </trkpt>
      <trkpt lat="47.27677" lon="-2.35222">
        <ele>44.400001525879</ele>
        <time>2022-04-14T07:33:54.000Z</time>
      </trkpt>
      <trkpt lat="47.27682" lon="-2.35222">
        <ele>43.599998474121</ele>
        <time>2022-04-14T07:33:55.000Z</time>
      </trkpt>
      <trkpt lat="47.27687" lon="-2.35221">
        <ele>43.200000762939</ele>
        <time>2022-04-14T07:33:56.000Z</time>
      </trkpt>
      <trkpt lat="47.27697" lon="-2.35217">
        <ele>43.200000762939</ele>
        <time>2022-04-14T07:33:58.000Z</time>
      </trkpt>
      <trkpt lat="47.27709" lon="-2.35213">
        <ele>43.200000762939</ele>
        <time>2022-04-14T07:34:00.000Z</time>
      </trkpt>
      <trkpt lat="47.2775" lon="-2.35201">
        <ele>43.200000762939</ele>
        <time>2022-04-14T07:34:07.000Z</time>
      </trkpt>
      <trkpt lat="47.27763" lon="-2.35203">
        <ele>43.200000762939</ele>
        <time>2022-04-14T07:34:10.000Z</time>
      </trkpt>
      <trkpt lat="47.27766" lon="-2.35208">
        <ele>42.799999237061</ele>
        <time>2022-04-14T07:34:11.000Z</time>
      </trkpt>
      <trkpt lat="47.27768" lon="-2.35213">
        <ele>42.400001525879</ele>
        <time>2022-04-14T07:34:12.000Z</time>
      </trkpt>
      <trkpt lat="47.2777" lon="-2.3522">
        <ele>42</ele>
        <time>2022-04-14T07:34:13.000Z</time>
      </trkpt>
      <trkpt lat="47.27772" lon="-2.35227">
        <ele>41.599998474121</ele>
        <time>2022-04-14T07:34:14.000Z</time>
      </trkpt>
      <trkpt lat="47.27773" lon="-2.35235">
        <ele>41.200000762939</ele>
        <time>2022-04-14T07:34:15.000Z</time>
      </trkpt>
      <trkpt lat="47.27781" lon="-2.35275">
        <ele>41.200000762939</ele>
        <time>2022-04-14T07:34:20.000Z</time>
      </trkpt>
      <trkpt lat="47.27794" lon="-2.35329">
        <ele>41.200000762939</ele>
        <time>2022-04-14T07:34:27.000Z</time>
      </trkpt>
      <trkpt lat="47.27796" lon="-2.35337">
        <ele>41.200000762939</ele>
        <time>2022-04-14T07:34:28.000Z</time>
      </trkpt>
      <trkpt lat="47.27808" lon="-2.35362">
        <ele>41.200000762939</ele>
        <time>2022-04-14T07:34:32.000Z</time>
      </trkpt>
      <trkpt lat="47.27823" lon="-2.35364">
        <ele>41.200000762939</ele>
        <time>2022-04-14T07:34:35.000Z</time>
      </trkpt>
      <trkpt lat="47.27856" lon="-2.35362">
        <ele>41.599998474121</ele>
        <time>2022-04-14T07:34:42.000Z</time>
      </trkpt>
      <trkpt lat="47.27861" lon="-2.35362">
        <ele>42</ele>
        <time>2022-04-14T07:34:43.000Z</time>
      </trkpt>
      <trkpt lat="47.27865" lon="-2.35363">
        <ele>42.799999237061</ele>
        <time>2022-04-14T07:34:44.000Z</time>
      </trkpt>
      <trkpt lat="47.27869" lon="-2.35364">
        <ele>43.400001525879</ele>
        <time>2022-04-14T07:34:45.000Z</time>
      </trkpt>
      <trkpt lat="47.27877" lon="-2.35371">
        <ele>43.400001525879</ele>
        <time>2022-04-14T07:34:47.000Z</time>
      </trkpt>
      <trkpt lat="47.27881" lon="-2.35376">
        <ele>43.400001525879</ele>
        <time>2022-04-14T07:34:48.000Z</time>
      </trkpt>
      <trkpt lat="47.27899" lon="-2.35401">
        <ele>43.400001525879</ele>
        <time>2022-04-14T07:34:53.000Z</time>
      </trkpt>
      <trkpt lat="47.27903" lon="-2.35406">
        <ele>43.400001525879</ele>
        <time>2022-04-14T07:34:54.000Z</time>
      </trkpt>
      <trkpt lat="47.27911" lon="-2.35416">
        <ele>43.799999237061</ele>
        <time>2022-04-14T07:34:56.000Z</time>
      </trkpt>
      <trkpt lat="47.27915" lon="-2.35421">
        <ele>44.200000762939</ele>
        <time>2022-04-14T07:34:57.000Z</time>
      </trkpt>
      <trkpt lat="47.2792" lon="-2.35427">
        <ele>44.599998474121</ele>
        <time>2022-04-14T07:34:58.000Z</time>
      </trkpt>
      <trkpt lat="47.27924" lon="-2.35432">
        <ele>45</ele>
        <time>2022-04-14T07:34:59.000Z</time>
      </trkpt>
      <trkpt lat="47.27928" lon="-2.35438">
        <ele>45.400001525879</ele>
        <time>2022-04-14T07:35:00.000Z</time>
      </trkpt>
      <trkpt lat="47.27936" lon="-2.35448">
        <ele>45.400001525879</ele>
        <time>2022-04-14T07:35:02.000Z</time>
      </trkpt>
      <trkpt lat="47.27965" lon="-2.35469">
        <ele>45.400001525879</ele>
        <time>2022-04-14T07:35:08.000Z</time>
      </trkpt>
      <trkpt lat="47.27969" lon="-2.35474">
        <ele>45.400001525879</ele>
        <time>2022-04-14T07:35:09.000Z</time>
      </trkpt>
      <trkpt lat="47.27979" lon="-2.35492">
        <ele>45.400001525879</ele>
        <time>2022-04-14T07:35:12.000Z</time>
      </trkpt>
      <trkpt lat="47.27983" lon="-2.35498">
        <ele>45.400001525879</ele>
        <time>2022-04-14T07:35:13.000Z</time>
      </trkpt>
      <trkpt lat="47.27996" lon="-2.3552">
        <ele>45.400001525879</ele>
        <time>2022-04-14T07:35:17.000Z</time>
      </trkpt>
      <trkpt lat="47.28006" lon="-2.35548">
        <ele>45.400001525879</ele>
        <time>2022-04-14T07:35:23.000Z</time>
      </trkpt>
      <trkpt lat="47.28007" lon="-2.35551">
        <ele>45.799999237061</ele>
        <time>2022-04-14T07:35:24.000Z</time>
      </trkpt>
      <trkpt lat="47.28009" lon="-2.35555">
        <ele>46.200000762939</ele>
        <time>2022-04-14T07:35:25.000Z</time>
      </trkpt>
      <trkpt lat="47.2801" lon="-2.35559">
        <ele>46.599998474121</ele>
        <time>2022-04-14T07:35:26.000Z</time>
      </trkpt>
      <trkpt lat="47.28013" lon="-2.35561">
        <ele>47</ele>
        <time>2022-04-14T07:35:27.000Z</time>
      </trkpt>
      <trkpt lat="47.28016" lon="-2.35562">
        <ele>47.400001525879</ele>
        <time>2022-04-14T07:35:28.000Z</time>
      </trkpt>
      <trkpt lat="47.28023" lon="-2.35562">
        <ele>47.400001525879</ele>
        <time>2022-04-14T07:35:30.000Z</time>
      </trkpt>
      <trkpt lat="47.28037" lon="-2.3557">
        <ele>47.400001525879</ele>
        <time>2022-04-14T07:35:34.000Z</time>
      </trkpt>
      <trkpt lat="47.28043" lon="-2.35573">
        <ele>47.799999237061</ele>
        <time>2022-04-14T07:35:36.000Z</time>
      </trkpt>
      <trkpt lat="47.28046" lon="-2.35574">
        <ele>48.200000762939</ele>
        <time>2022-04-14T07:35:37.000Z</time>
      </trkpt>
      <trkpt lat="47.28049" lon="-2.35575">
        <ele>48.599998474121</ele>
        <time>2022-04-14T07:35:38.000Z</time>
      </trkpt>
      <trkpt lat="47.28052" lon="-2.35576">
        <ele>49.200000762939</ele>
        <time>2022-04-14T07:35:39.000Z</time>
      </trkpt>
      <trkpt lat="47.28055" lon="-2.35577">
        <ele>49.599998474121</ele>
        <time>2022-04-14T07:35:40.000Z</time>
      </trkpt>
      <trkpt lat="47.28064" lon="-2.35581">
        <ele>49.599998474121</ele>
        <time>2022-04-14T07:35:43.000Z</time>
      </trkpt>
      <trkpt lat="47.28068" lon="-2.35586">
        <ele>49.599998474121</ele>
        <time>2022-04-14T07:35:45.000Z</time>
      </trkpt>
      <trkpt lat="47.28073" lon="-2.35598">
        <ele>49.599998474121</ele>
        <time>2022-04-14T07:35:48.000Z</time>
      </trkpt>
      <trkpt lat="47.28079" lon="-2.35606">
        <ele>50</ele>
        <time>2022-04-14T07:35:51.000Z</time>
      </trkpt>
      <trkpt lat="47.2808" lon="-2.35608">
        <ele>50.400001525879</ele>
        <time>2022-04-14T07:35:52.000Z</time>
      </trkpt>
      <trkpt lat="47.28081" lon="-2.35609">
        <ele>50.799999237061</ele>
        <time>2022-04-14T07:35:53.000Z</time>
      </trkpt>
      <trkpt lat="47.2808" lon="-2.3561">
        <ele>51.200000762939</ele>
        <time>2022-04-14T07:35:54.000Z</time>
      </trkpt>
      <trkpt lat="47.2808" lon="-2.3561">
        <ele>51.599998474121</ele>
        <time>2022-04-14T07:35:55.000Z</time>
      </trkpt>
      <trkpt lat="47.28078" lon="-2.35607">
        <ele>63.799999237061</ele>
        <time>2022-04-14T07:41:27.000Z</time>
      </trkpt>
      <trkpt lat="47.28077" lon="-2.35605">
        <ele>64.199996948242</ele>
        <time>2022-04-14T07:41:28.000Z</time>
      </trkpt>
      <trkpt lat="47.28075" lon="-2.35603">
        <ele>64.599998474121</ele>
        <time>2022-04-14T07:41:29.000Z</time>
      </trkpt>
      <trkpt lat="47.28073" lon="-2.35601">
        <ele>65</ele>
        <time>2022-04-14T07:41:30.000Z</time>
      </trkpt>
      <trkpt lat="47.28071" lon="-2.35599">
        <ele>65.400001525879</ele>
        <time>2022-04-14T07:41:31.000Z</time>
      </trkpt>
      <trkpt lat="47.28069" lon="-2.35597">
        <ele>65.800003051758</ele>
        <time>2022-04-14T07:41:32.000Z</time>
      </trkpt>
      <trkpt lat="47.28067" lon="-2.35592">
        <ele>65.800003051758</ele>
        <time>2022-04-14T07:41:34.000Z</time>
      </trkpt>
      <trkpt lat="47.28067" lon="-2.3559">
        <ele>65.800003051758</ele>
        <time>2022-04-14T07:41:35.000Z</time>
      </trkpt>
      <trkpt lat="47.2807" lon="-2.35572">
        <ele>65.800003051758</ele>
        <time>2022-04-14T07:41:40.000Z</time>
      </trkpt>
      <trkpt lat="47.28081" lon="-2.35562">
        <ele>65.800003051758</ele>
        <time>2022-04-14T07:41:45.000Z</time>
      </trkpt>
      <trkpt lat="47.28084" lon="-2.35561">
        <ele>65.800003051758</ele>
        <time>2022-04-14T07:41:46.000Z</time>
      </trkpt>
      <trkpt lat="47.28103" lon="-2.3556">
        <ele>65.800003051758</ele>
        <time>2022-04-14T07:41:53.000Z</time>
      </trkpt>
      <trkpt lat="47.28111" lon="-2.3556">
        <ele>66.199996948242</ele>
        <time>2022-04-14T07:41:58.000Z</time>
      </trkpt>
      <trkpt lat="47.28112" lon="-2.3556">
        <ele>66.599998474121</ele>
        <time>2022-04-14T07:41:59.000Z</time>
      </trkpt>
      <trkpt lat="47.28114" lon="-2.3556">
        <ele>67</ele>
        <time>2022-04-14T07:42:00.000Z</time>
      </trkpt>
      <trkpt lat="47.28116" lon="-2.35559">
        <ele>67.400001525879</ele>
        <time>2022-04-14T07:42:01.000Z</time>
      </trkpt>
      <trkpt lat="47.28118" lon="-2.35559">
        <ele>68</ele>
        <time>2022-04-14T07:42:02.000Z</time>
      </trkpt>
      <trkpt lat="47.28122" lon="-2.3556">
        <ele>68</ele>
        <time>2022-04-14T07:42:04.000Z</time>
      </trkpt>
      <trkpt lat="47.2814" lon="-2.3556">
        <ele>68</ele>
        <time>2022-04-14T07:42:11.000Z</time>
      </trkpt>
      <trkpt lat="47.28146" lon="-2.35561">
        <ele>68.400001525879</ele>
        <time>2022-04-14T07:42:13.000Z</time>
      </trkpt>
      <trkpt lat="47.28148" lon="-2.35561">
        <ele>68.800003051758</ele>
        <time>2022-04-14T07:42:14.000Z</time>
      </trkpt>
      <trkpt lat="47.28151" lon="-2.35562">
        <ele>69.199996948242</ele>
        <time>2022-04-14T07:42:15.000Z</time>
      </trkpt>
      <trkpt lat="47.28153" lon="-2.35562">
        <ele>69.599998474121</ele>
        <time>2022-04-14T07:42:16.000Z</time>
      </trkpt>
      <trkpt lat="47.28156" lon="-2.35563">
        <ele>70</ele>
        <time>2022-04-14T07:42:17.000Z</time>
      </trkpt>
      <trkpt lat="47.28158" lon="-2.35564">
        <ele>70</ele>
        <time>2022-04-14T07:42:18.000Z</time>
      </trkpt>
      <trkpt lat="47.28175" lon="-2.35579">
        <ele>70</ele>
        <time>2022-04-14T07:42:24.000Z</time>
      </trkpt>
      <trkpt lat="47.28198" lon="-2.35607">
        <ele>70</ele>
        <time>2022-04-14T07:42:31.000Z</time>
      </trkpt>
      <trkpt lat="47.28206" lon="-2.35618">
        <ele>70.800003051758</ele>
        <time>2022-04-14T07:42:34.000Z</time>
      </trkpt>
      <trkpt lat="47.28209" lon="-2.35622">
        <ele>71.199996948242</ele>
        <time>2022-04-14T07:42:35.000Z</time>
      </trkpt>
      <trkpt lat="47.2821" lon="-2.35624">
        <ele>71.599998474121</ele>
        <time>2022-04-14T07:42:36.000Z</time>
      </trkpt>
      <trkpt lat="47.28213" lon="-2.35627">
        <ele>72</ele>
        <time>2022-04-14T07:42:37.000Z</time>
      </trkpt>
      <trkpt lat="47.28233" lon="-2.3565">
        <ele>72</ele>
        <time>2022-04-14T07:42:44.000Z</time>
      </trkpt>
      <trkpt lat="47.28248" lon="-2.35668">
        <ele>72.400001525879</ele>
        <time>2022-04-14T07:42:49.000Z</time>
      </trkpt>
      <trkpt lat="47.28251" lon="-2.35672">
        <ele>72.800003051758</ele>
        <time>2022-04-14T07:42:50.000Z</time>
      </trkpt>
      <trkpt lat="47.28253" lon="-2.35675">
        <ele>73.199996948242</ele>
        <time>2022-04-14T07:42:51.000Z</time>
      </trkpt>
      <trkpt lat="47.28254" lon="-2.35679">
        <ele>73.800003051758</ele>
        <time>2022-04-14T07:42:52.000Z</time>
      </trkpt>
      <trkpt lat="47.28257" lon="-2.35682">
        <ele>74.199996948242</ele>
        <time>2022-04-14T07:42:53.000Z</time>
      </trkpt>
      <trkpt lat="47.28262" lon="-2.35689">
        <ele>74.199996948242</ele>
        <time>2022-04-14T07:42:55.000Z</time>
      </trkpt>
      <trkpt lat="47.28285" lon="-2.35713">
        <ele>74.199996948242</ele>
        <time>2022-04-14T07:43:03.000Z</time>
      </trkpt>
      <trkpt lat="47.28289" lon="-2.35717">
        <ele>74.599998474121</ele>
        <time>2022-04-14T07:43:04.000Z</time>
      </trkpt>
      <trkpt lat="47.28292" lon="-2.3572">
        <ele>75</ele>
        <time>2022-04-14T07:43:05.000Z</time>
      </trkpt>
      <trkpt lat="47.28295" lon="-2.35723">
        <ele>75.400001525879</ele>
        <time>2022-04-14T07:43:06.000Z</time>
      </trkpt>
      <trkpt lat="47.28298" lon="-2.35725">
        <ele>75.800003051758</ele>
        <time>2022-04-14T07:43:07.000Z</time>
      </trkpt>
      <trkpt lat="47.28301" lon="-2.35728">
        <ele>76.199996948242</ele>
        <time>2022-04-14T07:43:08.000Z</time>
      </trkpt>
      <trkpt lat="47.28308" lon="-2.35734">
        <ele>76.199996948242</ele>
        <time>2022-04-14T07:43:10.000Z</time>
      </trkpt>
      <trkpt lat="47.28325" lon="-2.35749">
        <ele>76.199996948242</ele>
        <time>2022-04-14T07:43:16.000Z</time>
      </trkpt>
      <trkpt lat="47.28338" lon="-2.35752">
        <ele>76.199996948242</ele>
        <time>2022-04-14T07:43:22.000Z</time>
      </trkpt>
      <trkpt lat="47.28345" lon="-2.35755">
        <ele>76.599998474121</ele>
        <time>2022-04-14T07:43:25.000Z</time>
      </trkpt>
      <trkpt lat="47.28349" lon="-2.35756">
        <ele>77</ele>
        <time>2022-04-14T07:43:26.000Z</time>
      </trkpt>
      <trkpt lat="47.28353" lon="-2.35759">
        <ele>77.400001525879</ele>
        <time>2022-04-14T07:43:27.000Z</time>
      </trkpt>
      <trkpt lat="47.28358" lon="-2.35761">
        <ele>77.800003051758</ele>
        <time>2022-04-14T07:43:28.000Z</time>
      </trkpt>
      <trkpt lat="47.28362" lon="-2.35763">
        <ele>78.199996948242</ele>
        <time>2022-04-14T07:43:29.000Z</time>
      </trkpt>
      <trkpt lat="47.28389" lon="-2.35779">
        <ele>78.199996948242</ele>
        <time>2022-04-14T07:43:35.000Z</time>
      </trkpt>
      <trkpt lat="47.28413" lon="-2.35788">
        <ele>78.199996948242</ele>
        <time>2022-04-14T07:43:42.000Z</time>
      </trkpt>
      <trkpt lat="47.28437" lon="-2.35796">
        <ele>78.199996948242</ele>
        <time>2022-04-14T07:43:48.000Z</time>
      </trkpt>
      <trkpt lat="47.28459" lon="-2.35804">
        <ele>78.599998474121</ele>
        <time>2022-04-14T07:43:53.000Z</time>
      </trkpt>
      <trkpt lat="47.28462" lon="-2.35805">
        <ele>79</ele>
        <time>2022-04-14T07:43:54.000Z</time>
      </trkpt>
      <trkpt lat="47.28465" lon="-2.35807">
        <ele>79.400001525879</ele>
        <time>2022-04-14T07:43:55.000Z</time>
      </trkpt>
      <trkpt lat="47.28469" lon="-2.35808">
        <ele>79.800003051758</ele>
        <time>2022-04-14T07:43:56.000Z</time>
      </trkpt>
      <trkpt lat="47.28474" lon="-2.35811">
        <ele>80.199996948242</ele>
        <time>2022-04-14T07:43:57.000Z</time>
      </trkpt>
      <trkpt lat="47.28491" lon="-2.35819">
        <ele>80.199996948242</ele>
        <time>2022-04-14T07:44:01.000Z</time>
      </trkpt>
      <trkpt lat="47.28516" lon="-2.35826">
        <ele>80.199996948242</ele>
        <time>2022-04-14T07:44:08.000Z</time>
      </trkpt>
      <trkpt lat="47.28535" lon="-2.35826">
        <ele>80.199996948242</ele>
        <time>2022-04-14T07:44:14.000Z</time>
      </trkpt>
      <trkpt lat="47.28557" lon="-2.3582">
        <ele>80.199996948242</ele>
        <time>2022-04-14T07:44:19.000Z</time>
      </trkpt>
      <trkpt lat="47.28577" lon="-2.35784">
        <ele>80.199996948242</ele>
        <time>2022-04-14T07:44:25.000Z</time>
      </trkpt>
      <trkpt lat="47.28595" lon="-2.35753">
        <ele>80.199996948242</ele>
        <time>2022-04-14T07:44:31.000Z</time>
      </trkpt>
      <trkpt lat="47.28609" lon="-2.35737">
        <ele>80.199996948242</ele>
        <time>2022-04-14T07:44:36.000Z</time>
      </trkpt>
      <trkpt lat="47.28612" lon="-2.35737">
        <ele>80.199996948242</ele>
        <time>2022-04-14T07:44:37.000Z</time>
      </trkpt>
      <trkpt lat="47.2862" lon="-2.35746">
        <ele>80.199996948242</ele>
        <time>2022-04-14T07:44:39.000Z</time>
      </trkpt>
      <trkpt lat="47.28627" lon="-2.35764">
        <ele>80.199996948242</ele>
        <time>2022-04-14T07:44:42.000Z</time>
      </trkpt>
      <trkpt lat="47.28629" lon="-2.3577">
        <ele>80.199996948242</ele>
        <time>2022-04-14T07:44:43.000Z</time>
      </trkpt>
      <trkpt lat="47.28632" lon="-2.35782">
        <ele>80.199996948242</ele>
        <time>2022-04-14T07:44:45.000Z</time>
      </trkpt>
      <trkpt lat="47.28639" lon="-2.3581">
        <ele>80.199996948242</ele>
        <time>2022-04-14T07:44:51.000Z</time>
      </trkpt>
      <trkpt lat="47.28641" lon="-2.35833">
        <ele>80.199996948242</ele>
        <time>2022-04-14T07:44:57.000Z</time>
      </trkpt>
      <trkpt lat="47.28649" lon="-2.35852">
        <ele>80.599998474121</ele>
        <time>2022-04-14T07:45:01.000Z</time>
      </trkpt>
      <trkpt lat="47.28651" lon="-2.35857">
        <ele>81.400001525879</ele>
        <time>2022-04-14T07:45:02.000Z</time>
      </trkpt>
      <trkpt lat="47.28654" lon="-2.35863">
        <ele>81.800003051758</ele>
        <time>2022-04-14T07:45:03.000Z</time>
      </trkpt>
      <trkpt lat="47.28656" lon="-2.35868">
        <ele>82.400001525879</ele>
        <time>2022-04-14T07:45:04.000Z</time>
      </trkpt>
      <trkpt lat="47.28663" lon="-2.35892">
        <ele>82.400001525879</ele>
        <time>2022-04-14T07:45:08.000Z</time>
      </trkpt>
      <trkpt lat="47.28672" lon="-2.35915">
        <ele>82.400001525879</ele>
        <time>2022-04-14T07:45:13.000Z</time>
      </trkpt>
      <trkpt lat="47.28676" lon="-2.35915">
        <ele>82.400001525879</ele>
        <time>2022-04-14T07:45:14.000Z</time>
      </trkpt>
      <trkpt lat="47.28684" lon="-2.35907">
        <ele>82.800003051758</ele>
        <time>2022-04-14T07:45:17.000Z</time>
      </trkpt>
      <trkpt lat="47.28688" lon="-2.35903">
        <ele>83.199996948242</ele>
        <time>2022-04-14T07:45:18.000Z</time>
      </trkpt>
      <trkpt lat="47.28691" lon="-2.35899">
        <ele>83.599998474121</ele>
        <time>2022-04-14T07:45:19.000Z</time>
      </trkpt>
      <trkpt lat="47.28694" lon="-2.35895">
        <ele>84</ele>
        <time>2022-04-14T07:45:20.000Z</time>
      </trkpt>
      <trkpt lat="47.28697" lon="-2.35891">
        <ele>84.400001525879</ele>
        <time>2022-04-14T07:45:21.000Z</time>
      </trkpt>
      <trkpt lat="47.28707" lon="-2.35878">
        <ele>84.400001525879</ele>
        <time>2022-04-14T07:45:24.000Z</time>
      </trkpt>
      <trkpt lat="47.28734" lon="-2.35833">
        <ele>84.400001525879</ele>
        <time>2022-04-14T07:45:33.000Z</time>
      </trkpt>
      <trkpt lat="47.28739" lon="-2.35823">
        <ele>84.800003051758</ele>
        <time>2022-04-14T07:45:35.000Z</time>
      </trkpt>
      <trkpt lat="47.28742" lon="-2.35819">
        <ele>85.199996948242</ele>
        <time>2022-04-14T07:45:36.000Z</time>
      </trkpt>
      <trkpt lat="47.28744" lon="-2.35813">
        <ele>85.599998474121</ele>
        <time>2022-04-14T07:45:37.000Z</time>
      </trkpt>
      <trkpt lat="47.28747" lon="-2.35808">
        <ele>86</ele>
        <time>2022-04-14T07:45:38.000Z</time>
      </trkpt>
      <trkpt lat="47.28749" lon="-2.35803">
        <ele>86.400001525879</ele>
        <time>2022-04-14T07:45:39.000Z</time>
      </trkpt>
      <trkpt lat="47.28759" lon="-2.35781">
        <ele>86.400001525879</ele>
        <time>2022-04-14T07:45:43.000Z</time>
      </trkpt>
      <trkpt lat="47.28786" lon="-2.3573">
        <ele>86.400001525879</ele>
        <time>2022-04-14T07:45:52.000Z</time>
      </trkpt>
      <trkpt lat="47.2881" lon="-2.35684">
        <ele>86.400001525879</ele>
        <time>2022-04-14T07:46:00.000Z</time>
      </trkpt>
      <trkpt lat="47.28835" lon="-2.35652">
        <ele>86.400001525879</ele>
        <time>2022-04-14T07:46:07.000Z</time>
      </trkpt>
      <trkpt lat="47.28838" lon="-2.35648">
        <ele>86.400001525879</ele>
        <time>2022-04-14T07:46:08.000Z</time>
      </trkpt>
      <trkpt lat="47.28858" lon="-2.35626">
        <ele>86.400001525879</ele>
        <time>2022-04-14T07:46:13.000Z</time>
      </trkpt>
      <trkpt lat="47.28862" lon="-2.35622">
        <ele>86.400001525879</ele>
        <time>2022-04-14T07:46:14.000Z</time>
      </trkpt>
      <trkpt lat="47.28878" lon="-2.35606">
        <ele>86.400001525879</ele>
        <time>2022-04-14T07:46:18.000Z</time>
      </trkpt>
      <trkpt lat="47.28904" lon="-2.35578">
        <ele>86.400001525879</ele>
        <time>2022-04-14T07:46:25.000Z</time>
      </trkpt>
      <trkpt lat="47.28924" lon="-2.35558">
        <ele>86.400001525879</ele>
        <time>2022-04-14T07:46:32.000Z</time>
      </trkpt>
      <trkpt lat="47.28928" lon="-2.35561">
        <ele>86.400001525879</ele>
        <time>2022-04-14T07:46:34.000Z</time>
      </trkpt>
      <trkpt lat="47.2893" lon="-2.35565">
        <ele>86.400001525879</ele>
        <time>2022-04-14T07:46:35.000Z</time>
      </trkpt>
      <trkpt lat="47.28941" lon="-2.35596">
        <ele>86.400001525879</ele>
        <time>2022-04-14T07:46:41.000Z</time>
      </trkpt>
      <trkpt lat="47.28946" lon="-2.35608">
        <ele>86.800003051758</ele>
        <time>2022-04-14T07:46:43.000Z</time>
      </trkpt>
      <trkpt lat="47.28948" lon="-2.35615">
        <ele>87.199996948242</ele>
        <time>2022-04-14T07:46:44.000Z</time>
      </trkpt>
      <trkpt lat="47.28951" lon="-2.35621">
        <ele>87.599998474121</ele>
        <time>2022-04-14T07:46:45.000Z</time>
      </trkpt>
      <trkpt lat="47.28953" lon="-2.35627">
        <ele>88</ele>
        <time>2022-04-14T07:46:46.000Z</time>
      </trkpt>
      <trkpt lat="47.28956" lon="-2.35633">
        <ele>88.400001525879</ele>
        <time>2022-04-14T07:46:47.000Z</time>
      </trkpt>
      <trkpt lat="47.28963" lon="-2.35649">
        <ele>88.400001525879</ele>
        <time>2022-04-14T07:46:50.000Z</time>
      </trkpt>
      <trkpt lat="47.28977" lon="-2.3568">
        <ele>88.400001525879</ele>
        <time>2022-04-14T07:46:56.000Z</time>
      </trkpt>
      <trkpt lat="47.28987" lon="-2.35694">
        <ele>88.400001525879</ele>
        <time>2022-04-14T07:46:59.000Z</time>
      </trkpt>
      <trkpt lat="47.28994" lon="-2.357">
        <ele>88.400001525879</ele>
        <time>2022-04-14T07:47:01.000Z</time>
      </trkpt>
      <trkpt lat="47.29003" lon="-2.35702">
        <ele>89</ele>
        <time>2022-04-14T07:47:03.000Z</time>
      </trkpt>
      <trkpt lat="47.29008" lon="-2.35703">
        <ele>89.800003051758</ele>
        <time>2022-04-14T07:47:04.000Z</time>
      </trkpt>
      <trkpt lat="47.29012" lon="-2.35702">
        <ele>90.199996948242</ele>
        <time>2022-04-14T07:47:05.000Z</time>
      </trkpt>
      <trkpt lat="47.29017" lon="-2.35701">
        <ele>90.599998474121</ele>
        <time>2022-04-14T07:47:06.000Z</time>
      </trkpt>
      <trkpt lat="47.2903" lon="-2.35693">
        <ele>90.599998474121</ele>
        <time>2022-04-14T07:47:09.000Z</time>
      </trkpt>
      <trkpt lat="47.29056" lon="-2.35668">
        <ele>90.599998474121</ele>
        <time>2022-04-14T07:47:16.000Z</time>
      </trkpt>
      <trkpt lat="47.29077" lon="-2.35647">
        <ele>90.599998474121</ele>
        <time>2022-04-14T07:47:23.000Z</time>
      </trkpt>
      <trkpt lat="47.29083" lon="-2.35634">
        <ele>90.599998474121</ele>
        <time>2022-04-14T07:47:29.000Z</time>
      </trkpt>
      <trkpt lat="47.29074" lon="-2.35615">
        <ele>90.599998474121</ele>
        <time>2022-04-14T07:47:33.000Z</time>
      </trkpt>
      <trkpt lat="47.29055" lon="-2.3557">
        <ele>90.599998474121</ele>
        <time>2022-04-14T07:47:40.000Z</time>
      </trkpt>
      <trkpt lat="47.29039" lon="-2.35525">
        <ele>90.599998474121</ele>
        <time>2022-04-14T07:47:47.000Z</time>
      </trkpt>
      <trkpt lat="47.29046" lon="-2.35505">
        <ele>90.599998474121</ele>
        <time>2022-04-14T07:47:50.000Z</time>
      </trkpt>
      <trkpt lat="47.29049" lon="-2.35499">
        <ele>90.599998474121</ele>
        <time>2022-04-14T07:47:51.000Z</time>
      </trkpt>
      <trkpt lat="47.29074" lon="-2.35464">
        <ele>90.599998474121</ele>
        <time>2022-04-14T07:47:58.000Z</time>
      </trkpt>
      <trkpt lat="47.29082" lon="-2.35454">
        <ele>90.599998474121</ele>
        <time>2022-04-14T07:48:02.000Z</time>
      </trkpt>
      <trkpt lat="47.29086" lon="-2.35451">
        <ele>90.599998474121</ele>
        <time>2022-04-14T07:48:05.000Z</time>
      </trkpt>
      <trkpt lat="47.29089" lon="-2.35455">
        <ele>90.599998474121</ele>
        <time>2022-04-14T07:48:08.000Z</time>
      </trkpt>
      <trkpt lat="47.29093" lon="-2.35471">
        <ele>90.599998474121</ele>
        <time>2022-04-14T07:48:13.000Z</time>
      </trkpt>
      <trkpt lat="47.29098" lon="-2.35474">
        <ele>90.599998474121</ele>
        <time>2022-04-14T07:48:18.000Z</time>
      </trkpt>
      <trkpt lat="47.29103" lon="-2.35472">
        <ele>90.599998474121</ele>
        <time>2022-04-14T07:48:21.000Z</time>
      </trkpt>
      <trkpt lat="47.29104" lon="-2.3547">
        <ele>90.599998474121</ele>
        <time>2022-04-14T07:48:24.000Z</time>
      </trkpt>
      <trkpt lat="47.29105" lon="-2.35467">
        <ele>90.599998474121</ele>
        <time>2022-04-14T07:48:27.000Z</time>
      </trkpt>
      <trkpt lat="47.29106" lon="-2.35466">
        <ele>90.599998474121</ele>
        <time>2022-04-14T07:48:28.000Z</time>
      </trkpt>
      <trkpt lat="47.29109" lon="-2.35465">
        <ele>90.599998474121</ele>
        <time>2022-04-14T07:48:29.000Z</time>
      </trkpt>
      <trkpt lat="47.29119" lon="-2.35466">
        <ele>90.599998474121</ele>
        <time>2022-04-14T07:48:32.000Z</time>
      </trkpt>
      <trkpt lat="47.2914" lon="-2.35458">
        <ele>91</ele>
        <time>2022-04-14T07:48:37.000Z</time>
      </trkpt>
      <trkpt lat="47.29145" lon="-2.35456">
        <ele>91.599998474121</ele>
        <time>2022-04-14T07:48:38.000Z</time>
      </trkpt>
      <trkpt lat="47.29149" lon="-2.35454">
        <ele>92</ele>
        <time>2022-04-14T07:48:39.000Z</time>
      </trkpt>
      <trkpt lat="47.29153" lon="-2.35452">
        <ele>92.400001525879</ele>
        <time>2022-04-14T07:48:40.000Z</time>
      </trkpt>
      <trkpt lat="47.29158" lon="-2.35451">
        <ele>92.800003051758</ele>
        <time>2022-04-14T07:48:41.000Z</time>
      </trkpt>
      <trkpt lat="47.29171" lon="-2.35445">
        <ele>92.800003051758</ele>
        <time>2022-04-14T07:48:44.000Z</time>
      </trkpt>
      <trkpt lat="47.29197" lon="-2.35434">
        <ele>92.800003051758</ele>
        <time>2022-04-14T07:48:50.000Z</time>
      </trkpt>
      <trkpt lat="47.2923" lon="-2.3542">
        <ele>92.800003051758</ele>
        <time>2022-04-14T07:48:58.000Z</time>
      </trkpt>
      <trkpt lat="47.29265" lon="-2.35404">
        <ele>92.800003051758</ele>
        <time>2022-04-14T07:49:06.000Z</time>
      </trkpt>
      <trkpt lat="47.29295" lon="-2.3538">
        <ele>92.800003051758</ele>
        <time>2022-04-14T07:49:13.000Z</time>
      </trkpt>
      <trkpt lat="47.2933" lon="-2.35345">
        <ele>92.800003051758</ele>
        <time>2022-04-14T07:49:21.000Z</time>
      </trkpt>
      <trkpt lat="47.29359" lon="-2.35312">
        <ele>92.800003051758</ele>
        <time>2022-04-14T07:49:28.000Z</time>
      </trkpt>
      <trkpt lat="47.29394" lon="-2.35267">
        <ele>92.800003051758</ele>
        <time>2022-04-14T07:49:36.000Z</time>
      </trkpt>
      <trkpt lat="47.29422" lon="-2.35226">
        <ele>92.800003051758</ele>
        <time>2022-04-14T07:49:43.000Z</time>
      </trkpt>
      <trkpt lat="47.29436" lon="-2.35199">
        <ele>92.800003051758</ele>
        <time>2022-04-14T07:49:48.000Z</time>
      </trkpt>
      <trkpt lat="47.29438" lon="-2.35193">
        <ele>92.800003051758</ele>
        <time>2022-04-14T07:49:49.000Z</time>
      </trkpt>
      <trkpt lat="47.29452" lon="-2.35159">
        <ele>92.800003051758</ele>
        <time>2022-04-14T07:49:54.000Z</time>
      </trkpt>
      <trkpt lat="47.29467" lon="-2.3511">
        <ele>92.800003051758</ele>
        <time>2022-04-14T07:50:00.000Z</time>
      </trkpt>
      <trkpt lat="47.29492" lon="-2.35036">
        <ele>92.800003051758</ele>
        <time>2022-04-14T07:50:09.000Z</time>
      </trkpt>
      <trkpt lat="47.29495" lon="-2.35027">
        <ele>92.199996948242</ele>
        <time>2022-04-14T07:50:10.000Z</time>
      </trkpt>
      <trkpt lat="47.29499" lon="-2.35017">
        <ele>91.800003051758</ele>
        <time>2022-04-14T07:50:11.000Z</time>
      </trkpt>
      <trkpt lat="47.29503" lon="-2.35007">
        <ele>91.400001525879</ele>
        <time>2022-04-14T07:50:12.000Z</time>
      </trkpt>
      <trkpt lat="47.29507" lon="-2.34997">
        <ele>91</ele>
        <time>2022-04-14T07:50:13.000Z</time>
      </trkpt>
      <trkpt lat="47.29511" lon="-2.34987">
        <ele>90.599998474121</ele>
        <time>2022-04-14T07:50:14.000Z</time>
      </trkpt>
      <trkpt lat="47.29516" lon="-2.34976">
        <ele>90</ele>
        <time>2022-04-14T07:50:15.000Z</time>
      </trkpt>
      <trkpt lat="47.29521" lon="-2.34967">
        <ele>89.599998474121</ele>
        <time>2022-04-14T07:50:16.000Z</time>
      </trkpt>
      <trkpt lat="47.29526" lon="-2.34957">
        <ele>89.199996948242</ele>
        <time>2022-04-14T07:50:17.000Z</time>
      </trkpt>
      <trkpt lat="47.2953" lon="-2.34948">
        <ele>88.800003051758</ele>
        <time>2022-04-14T07:50:18.000Z</time>
      </trkpt>
      <trkpt lat="47.29535" lon="-2.34939">
        <ele>88.400001525879</ele>
        <time>2022-04-14T07:50:19.000Z</time>
      </trkpt>
      <trkpt lat="47.29543" lon="-2.34926">
        <ele>88.400001525879</ele>
        <time>2022-04-14T07:50:21.000Z</time>
      </trkpt>
      <trkpt lat="47.29552" lon="-2.34917">
        <ele>88.400001525879</ele>
        <time>2022-04-14T07:50:23.000Z</time>
      </trkpt>
      <trkpt lat="47.29563" lon="-2.34903">
        <ele>88.400001525879</ele>
        <time>2022-04-14T07:50:26.000Z</time>
      </trkpt>
      <trkpt lat="47.29578" lon="-2.34883">
        <ele>88.800003051758</ele>
        <time>2022-04-14T07:50:30.000Z</time>
      </trkpt>
      <trkpt lat="47.29581" lon="-2.34878">
        <ele>89.400001525879</ele>
        <time>2022-04-14T07:50:31.000Z</time>
      </trkpt>
      <trkpt lat="47.29585" lon="-2.34873">
        <ele>89.800003051758</ele>
        <time>2022-04-14T07:50:32.000Z</time>
      </trkpt>
      <trkpt lat="47.29588" lon="-2.34868">
        <ele>90.199996948242</ele>
        <time>2022-04-14T07:50:33.000Z</time>
      </trkpt>
      <trkpt lat="47.29591" lon="-2.34863">
        <ele>90.599998474121</ele>
        <time>2022-04-14T07:50:34.000Z</time>
      </trkpt>
      <trkpt lat="47.29606" lon="-2.34842">
        <ele>90.599998474121</ele>
        <time>2022-04-14T07:50:38.000Z</time>
      </trkpt>
      <trkpt lat="47.2961" lon="-2.34838">
        <ele>90.599998474121</ele>
        <time>2022-04-14T07:50:39.000Z</time>
      </trkpt>
      <trkpt lat="47.29623" lon="-2.34831">
        <ele>90.599998474121</ele>
        <time>2022-04-14T07:50:42.000Z</time>
      </trkpt>
      <trkpt lat="47.29643" lon="-2.34845">
        <ele>90.599998474121</ele>
        <time>2022-04-14T07:50:45.000Z</time>
      </trkpt>
      <trkpt lat="47.29658" lon="-2.34863">
        <ele>90.599998474121</ele>
        <time>2022-04-14T07:50:48.000Z</time>
      </trkpt>
      <trkpt lat="47.29668" lon="-2.34876">
        <ele>90.599998474121</ele>
        <time>2022-04-14T07:50:50.000Z</time>
      </trkpt>
      <trkpt lat="47.2968" lon="-2.34891">
        <ele>90.599998474121</ele>
        <time>2022-04-14T07:50:53.000Z</time>
      </trkpt>
      <trkpt lat="47.29689" lon="-2.34893">
        <ele>90.599998474121</ele>
        <time>2022-04-14T07:50:55.000Z</time>
      </trkpt>
      <trkpt lat="47.29704" lon="-2.34889">
        <ele>90.599998474121</ele>
        <time>2022-04-14T07:50:58.000Z</time>
      </trkpt>
      <trkpt lat="47.2971" lon="-2.34886">
        <ele>90.599998474121</ele>
        <time>2022-04-14T07:50:59.000Z</time>
      </trkpt>
      <trkpt lat="47.2973" lon="-2.34871">
        <ele>90.599998474121</ele>
        <time>2022-04-14T07:51:03.000Z</time>
      </trkpt>
      <trkpt lat="47.29742" lon="-2.34868">
        <ele>90.599998474121</ele>
        <time>2022-04-14T07:51:05.000Z</time>
      </trkpt>
      <trkpt lat="47.29798" lon="-2.34853">
        <ele>90.599998474121</ele>
        <time>2022-04-14T07:51:15.000Z</time>
      </trkpt>
      <trkpt lat="47.29843" lon="-2.34846">
        <ele>90.599998474121</ele>
        <time>2022-04-14T07:51:23.000Z</time>
      </trkpt>
      <trkpt lat="47.29883" lon="-2.34837">
        <ele>90.599998474121</ele>
        <time>2022-04-14T07:51:31.000Z</time>
      </trkpt>
      <trkpt lat="47.29888" lon="-2.34836">
        <ele>91</ele>
        <time>2022-04-14T07:51:32.000Z</time>
      </trkpt>
      <trkpt lat="47.29893" lon="-2.34835">
        <ele>91.400001525879</ele>
        <time>2022-04-14T07:51:33.000Z</time>
      </trkpt>
      <trkpt lat="47.29898" lon="-2.34834">
        <ele>91.800003051758</ele>
        <time>2022-04-14T07:51:34.000Z</time>
      </trkpt>
      <trkpt lat="47.29903" lon="-2.34833">
        <ele>92.199996948242</ele>
        <time>2022-04-14T07:51:35.000Z</time>
      </trkpt>
      <trkpt lat="47.29908" lon="-2.34832">
        <ele>92.599998474121</ele>
        <time>2022-04-14T07:51:36.000Z</time>
      </trkpt>
      <trkpt lat="47.29922" lon="-2.34829">
        <ele>92.599998474121</ele>
        <time>2022-04-14T07:51:39.000Z</time>
      </trkpt>
      <trkpt lat="47.29958" lon="-2.34822">
        <ele>92.599998474121</ele>
        <time>2022-04-14T07:51:47.000Z</time>
      </trkpt>
      <trkpt lat="47.2997" lon="-2.34818">
        <ele>93</ele>
        <time>2022-04-14T07:51:51.000Z</time>
      </trkpt>
      <trkpt lat="47.29973" lon="-2.34816">
        <ele>93.599998474121</ele>
        <time>2022-04-14T07:51:52.000Z</time>
      </trkpt>
      <trkpt lat="47.29976" lon="-2.34814">
        <ele>94</ele>
        <time>2022-04-14T07:51:53.000Z</time>
      </trkpt>
      <trkpt lat="47.29978" lon="-2.34811">
        <ele>94.400001525879</ele>
        <time>2022-04-14T07:51:54.000Z</time>
      </trkpt>
      <trkpt lat="47.29979" lon="-2.34806">
        <ele>94.800003051758</ele>
        <time>2022-04-14T07:51:55.000Z</time>
      </trkpt>
      <trkpt lat="47.29979" lon="-2.34801">
        <ele>94.800003051758</ele>
        <time>2022-04-14T07:51:56.000Z</time>
      </trkpt>
      <trkpt lat="47.29977" lon="-2.34788">
        <ele>94.800003051758</ele>
        <time>2022-04-14T07:51:58.000Z</time>
      </trkpt>
      <trkpt lat="47.29976" lon="-2.34773">
        <ele>94.800003051758</ele>
        <time>2022-04-14T07:52:00.000Z</time>
      </trkpt>
      <trkpt lat="47.29968" lon="-2.34713">
        <ele>94.800003051758</ele>
        <time>2022-04-14T07:52:07.000Z</time>
      </trkpt>
      <trkpt lat="47.2996" lon="-2.34645">
        <ele>94.800003051758</ele>
        <time>2022-04-14T07:52:15.000Z</time>
      </trkpt>
      <trkpt lat="47.29951" lon="-2.34576">
        <ele>94.800003051758</ele>
        <time>2022-04-14T07:52:24.000Z</time>
      </trkpt>
      <trkpt lat="47.29946" lon="-2.34526">
        <ele>94.800003051758</ele>
        <time>2022-04-14T07:52:31.000Z</time>
      </trkpt>
      <trkpt lat="47.29941" lon="-2.34494">
        <ele>95.199996948242</ele>
        <time>2022-04-14T07:52:35.000Z</time>
      </trkpt>
      <trkpt lat="47.29941" lon="-2.34487">
        <ele>95.599998474121</ele>
        <time>2022-04-14T07:52:36.000Z</time>
      </trkpt>
      <trkpt lat="47.2994" lon="-2.34479">
        <ele>96</ele>
        <time>2022-04-14T07:52:37.000Z</time>
      </trkpt>
      <trkpt lat="47.29939" lon="-2.34471">
        <ele>96.400001525879</ele>
        <time>2022-04-14T07:52:38.000Z</time>
      </trkpt>
      <trkpt lat="47.29938" lon="-2.34463">
        <ele>96.800003051758</ele>
        <time>2022-04-14T07:52:39.000Z</time>
      </trkpt>
      <trkpt lat="47.29937" lon="-2.34454">
        <ele>96.800003051758</ele>
        <time>2022-04-14T07:52:40.000Z</time>
      </trkpt>
      <trkpt lat="47.2993" lon="-2.34392">
        <ele>96.800003051758</ele>
        <time>2022-04-14T07:52:48.000Z</time>
      </trkpt>
      <trkpt lat="47.29921" lon="-2.3432">
        <ele>96.800003051758</ele>
        <time>2022-04-14T07:52:57.000Z</time>
      </trkpt>
      <trkpt lat="47.29916" lon="-2.34288">
        <ele>96.800003051758</ele>
        <time>2022-04-14T07:53:01.000Z</time>
      </trkpt>
      <trkpt lat="47.29913" lon="-2.34272">
        <ele>96.800003051758</ele>
        <time>2022-04-14T07:53:03.000Z</time>
      </trkpt>
      <trkpt lat="47.29913" lon="-2.34264">
        <ele>96.800003051758</ele>
        <time>2022-04-14T07:53:04.000Z</time>
      </trkpt>
      <trkpt lat="47.2992" lon="-2.3425">
        <ele>96.800003051758</ele>
        <time>2022-04-14T07:53:06.000Z</time>
      </trkpt>
      <trkpt lat="47.29933" lon="-2.34231">
        <ele>96.800003051758</ele>
        <time>2022-04-14T07:53:09.000Z</time>
      </trkpt>
      <trkpt lat="47.29942" lon="-2.3422">
        <ele>96.800003051758</ele>
        <time>2022-04-14T07:53:11.000Z</time>
      </trkpt>
      <trkpt lat="47.2997" lon="-2.34184">
        <ele>96.800003051758</ele>
        <time>2022-04-14T07:53:18.000Z</time>
      </trkpt>
      <trkpt lat="47.29978" lon="-2.34175">
        <ele>96.800003051758</ele>
        <time>2022-04-14T07:53:20.000Z</time>
      </trkpt>
      <trkpt lat="47.29993" lon="-2.34155">
        <ele>96.800003051758</ele>
        <time>2022-04-14T07:53:24.000Z</time>
      </trkpt>
      <trkpt lat="47.30024" lon="-2.34113">
        <ele>96.800003051758</ele>
        <time>2022-04-14T07:53:33.000Z</time>
      </trkpt>
      <trkpt lat="47.30055" lon="-2.34072">
        <ele>96.800003051758</ele>
        <time>2022-04-14T07:53:41.000Z</time>
      </trkpt>
      <trkpt lat="47.30082" lon="-2.34038">
        <ele>96.800003051758</ele>
        <time>2022-04-14T07:53:47.000Z</time>
      </trkpt>
      <trkpt lat="47.30106" lon="-2.34007">
        <ele>96.800003051758</ele>
        <time>2022-04-14T07:53:53.000Z</time>
      </trkpt>
      <trkpt lat="47.30124" lon="-2.33983">
        <ele>96.800003051758</ele>
        <time>2022-04-14T07:53:59.000Z</time>
      </trkpt>
      <trkpt lat="47.30145" lon="-2.33963">
        <ele>96.800003051758</ele>
        <time>2022-04-14T07:54:05.000Z</time>
      </trkpt>
      <trkpt lat="47.30166" lon="-2.33948">
        <ele>96.800003051758</ele>
        <time>2022-04-14T07:54:11.000Z</time>
      </trkpt>
      <trkpt lat="47.30183" lon="-2.33927">
        <ele>96.800003051758</ele>
        <time>2022-04-14T07:54:17.000Z</time>
      </trkpt>
      <trkpt lat="47.30209" lon="-2.33897">
        <ele>96.800003051758</ele>
        <time>2022-04-14T07:54:25.000Z</time>
      </trkpt>
      <trkpt lat="47.30213" lon="-2.33893">
        <ele>97.199996948242</ele>
        <time>2022-04-14T07:54:26.000Z</time>
      </trkpt>
      <trkpt lat="47.30216" lon="-2.3389">
        <ele>97.599998474121</ele>
        <time>2022-04-14T07:54:27.000Z</time>
      </trkpt>
      <trkpt lat="47.3022" lon="-2.33887">
        <ele>98.400001525879</ele>
        <time>2022-04-14T07:54:28.000Z</time>
      </trkpt>
      <trkpt lat="47.30223" lon="-2.33883">
        <ele>99</ele>
        <time>2022-04-14T07:54:29.000Z</time>
      </trkpt>
      <trkpt lat="47.30229" lon="-2.33875">
        <ele>99</ele>
        <time>2022-04-14T07:54:31.000Z</time>
      </trkpt>
      <trkpt lat="47.30249" lon="-2.33863">
        <ele>99</ele>
        <time>2022-04-14T07:54:36.000Z</time>
      </trkpt>
      <trkpt lat="47.3027" lon="-2.33848">
        <ele>99.400001525879</ele>
        <time>2022-04-14T07:54:41.000Z</time>
      </trkpt>
      <trkpt lat="47.30274" lon="-2.33846">
        <ele>99.800003051758</ele>
        <time>2022-04-14T07:54:42.000Z</time>
      </trkpt>
      <trkpt lat="47.30278" lon="-2.33843">
        <ele>100.19999694824</ele>
        <time>2022-04-14T07:54:43.000Z</time>
      </trkpt>
      <trkpt lat="47.30282" lon="-2.3384">
        <ele>100.59999847412</ele>
        <time>2022-04-14T07:54:44.000Z</time>
      </trkpt>
      <trkpt lat="47.30287" lon="-2.33838">
        <ele>101</ele>
        <time>2022-04-14T07:54:45.000Z</time>
      </trkpt>
      <trkpt lat="47.303" lon="-2.33829">
        <ele>101</ele>
        <time>2022-04-14T07:54:48.000Z</time>
      </trkpt>
      <trkpt lat="47.30323" lon="-2.33817">
        <ele>101</ele>
        <time>2022-04-14T07:54:54.000Z</time>
      </trkpt>
      <trkpt lat="47.30339" lon="-2.33796">
        <ele>101</ele>
        <time>2022-04-14T07:55:00.000Z</time>
      </trkpt>
      <trkpt lat="47.30353" lon="-2.3378">
        <ele>101</ele>
        <time>2022-04-14T07:55:04.000Z</time>
      </trkpt>
      <trkpt lat="47.3036" lon="-2.33772">
        <ele>101</ele>
        <time>2022-04-14T07:55:06.000Z</time>
      </trkpt>
      <trkpt lat="47.30382" lon="-2.33749">
        <ele>101</ele>
        <time>2022-04-14T07:55:12.000Z</time>
      </trkpt>
      <trkpt lat="47.30396" lon="-2.33729">
        <ele>101</ele>
        <time>2022-04-14T07:55:17.000Z</time>
      </trkpt>
      <trkpt lat="47.30411" lon="-2.33702">
        <ele>101</ele>
        <time>2022-04-14T07:55:22.000Z</time>
      </trkpt>
      <trkpt lat="47.30415" lon="-2.33696">
        <ele>101</ele>
        <time>2022-04-14T07:55:23.000Z</time>
      </trkpt>
      <trkpt lat="47.3043" lon="-2.33687">
        <ele>101</ele>
        <time>2022-04-14T07:55:26.000Z</time>
      </trkpt>
      <trkpt lat="47.30453" lon="-2.33674">
        <ele>101</ele>
        <time>2022-04-14T07:55:31.000Z</time>
      </trkpt>
      <trkpt lat="47.30459" lon="-2.33672">
        <ele>101</ele>
        <time>2022-04-14T07:55:32.000Z</time>
      </trkpt>
      <trkpt lat="47.30478" lon="-2.33663">
        <ele>101</ele>
        <time>2022-04-14T07:55:36.000Z</time>
      </trkpt>
      <trkpt lat="47.30508" lon="-2.3365">
        <ele>101</ele>
        <time>2022-04-14T07:55:42.000Z</time>
      </trkpt>
      <trkpt lat="47.30522" lon="-2.33646">
        <ele>101</ele>
        <time>2022-04-14T07:55:45.000Z</time>
      </trkpt>
      <trkpt lat="47.30533" lon="-2.33645">
        <ele>101</ele>
        <time>2022-04-14T07:55:47.000Z</time>
      </trkpt>
      <trkpt lat="47.30543" lon="-2.33643">
        <ele>101</ele>
        <time>2022-04-14T07:55:49.000Z</time>
      </trkpt>
      <trkpt lat="47.30549" lon="-2.33649">
        <ele>101</ele>
        <time>2022-04-14T07:55:51.000Z</time>
      </trkpt>
      <trkpt lat="47.30553" lon="-2.33664">
        <ele>101</ele>
        <time>2022-04-14T07:55:54.000Z</time>
      </trkpt>
      <trkpt lat="47.30559" lon="-2.33701">
        <ele>101</ele>
        <time>2022-04-14T07:56:00.000Z</time>
      </trkpt>
      <trkpt lat="47.30565" lon="-2.33733">
        <ele>101.40000152588</ele>
        <time>2022-04-14T07:56:06.000Z</time>
      </trkpt>
      <trkpt lat="47.30567" lon="-2.33739">
        <ele>102.19999694824</ele>
        <time>2022-04-14T07:56:07.000Z</time>
      </trkpt>
      <trkpt lat="47.30568" lon="-2.33744">
        <ele>102.59999847412</ele>
        <time>2022-04-14T07:56:08.000Z</time>
      </trkpt>
      <trkpt lat="47.30569" lon="-2.3375">
        <ele>103</ele>
        <time>2022-04-14T07:56:09.000Z</time>
      </trkpt>
      <trkpt lat="47.30573" lon="-2.33768">
        <ele>103</ele>
        <time>2022-04-14T07:56:12.000Z</time>
      </trkpt>
      <trkpt lat="47.30581" lon="-2.33796">
        <ele>103</ele>
        <time>2022-04-14T07:56:17.000Z</time>
      </trkpt>
      <trkpt lat="47.30589" lon="-2.33822">
        <ele>103</ele>
        <time>2022-04-14T07:56:22.000Z</time>
      </trkpt>
      <trkpt lat="47.30596" lon="-2.33843">
        <ele>103</ele>
        <time>2022-04-14T07:56:27.000Z</time>
      </trkpt>
      <trkpt lat="47.30599" lon="-2.33866">
        <ele>103</ele>
        <time>2022-04-14T07:56:32.000Z</time>
      </trkpt>
      <trkpt lat="47.30598" lon="-2.33898">
        <ele>103</ele>
        <time>2022-04-14T07:56:38.000Z</time>
      </trkpt>
      <trkpt lat="47.30604" lon="-2.33933">
        <ele>103</ele>
        <time>2022-04-14T07:56:44.000Z</time>
      </trkpt>
      <trkpt lat="47.30608" lon="-2.3394">
        <ele>103</ele>
        <time>2022-04-14T07:56:45.000Z</time>
      </trkpt>
      <trkpt lat="47.30616" lon="-2.33953">
        <ele>103</ele>
        <time>2022-04-14T07:56:48.000Z</time>
      </trkpt>
      <trkpt lat="47.3062" lon="-2.33958">
        <ele>103</ele>
        <time>2022-04-14T07:56:49.000Z</time>
      </trkpt>
      <trkpt lat="47.30625" lon="-2.33964">
        <ele>103</ele>
        <time>2022-04-14T07:56:50.000Z</time>
      </trkpt>
      <trkpt lat="47.3064" lon="-2.33981">
        <ele>103</ele>
        <time>2022-04-14T07:56:54.000Z</time>
      </trkpt>
      <trkpt lat="47.30656" lon="-2.3399">
        <ele>103</ele>
        <time>2022-04-14T07:56:58.000Z</time>
      </trkpt>
      <trkpt lat="47.3066" lon="-2.3399">
        <ele>103</ele>
        <time>2022-04-14T07:56:59.000Z</time>
      </trkpt>
      <trkpt lat="47.30697" lon="-2.33991">
        <ele>103</ele>
        <time>2022-04-14T07:57:05.000Z</time>
      </trkpt>
      <trkpt lat="47.30703" lon="-2.33991">
        <ele>103.40000152588</ele>
        <time>2022-04-14T07:57:06.000Z</time>
      </trkpt>
      <trkpt lat="47.30708" lon="-2.3399">
        <ele>103.80000305176</ele>
        <time>2022-04-14T07:57:07.000Z</time>
      </trkpt>
      <trkpt lat="47.30714" lon="-2.33989">
        <ele>104.19999694824</ele>
        <time>2022-04-14T07:57:08.000Z</time>
      </trkpt>
      <trkpt lat="47.30719" lon="-2.33989">
        <ele>104.80000305176</ele>
        <time>2022-04-14T07:57:09.000Z</time>
      </trkpt>
      <trkpt lat="47.30724" lon="-2.33986">
        <ele>105.19999694824</ele>
        <time>2022-04-14T07:57:10.000Z</time>
      </trkpt>
      <trkpt lat="47.30729" lon="-2.33984">
        <ele>105.19999694824</ele>
        <time>2022-04-14T07:57:11.000Z</time>
      </trkpt>
      <trkpt lat="47.30778" lon="-2.3397">
        <ele>105.19999694824</ele>
        <time>2022-04-14T07:57:20.000Z</time>
      </trkpt>
      <trkpt lat="47.30794" lon="-2.33968">
        <ele>105.59999847412</ele>
        <time>2022-04-14T07:57:23.000Z</time>
      </trkpt>
      <trkpt lat="47.30799" lon="-2.33966">
        <ele>106</ele>
        <time>2022-04-14T07:57:24.000Z</time>
      </trkpt>
      <trkpt lat="47.30804" lon="-2.33964">
        <ele>106.40000152588</ele>
        <time>2022-04-14T07:57:25.000Z</time>
      </trkpt>
      <trkpt lat="47.30809" lon="-2.33962">
        <ele>106.80000305176</ele>
        <time>2022-04-14T07:57:26.000Z</time>
      </trkpt>
      <trkpt lat="47.30814" lon="-2.3396">
        <ele>107.19999694824</ele>
        <time>2022-04-14T07:57:27.000Z</time>
      </trkpt>
      <trkpt lat="47.30853" lon="-2.3395">
        <ele>107.19999694824</ele>
        <time>2022-04-14T07:57:35.000Z</time>
      </trkpt>
      <trkpt lat="47.30881" lon="-2.33947">
        <ele>107.19999694824</ele>
        <time>2022-04-14T07:57:41.000Z</time>
      </trkpt>
      <trkpt lat="47.3089" lon="-2.33946">
        <ele>107.19999694824</ele>
        <time>2022-04-14T07:57:43.000Z</time>
      </trkpt>
      <trkpt lat="47.30921" lon="-2.33945">
        <ele>107.19999694824</ele>
        <time>2022-04-14T07:57:50.000Z</time>
      </trkpt>
      <trkpt lat="47.30961" lon="-2.33952">
        <ele>107.19999694824</ele>
        <time>2022-04-14T07:57:58.000Z</time>
      </trkpt>
      <trkpt lat="47.30997" lon="-2.33953">
        <ele>107.19999694824</ele>
        <time>2022-04-14T07:58:05.000Z</time>
      </trkpt>
      <trkpt lat="47.31003" lon="-2.33952">
        <ele>107.19999694824</ele>
        <time>2022-04-14T07:58:06.000Z</time>
      </trkpt>
      <trkpt lat="47.31025" lon="-2.33949">
        <ele>107.19999694824</ele>
        <time>2022-04-14T07:58:10.000Z</time>
      </trkpt>
      <trkpt lat="47.31056" lon="-2.33944">
        <ele>107.19999694824</ele>
        <time>2022-04-14T07:58:16.000Z</time>
      </trkpt>
      <trkpt lat="47.31064" lon="-2.33951">
        <ele>107.19999694824</ele>
        <time>2022-04-14T07:58:19.000Z</time>
      </trkpt>
      <trkpt lat="47.31066" lon="-2.33969">
        <ele>107.19999694824</ele>
        <time>2022-04-14T07:58:22.000Z</time>
      </trkpt>
      <trkpt lat="47.31067" lon="-2.33977">
        <ele>107.19999694824</ele>
        <time>2022-04-14T07:58:23.000Z</time>
      </trkpt>
      <trkpt lat="47.31067" lon="-2.34012">
        <ele>107.19999694824</ele>
        <time>2022-04-14T07:58:27.000Z</time>
      </trkpt>
      <trkpt lat="47.31077" lon="-2.34076">
        <ele>107.19999694824</ele>
        <time>2022-04-14T07:58:34.000Z</time>
      </trkpt>
      <trkpt lat="47.3108" lon="-2.34085">
        <ele>106.40000152588</ele>
        <time>2022-04-14T07:58:35.000Z</time>
      </trkpt>
      <trkpt lat="47.31083" lon="-2.34094">
        <ele>106</ele>
        <time>2022-04-14T07:58:36.000Z</time>
      </trkpt>
      <trkpt lat="47.31086" lon="-2.34103">
        <ele>105.59999847412</ele>
        <time>2022-04-14T07:58:37.000Z</time>
      </trkpt>
      <trkpt lat="47.31089" lon="-2.34113">
        <ele>105.19999694824</ele>
        <time>2022-04-14T07:58:38.000Z</time>
      </trkpt>
      <trkpt lat="47.31098" lon="-2.34131">
        <ele>105.19999694824</ele>
        <time>2022-04-14T07:58:40.000Z</time>
      </trkpt>
      <trkpt lat="47.31108" lon="-2.3415">
        <ele>104.80000305176</ele>
        <time>2022-04-14T07:58:42.000Z</time>
      </trkpt>
      <trkpt lat="47.31113" lon="-2.34159">
        <ele>104.19999694824</ele>
        <time>2022-04-14T07:58:43.000Z</time>
      </trkpt>
      <trkpt lat="47.31118" lon="-2.3417">
        <ele>103.80000305176</ele>
        <time>2022-04-14T07:58:44.000Z</time>
      </trkpt>
      <trkpt lat="47.31124" lon="-2.3418">
        <ele>103.40000152588</ele>
        <time>2022-04-14T07:58:45.000Z</time>
      </trkpt>
      <trkpt lat="47.31129" lon="-2.3419">
        <ele>103</ele>
        <time>2022-04-14T07:58:46.000Z</time>
      </trkpt>
      <trkpt lat="47.31135" lon="-2.34201">
        <ele>102.59999847412</ele>
        <time>2022-04-14T07:58:47.000Z</time>
      </trkpt>
      <trkpt lat="47.31141" lon="-2.34212">
        <ele>102.19999694824</ele>
        <time>2022-04-14T07:58:48.000Z</time>
      </trkpt>
      <trkpt lat="47.31146" lon="-2.34223">
        <ele>101.59999847412</ele>
        <time>2022-04-14T07:58:49.000Z</time>
      </trkpt>
      <trkpt lat="47.31152" lon="-2.34234">
        <ele>101.19999694824</ele>
        <time>2022-04-14T07:58:50.000Z</time>
      </trkpt>
      <trkpt lat="47.31157" lon="-2.34245">
        <ele>100.80000305176</ele>
        <time>2022-04-14T07:58:51.000Z</time>
      </trkpt>
      <trkpt lat="47.31162" lon="-2.34257">
        <ele>100.19999694824</ele>
        <time>2022-04-14T07:58:52.000Z</time>
      </trkpt>
      <trkpt lat="47.31167" lon="-2.34268">
        <ele>99.800003051758</ele>
        <time>2022-04-14T07:58:53.000Z</time>
      </trkpt>
      <trkpt lat="47.31173" lon="-2.34278">
        <ele>99.199996948242</ele>
        <time>2022-04-14T07:58:54.000Z</time>
      </trkpt>
      <trkpt lat="47.31178" lon="-2.34289">
        <ele>98.800003051758</ele>
        <time>2022-04-14T07:58:55.000Z</time>
      </trkpt>
      <trkpt lat="47.31182" lon="-2.34299">
        <ele>98.800003051758</ele>
        <time>2022-04-14T07:58:56.000Z</time>
      </trkpt>
      <trkpt lat="47.31202" lon="-2.34331">
        <ele>98.800003051758</ele>
        <time>2022-04-14T07:59:00.000Z</time>
      </trkpt>
      <trkpt lat="47.31225" lon="-2.34348">
        <ele>98.800003051758</ele>
        <time>2022-04-14T07:59:04.000Z</time>
      </trkpt>
      <trkpt lat="47.31253" lon="-2.3436">
        <ele>98.800003051758</ele>
        <time>2022-04-14T07:59:09.000Z</time>
      </trkpt>
      <trkpt lat="47.31267" lon="-2.34386">
        <ele>98.800003051758</ele>
        <time>2022-04-14T07:59:13.000Z</time>
      </trkpt>
      <trkpt lat="47.31271" lon="-2.3442">
        <ele>98.800003051758</ele>
        <time>2022-04-14T07:59:17.000Z</time>
      </trkpt>
      <trkpt lat="47.31272" lon="-2.34429">
        <ele>98.800003051758</ele>
        <time>2022-04-14T07:59:18.000Z</time>
      </trkpt>
      <trkpt lat="47.31273" lon="-2.34439">
        <ele>99.199996948242</ele>
        <time>2022-04-14T07:59:19.000Z</time>
      </trkpt>
      <trkpt lat="47.31273" lon="-2.34449">
        <ele>99.599998474121</ele>
        <time>2022-04-14T07:59:20.000Z</time>
      </trkpt>
      <trkpt lat="47.31274" lon="-2.34458">
        <ele>100.19999694824</ele>
        <time>2022-04-14T07:59:21.000Z</time>
      </trkpt>
      <trkpt lat="47.31274" lon="-2.34467">
        <ele>100.59999847412</ele>
        <time>2022-04-14T07:59:22.000Z</time>
      </trkpt>
      <trkpt lat="47.31275" lon="-2.34476">
        <ele>101</ele>
        <time>2022-04-14T07:59:23.000Z</time>
      </trkpt>
      <trkpt lat="47.31279" lon="-2.3451">
        <ele>101.40000152588</ele>
        <time>2022-04-14T07:59:27.000Z</time>
      </trkpt>
      <trkpt lat="47.3128" lon="-2.34519">
        <ele>101.80000305176</ele>
        <time>2022-04-14T07:59:28.000Z</time>
      </trkpt>
      <trkpt lat="47.3128" lon="-2.34528">
        <ele>102.19999694824</ele>
        <time>2022-04-14T07:59:29.000Z</time>
      </trkpt>
      <trkpt lat="47.31281" lon="-2.34536">
        <ele>102.59999847412</ele>
        <time>2022-04-14T07:59:30.000Z</time>
      </trkpt>
      <trkpt lat="47.31282" lon="-2.34544">
        <ele>103</ele>
        <time>2022-04-14T07:59:31.000Z</time>
      </trkpt>
      <trkpt lat="47.31287" lon="-2.34589">
        <ele>103</ele>
        <time>2022-04-14T07:59:37.000Z</time>
      </trkpt>
      <trkpt lat="47.31289" lon="-2.34605">
        <ele>103.40000152588</ele>
        <time>2022-04-14T07:59:39.000Z</time>
      </trkpt>
      <trkpt lat="47.3129" lon="-2.34612">
        <ele>103.80000305176</ele>
        <time>2022-04-14T07:59:40.000Z</time>
      </trkpt>
      <trkpt lat="47.31291" lon="-2.3462">
        <ele>104.19999694824</ele>
        <time>2022-04-14T07:59:41.000Z</time>
      </trkpt>
      <trkpt lat="47.31291" lon="-2.34627">
        <ele>104.80000305176</ele>
        <time>2022-04-14T07:59:42.000Z</time>
      </trkpt>
      <trkpt lat="47.31291" lon="-2.34634">
        <ele>105.19999694824</ele>
        <time>2022-04-14T07:59:43.000Z</time>
      </trkpt>
      <trkpt lat="47.31292" lon="-2.3464">
        <ele>105.19999694824</ele>
        <time>2022-04-14T07:59:44.000Z</time>
      </trkpt>
      <trkpt lat="47.31294" lon="-2.34651">
        <ele>105.19999694824</ele>
        <time>2022-04-14T07:59:48.000Z</time>
      </trkpt>
      <trkpt lat="47.31295" lon="-2.34661">
        <ele>105.59999847412</ele>
        <time>2022-04-14T07:59:52.000Z</time>
      </trkpt>
      <trkpt lat="47.31296" lon="-2.34665">
        <ele>106</ele>
        <time>2022-04-14T07:59:53.000Z</time>
      </trkpt>
      <trkpt lat="47.31295" lon="-2.34669">
        <ele>106.40000152588</ele>
        <time>2022-04-14T07:59:54.000Z</time>
      </trkpt>
      <trkpt lat="47.31294" lon="-2.34675">
        <ele>106.80000305176</ele>
        <time>2022-04-14T07:59:55.000Z</time>
      </trkpt>
      <trkpt lat="47.31292" lon="-2.3468">
        <ele>107.19999694824</ele>
        <time>2022-04-14T07:59:56.000Z</time>
      </trkpt>
      <trkpt lat="47.3129" lon="-2.34685">
        <ele>107.19999694824</ele>
        <time>2022-04-14T07:59:57.000Z</time>
      </trkpt>
      <trkpt lat="47.31279" lon="-2.34704">
        <ele>107.19999694824</ele>
        <time>2022-04-14T08:00:01.000Z</time>
      </trkpt>
      <trkpt lat="47.3128" lon="-2.34729">
        <ele>107.19999694824</ele>
        <time>2022-04-14T08:00:05.000Z</time>
      </trkpt>
      <trkpt lat="47.31281" lon="-2.34736">
        <ele>107.19999694824</ele>
        <time>2022-04-14T08:00:06.000Z</time>
      </trkpt>
      <trkpt lat="47.31287" lon="-2.3477">
        <ele>107.19999694824</ele>
        <time>2022-04-14T08:00:11.000Z</time>
      </trkpt>
      <trkpt lat="47.31288" lon="-2.34776">
        <ele>107.59999847412</ele>
        <time>2022-04-14T08:00:12.000Z</time>
      </trkpt>
      <trkpt lat="47.31289" lon="-2.34783">
        <ele>108</ele>
        <time>2022-04-14T08:00:13.000Z</time>
      </trkpt>
      <trkpt lat="47.3129" lon="-2.3479">
        <ele>108.80000305176</ele>
        <time>2022-04-14T08:00:14.000Z</time>
      </trkpt>
      <trkpt lat="47.31291" lon="-2.34797">
        <ele>109.40000152588</ele>
        <time>2022-04-14T08:00:15.000Z</time>
      </trkpt>
      <trkpt lat="47.31298" lon="-2.34832">
        <ele>109.40000152588</ele>
        <time>2022-04-14T08:00:20.000Z</time>
      </trkpt>
      <trkpt lat="47.31314" lon="-2.34898">
        <ele>109.40000152588</ele>
        <time>2022-04-14T08:00:29.000Z</time>
      </trkpt>
      <trkpt lat="47.31332" lon="-2.34961">
        <ele>109.40000152588</ele>
        <time>2022-04-14T08:00:37.000Z</time>
      </trkpt>
      <trkpt lat="47.31343" lon="-2.35012">
        <ele>109.40000152588</ele>
        <time>2022-04-14T08:00:44.000Z</time>
      </trkpt>
      <trkpt lat="47.31344" lon="-2.3502">
        <ele>109.40000152588</ele>
        <time>2022-04-14T08:00:45.000Z</time>
      </trkpt>
      <trkpt lat="47.31345" lon="-2.35057">
        <ele>109.40000152588</ele>
        <time>2022-04-14T08:00:50.000Z</time>
      </trkpt>
      <trkpt lat="47.31345" lon="-2.35095">
        <ele>109.40000152588</ele>
        <time>2022-04-14T08:00:56.000Z</time>
      </trkpt>
      <trkpt lat="47.31345" lon="-2.35122">
        <ele>109.40000152588</ele>
        <time>2022-04-14T08:01:00.000Z</time>
      </trkpt>
      <trkpt lat="47.31346" lon="-2.35137">
        <ele>109.40000152588</ele>
        <time>2022-04-14T08:01:02.000Z</time>
      </trkpt>
      <trkpt lat="47.31345" lon="-2.35144">
        <ele>109.40000152588</ele>
        <time>2022-04-14T08:01:03.000Z</time>
      </trkpt>
      <trkpt lat="47.31343" lon="-2.35184">
        <ele>109.40000152588</ele>
        <time>2022-04-14T08:01:08.000Z</time>
      </trkpt>
      <trkpt lat="47.31341" lon="-2.35224">
        <ele>109.40000152588</ele>
        <time>2022-04-14T08:01:14.000Z</time>
      </trkpt>
      <trkpt lat="47.31341" lon="-2.35267">
        <ele>109.40000152588</ele>
        <time>2022-04-14T08:01:20.000Z</time>
      </trkpt>
      <trkpt lat="47.31342" lon="-2.35318">
        <ele>109.40000152588</ele>
        <time>2022-04-14T08:01:27.000Z</time>
      </trkpt>
      <trkpt lat="47.31339" lon="-2.35361">
        <ele>109.40000152588</ele>
        <time>2022-04-14T08:01:33.000Z</time>
      </trkpt>
      <trkpt lat="47.31339" lon="-2.35408">
        <ele>109.40000152588</ele>
        <time>2022-04-14T08:01:39.000Z</time>
      </trkpt>
      <trkpt lat="47.31338" lon="-2.35424">
        <ele>109.40000152588</ele>
        <time>2022-04-14T08:01:41.000Z</time>
      </trkpt>
      <trkpt lat="47.31337" lon="-2.35459">
        <ele>109.80000305176</ele>
        <time>2022-04-14T08:01:45.000Z</time>
      </trkpt>
      <trkpt lat="47.31336" lon="-2.35467">
        <ele>110.19999694824</ele>
        <time>2022-04-14T08:01:46.000Z</time>
      </trkpt>
      <trkpt lat="47.31336" lon="-2.35474">
        <ele>110.59999847412</ele>
        <time>2022-04-14T08:01:47.000Z</time>
      </trkpt>
      <trkpt lat="47.31336" lon="-2.35482">
        <ele>111</ele>
        <time>2022-04-14T08:01:48.000Z</time>
      </trkpt>
      <trkpt lat="47.31335" lon="-2.3549">
        <ele>111.40000152588</ele>
        <time>2022-04-14T08:01:49.000Z</time>
      </trkpt>
      <trkpt lat="47.31334" lon="-2.35528">
        <ele>111.40000152588</ele>
        <time>2022-04-14T08:01:54.000Z</time>
      </trkpt>
      <trkpt lat="47.31329" lon="-2.35566">
        <ele>111.40000152588</ele>
        <time>2022-04-14T08:02:00.000Z</time>
      </trkpt>
      <trkpt lat="47.3133" lon="-2.3559">
        <ele>111.40000152588</ele>
        <time>2022-04-14T08:02:06.000Z</time>
      </trkpt>
      <trkpt lat="47.31331" lon="-2.35632">
        <ele>111.80000305176</ele>
        <time>2022-04-14T08:02:12.000Z</time>
      </trkpt>
      <trkpt lat="47.31332" lon="-2.35638">
        <ele>112.19999694824</ele>
        <time>2022-04-14T08:02:13.000Z</time>
      </trkpt>
      <trkpt lat="47.31332" lon="-2.35645">
        <ele>112.59999847412</ele>
        <time>2022-04-14T08:02:14.000Z</time>
      </trkpt>
      <trkpt lat="47.31332" lon="-2.35652">
        <ele>113</ele>
        <time>2022-04-14T08:02:15.000Z</time>
      </trkpt>
      <trkpt lat="47.31332" lon="-2.35659">
        <ele>113.40000152588</ele>
        <time>2022-04-14T08:02:16.000Z</time>
      </trkpt>
      <trkpt lat="47.31333" lon="-2.35687">
        <ele>113.40000152588</ele>
        <time>2022-04-14T08:02:20.000Z</time>
      </trkpt>
      <trkpt lat="47.31332" lon="-2.35711">
        <ele>113.40000152588</ele>
        <time>2022-04-14T08:02:23.000Z</time>
      </trkpt>
      <trkpt lat="47.31333" lon="-2.35724">
        <ele>113.40000152588</ele>
        <time>2022-04-14T08:02:25.000Z</time>
      </trkpt>
      <trkpt lat="47.31332" lon="-2.35755">
        <ele>113.40000152588</ele>
        <time>2022-04-14T08:02:29.000Z</time>
      </trkpt>
      <trkpt lat="47.31333" lon="-2.35769">
        <ele>113.40000152588</ele>
        <time>2022-04-14T08:02:31.000Z</time>
      </trkpt>
      <trkpt lat="47.31337" lon="-2.35826">
        <ele>113.40000152588</ele>
        <time>2022-04-14T08:02:38.000Z</time>
      </trkpt>
      <trkpt lat="47.31339" lon="-2.35851">
        <ele>113.40000152588</ele>
        <time>2022-04-14T08:02:41.000Z</time>
      </trkpt>
      <trkpt lat="47.31344" lon="-2.35867">
        <ele>113.40000152588</ele>
        <time>2022-04-14T08:02:43.000Z</time>
      </trkpt>
      <trkpt lat="47.31348" lon="-2.35873">
        <ele>113.40000152588</ele>
        <time>2022-04-14T08:02:44.000Z</time>
      </trkpt>
      <trkpt lat="47.31358" lon="-2.35895">
        <ele>113.40000152588</ele>
        <time>2022-04-14T08:02:47.000Z</time>
      </trkpt>
      <trkpt lat="47.31365" lon="-2.35909">
        <ele>113.40000152588</ele>
        <time>2022-04-14T08:02:49.000Z</time>
      </trkpt>
      <trkpt lat="47.31372" lon="-2.35923">
        <ele>113.40000152588</ele>
        <time>2022-04-14T08:02:51.000Z</time>
      </trkpt>
      <trkpt lat="47.31387" lon="-2.35949">
        <ele>113.40000152588</ele>
        <time>2022-04-14T08:02:55.000Z</time>
      </trkpt>
      <trkpt lat="47.3139" lon="-2.35956">
        <ele>113.40000152588</ele>
        <time>2022-04-14T08:02:56.000Z</time>
      </trkpt>
      <trkpt lat="47.31398" lon="-2.35975">
        <ele>113.40000152588</ele>
        <time>2022-04-14T08:02:59.000Z</time>
      </trkpt>
      <trkpt lat="47.31402" lon="-2.3599">
        <ele>113.40000152588</ele>
        <time>2022-04-14T08:03:01.000Z</time>
      </trkpt>
      <trkpt lat="47.31414" lon="-2.3602">
        <ele>113.40000152588</ele>
        <time>2022-04-14T08:03:06.000Z</time>
      </trkpt>
      <trkpt lat="47.31418" lon="-2.36033">
        <ele>113.40000152588</ele>
        <time>2022-04-14T08:03:08.000Z</time>
      </trkpt>
      <trkpt lat="47.31423" lon="-2.36052">
        <ele>113.80000305176</ele>
        <time>2022-04-14T08:03:11.000Z</time>
      </trkpt>
      <trkpt lat="47.31425" lon="-2.36058">
        <ele>114.19999694824</ele>
        <time>2022-04-14T08:03:12.000Z</time>
      </trkpt>
      <trkpt lat="47.31427" lon="-2.36064">
        <ele>114.59999847412</ele>
        <time>2022-04-14T08:03:13.000Z</time>
      </trkpt>
      <trkpt lat="47.31429" lon="-2.3607">
        <ele>115</ele>
        <time>2022-04-14T08:03:14.000Z</time>
      </trkpt>
      <trkpt lat="47.31431" lon="-2.36076">
        <ele>115.59999847412</ele>
        <time>2022-04-14T08:03:15.000Z</time>
      </trkpt>
      <trkpt lat="47.31435" lon="-2.36089">
        <ele>115.59999847412</ele>
        <time>2022-04-14T08:03:17.000Z</time>
      </trkpt>
      <trkpt lat="47.31437" lon="-2.36095">
        <ele>115.59999847412</ele>
        <time>2022-04-14T08:03:18.000Z</time>
      </trkpt>
      <trkpt lat="47.31451" lon="-2.36143">
        <ele>115.59999847412</ele>
        <time>2022-04-14T08:03:26.000Z</time>
      </trkpt>
      <trkpt lat="47.3146" lon="-2.3617">
        <ele>115.59999847412</ele>
        <time>2022-04-14T08:03:31.000Z</time>
      </trkpt>
      <trkpt lat="47.3147" lon="-2.36169">
        <ele>115.59999847412</ele>
        <time>2022-04-14T08:03:34.000Z</time>
      </trkpt>
      <trkpt lat="47.31473" lon="-2.36166">
        <ele>116</ele>
        <time>2022-04-14T08:03:35.000Z</time>
      </trkpt>
      <trkpt lat="47.31476" lon="-2.36163">
        <ele>116.40000152588</ele>
        <time>2022-04-14T08:03:36.000Z</time>
      </trkpt>
      <trkpt lat="47.3148" lon="-2.36159">
        <ele>116.80000305176</ele>
        <time>2022-04-14T08:03:37.000Z</time>
      </trkpt>
      <trkpt lat="47.31483" lon="-2.36155">
        <ele>117.19999694824</ele>
        <time>2022-04-14T08:03:38.000Z</time>
      </trkpt>
      <trkpt lat="47.31487" lon="-2.36151">
        <ele>117.59999847412</ele>
        <time>2022-04-14T08:03:39.000Z</time>
      </trkpt>
      <trkpt lat="47.31492" lon="-2.36148">
        <ele>117.59999847412</ele>
        <time>2022-04-14T08:03:40.000Z</time>
      </trkpt>
      <trkpt lat="47.31517" lon="-2.3612">
        <ele>117.59999847412</ele>
        <time>2022-04-14T08:03:46.000Z</time>
      </trkpt>
      <trkpt lat="47.3153" lon="-2.36105">
        <ele>117.59999847412</ele>
        <time>2022-04-14T08:03:49.000Z</time>
      </trkpt>
      <trkpt lat="47.31548" lon="-2.36086">
        <ele>117.59999847412</ele>
        <time>2022-04-14T08:03:53.000Z</time>
      </trkpt>
      <trkpt lat="47.31552" lon="-2.36081">
        <ele>117.59999847412</ele>
        <time>2022-04-14T08:03:54.000Z</time>
      </trkpt>
      <trkpt lat="47.31569" lon="-2.36063">
        <ele>117.59999847412</ele>
        <time>2022-04-14T08:03:58.000Z</time>
      </trkpt>
      <trkpt lat="47.31601" lon="-2.36031">
        <ele>117.59999847412</ele>
        <time>2022-04-14T08:04:05.000Z</time>
      </trkpt>
      <trkpt lat="47.31634" lon="-2.35995">
        <ele>117.59999847412</ele>
        <time>2022-04-14T08:04:12.000Z</time>
      </trkpt>
      <trkpt lat="47.31654" lon="-2.35977">
        <ele>117.59999847412</ele>
        <time>2022-04-14T08:04:16.000Z</time>
      </trkpt>
      <trkpt lat="47.3166" lon="-2.35974">
        <ele>117.59999847412</ele>
        <time>2022-04-14T08:04:17.000Z</time>
      </trkpt>
      <trkpt lat="47.31671" lon="-2.35967">
        <ele>117.19999694824</ele>
        <time>2022-04-14T08:04:19.000Z</time>
      </trkpt>
      <trkpt lat="47.31677" lon="-2.35963">
        <ele>116.80000305176</ele>
        <time>2022-04-14T08:04:20.000Z</time>
      </trkpt>
      <trkpt lat="47.31684" lon="-2.3596">
        <ele>116</ele>
        <time>2022-04-14T08:04:21.000Z</time>
      </trkpt>
      <trkpt lat="47.3169" lon="-2.35956">
        <ele>115.59999847412</ele>
        <time>2022-04-14T08:04:22.000Z</time>
      </trkpt>
      <trkpt lat="47.31696" lon="-2.35953">
        <ele>115.59999847412</ele>
        <time>2022-04-14T08:04:23.000Z</time>
      </trkpt>
      <trkpt lat="47.31708" lon="-2.35947">
        <ele>115.59999847412</ele>
        <time>2022-04-14T08:04:25.000Z</time>
      </trkpt>
      <trkpt lat="47.31726" lon="-2.35936">
        <ele>115.59999847412</ele>
        <time>2022-04-14T08:04:28.000Z</time>
      </trkpt>
      <trkpt lat="47.31755" lon="-2.35916">
        <ele>115</ele>
        <time>2022-04-14T08:04:33.000Z</time>
      </trkpt>
      <trkpt lat="47.31762" lon="-2.35912">
        <ele>114.59999847412</ele>
        <time>2022-04-14T08:04:34.000Z</time>
      </trkpt>
      <trkpt lat="47.31768" lon="-2.35909">
        <ele>114.19999694824</ele>
        <time>2022-04-14T08:04:35.000Z</time>
      </trkpt>
      <trkpt lat="47.31774" lon="-2.35904">
        <ele>113.80000305176</ele>
        <time>2022-04-14T08:04:36.000Z</time>
      </trkpt>
      <trkpt lat="47.3178" lon="-2.35901">
        <ele>113.40000152588</ele>
        <time>2022-04-14T08:04:37.000Z</time>
      </trkpt>
      <trkpt lat="47.3179" lon="-2.35895">
        <ele>113.40000152588</ele>
        <time>2022-04-14T08:04:39.000Z</time>
      </trkpt>
      <trkpt lat="47.31817" lon="-2.35881">
        <ele>113.40000152588</ele>
        <time>2022-04-14T08:04:44.000Z</time>
      </trkpt>
      <trkpt lat="47.31823" lon="-2.35863">
        <ele>113.40000152588</ele>
        <time>2022-04-14T08:04:47.000Z</time>
      </trkpt>
      <trkpt lat="47.31822" lon="-2.35855">
        <ele>113.40000152588</ele>
        <time>2022-04-14T08:04:49.000Z</time>
      </trkpt>
      <trkpt lat="47.3182" lon="-2.3585">
        <ele>113.40000152588</ele>
        <time>2022-04-14T08:04:51.000Z</time>
      </trkpt>
      <trkpt lat="47.31818" lon="-2.35845">
        <ele>113.40000152588</ele>
        <time>2022-04-14T08:04:54.000Z</time>
      </trkpt>
      <trkpt lat="47.31816" lon="-2.35842">
        <ele>113.40000152588</ele>
        <time>2022-04-14T08:05:30.000Z</time>
      </trkpt>
      <trkpt lat="47.31808" lon="-2.35828">
        <ele>113.40000152588</ele>
        <time>2022-04-14T08:05:36.000Z</time>
      </trkpt>
      <trkpt lat="47.31797" lon="-2.35813">
        <ele>113.40000152588</ele>
        <time>2022-04-14T08:05:40.000Z</time>
      </trkpt>
      <trkpt lat="47.31794" lon="-2.35808">
        <ele>113.40000152588</ele>
        <time>2022-04-14T08:05:41.000Z</time>
      </trkpt>
      <trkpt lat="47.31788" lon="-2.35787">
        <ele>113.40000152588</ele>
        <time>2022-04-14T08:05:44.000Z</time>
      </trkpt>
      <trkpt lat="47.31785" lon="-2.35756">
        <ele>113.40000152588</ele>
        <time>2022-04-14T08:05:48.000Z</time>
      </trkpt>
      <trkpt lat="47.31784" lon="-2.35747">
        <ele>113.40000152588</ele>
        <time>2022-04-14T08:05:49.000Z</time>
      </trkpt>
      <trkpt lat="47.31784" lon="-2.35699">
        <ele>113</ele>
        <time>2022-04-14T08:05:54.000Z</time>
      </trkpt>
      <trkpt lat="47.31784" lon="-2.3569">
        <ele>112.59999847412</ele>
        <time>2022-04-14T08:05:55.000Z</time>
      </trkpt>
      <trkpt lat="47.31784" lon="-2.35679">
        <ele>112.19999694824</ele>
        <time>2022-04-14T08:05:56.000Z</time>
      </trkpt>
      <trkpt lat="47.31784" lon="-2.35669">
        <ele>111.80000305176</ele>
        <time>2022-04-14T08:05:57.000Z</time>
      </trkpt>
      <trkpt lat="47.31785" lon="-2.3566">
        <ele>111.19999694824</ele>
        <time>2022-04-14T08:05:58.000Z</time>
      </trkpt>
      <trkpt lat="47.31785" lon="-2.35651">
        <ele>111.19999694824</ele>
        <time>2022-04-14T08:05:59.000Z</time>
      </trkpt>
      <trkpt lat="47.31786" lon="-2.35642">
        <ele>110.80000305176</ele>
        <time>2022-04-14T08:06:00.000Z</time>
      </trkpt>
      <trkpt lat="47.31788" lon="-2.35634">
        <ele>110.40000152588</ele>
        <time>2022-04-14T08:06:01.000Z</time>
      </trkpt>
      <trkpt lat="47.3179" lon="-2.35626">
        <ele>110</ele>
        <time>2022-04-14T08:06:02.000Z</time>
      </trkpt>
      <trkpt lat="47.31793" lon="-2.35618">
        <ele>109.59999847412</ele>
        <time>2022-04-14T08:06:03.000Z</time>
      </trkpt>
      <trkpt lat="47.31795" lon="-2.3561">
        <ele>109.19999694824</ele>
        <time>2022-04-14T08:06:04.000Z</time>
      </trkpt>
      <trkpt lat="47.31798" lon="-2.35604">
        <ele>109.19999694824</ele>
        <time>2022-04-14T08:06:05.000Z</time>
      </trkpt>
      <trkpt lat="47.31808" lon="-2.35584">
        <ele>109.19999694824</ele>
        <time>2022-04-14T08:06:10.000Z</time>
      </trkpt>
      <trkpt lat="47.31812" lon="-2.35579">
        <ele>109.19999694824</ele>
        <time>2022-04-14T08:06:13.000Z</time>
      </trkpt>
      <trkpt lat="47.31816" lon="-2.35575">
        <ele>109.19999694824</ele>
        <time>2022-04-14T08:06:15.000Z</time>
      </trkpt>
      <trkpt lat="47.31828" lon="-2.35558">
        <ele>109.19999694824</ele>
        <time>2022-04-14T08:06:20.000Z</time>
      </trkpt>
      <trkpt lat="47.31829" lon="-2.35541">
        <ele>108.40000152588</ele>
        <time>2022-04-14T08:06:24.000Z</time>
      </trkpt>
      <trkpt lat="47.31828" lon="-2.35538">
        <ele>108</ele>
        <time>2022-04-14T08:06:25.000Z</time>
      </trkpt>
      <trkpt lat="47.31827" lon="-2.35535">
        <ele>107.59999847412</ele>
        <time>2022-04-14T08:06:26.000Z</time>
      </trkpt>
      <trkpt lat="47.31826" lon="-2.35533">
        <ele>107.19999694824</ele>
        <time>2022-04-14T08:06:27.000Z</time>
      </trkpt>
      <trkpt lat="47.31823" lon="-2.35522">
        <ele>107.19999694824</ele>
        <time>2022-04-14T08:06:31.000Z</time>
      </trkpt>
      <trkpt lat="47.3182" lon="-2.35514">
        <ele>107.19999694824</ele>
        <time>2022-04-14T08:06:36.000Z</time>
      </trkpt>
      <trkpt lat="47.31816" lon="-2.3549">
        <ele>107.19999694824</ele>
        <time>2022-04-14T08:06:48.000Z</time>
      </trkpt>
      <trkpt lat="47.31811" lon="-2.35476">
        <ele>107.19999694824</ele>
        <time>2022-04-14T08:06:55.000Z</time>
      </trkpt>
      <trkpt lat="47.31808" lon="-2.35467">
        <ele>107.19999694824</ele>
        <time>2022-04-14T08:07:01.000Z</time>
      </trkpt>
      <trkpt lat="47.31803" lon="-2.35455">
        <ele>107.19999694824</ele>
        <time>2022-04-14T08:07:06.000Z</time>
      </trkpt>
      <trkpt lat="47.31792" lon="-2.35442">
        <ele>107.19999694824</ele>
        <time>2022-04-14T08:07:11.000Z</time>
      </trkpt>
      <trkpt lat="47.3179" lon="-2.35438">
        <ele>107.59999847412</ele>
        <time>2022-04-14T08:07:12.000Z</time>
      </trkpt>
      <trkpt lat="47.31788" lon="-2.35435">
        <ele>108.59999847412</ele>
        <time>2022-04-14T08:07:13.000Z</time>
      </trkpt>
      <trkpt lat="47.31786" lon="-2.35431">
        <ele>109</ele>
        <time>2022-04-14T08:07:14.000Z</time>
      </trkpt>
      <trkpt lat="47.31784" lon="-2.35428">
        <ele>109.40000152588</ele>
        <time>2022-04-14T08:07:15.000Z</time>
      </trkpt>
      <trkpt lat="47.31783" lon="-2.35425">
        <ele>109.40000152588</ele>
        <time>2022-04-14T08:07:16.000Z</time>
      </trkpt>
      <trkpt lat="47.31771" lon="-2.3541">
        <ele>109.40000152588</ele>
        <time>2022-04-14T08:07:20.000Z</time>
      </trkpt>
      <trkpt lat="47.31764" lon="-2.35396">
        <ele>109.80000305176</ele>
        <time>2022-04-14T08:07:23.000Z</time>
      </trkpt>
      <trkpt lat="47.31761" lon="-2.35391">
        <ele>110.19999694824</ele>
        <time>2022-04-14T08:07:24.000Z</time>
      </trkpt>
      <trkpt lat="47.31758" lon="-2.35386">
        <ele>110.59999847412</ele>
        <time>2022-04-14T08:07:25.000Z</time>
      </trkpt>
      <trkpt lat="47.31755" lon="-2.35383">
        <ele>111</ele>
        <time>2022-04-14T08:07:26.000Z</time>
      </trkpt>
      <trkpt lat="47.31753" lon="-2.35379">
        <ele>111.40000152588</ele>
        <time>2022-04-14T08:07:27.000Z</time>
      </trkpt>
      <trkpt lat="47.31748" lon="-2.35371">
        <ele>111.40000152588</ele>
        <time>2022-04-14T08:07:30.000Z</time>
      </trkpt>
      <trkpt lat="47.31751" lon="-2.35367">
        <ele>111.40000152588</ele>
        <time>2022-04-14T08:07:33.000Z</time>
      </trkpt>
      <trkpt lat="47.31752" lon="-2.35365">
        <ele>111.40000152588</ele>
        <time>2022-04-14T08:08:10.000Z</time>
      </trkpt>
      <trkpt lat="47.31753" lon="-2.35364">
        <ele>111.40000152588</ele>
        <time>2022-04-14T08:08:11.000Z</time>
      </trkpt>
      <trkpt lat="47.31761" lon="-2.35353">
        <ele>111.40000152588</ele>
        <time>2022-04-14T08:08:16.000Z</time>
      </trkpt>
      <trkpt lat="47.31774" lon="-2.35336">
        <ele>111.40000152588</ele>
        <time>2022-04-14T08:08:21.000Z</time>
      </trkpt>
      <trkpt lat="47.31797" lon="-2.3532">
        <ele>111.40000152588</ele>
        <time>2022-04-14T08:08:27.000Z</time>
      </trkpt>
      <trkpt lat="47.31827" lon="-2.35302">
        <ele>111.40000152588</ele>
        <time>2022-04-14T08:08:32.000Z</time>
      </trkpt>
      <trkpt lat="47.31832" lon="-2.35298">
        <ele>111.40000152588</ele>
        <time>2022-04-14T08:08:33.000Z</time>
      </trkpt>
      <trkpt lat="47.31857" lon="-2.35281">
        <ele>111.40000152588</ele>
        <time>2022-04-14T08:08:38.000Z</time>
      </trkpt>
      <trkpt lat="47.31862" lon="-2.35276">
        <ele>111</ele>
        <time>2022-04-14T08:08:39.000Z</time>
      </trkpt>
      <trkpt lat="47.31867" lon="-2.35272">
        <ele>110.59999847412</ele>
        <time>2022-04-14T08:08:40.000Z</time>
      </trkpt>
      <trkpt lat="47.31873" lon="-2.35267">
        <ele>110.19999694824</ele>
        <time>2022-04-14T08:08:41.000Z</time>
      </trkpt>
      <trkpt lat="47.31879" lon="-2.35261">
        <ele>109.80000305176</ele>
        <time>2022-04-14T08:08:42.000Z</time>
      </trkpt>
      <trkpt lat="47.31884" lon="-2.35256">
        <ele>109.40000152588</ele>
        <time>2022-04-14T08:08:43.000Z</time>
      </trkpt>
      <trkpt lat="47.3189" lon="-2.35251">
        <ele>109.40000152588</ele>
        <time>2022-04-14T08:08:44.000Z</time>
      </trkpt>
      <trkpt lat="47.31923" lon="-2.35223">
        <ele>109.40000152588</ele>
        <time>2022-04-14T08:08:50.000Z</time>
      </trkpt>
      <trkpt lat="47.31943" lon="-2.35205">
        <ele>109.40000152588</ele>
        <time>2022-04-14T08:08:54.000Z</time>
      </trkpt>
      <trkpt lat="47.31947" lon="-2.352">
        <ele>109.40000152588</ele>
        <time>2022-04-14T08:08:55.000Z</time>
      </trkpt>
      <trkpt lat="47.3197" lon="-2.35177">
        <ele>109</ele>
        <time>2022-04-14T08:09:00.000Z</time>
      </trkpt>
      <trkpt lat="47.31975" lon="-2.35172">
        <ele>108.59999847412</ele>
        <time>2022-04-14T08:09:01.000Z</time>
      </trkpt>
      <trkpt lat="47.31981" lon="-2.35168">
        <ele>108.19999694824</ele>
        <time>2022-04-14T08:09:02.000Z</time>
      </trkpt>
      <trkpt lat="47.31986" lon="-2.35162">
        <ele>107.80000305176</ele>
        <time>2022-04-14T08:09:03.000Z</time>
      </trkpt>
      <trkpt lat="47.31991" lon="-2.35157">
        <ele>107.40000152588</ele>
        <time>2022-04-14T08:09:04.000Z</time>
      </trkpt>
      <trkpt lat="47.32012" lon="-2.35136">
        <ele>107.40000152588</ele>
        <time>2022-04-14T08:09:08.000Z</time>
      </trkpt>
      <trkpt lat="47.32024" lon="-2.35121">
        <ele>107.40000152588</ele>
        <time>2022-04-14T08:09:11.000Z</time>
      </trkpt>
      <trkpt lat="47.32028" lon="-2.35109">
        <ele>107.40000152588</ele>
        <time>2022-04-14T08:09:13.000Z</time>
      </trkpt>
      <trkpt lat="47.32028" lon="-2.3509">
        <ele>107.40000152588</ele>
        <time>2022-04-14T08:09:16.000Z</time>
      </trkpt>
      <trkpt lat="47.32027" lon="-2.35085">
        <ele>107.40000152588</ele>
        <time>2022-04-14T08:09:17.000Z</time>
      </trkpt>
      <trkpt lat="47.32025" lon="-2.35067">
        <ele>107.40000152588</ele>
        <time>2022-04-14T08:09:21.000Z</time>
      </trkpt>
      <trkpt lat="47.32028" lon="-2.35063">
        <ele>107.40000152588</ele>
        <time>2022-04-14T08:09:22.000Z</time>
      </trkpt>
      <trkpt lat="47.32042" lon="-2.3506">
        <ele>107.40000152588</ele>
        <time>2022-04-14T08:09:25.000Z</time>
      </trkpt>
      <trkpt lat="47.32075" lon="-2.35062">
        <ele>107.40000152588</ele>
        <time>2022-04-14T08:09:31.000Z</time>
      </trkpt>
      <trkpt lat="47.32118" lon="-2.35062">
        <ele>107.40000152588</ele>
        <time>2022-04-14T08:09:38.000Z</time>
      </trkpt>
      <trkpt lat="47.32161" lon="-2.35058">
        <ele>107.40000152588</ele>
        <time>2022-04-14T08:09:46.000Z</time>
      </trkpt>
      <trkpt lat="47.32199" lon="-2.35056">
        <ele>107.40000152588</ele>
        <time>2022-04-14T08:09:53.000Z</time>
      </trkpt>
      <trkpt lat="47.32209" lon="-2.35054">
        <ele>107.40000152588</ele>
        <time>2022-04-14T08:09:55.000Z</time>
      </trkpt>
      <trkpt lat="47.3222" lon="-2.35052">
        <ele>107.40000152588</ele>
        <time>2022-04-14T08:09:58.000Z</time>
      </trkpt>
      <trkpt lat="47.32233" lon="-2.3505">
        <ele>107.40000152588</ele>
        <time>2022-04-14T08:10:01.000Z</time>
      </trkpt>
      <trkpt lat="47.32247" lon="-2.35049">
        <ele>107.40000152588</ele>
        <time>2022-04-14T08:10:04.000Z</time>
      </trkpt>
      <trkpt lat="47.32257" lon="-2.35047">
        <ele>107.80000305176</ele>
        <time>2022-04-14T08:10:06.000Z</time>
      </trkpt>
      <trkpt lat="47.32261" lon="-2.35046">
        <ele>108.19999694824</ele>
        <time>2022-04-14T08:10:07.000Z</time>
      </trkpt>
      <trkpt lat="47.32266" lon="-2.35046">
        <ele>108.59999847412</ele>
        <time>2022-04-14T08:10:08.000Z</time>
      </trkpt>
      <trkpt lat="47.3227" lon="-2.35045">
        <ele>109</ele>
        <time>2022-04-14T08:10:09.000Z</time>
      </trkpt>
      <trkpt lat="47.32275" lon="-2.35045">
        <ele>109.40000152588</ele>
        <time>2022-04-14T08:10:10.000Z</time>
      </trkpt>
      <trkpt lat="47.32301" lon="-2.35043">
        <ele>109.40000152588</ele>
        <time>2022-04-14T08:10:16.000Z</time>
      </trkpt>
      <trkpt lat="47.32327" lon="-2.35043">
        <ele>109.80000305176</ele>
        <time>2022-04-14T08:10:21.000Z</time>
      </trkpt>
      <trkpt lat="47.32332" lon="-2.35043">
        <ele>110.19999694824</ele>
        <time>2022-04-14T08:10:22.000Z</time>
      </trkpt>
      <trkpt lat="47.32337" lon="-2.35043">
        <ele>110.59999847412</ele>
        <time>2022-04-14T08:10:23.000Z</time>
      </trkpt>
      <trkpt lat="47.32342" lon="-2.35043">
        <ele>111</ele>
        <time>2022-04-14T08:10:24.000Z</time>
      </trkpt>
      <trkpt lat="47.32347" lon="-2.35043">
        <ele>111.40000152588</ele>
        <time>2022-04-14T08:10:25.000Z</time>
      </trkpt>
      <trkpt lat="47.32356" lon="-2.35043">
        <ele>111.40000152588</ele>
        <time>2022-04-14T08:10:27.000Z</time>
      </trkpt>
      <trkpt lat="47.3236" lon="-2.35043">
        <ele>111.40000152588</ele>
        <time>2022-04-14T08:10:28.000Z</time>
      </trkpt>
      <trkpt lat="47.32393" lon="-2.35041">
        <ele>111.40000152588</ele>
        <time>2022-04-14T08:10:35.000Z</time>
      </trkpt>
      <trkpt lat="47.32413" lon="-2.3504">
        <ele>111.40000152588</ele>
        <time>2022-04-14T08:10:39.000Z</time>
      </trkpt>
      <trkpt lat="47.32419" lon="-2.35041">
        <ele>111.80000305176</ele>
        <time>2022-04-14T08:10:40.000Z</time>
      </trkpt>
      <trkpt lat="47.32425" lon="-2.3504">
        <ele>112.40000152588</ele>
        <time>2022-04-14T08:10:41.000Z</time>
      </trkpt>
      <trkpt lat="47.32431" lon="-2.3504">
        <ele>112.80000305176</ele>
        <time>2022-04-14T08:10:42.000Z</time>
      </trkpt>
      <trkpt lat="47.32436" lon="-2.3504">
        <ele>113.19999694824</ele>
        <time>2022-04-14T08:10:43.000Z</time>
      </trkpt>
      <trkpt lat="47.32441" lon="-2.35039">
        <ele>113.59999847412</ele>
        <time>2022-04-14T08:10:44.000Z</time>
      </trkpt>
      <trkpt lat="47.32471" lon="-2.3503">
        <ele>113.59999847412</ele>
        <time>2022-04-14T08:10:50.000Z</time>
      </trkpt>
      <trkpt lat="47.32491" lon="-2.35026">
        <ele>113.59999847412</ele>
        <time>2022-04-14T08:10:54.000Z</time>
      </trkpt>
      <trkpt lat="47.325" lon="-2.35024">
        <ele>113.59999847412</ele>
        <time>2022-04-14T08:10:56.000Z</time>
      </trkpt>
      <trkpt lat="47.32531" lon="-2.35018">
        <ele>113.59999847412</ele>
        <time>2022-04-14T08:11:03.000Z</time>
      </trkpt>
      <trkpt lat="47.32547" lon="-2.35011">
        <ele>113.59999847412</ele>
        <time>2022-04-14T08:11:08.000Z</time>
      </trkpt>
      <trkpt lat="47.32553" lon="-2.3501">
        <ele>113.59999847412</ele>
        <time>2022-04-14T08:11:13.000Z</time>
      </trkpt>
      <trkpt lat="47.32567" lon="-2.35006">
        <ele>113.59999847412</ele>
        <time>2022-04-14T08:11:18.000Z</time>
      </trkpt>
      <trkpt lat="47.32604" lon="-2.34984">
        <ele>113.59999847412</ele>
        <time>2022-04-14T08:11:25.000Z</time>
      </trkpt>
      <trkpt lat="47.3261" lon="-2.3498">
        <ele>113.19999694824</ele>
        <time>2022-04-14T08:11:26.000Z</time>
      </trkpt>
      <trkpt lat="47.32615" lon="-2.34978">
        <ele>112.80000305176</ele>
        <time>2022-04-14T08:11:27.000Z</time>
      </trkpt>
      <trkpt lat="47.32622" lon="-2.34974">
        <ele>112.40000152588</ele>
        <time>2022-04-14T08:11:28.000Z</time>
      </trkpt>
      <trkpt lat="47.32629" lon="-2.34971">
        <ele>112</ele>
        <time>2022-04-14T08:11:29.000Z</time>
      </trkpt>
      <trkpt lat="47.32635" lon="-2.34969">
        <ele>111.59999847412</ele>
        <time>2022-04-14T08:11:30.000Z</time>
      </trkpt>
      <trkpt lat="47.32643" lon="-2.34965">
        <ele>111.59999847412</ele>
        <time>2022-04-14T08:11:32.000Z</time>
      </trkpt>
      <trkpt lat="47.3266" lon="-2.34952">
        <ele>111.59999847412</ele>
        <time>2022-04-14T08:11:37.000Z</time>
      </trkpt>
      <trkpt lat="47.32684" lon="-2.34933">
        <ele>111.59999847412</ele>
        <time>2022-04-14T08:11:42.000Z</time>
      </trkpt>
      <trkpt lat="47.32713" lon="-2.34913">
        <ele>111.59999847412</ele>
        <time>2022-04-14T08:11:47.000Z</time>
      </trkpt>
      <trkpt lat="47.32756" lon="-2.34884">
        <ele>111.59999847412</ele>
        <time>2022-04-14T08:11:54.000Z</time>
      </trkpt>
      <trkpt lat="47.32795" lon="-2.34855">
        <ele>111.59999847412</ele>
        <time>2022-04-14T08:12:01.000Z</time>
      </trkpt>
      <trkpt lat="47.32812" lon="-2.34842">
        <ele>111.19999694824</ele>
        <time>2022-04-14T08:12:04.000Z</time>
      </trkpt>
      <trkpt lat="47.32818" lon="-2.34838">
        <ele>110.59999847412</ele>
        <time>2022-04-14T08:12:05.000Z</time>
      </trkpt>
      <trkpt lat="47.32824" lon="-2.34833">
        <ele>110.19999694824</ele>
        <time>2022-04-14T08:12:06.000Z</time>
      </trkpt>
      <trkpt lat="47.3283" lon="-2.34829">
        <ele>109.80000305176</ele>
        <time>2022-04-14T08:12:07.000Z</time>
      </trkpt>
      <trkpt lat="47.32835" lon="-2.34825">
        <ele>109.40000152588</ele>
        <time>2022-04-14T08:12:08.000Z</time>
      </trkpt>
      <trkpt lat="47.32879" lon="-2.34794">
        <ele>109.40000152588</ele>
        <time>2022-04-14T08:12:16.000Z</time>
      </trkpt>
      <trkpt lat="47.32899" lon="-2.34784">
        <ele>109.40000152588</ele>
        <time>2022-04-14T08:12:21.000Z</time>
      </trkpt>
      <trkpt lat="47.32901" lon="-2.34788">
        <ele>109</ele>
        <time>2022-04-14T08:12:22.000Z</time>
      </trkpt>
      <trkpt lat="47.32903" lon="-2.34792">
        <ele>108.59999847412</ele>
        <time>2022-04-14T08:12:23.000Z</time>
      </trkpt>
      <trkpt lat="47.32905" lon="-2.34797">
        <ele>108.19999694824</ele>
        <time>2022-04-14T08:12:24.000Z</time>
      </trkpt>
      <trkpt lat="47.32907" lon="-2.34801">
        <ele>107.80000305176</ele>
        <time>2022-04-14T08:12:25.000Z</time>
      </trkpt>
      <trkpt lat="47.3291" lon="-2.34805">
        <ele>107.40000152588</ele>
        <time>2022-04-14T08:12:26.000Z</time>
      </trkpt>
      <trkpt lat="47.32915" lon="-2.34816">
        <ele>107.40000152588</ele>
        <time>2022-04-14T08:12:28.000Z</time>
      </trkpt>
      <trkpt lat="47.3292" lon="-2.34826">
        <ele>107.40000152588</ele>
        <time>2022-04-14T08:12:30.000Z</time>
      </trkpt>
      <trkpt lat="47.32932" lon="-2.34855">
        <ele>107.40000152588</ele>
        <time>2022-04-14T08:12:35.000Z</time>
      </trkpt>
      <trkpt lat="47.32945" lon="-2.34878">
        <ele>107.40000152588</ele>
        <time>2022-04-14T08:12:39.000Z</time>
      </trkpt>
      <trkpt lat="47.32947" lon="-2.34883">
        <ele>107.40000152588</ele>
        <time>2022-04-14T08:12:40.000Z</time>
      </trkpt>
      <trkpt lat="47.32952" lon="-2.34894">
        <ele>107.40000152588</ele>
        <time>2022-04-14T08:12:42.000Z</time>
      </trkpt>
      <trkpt lat="47.32957" lon="-2.3491">
        <ele>107.40000152588</ele>
        <time>2022-04-14T08:12:45.000Z</time>
      </trkpt>
      <trkpt lat="47.32963" lon="-2.34926">
        <ele>107.40000152588</ele>
        <time>2022-04-14T08:12:48.000Z</time>
      </trkpt>
      <trkpt lat="47.32966" lon="-2.34931">
        <ele>107.40000152588</ele>
        <time>2022-04-14T08:12:49.000Z</time>
      </trkpt>
      <trkpt lat="47.32971" lon="-2.34945">
        <ele>107.40000152588</ele>
        <time>2022-04-14T08:12:52.000Z</time>
      </trkpt>
      <trkpt lat="47.32973" lon="-2.34948">
        <ele>107.40000152588</ele>
        <time>2022-04-14T08:12:53.000Z</time>
      </trkpt>
      <trkpt lat="47.32976" lon="-2.34957">
        <ele>107.40000152588</ele>
        <time>2022-04-14T08:12:57.000Z</time>
      </trkpt>
      <trkpt lat="47.32977" lon="-2.34962">
        <ele>107.80000305176</ele>
        <time>2022-04-14T08:12:59.000Z</time>
      </trkpt>
      <trkpt lat="47.32977" lon="-2.34965">
        <ele>108.19999694824</ele>
        <time>2022-04-14T08:13:00.000Z</time>
      </trkpt>
      <trkpt lat="47.32978" lon="-2.34969">
        <ele>108.59999847412</ele>
        <time>2022-04-14T08:13:01.000Z</time>
      </trkpt>
      <trkpt lat="47.32979" lon="-2.34972">
        <ele>109</ele>
        <time>2022-04-14T08:13:02.000Z</time>
      </trkpt>
      <trkpt lat="47.32981" lon="-2.34975">
        <ele>109.40000152588</ele>
        <time>2022-04-14T08:13:03.000Z</time>
      </trkpt>
      <trkpt lat="47.32988" lon="-2.34991">
        <ele>109.40000152588</ele>
        <time>2022-04-14T08:13:07.000Z</time>
      </trkpt>
      <trkpt lat="47.32991" lon="-2.35001">
        <ele>109.40000152588</ele>
        <time>2022-04-14T08:13:09.000Z</time>
      </trkpt>
      <trkpt lat="47.32993" lon="-2.35011">
        <ele>109.40000152588</ele>
        <time>2022-04-14T08:13:11.000Z</time>
      </trkpt>
      <trkpt lat="47.32998" lon="-2.35021">
        <ele>109.40000152588</ele>
        <time>2022-04-14T08:13:15.000Z</time>
      </trkpt>
      <trkpt lat="47.33002" lon="-2.35037">
        <ele>109.40000152588</ele>
        <time>2022-04-14T08:13:20.000Z</time>
      </trkpt>
      <trkpt lat="47.33008" lon="-2.35057">
        <ele>109.80000305176</ele>
        <time>2022-04-14T08:13:26.000Z</time>
      </trkpt>
      <trkpt lat="47.33009" lon="-2.3506">
        <ele>110.19999694824</ele>
        <time>2022-04-14T08:13:27.000Z</time>
      </trkpt>
      <trkpt lat="47.33009" lon="-2.35064">
        <ele>110.59999847412</ele>
        <time>2022-04-14T08:13:28.000Z</time>
      </trkpt>
      <trkpt lat="47.3301" lon="-2.35068">
        <ele>111</ele>
        <time>2022-04-14T08:13:29.000Z</time>
      </trkpt>
      <trkpt lat="47.33011" lon="-2.35074">
        <ele>111.40000152588</ele>
        <time>2022-04-14T08:13:30.000Z</time>
      </trkpt>
      <trkpt lat="47.33013" lon="-2.35084">
        <ele>111.40000152588</ele>
        <time>2022-04-14T08:13:32.000Z</time>
      </trkpt>
      <trkpt lat="47.33019" lon="-2.35107">
        <ele>111.40000152588</ele>
        <time>2022-04-14T08:13:37.000Z</time>
      </trkpt>
      <trkpt lat="47.33022" lon="-2.35132">
        <ele>111.40000152588</ele>
        <time>2022-04-14T08:13:42.000Z</time>
      </trkpt>
      <trkpt lat="47.33027" lon="-2.3516">
        <ele>111.40000152588</ele>
        <time>2022-04-14T08:13:48.000Z</time>
      </trkpt>
      <trkpt lat="47.3303" lon="-2.35164">
        <ele>112.40000152588</ele>
        <time>2022-04-14T08:13:49.000Z</time>
      </trkpt>
      <trkpt lat="47.33032" lon="-2.35166">
        <ele>112.80000305176</ele>
        <time>2022-04-14T08:13:50.000Z</time>
      </trkpt>
      <trkpt lat="47.33035" lon="-2.35167">
        <ele>113.19999694824</ele>
        <time>2022-04-14T08:13:51.000Z</time>
      </trkpt>
      <trkpt lat="47.33037" lon="-2.35166">
        <ele>113.59999847412</ele>
        <time>2022-04-14T08:13:52.000Z</time>
      </trkpt>
      <trkpt lat="47.33042" lon="-2.35161">
        <ele>113.59999847412</ele>
        <time>2022-04-14T08:13:54.000Z</time>
      </trkpt>
      <trkpt lat="47.33049" lon="-2.35141">
        <ele>113.59999847412</ele>
        <time>2022-04-14T08:13:58.000Z</time>
      </trkpt>
      <trkpt lat="47.33051" lon="-2.35136">
        <ele>113.59999847412</ele>
        <time>2022-04-14T08:13:59.000Z</time>
      </trkpt>
      <trkpt lat="47.33067" lon="-2.35106">
        <ele>113.59999847412</ele>
        <time>2022-04-14T08:14:05.000Z</time>
      </trkpt>
      <trkpt lat="47.33078" lon="-2.35092">
        <ele>113.59999847412</ele>
        <time>2022-04-14T08:14:08.000Z</time>
      </trkpt>
      <trkpt lat="47.33089" lon="-2.35077">
        <ele>113.59999847412</ele>
        <time>2022-04-14T08:14:12.000Z</time>
      </trkpt>
      <trkpt lat="47.33101" lon="-2.35058">
        <ele>113.59999847412</ele>
        <time>2022-04-14T08:14:17.000Z</time>
      </trkpt>
      <trkpt lat="47.33104" lon="-2.35053">
        <ele>113.59999847412</ele>
        <time>2022-04-14T08:14:18.000Z</time>
      </trkpt>
      <trkpt lat="47.33113" lon="-2.35038">
        <ele>113.59999847412</ele>
        <time>2022-04-14T08:14:21.000Z</time>
      </trkpt>
      <trkpt lat="47.33127" lon="-2.35017">
        <ele>113.59999847412</ele>
        <time>2022-04-14T08:14:26.000Z</time>
      </trkpt>
      <trkpt lat="47.33144" lon="-2.34993">
        <ele>113.59999847412</ele>
        <time>2022-04-14T08:14:31.000Z</time>
      </trkpt>
      <trkpt lat="47.33147" lon="-2.34988">
        <ele>113.59999847412</ele>
        <time>2022-04-14T08:14:32.000Z</time>
      </trkpt>
      <trkpt lat="47.33151" lon="-2.34982">
        <ele>113.19999694824</ele>
        <time>2022-04-14T08:14:33.000Z</time>
      </trkpt>
      <trkpt lat="47.33155" lon="-2.34976">
        <ele>112.80000305176</ele>
        <time>2022-04-14T08:14:34.000Z</time>
      </trkpt>
      <trkpt lat="47.33158" lon="-2.3497">
        <ele>112.40000152588</ele>
        <time>2022-04-14T08:14:35.000Z</time>
      </trkpt>
      <trkpt lat="47.33161" lon="-2.34964">
        <ele>112</ele>
        <time>2022-04-14T08:14:36.000Z</time>
      </trkpt>
      <trkpt lat="47.33164" lon="-2.34957">
        <ele>111.59999847412</ele>
        <time>2022-04-14T08:14:37.000Z</time>
      </trkpt>
      <trkpt lat="47.33167" lon="-2.34951">
        <ele>111.59999847412</ele>
        <time>2022-04-14T08:14:38.000Z</time>
      </trkpt>
      <trkpt lat="47.33177" lon="-2.34932">
        <ele>111.59999847412</ele>
        <time>2022-04-14T08:14:41.000Z</time>
      </trkpt>
      <trkpt lat="47.33181" lon="-2.34925">
        <ele>111.59999847412</ele>
        <time>2022-04-14T08:14:42.000Z</time>
      </trkpt>
      <trkpt lat="47.33198" lon="-2.34889">
        <ele>111.59999847412</ele>
        <time>2022-04-14T08:14:48.000Z</time>
      </trkpt>
      <trkpt lat="47.33208" lon="-2.34868">
        <ele>111.19999694824</ele>
        <time>2022-04-14T08:14:52.000Z</time>
      </trkpt>
      <trkpt lat="47.3321" lon="-2.34863">
        <ele>110.80000305176</ele>
        <time>2022-04-14T08:14:53.000Z</time>
      </trkpt>
      <trkpt lat="47.33213" lon="-2.34857">
        <ele>110.40000152588</ele>
        <time>2022-04-14T08:14:54.000Z</time>
      </trkpt>
      <trkpt lat="47.33215" lon="-2.34852">
        <ele>109.80000305176</ele>
        <time>2022-04-14T08:14:55.000Z</time>
      </trkpt>
      <trkpt lat="47.33217" lon="-2.34848">
        <ele>109.40000152588</ele>
        <time>2022-04-14T08:14:56.000Z</time>
      </trkpt>
      <trkpt lat="47.33221" lon="-2.34839">
        <ele>109.40000152588</ele>
        <time>2022-04-14T08:14:58.000Z</time>
      </trkpt>
      <trkpt lat="47.33228" lon="-2.34812">
        <ele>109.40000152588</ele>
        <time>2022-04-14T08:15:04.000Z</time>
      </trkpt>
      <trkpt lat="47.33236" lon="-2.34788">
        <ele>109.40000152588</ele>
        <time>2022-04-14T08:15:08.000Z</time>
      </trkpt>
      <trkpt lat="47.33244" lon="-2.34771">
        <ele>109.40000152588</ele>
        <time>2022-04-14T08:15:11.000Z</time>
      </trkpt>
      <trkpt lat="47.33247" lon="-2.34758">
        <ele>109.40000152588</ele>
        <time>2022-04-14T08:15:13.000Z</time>
      </trkpt>
      <trkpt lat="47.33257" lon="-2.34728">
        <ele>109.40000152588</ele>
        <time>2022-04-14T08:15:18.000Z</time>
      </trkpt>
      <trkpt lat="47.33258" lon="-2.34721">
        <ele>109.40000152588</ele>
        <time>2022-04-14T08:15:19.000Z</time>
      </trkpt>
      <trkpt lat="47.33265" lon="-2.34701">
        <ele>109.40000152588</ele>
        <time>2022-04-14T08:15:22.000Z</time>
      </trkpt>
      <trkpt lat="47.33269" lon="-2.34689">
        <ele>109.40000152588</ele>
        <time>2022-04-14T08:15:24.000Z</time>
      </trkpt>
      <trkpt lat="47.33271" lon="-2.34685">
        <ele>109</ele>
        <time>2022-04-14T08:15:25.000Z</time>
      </trkpt>
      <trkpt lat="47.33273" lon="-2.34682">
        <ele>108.59999847412</ele>
        <time>2022-04-14T08:15:26.000Z</time>
      </trkpt>
      <trkpt lat="47.33274" lon="-2.3468">
        <ele>107.80000305176</ele>
        <time>2022-04-14T08:15:27.000Z</time>
      </trkpt>
      <trkpt lat="47.33276" lon="-2.34678">
        <ele>107.40000152588</ele>
        <time>2022-04-14T08:15:28.000Z</time>
      </trkpt>
      <trkpt lat="47.33277" lon="-2.34676">
        <ele>107.40000152588</ele>
        <time>2022-04-14T08:15:29.000Z</time>
      </trkpt>
      <trkpt lat="47.33282" lon="-2.34668">
        <ele>107.40000152588</ele>
        <time>2022-04-14T08:15:33.000Z</time>
      </trkpt>
      <trkpt lat="47.33291" lon="-2.34647">
        <ele>107.40000152588</ele>
        <time>2022-04-14T08:15:39.000Z</time>
      </trkpt>
      <trkpt lat="47.333" lon="-2.34618">
        <ele>107.40000152588</ele>
        <time>2022-04-14T08:15:44.000Z</time>
      </trkpt>
      <trkpt lat="47.3331" lon="-2.34592">
        <ele>107.40000152588</ele>
        <time>2022-04-14T08:15:49.000Z</time>
      </trkpt>
      <trkpt lat="47.33315" lon="-2.34583">
        <ele>107.40000152588</ele>
        <time>2022-04-14T08:15:52.000Z</time>
      </trkpt>
      <trkpt lat="47.33319" lon="-2.34579">
        <ele>107.40000152588</ele>
        <time>2022-04-14T08:15:54.000Z</time>
      </trkpt>
      <trkpt lat="47.33323" lon="-2.34571">
        <ele>107.40000152588</ele>
        <time>2022-04-14T08:15:58.000Z</time>
      </trkpt>
      <trkpt lat="47.33323" lon="-2.34562">
        <ele>107.40000152588</ele>
        <time>2022-04-14T08:16:02.000Z</time>
      </trkpt>
      <trkpt lat="47.33323" lon="-2.3456">
        <ele>107.40000152588</ele>
        <time>2022-04-14T08:16:03.000Z</time>
      </trkpt>
      <trkpt lat="47.33322" lon="-2.34544">
        <ele>107.40000152588</ele>
        <time>2022-04-14T08:16:08.000Z</time>
      </trkpt>
      <trkpt lat="47.33323" lon="-2.34528">
        <ele>107.40000152588</ele>
        <time>2022-04-14T08:16:12.000Z</time>
      </trkpt>
      <trkpt lat="47.33325" lon="-2.34524">
        <ele>107.40000152588</ele>
        <time>2022-04-14T08:16:13.000Z</time>
      </trkpt>
      <trkpt lat="47.33338" lon="-2.34501">
        <ele>107.40000152588</ele>
        <time>2022-04-14T08:16:20.000Z</time>
      </trkpt>
      <trkpt lat="47.33342" lon="-2.34497">
        <ele>107.40000152588</ele>
        <time>2022-04-14T08:16:23.000Z</time>
      </trkpt>
      <trkpt lat="47.33351" lon="-2.34498">
        <ele>109.40000152588</ele>
        <time>2022-04-14T08:19:15.000Z</time>
      </trkpt>
      <trkpt lat="47.33354" lon="-2.345">
        <ele>109.40000152588</ele>
        <time>2022-04-14T08:19:16.000Z</time>
      </trkpt>
      <trkpt lat="47.33363" lon="-2.34508">
        <ele>109.40000152588</ele>
        <time>2022-04-14T08:19:20.000Z</time>
      </trkpt>
      <trkpt lat="47.33365" lon="-2.34512">
        <ele>109.40000152588</ele>
        <time>2022-04-14T08:19:21.000Z</time>
      </trkpt>
      <trkpt lat="47.33376" lon="-2.34533">
        <ele>109.40000152588</ele>
        <time>2022-04-14T08:19:27.000Z</time>
      </trkpt>
      <trkpt lat="47.33383" lon="-2.34546">
        <ele>109.80000305176</ele>
        <time>2022-04-14T08:19:30.000Z</time>
      </trkpt>
      <trkpt lat="47.33386" lon="-2.3455">
        <ele>110.19999694824</ele>
        <time>2022-04-14T08:19:31.000Z</time>
      </trkpt>
      <trkpt lat="47.33389" lon="-2.34555">
        <ele>110.59999847412</ele>
        <time>2022-04-14T08:19:32.000Z</time>
      </trkpt>
      <trkpt lat="47.33393" lon="-2.3456">
        <ele>111</ele>
        <time>2022-04-14T08:19:33.000Z</time>
      </trkpt>
      <trkpt lat="47.33396" lon="-2.34565">
        <ele>111.40000152588</ele>
        <time>2022-04-14T08:19:34.000Z</time>
      </trkpt>
      <trkpt lat="47.33423" lon="-2.34609">
        <ele>111.40000152588</ele>
        <time>2022-04-14T08:19:43.000Z</time>
      </trkpt>
      <trkpt lat="47.33431" lon="-2.34624">
        <ele>111.80000305176</ele>
        <time>2022-04-14T08:19:46.000Z</time>
      </trkpt>
      <trkpt lat="47.33434" lon="-2.34629">
        <ele>112.19999694824</ele>
        <time>2022-04-14T08:19:47.000Z</time>
      </trkpt>
      <trkpt lat="47.33437" lon="-2.34633">
        <ele>112.59999847412</ele>
        <time>2022-04-14T08:19:48.000Z</time>
      </trkpt>
      <trkpt lat="47.3344" lon="-2.34638">
        <ele>113</ele>
        <time>2022-04-14T08:19:49.000Z</time>
      </trkpt>
      <trkpt lat="47.33443" lon="-2.34642">
        <ele>113.40000152588</ele>
        <time>2022-04-14T08:19:50.000Z</time>
      </trkpt>
      <trkpt lat="47.33451" lon="-2.34658">
        <ele>113.40000152588</ele>
        <time>2022-04-14T08:19:53.000Z</time>
      </trkpt>
      <trkpt lat="47.3346" lon="-2.34671">
        <ele>113.40000152588</ele>
        <time>2022-04-14T08:19:56.000Z</time>
      </trkpt>
      <trkpt lat="47.33466" lon="-2.3468">
        <ele>113.40000152588</ele>
        <time>2022-04-14T08:19:58.000Z</time>
      </trkpt>
      <trkpt lat="47.33472" lon="-2.34689">
        <ele>113.80000305176</ele>
        <time>2022-04-14T08:20:00.000Z</time>
      </trkpt>
      <trkpt lat="47.33475" lon="-2.34693">
        <ele>114.40000152588</ele>
        <time>2022-04-14T08:20:01.000Z</time>
      </trkpt>
      <trkpt lat="47.33478" lon="-2.34698">
        <ele>114.80000305176</ele>
        <time>2022-04-14T08:20:02.000Z</time>
      </trkpt>
      <trkpt lat="47.33482" lon="-2.34703">
        <ele>115.19999694824</ele>
        <time>2022-04-14T08:20:03.000Z</time>
      </trkpt>
      <trkpt lat="47.33486" lon="-2.34708">
        <ele>115.59999847412</ele>
        <time>2022-04-14T08:20:04.000Z</time>
      </trkpt>
      <trkpt lat="47.33497" lon="-2.34723">
        <ele>115.59999847412</ele>
        <time>2022-04-14T08:20:07.000Z</time>
      </trkpt>
      <trkpt lat="47.33515" lon="-2.34746">
        <ele>116</ele>
        <time>2022-04-14T08:20:12.000Z</time>
      </trkpt>
      <trkpt lat="47.33518" lon="-2.34751">
        <ele>116.40000152588</ele>
        <time>2022-04-14T08:20:13.000Z</time>
      </trkpt>
      <trkpt lat="47.33522" lon="-2.34756">
        <ele>116.80000305176</ele>
        <time>2022-04-14T08:20:14.000Z</time>
      </trkpt>
      <trkpt lat="47.33525" lon="-2.34762">
        <ele>117.19999694824</ele>
        <time>2022-04-14T08:20:15.000Z</time>
      </trkpt>
      <trkpt lat="47.33529" lon="-2.34767">
        <ele>117.59999847412</ele>
        <time>2022-04-14T08:20:16.000Z</time>
      </trkpt>
      <trkpt lat="47.33536" lon="-2.34778">
        <ele>117.59999847412</ele>
        <time>2022-04-14T08:20:18.000Z</time>
      </trkpt>
      <trkpt lat="47.33549" lon="-2.34797">
        <ele>117.59999847412</ele>
        <time>2022-04-14T08:20:22.000Z</time>
      </trkpt>
      <trkpt lat="47.33576" lon="-2.3483">
        <ele>117.59999847412</ele>
        <time>2022-04-14T08:20:28.000Z</time>
      </trkpt>
      <trkpt lat="47.33603" lon="-2.34864">
        <ele>117.59999847412</ele>
        <time>2022-04-14T08:20:34.000Z</time>
      </trkpt>
      <trkpt lat="47.33606" lon="-2.3487">
        <ele>117.59999847412</ele>
        <time>2022-04-14T08:20:35.000Z</time>
      </trkpt>
      <trkpt lat="47.3362" lon="-2.34887">
        <ele>117.59999847412</ele>
        <time>2022-04-14T08:20:38.000Z</time>
      </trkpt>
      <trkpt lat="47.33653" lon="-2.34932">
        <ele>117.59999847412</ele>
        <time>2022-04-14T08:20:45.000Z</time>
      </trkpt>
      <trkpt lat="47.33664" lon="-2.34946">
        <ele>117.19999694824</ele>
        <time>2022-04-14T08:20:47.000Z</time>
      </trkpt>
      <trkpt lat="47.3367" lon="-2.34954">
        <ele>116.80000305176</ele>
        <time>2022-04-14T08:20:48.000Z</time>
      </trkpt>
      <trkpt lat="47.33675" lon="-2.34962">
        <ele>116.40000152588</ele>
        <time>2022-04-14T08:20:49.000Z</time>
      </trkpt>
      <trkpt lat="47.33679" lon="-2.34969">
        <ele>115.40000152588</ele>
        <time>2022-04-14T08:20:50.000Z</time>
      </trkpt>
      <trkpt lat="47.33688" lon="-2.34983">
        <ele>115.40000152588</ele>
        <time>2022-04-14T08:20:52.000Z</time>
      </trkpt>
      <trkpt lat="47.33704" lon="-2.35006">
        <ele>115.40000152588</ele>
        <time>2022-04-14T08:20:56.000Z</time>
      </trkpt>
      <trkpt lat="47.33708" lon="-2.35008">
        <ele>115.40000152588</ele>
        <time>2022-04-14T08:20:57.000Z</time>
      </trkpt>
      <trkpt lat="47.33722" lon="-2.35">
        <ele>115.40000152588</ele>
        <time>2022-04-14T08:21:00.000Z</time>
      </trkpt>
      <trkpt lat="47.33729" lon="-2.34992">
        <ele>115.40000152588</ele>
        <time>2022-04-14T08:21:01.000Z</time>
      </trkpt>
      <trkpt lat="47.3375" lon="-2.34973">
        <ele>115.40000152588</ele>
        <time>2022-04-14T08:21:04.000Z</time>
      </trkpt>
      <trkpt lat="47.33777" lon="-2.34947">
        <ele>115.40000152588</ele>
        <time>2022-04-14T08:21:08.000Z</time>
      </trkpt>
      <trkpt lat="47.33783" lon="-2.34938">
        <ele>115.40000152588</ele>
        <time>2022-04-14T08:21:09.000Z</time>
      </trkpt>
      <trkpt lat="47.33797" lon="-2.34917">
        <ele>115</ele>
        <time>2022-04-14T08:21:12.000Z</time>
      </trkpt>
      <trkpt lat="47.33799" lon="-2.34912">
        <ele>114.59999847412</ele>
        <time>2022-04-14T08:21:13.000Z</time>
      </trkpt>
      <trkpt lat="47.33801" lon="-2.34907">
        <ele>113.59999847412</ele>
        <time>2022-04-14T08:21:14.000Z</time>
      </trkpt>
      <trkpt lat="47.33802" lon="-2.34903">
        <ele>113.19999694824</ele>
        <time>2022-04-14T08:21:15.000Z</time>
      </trkpt>
      <trkpt lat="47.33805" lon="-2.34897">
        <ele>113.19999694824</ele>
        <time>2022-04-14T08:21:17.000Z</time>
      </trkpt>
      <trkpt lat="47.33808" lon="-2.34891">
        <ele>113.19999694824</ele>
        <time>2022-04-14T08:21:20.000Z</time>
      </trkpt>
      <trkpt lat="47.33811" lon="-2.34886">
        <ele>113.19999694824</ele>
        <time>2022-04-14T08:21:22.000Z</time>
      </trkpt>
      <trkpt lat="47.33819" lon="-2.34874">
        <ele>113.19999694824</ele>
        <time>2022-04-14T08:21:27.000Z</time>
      </trkpt>
      <trkpt lat="47.3383" lon="-2.34864">
        <ele>113.19999694824</ele>
        <time>2022-04-14T08:21:31.000Z</time>
      </trkpt>
      <trkpt lat="47.33838" lon="-2.34857">
        <ele>113.19999694824</ele>
        <time>2022-04-14T08:21:35.000Z</time>
      </trkpt>
      <trkpt lat="47.33838" lon="-2.34856">
        <ele>113.19999694824</ele>
        <time>2022-04-14T08:21:37.000Z</time>
      </trkpt>
      <trkpt lat="47.33842" lon="-2.34852">
        <ele>113.19999694824</ele>
        <time>2022-04-14T08:21:49.000Z</time>
      </trkpt>
      <trkpt lat="47.33844" lon="-2.34851">
        <ele>113.19999694824</ele>
        <time>2022-04-14T08:21:50.000Z</time>
      </trkpt>
      <trkpt lat="47.33851" lon="-2.34843">
        <ele>113.19999694824</ele>
        <time>2022-04-14T08:21:56.000Z</time>
      </trkpt>
      <trkpt lat="47.33852" lon="-2.34842">
        <ele>113.19999694824</ele>
        <time>2022-04-14T08:21:59.000Z</time>
      </trkpt>
      <trkpt lat="47.33857" lon="-2.34829">
        <ele>113.19999694824</ele>
        <time>2022-04-14T08:22:10.000Z</time>
      </trkpt>
      <trkpt lat="47.33858" lon="-2.34825">
        <ele>113.19999694824</ele>
        <time>2022-04-14T08:22:11.000Z</time>
      </trkpt>
      <trkpt lat="47.33862" lon="-2.34795">
        <ele>113.19999694824</ele>
        <time>2022-04-14T08:22:17.000Z</time>
      </trkpt>
      <trkpt lat="47.33865" lon="-2.34758">
        <ele>113.19999694824</ele>
        <time>2022-04-14T08:22:23.000Z</time>
      </trkpt>
      <trkpt lat="47.33867" lon="-2.34734">
        <ele>113.19999694824</ele>
        <time>2022-04-14T08:22:27.000Z</time>
      </trkpt>
      <trkpt lat="47.33867" lon="-2.34719">
        <ele>113.59999847412</ele>
        <time>2022-04-14T08:22:30.000Z</time>
      </trkpt>
      <trkpt lat="47.33866" lon="-2.34713">
        <ele>114</ele>
        <time>2022-04-14T08:22:31.000Z</time>
      </trkpt>
      <trkpt lat="47.33866" lon="-2.34707">
        <ele>114.40000152588</ele>
        <time>2022-04-14T08:22:32.000Z</time>
      </trkpt>
      <trkpt lat="47.33866" lon="-2.34702">
        <ele>115</ele>
        <time>2022-04-14T08:22:33.000Z</time>
      </trkpt>
      <trkpt lat="47.33866" lon="-2.34697">
        <ele>115.40000152588</ele>
        <time>2022-04-14T08:22:34.000Z</time>
      </trkpt>
      <trkpt lat="47.33869" lon="-2.34669">
        <ele>115.40000152588</ele>
        <time>2022-04-14T08:22:39.000Z</time>
      </trkpt>
      <trkpt lat="47.33875" lon="-2.34633">
        <ele>115.40000152588</ele>
        <time>2022-04-14T08:22:45.000Z</time>
      </trkpt>
      <trkpt lat="47.33884" lon="-2.34609">
        <ele>115.40000152588</ele>
        <time>2022-04-14T08:22:50.000Z</time>
      </trkpt>
      <trkpt lat="47.33891" lon="-2.34603">
        <ele>115.40000152588</ele>
        <time>2022-04-14T08:22:52.000Z</time>
      </trkpt>
      <trkpt lat="47.339" lon="-2.346">
        <ele>115.40000152588</ele>
        <time>2022-04-14T08:22:54.000Z</time>
      </trkpt>
      <trkpt lat="47.3392" lon="-2.34597">
        <ele>115.40000152588</ele>
        <time>2022-04-14T08:22:59.000Z</time>
      </trkpt>
      <trkpt lat="47.33929" lon="-2.34595">
        <ele>115.80000305176</ele>
        <time>2022-04-14T08:23:01.000Z</time>
      </trkpt>
      <trkpt lat="47.33933" lon="-2.34595">
        <ele>116.19999694824</ele>
        <time>2022-04-14T08:23:02.000Z</time>
      </trkpt>
      <trkpt lat="47.33937" lon="-2.34595">
        <ele>116.59999847412</ele>
        <time>2022-04-14T08:23:03.000Z</time>
      </trkpt>
      <trkpt lat="47.33942" lon="-2.34594">
        <ele>117</ele>
        <time>2022-04-14T08:23:04.000Z</time>
      </trkpt>
      <trkpt lat="47.33946" lon="-2.34592">
        <ele>117.40000152588</ele>
        <time>2022-04-14T08:23:05.000Z</time>
      </trkpt>
      <trkpt lat="47.33962" lon="-2.34591">
        <ele>117.40000152588</ele>
        <time>2022-04-14T08:23:10.000Z</time>
      </trkpt>
      <trkpt lat="47.33965" lon="-2.34591">
        <ele>117.40000152588</ele>
        <time>2022-04-14T08:23:13.000Z</time>
      </trkpt>
      <trkpt lat="47.33971" lon="-2.34592">
        <ele>117.40000152588</ele>
        <time>2022-04-14T08:24:34.000Z</time>
      </trkpt>
      <trkpt lat="47.33974" lon="-2.34593">
        <ele>117.40000152588</ele>
        <time>2022-04-14T08:24:35.000Z</time>
      </trkpt>
      <trkpt lat="47.33992" lon="-2.34599">
        <ele>117.40000152588</ele>
        <time>2022-04-14T08:24:39.000Z</time>
      </trkpt>
      <trkpt lat="47.34017" lon="-2.34599">
        <ele>117.40000152588</ele>
        <time>2022-04-14T08:24:44.000Z</time>
      </trkpt>
      <trkpt lat="47.34023" lon="-2.34597">
        <ele>117.40000152588</ele>
        <time>2022-04-14T08:24:45.000Z</time>
      </trkpt>
      <trkpt lat="47.34039" lon="-2.34589">
        <ele>117.40000152588</ele>
        <time>2022-04-14T08:24:48.000Z</time>
      </trkpt>
      <trkpt lat="47.3406" lon="-2.34574">
        <ele>117.40000152588</ele>
        <time>2022-04-14T08:24:53.000Z</time>
      </trkpt>
      <trkpt lat="47.34067" lon="-2.34568">
        <ele>117.40000152588</ele>
        <time>2022-04-14T08:24:55.000Z</time>
      </trkpt>
      <trkpt lat="47.34076" lon="-2.3456">
        <ele>117.40000152588</ele>
        <time>2022-04-14T08:24:57.000Z</time>
      </trkpt>
      <trkpt lat="47.34107" lon="-2.34537">
        <ele>117.40000152588</ele>
        <time>2022-04-14T08:25:03.000Z</time>
      </trkpt>
      <trkpt lat="47.34141" lon="-2.34521">
        <ele>117.40000152588</ele>
        <time>2022-04-14T08:25:09.000Z</time>
      </trkpt>
      <trkpt lat="47.34183" lon="-2.34507">
        <ele>117.40000152588</ele>
        <time>2022-04-14T08:25:16.000Z</time>
      </trkpt>
      <trkpt lat="47.34213" lon="-2.34495">
        <ele>117.40000152588</ele>
        <time>2022-04-14T08:25:21.000Z</time>
      </trkpt>
      <trkpt lat="47.3425" lon="-2.34478">
        <ele>117.40000152588</ele>
        <time>2022-04-14T08:25:28.000Z</time>
      </trkpt>
      <trkpt lat="47.34278" lon="-2.34468">
        <ele>117.40000152588</ele>
        <time>2022-04-14T08:25:33.000Z</time>
      </trkpt>
      <trkpt lat="47.34302" lon="-2.34467">
        <ele>117.40000152588</ele>
        <time>2022-04-14T08:25:37.000Z</time>
      </trkpt>
      <trkpt lat="47.34336" lon="-2.34462">
        <ele>117.40000152588</ele>
        <time>2022-04-14T08:25:43.000Z</time>
      </trkpt>
      <trkpt lat="47.34342" lon="-2.34461">
        <ele>117.40000152588</ele>
        <time>2022-04-14T08:25:44.000Z</time>
      </trkpt>
      <trkpt lat="47.34362" lon="-2.34446">
        <ele>117.40000152588</ele>
        <time>2022-04-14T08:25:48.000Z</time>
      </trkpt>
      <trkpt lat="47.34374" lon="-2.34438">
        <ele>117.40000152588</ele>
        <time>2022-04-14T08:25:50.000Z</time>
      </trkpt>
      <trkpt lat="47.34396" lon="-2.34427">
        <ele>117.40000152588</ele>
        <time>2022-04-14T08:25:54.000Z</time>
      </trkpt>
      <trkpt lat="47.34432" lon="-2.34409">
        <ele>117.40000152588</ele>
        <time>2022-04-14T08:26:00.000Z</time>
      </trkpt>
      <trkpt lat="47.34438" lon="-2.34407">
        <ele>117.40000152588</ele>
        <time>2022-04-14T08:26:01.000Z</time>
      </trkpt>
      <trkpt lat="47.34462" lon="-2.344">
        <ele>117.40000152588</ele>
        <time>2022-04-14T08:26:05.000Z</time>
      </trkpt>
      <trkpt lat="47.34468" lon="-2.34398">
        <ele>117</ele>
        <time>2022-04-14T08:26:06.000Z</time>
      </trkpt>
      <trkpt lat="47.34474" lon="-2.34395">
        <ele>116.59999847412</ele>
        <time>2022-04-14T08:26:07.000Z</time>
      </trkpt>
      <trkpt lat="47.34479" lon="-2.34392">
        <ele>116.19999694824</ele>
        <time>2022-04-14T08:26:08.000Z</time>
      </trkpt>
      <trkpt lat="47.34485" lon="-2.34389">
        <ele>115.80000305176</ele>
        <time>2022-04-14T08:26:09.000Z</time>
      </trkpt>
      <trkpt lat="47.3449" lon="-2.34385">
        <ele>115.19999694824</ele>
        <time>2022-04-14T08:26:10.000Z</time>
      </trkpt>
      <trkpt lat="47.34496" lon="-2.34379">
        <ele>115.19999694824</ele>
        <time>2022-04-14T08:26:11.000Z</time>
      </trkpt>
      <trkpt lat="47.3452" lon="-2.3435">
        <ele>115.19999694824</ele>
        <time>2022-04-14T08:26:16.000Z</time>
      </trkpt>
      <trkpt lat="47.34525" lon="-2.34346">
        <ele>115.19999694824</ele>
        <time>2022-04-14T08:26:17.000Z</time>
      </trkpt>
      <trkpt lat="47.34544" lon="-2.34327">
        <ele>115.19999694824</ele>
        <time>2022-04-14T08:26:21.000Z</time>
      </trkpt>
      <trkpt lat="47.34562" lon="-2.34314">
        <ele>115.19999694824</ele>
        <time>2022-04-14T08:26:25.000Z</time>
      </trkpt>
      <trkpt lat="47.34567" lon="-2.34311">
        <ele>115.19999694824</ele>
        <time>2022-04-14T08:26:26.000Z</time>
      </trkpt>
      <trkpt lat="47.3459" lon="-2.343">
        <ele>115.19999694824</ele>
        <time>2022-04-14T08:26:30.000Z</time>
      </trkpt>
      <trkpt lat="47.34596" lon="-2.34299">
        <ele>115.19999694824</ele>
        <time>2022-04-14T08:26:31.000Z</time>
      </trkpt>
      <trkpt lat="47.34601" lon="-2.34299">
        <ele>114.80000305176</ele>
        <time>2022-04-14T08:26:32.000Z</time>
      </trkpt>
      <trkpt lat="47.34606" lon="-2.34298">
        <ele>114.40000152588</ele>
        <time>2022-04-14T08:26:33.000Z</time>
      </trkpt>
      <trkpt lat="47.34611" lon="-2.34297">
        <ele>114</ele>
        <time>2022-04-14T08:26:34.000Z</time>
      </trkpt>
      <trkpt lat="47.34616" lon="-2.34296">
        <ele>113.59999847412</ele>
        <time>2022-04-14T08:26:35.000Z</time>
      </trkpt>
      <trkpt lat="47.3462" lon="-2.34296">
        <ele>113.19999694824</ele>
        <time>2022-04-14T08:26:36.000Z</time>
      </trkpt>
      <trkpt lat="47.34623" lon="-2.34295">
        <ele>112.59999847412</ele>
        <time>2022-04-14T08:26:37.000Z</time>
      </trkpt>
      <trkpt lat="47.34627" lon="-2.34294">
        <ele>112.19999694824</ele>
        <time>2022-04-14T08:26:38.000Z</time>
      </trkpt>
      <trkpt lat="47.3463" lon="-2.34292">
        <ele>111.80000305176</ele>
        <time>2022-04-14T08:26:39.000Z</time>
      </trkpt>
      <trkpt lat="47.34634" lon="-2.34288">
        <ele>111.19999694824</ele>
        <time>2022-04-14T08:26:40.000Z</time>
      </trkpt>
      <trkpt lat="47.34638" lon="-2.34285">
        <ele>110.80000305176</ele>
        <time>2022-04-14T08:26:41.000Z</time>
      </trkpt>
      <trkpt lat="47.34658" lon="-2.34268">
        <ele>110.80000305176</ele>
        <time>2022-04-14T08:26:45.000Z</time>
      </trkpt>
      <trkpt lat="47.34663" lon="-2.34264">
        <ele>110.80000305176</ele>
        <time>2022-04-14T08:26:46.000Z</time>
      </trkpt>
      <trkpt lat="47.34679" lon="-2.3426">
        <ele>110.80000305176</ele>
        <time>2022-04-14T08:26:49.000Z</time>
      </trkpt>
      <trkpt lat="47.34685" lon="-2.3426">
        <ele>110.80000305176</ele>
        <time>2022-04-14T08:26:50.000Z</time>
      </trkpt>
      <trkpt lat="47.34723" lon="-2.34253">
        <ele>110.80000305176</ele>
        <time>2022-04-14T08:26:57.000Z</time>
      </trkpt>
      <trkpt lat="47.3476" lon="-2.34244">
        <ele>110.80000305176</ele>
        <time>2022-04-14T08:27:04.000Z</time>
      </trkpt>
      <trkpt lat="47.34776" lon="-2.34239">
        <ele>110.80000305176</ele>
        <time>2022-04-14T08:27:07.000Z</time>
      </trkpt>
      <trkpt lat="47.34791" lon="-2.34235">
        <ele>110.80000305176</ele>
        <time>2022-04-14T08:27:10.000Z</time>
      </trkpt>
      <trkpt lat="47.3481" lon="-2.3423">
        <ele>110.80000305176</ele>
        <time>2022-04-14T08:27:14.000Z</time>
      </trkpt>
      <trkpt lat="47.34824" lon="-2.34228">
        <ele>110.80000305176</ele>
        <time>2022-04-14T08:27:17.000Z</time>
      </trkpt>
      <trkpt lat="47.34828" lon="-2.34227">
        <ele>111.19999694824</ele>
        <time>2022-04-14T08:27:18.000Z</time>
      </trkpt>
      <trkpt lat="47.34832" lon="-2.34228">
        <ele>111.80000305176</ele>
        <time>2022-04-14T08:27:19.000Z</time>
      </trkpt>
      <trkpt lat="47.34836" lon="-2.34227">
        <ele>112.19999694824</ele>
        <time>2022-04-14T08:27:20.000Z</time>
      </trkpt>
      <trkpt lat="47.3484" lon="-2.34227">
        <ele>112.59999847412</ele>
        <time>2022-04-14T08:27:21.000Z</time>
      </trkpt>
      <trkpt lat="47.34845" lon="-2.34227">
        <ele>113.19999694824</ele>
        <time>2022-04-14T08:27:22.000Z</time>
      </trkpt>
      <trkpt lat="47.34848" lon="-2.34228">
        <ele>113.19999694824</ele>
        <time>2022-04-14T08:27:23.000Z</time>
      </trkpt>
      <trkpt lat="47.34856" lon="-2.34232">
        <ele>114.19999694824</ele>
        <time>2022-04-14T08:27:26.000Z</time>
      </trkpt>
      <trkpt lat="47.34858" lon="-2.34233">
        <ele>114.59999847412</ele>
        <time>2022-04-14T08:27:27.000Z</time>
      </trkpt>
      <trkpt lat="47.3486" lon="-2.34233">
        <ele>115</ele>
        <time>2022-04-14T08:27:28.000Z</time>
      </trkpt>
      <trkpt lat="47.34861" lon="-2.34232">
        <ele>115.59999847412</ele>
        <time>2022-04-14T08:27:29.000Z</time>
      </trkpt>
      <trkpt lat="47.34866" lon="-2.34226">
        <ele>116</ele>
        <time>2022-04-14T08:27:31.000Z</time>
      </trkpt>
      <trkpt lat="47.34868" lon="-2.34223">
        <ele>116.40000152588</ele>
        <time>2022-04-14T08:27:32.000Z</time>
      </trkpt>
      <trkpt lat="47.3487" lon="-2.3422">
        <ele>117</ele>
        <time>2022-04-14T08:27:33.000Z</time>
      </trkpt>
      <trkpt lat="47.34872" lon="-2.34217">
        <ele>117.40000152588</ele>
        <time>2022-04-14T08:27:34.000Z</time>
      </trkpt>
      <trkpt lat="47.34874" lon="-2.34213">
        <ele>117.80000305176</ele>
        <time>2022-04-14T08:27:35.000Z</time>
      </trkpt>
      <trkpt lat="47.34878" lon="-2.34209">
        <ele>118.19999694824</ele>
        <time>2022-04-14T08:27:37.000Z</time>
      </trkpt>
      <trkpt lat="47.3488" lon="-2.3421">
        <ele>118.59999847412</ele>
        <time>2022-04-14T08:27:38.000Z</time>
      </trkpt>
      <trkpt lat="47.34882" lon="-2.34209">
        <ele>119.19999694824</ele>
        <time>2022-04-14T08:27:39.000Z</time>
      </trkpt>
      <trkpt lat="47.34884" lon="-2.34208">
        <ele>119.59999847412</ele>
        <time>2022-04-14T08:27:40.000Z</time>
      </trkpt>
      <trkpt lat="47.34886" lon="-2.34207">
        <ele>120</ele>
        <time>2022-04-14T08:27:41.000Z</time>
      </trkpt>
      <trkpt lat="47.34897" lon="-2.34205">
        <ele>120</ele>
        <time>2022-04-14T08:27:45.000Z</time>
      </trkpt>
      <trkpt lat="47.34905" lon="-2.34207">
        <ele>120</ele>
        <time>2022-04-14T08:27:47.000Z</time>
      </trkpt>
      <trkpt lat="47.34914" lon="-2.34208">
        <ele>120</ele>
        <time>2022-04-14T08:27:49.000Z</time>
      </trkpt>
      <trkpt lat="47.34924" lon="-2.34209">
        <ele>120</ele>
        <time>2022-04-14T08:27:51.000Z</time>
      </trkpt>
      <trkpt lat="47.34929" lon="-2.34208">
        <ele>120</ele>
        <time>2022-04-14T08:27:52.000Z</time>
      </trkpt>
      <trkpt lat="47.34936" lon="-2.34202">
        <ele>120</ele>
        <time>2022-04-14T08:27:54.000Z</time>
      </trkpt>
      <trkpt lat="47.3494" lon="-2.34199">
        <ele>119.59999847412</ele>
        <time>2022-04-14T08:27:55.000Z</time>
      </trkpt>
      <trkpt lat="47.34943" lon="-2.34198">
        <ele>119.19999694824</ele>
        <time>2022-04-14T08:27:56.000Z</time>
      </trkpt>
      <trkpt lat="47.34946" lon="-2.34197">
        <ele>118.59999847412</ele>
        <time>2022-04-14T08:27:57.000Z</time>
      </trkpt>
      <trkpt lat="47.34949" lon="-2.34197">
        <ele>118.19999694824</ele>
        <time>2022-04-14T08:27:58.000Z</time>
      </trkpt>
      <trkpt lat="47.34953" lon="-2.34195">
        <ele>117.80000305176</ele>
        <time>2022-04-14T08:27:59.000Z</time>
      </trkpt>
      <trkpt lat="47.34964" lon="-2.34192">
        <ele>117.40000152588</ele>
        <time>2022-04-14T08:28:03.000Z</time>
      </trkpt>
      <trkpt lat="47.34965" lon="-2.34192">
        <ele>116.80000305176</ele>
        <time>2022-04-14T08:28:04.000Z</time>
      </trkpt>
      <trkpt lat="47.34966" lon="-2.34193">
        <ele>116.40000152588</ele>
        <time>2022-04-14T08:28:05.000Z</time>
      </trkpt>
      <trkpt lat="47.34967" lon="-2.34193">
        <ele>116</ele>
        <time>2022-04-14T08:28:06.000Z</time>
      </trkpt>
      <trkpt lat="47.34967" lon="-2.34193">
        <ele>115.40000152588</ele>
        <time>2022-04-14T08:28:07.000Z</time>
      </trkpt>
      <trkpt lat="47.34969" lon="-2.34195">
        <ele>115.40000152588</ele>
        <time>2022-04-14T08:28:09.000Z</time>
      </trkpt>
      <trkpt lat="47.34977" lon="-2.3421">
        <ele>115.40000152588</ele>
        <time>2022-04-14T08:28:14.000Z</time>
      </trkpt>
      <trkpt lat="47.34978" lon="-2.34217">
        <ele>115.40000152588</ele>
        <time>2022-04-14T08:28:15.000Z</time>
      </trkpt>
      <trkpt lat="47.3498" lon="-2.3423">
        <ele>115</ele>
        <time>2022-04-14T08:28:17.000Z</time>
      </trkpt>
      <trkpt lat="47.34981" lon="-2.34237">
        <ele>114.59999847412</ele>
        <time>2022-04-14T08:28:18.000Z</time>
      </trkpt>
      <trkpt lat="47.34982" lon="-2.34244">
        <ele>114.19999694824</ele>
        <time>2022-04-14T08:28:19.000Z</time>
      </trkpt>
      <trkpt lat="47.34984" lon="-2.34252">
        <ele>113.80000305176</ele>
        <time>2022-04-14T08:28:20.000Z</time>
      </trkpt>
      <trkpt lat="47.34985" lon="-2.3426">
        <ele>113.40000152588</ele>
        <time>2022-04-14T08:28:21.000Z</time>
      </trkpt>
      <trkpt lat="47.34988" lon="-2.34277">
        <ele>113.40000152588</ele>
        <time>2022-04-14T08:28:23.000Z</time>
      </trkpt>
      <trkpt lat="47.34991" lon="-2.34285">
        <ele>113</ele>
        <time>2022-04-14T08:28:24.000Z</time>
      </trkpt>
      <trkpt lat="47.34993" lon="-2.34293">
        <ele>112.40000152588</ele>
        <time>2022-04-14T08:28:25.000Z</time>
      </trkpt>
      <trkpt lat="47.34995" lon="-2.34302">
        <ele>112</ele>
        <time>2022-04-14T08:28:26.000Z</time>
      </trkpt>
      <trkpt lat="47.34998" lon="-2.34311">
        <ele>111.59999847412</ele>
        <time>2022-04-14T08:28:27.000Z</time>
      </trkpt>
      <trkpt lat="47.35001" lon="-2.34318">
        <ele>111.19999694824</ele>
        <time>2022-04-14T08:28:28.000Z</time>
      </trkpt>
      <trkpt lat="47.35005" lon="-2.34325">
        <ele>110.80000305176</ele>
        <time>2022-04-14T08:28:29.000Z</time>
      </trkpt>
      <trkpt lat="47.35007" lon="-2.3433">
        <ele>110.40000152588</ele>
        <time>2022-04-14T08:28:30.000Z</time>
      </trkpt>
      <trkpt lat="47.3501" lon="-2.34336">
        <ele>109.80000305176</ele>
        <time>2022-04-14T08:28:31.000Z</time>
      </trkpt>
      <trkpt lat="47.35011" lon="-2.3434">
        <ele>109.40000152588</ele>
        <time>2022-04-14T08:28:32.000Z</time>
      </trkpt>
      <trkpt lat="47.35013" lon="-2.34343">
        <ele>109</ele>
        <time>2022-04-14T08:28:33.000Z</time>
      </trkpt>
      <trkpt lat="47.35014" lon="-2.34344">
        <ele>109</ele>
        <time>2022-04-14T08:28:34.000Z</time>
      </trkpt>
      <trkpt lat="47.35014" lon="-2.34345">
        <ele>108.59999847412</ele>
        <time>2022-04-14T08:28:35.000Z</time>
      </trkpt>
      <trkpt lat="47.35014" lon="-2.34345">
        <ele>108.19999694824</ele>
        <time>2022-04-14T08:28:36.000Z</time>
      </trkpt>
      <trkpt lat="47.35013" lon="-2.3435">
        <ele>107</ele>
        <time>2022-04-14T08:29:22.000Z</time>
      </trkpt>
      <trkpt lat="47.35011" lon="-2.34352">
        <ele>107</ele>
        <time>2022-04-14T08:29:23.000Z</time>
      </trkpt>
      <trkpt lat="47.35" lon="-2.34358">
        <ele>107</ele>
        <time>2022-04-14T08:29:27.000Z</time>
      </trkpt>
      <trkpt lat="47.34997" lon="-2.34359">
        <ele>107</ele>
        <time>2022-04-14T08:29:28.000Z</time>
      </trkpt>
      <trkpt lat="47.34986" lon="-2.34362">
        <ele>107.40000152588</ele>
        <time>2022-04-14T08:29:31.000Z</time>
      </trkpt>
      <trkpt lat="47.34982" lon="-2.34363">
        <ele>107.80000305176</ele>
        <time>2022-04-14T08:29:32.000Z</time>
      </trkpt>
      <trkpt lat="47.34978" lon="-2.34364">
        <ele>108.19999694824</ele>
        <time>2022-04-14T08:29:33.000Z</time>
      </trkpt>
      <trkpt lat="47.34974" lon="-2.34364">
        <ele>108.59999847412</ele>
        <time>2022-04-14T08:29:34.000Z</time>
      </trkpt>
      <trkpt lat="47.34969" lon="-2.34365">
        <ele>109</ele>
        <time>2022-04-14T08:29:35.000Z</time>
      </trkpt>
      <trkpt lat="47.34948" lon="-2.34368">
        <ele>109</ele>
        <time>2022-04-14T08:29:40.000Z</time>
      </trkpt>
      <trkpt lat="47.34932" lon="-2.34365">
        <ele>109</ele>
        <time>2022-04-14T08:29:45.000Z</time>
      </trkpt>
      <trkpt lat="47.34918" lon="-2.34366">
        <ele>109</ele>
        <time>2022-04-14T08:29:50.000Z</time>
      </trkpt>
      <trkpt lat="47.34912" lon="-2.34367">
        <ele>109.40000152588</ele>
        <time>2022-04-14T08:29:52.000Z</time>
      </trkpt>
      <trkpt lat="47.34909" lon="-2.34367">
        <ele>110</ele>
        <time>2022-04-14T08:29:53.000Z</time>
      </trkpt>
      <trkpt lat="47.34906" lon="-2.34367">
        <ele>110.80000305176</ele>
        <time>2022-04-14T08:29:54.000Z</time>
      </trkpt>
      <trkpt lat="47.34902" lon="-2.34368">
        <ele>111.19999694824</ele>
        <time>2022-04-14T08:29:55.000Z</time>
      </trkpt>
      <trkpt lat="47.34898" lon="-2.34368">
        <ele>111.19999694824</ele>
        <time>2022-04-14T08:29:56.000Z</time>
      </trkpt>
      <trkpt lat="47.3488" lon="-2.34368">
        <ele>111.19999694824</ele>
        <time>2022-04-14T08:30:01.000Z</time>
      </trkpt>
      <trkpt lat="47.34866" lon="-2.34368">
        <ele>111.59999847412</ele>
        <time>2022-04-14T08:30:05.000Z</time>
      </trkpt>
      <trkpt lat="47.34862" lon="-2.34369">
        <ele>112.19999694824</ele>
        <time>2022-04-14T08:30:06.000Z</time>
      </trkpt>
      <trkpt lat="47.34859" lon="-2.3437">
        <ele>112.59999847412</ele>
        <time>2022-04-14T08:30:07.000Z</time>
      </trkpt>
      <trkpt lat="47.34855" lon="-2.34371">
        <ele>113</ele>
        <time>2022-04-14T08:30:08.000Z</time>
      </trkpt>
      <trkpt lat="47.34851" lon="-2.34372">
        <ele>113.40000152588</ele>
        <time>2022-04-14T08:30:09.000Z</time>
      </trkpt>
      <trkpt lat="47.34842" lon="-2.34372">
        <ele>113.40000152588</ele>
        <time>2022-04-14T08:30:11.000Z</time>
      </trkpt>
      <trkpt lat="47.34837" lon="-2.34374">
        <ele>113.40000152588</ele>
        <time>2022-04-14T08:30:12.000Z</time>
      </trkpt>
      <trkpt lat="47.34826" lon="-2.34377">
        <ele>113.40000152588</ele>
        <time>2022-04-14T08:30:14.000Z</time>
      </trkpt>
      <trkpt lat="47.34821" lon="-2.34377">
        <ele>113.40000152588</ele>
        <time>2022-04-14T08:30:15.000Z</time>
      </trkpt>
      <trkpt lat="47.34792" lon="-2.34383">
        <ele>113.40000152588</ele>
        <time>2022-04-14T08:30:21.000Z</time>
      </trkpt>
      <trkpt lat="47.34784" lon="-2.3439">
        <ele>113.40000152588</ele>
        <time>2022-04-14T08:30:24.000Z</time>
      </trkpt>
      <trkpt lat="47.34781" lon="-2.34398">
        <ele>113.40000152588</ele>
        <time>2022-04-14T08:30:26.000Z</time>
      </trkpt>
      <trkpt lat="47.34774" lon="-2.34409">
        <ele>113.40000152588</ele>
        <time>2022-04-14T08:30:29.000Z</time>
      </trkpt>
      <trkpt lat="47.34763" lon="-2.34428">
        <ele>113.40000152588</ele>
        <time>2022-04-14T08:30:33.000Z</time>
      </trkpt>
      <trkpt lat="47.34761" lon="-2.34433">
        <ele>113.40000152588</ele>
        <time>2022-04-14T08:30:34.000Z</time>
      </trkpt>
      <trkpt lat="47.34756" lon="-2.34445">
        <ele>113</ele>
        <time>2022-04-14T08:30:36.000Z</time>
      </trkpt>
      <trkpt lat="47.34753" lon="-2.3445">
        <ele>112.59999847412</ele>
        <time>2022-04-14T08:30:37.000Z</time>
      </trkpt>
      <trkpt lat="47.34751" lon="-2.34456">
        <ele>112</ele>
        <time>2022-04-14T08:30:38.000Z</time>
      </trkpt>
      <trkpt lat="47.34749" lon="-2.34461">
        <ele>111.59999847412</ele>
        <time>2022-04-14T08:30:39.000Z</time>
      </trkpt>
      <trkpt lat="47.34749" lon="-2.34466">
        <ele>111.19999694824</ele>
        <time>2022-04-14T08:30:40.000Z</time>
      </trkpt>
      <trkpt lat="47.34737" lon="-2.34484">
        <ele>111.19999694824</ele>
        <time>2022-04-14T08:30:45.000Z</time>
      </trkpt>
      <trkpt lat="47.34722" lon="-2.34489">
        <ele>111.19999694824</ele>
        <time>2022-04-14T08:30:49.000Z</time>
      </trkpt>
      <trkpt lat="47.34707" lon="-2.34496">
        <ele>111.19999694824</ele>
        <time>2022-04-14T08:30:53.000Z</time>
      </trkpt>
      <trkpt lat="47.3469" lon="-2.34504">
        <ele>111.19999694824</ele>
        <time>2022-04-14T08:30:58.000Z</time>
      </trkpt>
      <trkpt lat="47.34664" lon="-2.34511">
        <ele>111.19999694824</ele>
        <time>2022-04-14T08:31:05.000Z</time>
      </trkpt>
      <trkpt lat="47.34647" lon="-2.34516">
        <ele>111.59999847412</ele>
        <time>2022-04-14T08:31:10.000Z</time>
      </trkpt>
      <trkpt lat="47.34644" lon="-2.34517">
        <ele>112</ele>
        <time>2022-04-14T08:31:11.000Z</time>
      </trkpt>
      <trkpt lat="47.3464" lon="-2.34518">
        <ele>112.40000152588</ele>
        <time>2022-04-14T08:31:12.000Z</time>
      </trkpt>
      <trkpt lat="47.34637" lon="-2.34519">
        <ele>112.80000305176</ele>
        <time>2022-04-14T08:31:13.000Z</time>
      </trkpt>
      <trkpt lat="47.34633" lon="-2.3452">
        <ele>113.19999694824</ele>
        <time>2022-04-14T08:31:14.000Z</time>
      </trkpt>
      <trkpt lat="47.34619" lon="-2.34524">
        <ele>113.19999694824</ele>
        <time>2022-04-14T08:31:18.000Z</time>
      </trkpt>
      <trkpt lat="47.34608" lon="-2.34533">
        <ele>113.19999694824</ele>
        <time>2022-04-14T08:31:22.000Z</time>
      </trkpt>
      <trkpt lat="47.34609" lon="-2.34539">
        <ele>113.19999694824</ele>
        <time>2022-04-14T08:31:23.000Z</time>
      </trkpt>
      <trkpt lat="47.34612" lon="-2.34558">
        <ele>113.19999694824</ele>
        <time>2022-04-14T08:31:26.000Z</time>
      </trkpt>
      <trkpt lat="47.34613" lon="-2.34564">
        <ele>113.19999694824</ele>
        <time>2022-04-14T08:31:27.000Z</time>
      </trkpt>
      <trkpt lat="47.3462" lon="-2.34604">
        <ele>113.19999694824</ele>
        <time>2022-04-14T08:31:32.000Z</time>
      </trkpt>
      <trkpt lat="47.34631" lon="-2.34656">
        <ele>113.19999694824</ele>
        <time>2022-04-14T08:31:37.000Z</time>
      </trkpt>
      <trkpt lat="47.34633" lon="-2.34668">
        <ele>112.80000305176</ele>
        <time>2022-04-14T08:31:38.000Z</time>
      </trkpt>
      <trkpt lat="47.34635" lon="-2.3468">
        <ele>112.40000152588</ele>
        <time>2022-04-14T08:31:39.000Z</time>
      </trkpt>
      <trkpt lat="47.34637" lon="-2.34692">
        <ele>111.80000305176</ele>
        <time>2022-04-14T08:31:40.000Z</time>
      </trkpt>
      <trkpt lat="47.34639" lon="-2.34704">
        <ele>111.40000152588</ele>
        <time>2022-04-14T08:31:41.000Z</time>
      </trkpt>
      <trkpt lat="47.3464" lon="-2.34717">
        <ele>110.80000305176</ele>
        <time>2022-04-14T08:31:42.000Z</time>
      </trkpt>
      <trkpt lat="47.3464" lon="-2.34728">
        <ele>110.80000305176</ele>
        <time>2022-04-14T08:31:43.000Z</time>
      </trkpt>
      <trkpt lat="47.34636" lon="-2.34764">
        <ele>110.80000305176</ele>
        <time>2022-04-14T08:31:46.000Z</time>
      </trkpt>
      <trkpt lat="47.34633" lon="-2.34774">
        <ele>110.80000305176</ele>
        <time>2022-04-14T08:31:47.000Z</time>
      </trkpt>
      <trkpt lat="47.34617" lon="-2.34814">
        <ele>110.80000305176</ele>
        <time>2022-04-14T08:31:51.000Z</time>
      </trkpt>
      <trkpt lat="47.34594" lon="-2.34868">
        <ele>110.80000305176</ele>
        <time>2022-04-14T08:31:57.000Z</time>
      </trkpt>
      <trkpt lat="47.34578" lon="-2.34908">
        <ele>110.80000305176</ele>
        <time>2022-04-14T08:32:03.000Z</time>
      </trkpt>
      <trkpt lat="47.34577" lon="-2.34914">
        <ele>110.80000305176</ele>
        <time>2022-04-14T08:32:04.000Z</time>
      </trkpt>
      <trkpt lat="47.34583" lon="-2.34927">
        <ele>110.80000305176</ele>
        <time>2022-04-14T08:32:07.000Z</time>
      </trkpt>
      <trkpt lat="47.34585" lon="-2.34933">
        <ele>110.80000305176</ele>
        <time>2022-04-14T08:32:08.000Z</time>
      </trkpt>
      <trkpt lat="47.34593" lon="-2.34954">
        <ele>110.80000305176</ele>
        <time>2022-04-14T08:32:12.000Z</time>
      </trkpt>
      <trkpt lat="47.34601" lon="-2.34971">
        <ele>110.80000305176</ele>
        <time>2022-04-14T08:32:15.000Z</time>
      </trkpt>
      <trkpt lat="47.34609" lon="-2.34981">
        <ele>110.80000305176</ele>
        <time>2022-04-14T08:32:17.000Z</time>
      </trkpt>
      <trkpt lat="47.34616" lon="-2.34991">
        <ele>110.80000305176</ele>
        <time>2022-04-14T08:32:19.000Z</time>
      </trkpt>
      <trkpt lat="47.34628" lon="-2.3501">
        <ele>110.80000305176</ele>
        <time>2022-04-14T08:32:22.000Z</time>
      </trkpt>
      <trkpt lat="47.34645" lon="-2.35031">
        <ele>110.80000305176</ele>
        <time>2022-04-14T08:32:27.000Z</time>
      </trkpt>
      <trkpt lat="47.34651" lon="-2.35033">
        <ele>110.80000305176</ele>
        <time>2022-04-14T08:32:29.000Z</time>
      </trkpt>
      <trkpt lat="47.34657" lon="-2.35033">
        <ele>110.80000305176</ele>
        <time>2022-04-14T08:32:31.000Z</time>
      </trkpt>
      <trkpt lat="47.34666" lon="-2.35031">
        <ele>110.80000305176</ele>
        <time>2022-04-14T08:32:35.000Z</time>
      </trkpt>
      <trkpt lat="47.34668" lon="-2.35031">
        <ele>110.80000305176</ele>
        <time>2022-04-14T08:32:36.000Z</time>
      </trkpt>
      <trkpt lat="47.34677" lon="-2.35041">
        <ele>110.80000305176</ele>
        <time>2022-04-14T08:32:41.000Z</time>
      </trkpt>
      <trkpt lat="47.34691" lon="-2.35059">
        <ele>110.80000305176</ele>
        <time>2022-04-14T08:32:46.000Z</time>
      </trkpt>
      <trkpt lat="47.34709" lon="-2.3508">
        <ele>110.80000305176</ele>
        <time>2022-04-14T08:32:51.000Z</time>
      </trkpt>
      <trkpt lat="47.34715" lon="-2.35092">
        <ele>110.80000305176</ele>
        <time>2022-04-14T08:32:53.000Z</time>
      </trkpt>
      <trkpt lat="47.3472" lon="-2.35105">
        <ele>110.80000305176</ele>
        <time>2022-04-14T08:32:55.000Z</time>
      </trkpt>
      <trkpt lat="47.34735" lon="-2.35124">
        <ele>110.80000305176</ele>
        <time>2022-04-14T08:32:59.000Z</time>
      </trkpt>
      <trkpt lat="47.34738" lon="-2.35127">
        <ele>110.80000305176</ele>
        <time>2022-04-14T08:33:00.000Z</time>
      </trkpt>
      <trkpt lat="47.34741" lon="-2.35133">
        <ele>110.80000305176</ele>
        <time>2022-04-14T08:33:01.000Z</time>
      </trkpt>
      <trkpt lat="47.34746" lon="-2.35143">
        <ele>110.80000305176</ele>
        <time>2022-04-14T08:33:03.000Z</time>
      </trkpt>
      <trkpt lat="47.34755" lon="-2.35167">
        <ele>110.80000305176</ele>
        <time>2022-04-14T08:33:07.000Z</time>
      </trkpt>
      <trkpt lat="47.34755" lon="-2.35186">
        <ele>110.80000305176</ele>
        <time>2022-04-14T08:33:10.000Z</time>
      </trkpt>
      <trkpt lat="47.34754" lon="-2.35192">
        <ele>110.80000305176</ele>
        <time>2022-04-14T08:33:11.000Z</time>
      </trkpt>
      <trkpt lat="47.34756" lon="-2.35217">
        <ele>110.80000305176</ele>
        <time>2022-04-14T08:33:16.000Z</time>
      </trkpt>
      <trkpt lat="47.34753" lon="-2.35231">
        <ele>110.80000305176</ele>
        <time>2022-04-14T08:33:18.000Z</time>
      </trkpt>
      <trkpt lat="47.34751" lon="-2.35244">
        <ele>110.80000305176</ele>
        <time>2022-04-14T08:33:20.000Z</time>
      </trkpt>
      <trkpt lat="47.3475" lon="-2.35256">
        <ele>110.80000305176</ele>
        <time>2022-04-14T08:33:22.000Z</time>
      </trkpt>
      <trkpt lat="47.34748" lon="-2.35267">
        <ele>110.80000305176</ele>
        <time>2022-04-14T08:33:25.000Z</time>
      </trkpt>
      <trkpt lat="47.34742" lon="-2.35288">
        <ele>110.80000305176</ele>
        <time>2022-04-14T08:33:29.000Z</time>
      </trkpt>
      <trkpt lat="47.34736" lon="-2.35301">
        <ele>110.80000305176</ele>
        <time>2022-04-14T08:33:33.000Z</time>
      </trkpt>
      <trkpt lat="47.34733" lon="-2.3532">
        <ele>110.80000305176</ele>
        <time>2022-04-14T08:33:38.000Z</time>
      </trkpt>
      <trkpt lat="47.34733" lon="-2.35336">
        <ele>110.80000305176</ele>
        <time>2022-04-14T08:33:43.000Z</time>
      </trkpt>
      <trkpt lat="47.34729" lon="-2.35352">
        <ele>110.80000305176</ele>
        <time>2022-04-14T08:33:48.000Z</time>
      </trkpt>
      <trkpt lat="47.34719" lon="-2.3537">
        <ele>110.80000305176</ele>
        <time>2022-04-14T08:33:53.000Z</time>
      </trkpt>
      <trkpt lat="47.34705" lon="-2.35384">
        <ele>110.80000305176</ele>
        <time>2022-04-14T08:33:58.000Z</time>
      </trkpt>
      <trkpt lat="47.34698" lon="-2.35389">
        <ele>110.80000305176</ele>
        <time>2022-04-14T08:34:01.000Z</time>
      </trkpt>
      <trkpt lat="47.34696" lon="-2.35389">
        <ele>110.80000305176</ele>
        <time>2022-04-14T08:34:02.000Z</time>
      </trkpt>
      <trkpt lat="47.34677" lon="-2.35392">
        <ele>110.80000305176</ele>
        <time>2022-04-14T08:34:08.000Z</time>
      </trkpt>
      <trkpt lat="47.34661" lon="-2.35399">
        <ele>110.80000305176</ele>
        <time>2022-04-14T08:34:13.000Z</time>
      </trkpt>
      <trkpt lat="47.34657" lon="-2.35402">
        <ele>110.80000305176</ele>
        <time>2022-04-14T08:34:15.000Z</time>
      </trkpt>
      <trkpt lat="47.34656" lon="-2.35408">
        <ele>110.80000305176</ele>
        <time>2022-04-14T08:34:17.000Z</time>
      </trkpt>
      <trkpt lat="47.34664" lon="-2.35417">
        <ele>110.80000305176</ele>
        <time>2022-04-14T08:34:20.000Z</time>
      </trkpt>
      <trkpt lat="47.34668" lon="-2.35421">
        <ele>110.80000305176</ele>
        <time>2022-04-14T08:34:21.000Z</time>
      </trkpt>
      <trkpt lat="47.34671" lon="-2.35425">
        <ele>110.80000305176</ele>
        <time>2022-04-14T08:34:22.000Z</time>
      </trkpt>
      <trkpt lat="47.34681" lon="-2.35442">
        <ele>110.80000305176</ele>
        <time>2022-04-14T08:34:25.000Z</time>
      </trkpt>
      <trkpt lat="47.34712" lon="-2.35494">
        <ele>110.80000305176</ele>
        <time>2022-04-14T08:34:33.000Z</time>
      </trkpt>
      <trkpt lat="47.34745" lon="-2.3555">
        <ele>110.80000305176</ele>
        <time>2022-04-14T08:34:42.000Z</time>
      </trkpt>
      <trkpt lat="47.34783" lon="-2.356">
        <ele>110.80000305176</ele>
        <time>2022-04-14T08:34:51.000Z</time>
      </trkpt>
      <trkpt lat="47.34797" lon="-2.35616">
        <ele>111.40000152588</ele>
        <time>2022-04-14T08:34:54.000Z</time>
      </trkpt>
      <trkpt lat="47.34802" lon="-2.35621">
        <ele>111.80000305176</ele>
        <time>2022-04-14T08:34:55.000Z</time>
      </trkpt>
      <trkpt lat="47.34807" lon="-2.35626">
        <ele>112.19999694824</ele>
        <time>2022-04-14T08:34:56.000Z</time>
      </trkpt>
      <trkpt lat="47.34812" lon="-2.3563">
        <ele>112.59999847412</ele>
        <time>2022-04-14T08:34:57.000Z</time>
      </trkpt>
      <trkpt lat="47.34817" lon="-2.35634">
        <ele>113</ele>
        <time>2022-04-14T08:34:58.000Z</time>
      </trkpt>
      <trkpt lat="47.34841" lon="-2.3565">
        <ele>113</ele>
        <time>2022-04-14T08:35:03.000Z</time>
      </trkpt>
      <trkpt lat="47.34857" lon="-2.35661">
        <ele>113</ele>
        <time>2022-04-14T08:35:07.000Z</time>
      </trkpt>
      <trkpt lat="47.34856" lon="-2.35673">
        <ele>113</ele>
        <time>2022-04-14T08:35:09.000Z</time>
      </trkpt>
      <trkpt lat="47.34851" lon="-2.35684">
        <ele>113</ele>
        <time>2022-04-14T08:35:11.000Z</time>
      </trkpt>
      <trkpt lat="47.34849" lon="-2.35691">
        <ele>113</ele>
        <time>2022-04-14T08:35:12.000Z</time>
      </trkpt>
      <trkpt lat="47.34839" lon="-2.35715">
        <ele>113</ele>
        <time>2022-04-14T08:35:16.000Z</time>
      </trkpt>
      <trkpt lat="47.34836" lon="-2.35717">
        <ele>113</ele>
        <time>2022-04-14T08:35:17.000Z</time>
      </trkpt>
      <trkpt lat="47.34825" lon="-2.3572">
        <ele>113</ele>
        <time>2022-04-14T08:35:21.000Z</time>
      </trkpt>
      <trkpt lat="47.34808" lon="-2.35727">
        <ele>113</ele>
        <time>2022-04-14T08:35:26.000Z</time>
      </trkpt>
      <trkpt lat="47.34782" lon="-2.35739">
        <ele>113</ele>
        <time>2022-04-14T08:35:33.000Z</time>
      </trkpt>
      <trkpt lat="47.34762" lon="-2.35748">
        <ele>113</ele>
        <time>2022-04-14T08:35:38.000Z</time>
      </trkpt>
      <trkpt lat="47.34753" lon="-2.35752">
        <ele>113</ele>
        <time>2022-04-14T08:35:40.000Z</time>
      </trkpt>
      <trkpt lat="47.34744" lon="-2.35756">
        <ele>113</ele>
        <time>2022-04-14T08:35:42.000Z</time>
      </trkpt>
      <trkpt lat="47.34731" lon="-2.35766">
        <ele>113</ele>
        <time>2022-04-14T08:35:45.000Z</time>
      </trkpt>
      <trkpt lat="47.34695" lon="-2.35794">
        <ele>113</ele>
        <time>2022-04-14T08:35:53.000Z</time>
      </trkpt>
      <trkpt lat="47.34667" lon="-2.35815">
        <ele>113</ele>
        <time>2022-04-14T08:35:59.000Z</time>
      </trkpt>
      <trkpt lat="47.34644" lon="-2.35835">
        <ele>113</ele>
        <time>2022-04-14T08:36:04.000Z</time>
      </trkpt>
      <trkpt lat="47.3464" lon="-2.35838">
        <ele>113</ele>
        <time>2022-04-14T08:36:05.000Z</time>
      </trkpt>
      <trkpt lat="47.34613" lon="-2.35863">
        <ele>113</ele>
        <time>2022-04-14T08:36:12.000Z</time>
      </trkpt>
      <trkpt lat="47.34598" lon="-2.35877">
        <ele>113</ele>
        <time>2022-04-14T08:36:16.000Z</time>
      </trkpt>
      <trkpt lat="47.3459" lon="-2.35883">
        <ele>113</ele>
        <time>2022-04-14T08:36:18.000Z</time>
      </trkpt>
      <trkpt lat="47.34571" lon="-2.35896">
        <ele>113</ele>
        <time>2022-04-14T08:36:22.000Z</time>
      </trkpt>
      <trkpt lat="47.34566" lon="-2.35899">
        <ele>113</ele>
        <time>2022-04-14T08:36:23.000Z</time>
      </trkpt>
      <trkpt lat="47.34551" lon="-2.35905">
        <ele>113</ele>
        <time>2022-04-14T08:36:26.000Z</time>
      </trkpt>
      <trkpt lat="47.34519" lon="-2.35919">
        <ele>113</ele>
        <time>2022-04-14T08:36:32.000Z</time>
      </trkpt>
      <trkpt lat="47.34492" lon="-2.35931">
        <ele>113.40000152588</ele>
        <time>2022-04-14T08:36:37.000Z</time>
      </trkpt>
      <trkpt lat="47.34487" lon="-2.35933">
        <ele>113.80000305176</ele>
        <time>2022-04-14T08:36:38.000Z</time>
      </trkpt>
      <trkpt lat="47.34482" lon="-2.35936">
        <ele>114.19999694824</ele>
        <time>2022-04-14T08:36:39.000Z</time>
      </trkpt>
      <trkpt lat="47.34478" lon="-2.35939">
        <ele>114.80000305176</ele>
        <time>2022-04-14T08:36:40.000Z</time>
      </trkpt>
      <trkpt lat="47.34473" lon="-2.35942">
        <ele>115.19999694824</ele>
        <time>2022-04-14T08:36:41.000Z</time>
      </trkpt>
      <trkpt lat="47.34451" lon="-2.35958">
        <ele>115.19999694824</ele>
        <time>2022-04-14T08:36:46.000Z</time>
      </trkpt>
      <trkpt lat="47.3443" lon="-2.35977">
        <ele>115.59999847412</ele>
        <time>2022-04-14T08:36:51.000Z</time>
      </trkpt>
      <trkpt lat="47.34427" lon="-2.35979">
        <ele>116</ele>
        <time>2022-04-14T08:36:52.000Z</time>
      </trkpt>
      <trkpt lat="47.34424" lon="-2.35981">
        <ele>116.80000305176</ele>
        <time>2022-04-14T08:36:53.000Z</time>
      </trkpt>
      <trkpt lat="47.34421" lon="-2.35984">
        <ele>117.19999694824</ele>
        <time>2022-04-14T08:36:54.000Z</time>
      </trkpt>
      <trkpt lat="47.34411" lon="-2.35989">
        <ele>117.19999694824</ele>
        <time>2022-04-14T08:36:58.000Z</time>
      </trkpt>
      <trkpt lat="47.34408" lon="-2.35993">
        <ele>117.19999694824</ele>
        <time>2022-04-14T08:37:01.000Z</time>
      </trkpt>
      <trkpt lat="47.34407" lon="-2.35996">
        <ele>117.19999694824</ele>
        <time>2022-04-14T08:37:03.000Z</time>
      </trkpt>
      <trkpt lat="47.34409" lon="-2.36008">
        <ele>117.19999694824</ele>
        <time>2022-04-14T08:37:08.000Z</time>
      </trkpt>
      <trkpt lat="47.34413" lon="-2.36018">
        <ele>117.19999694824</ele>
        <time>2022-04-14T08:37:11.000Z</time>
      </trkpt>
      <trkpt lat="47.34416" lon="-2.36025">
        <ele>117.19999694824</ele>
        <time>2022-04-14T08:37:13.000Z</time>
      </trkpt>
      <trkpt lat="47.34424" lon="-2.36056">
        <ele>117.19999694824</ele>
        <time>2022-04-14T08:37:19.000Z</time>
      </trkpt>
      <trkpt lat="47.34432" lon="-2.36085">
        <ele>117.19999694824</ele>
        <time>2022-04-14T08:37:24.000Z</time>
      </trkpt>
      <trkpt lat="47.34445" lon="-2.36119">
        <ele>117.19999694824</ele>
        <time>2022-04-14T08:37:30.000Z</time>
      </trkpt>
      <trkpt lat="47.34453" lon="-2.36139">
        <ele>117.19999694824</ele>
        <time>2022-04-14T08:37:33.000Z</time>
      </trkpt>
      <trkpt lat="47.34461" lon="-2.36159">
        <ele>117.19999694824</ele>
        <time>2022-04-14T08:37:36.000Z</time>
      </trkpt>
      <trkpt lat="47.34489" lon="-2.3621">
        <ele>117.19999694824</ele>
        <time>2022-04-14T08:37:44.000Z</time>
      </trkpt>
      <trkpt lat="47.34501" lon="-2.3623">
        <ele>117.19999694824</ele>
        <time>2022-04-14T08:37:47.000Z</time>
      </trkpt>
      <trkpt lat="47.34503" lon="-2.36239">
        <ele>117.19999694824</ele>
        <time>2022-04-14T08:37:48.000Z</time>
      </trkpt>
      <trkpt lat="47.34521" lon="-2.36296">
        <ele>117.19999694824</ele>
        <time>2022-04-14T08:37:55.000Z</time>
      </trkpt>
      <trkpt lat="47.34541" lon="-2.3635">
        <ele>117.19999694824</ele>
        <time>2022-04-14T08:38:02.000Z</time>
      </trkpt>
      <trkpt lat="47.34557" lon="-2.36385">
        <ele>117.19999694824</ele>
        <time>2022-04-14T08:38:07.000Z</time>
      </trkpt>
      <trkpt lat="47.34576" lon="-2.36412">
        <ele>117.19999694824</ele>
        <time>2022-04-14T08:38:12.000Z</time>
      </trkpt>
      <trkpt lat="47.34595" lon="-2.36435">
        <ele>117.19999694824</ele>
        <time>2022-04-14T08:38:18.000Z</time>
      </trkpt>
      <trkpt lat="47.34607" lon="-2.36435">
        <ele>117.19999694824</ele>
        <time>2022-04-14T08:38:21.000Z</time>
      </trkpt>
      <trkpt lat="47.34611" lon="-2.36433">
        <ele>117.59999847412</ele>
        <time>2022-04-14T08:38:22.000Z</time>
      </trkpt>
      <trkpt lat="47.34616" lon="-2.36431">
        <ele>118</ele>
        <time>2022-04-14T08:38:23.000Z</time>
      </trkpt>
      <trkpt lat="47.34621" lon="-2.36429">
        <ele>118.40000152588</ele>
        <time>2022-04-14T08:38:24.000Z</time>
      </trkpt>
      <trkpt lat="47.34626" lon="-2.36426">
        <ele>118.80000305176</ele>
        <time>2022-04-14T08:38:25.000Z</time>
      </trkpt>
      <trkpt lat="47.34631" lon="-2.36424">
        <ele>119.19999694824</ele>
        <time>2022-04-14T08:38:26.000Z</time>
      </trkpt>
      <trkpt lat="47.34639" lon="-2.3642">
        <ele>119.19999694824</ele>
        <time>2022-04-14T08:38:28.000Z</time>
      </trkpt>
      <trkpt lat="47.34661" lon="-2.3641">
        <ele>119.19999694824</ele>
        <time>2022-04-14T08:38:34.000Z</time>
      </trkpt>
      <trkpt lat="47.34669" lon="-2.36407">
        <ele>119.80000305176</ele>
        <time>2022-04-14T08:38:36.000Z</time>
      </trkpt>
      <trkpt lat="47.34673" lon="-2.36405">
        <ele>120.19999694824</ele>
        <time>2022-04-14T08:38:37.000Z</time>
      </trkpt>
      <trkpt lat="47.34677" lon="-2.36404">
        <ele>120.59999847412</ele>
        <time>2022-04-14T08:38:38.000Z</time>
      </trkpt>
      <trkpt lat="47.34681" lon="-2.36403">
        <ele>121</ele>
        <time>2022-04-14T08:38:39.000Z</time>
      </trkpt>
      <trkpt lat="47.34685" lon="-2.36402">
        <ele>121.40000152588</ele>
        <time>2022-04-14T08:38:40.000Z</time>
      </trkpt>
      <trkpt lat="47.34698" lon="-2.36397">
        <ele>121.40000152588</ele>
        <time>2022-04-14T08:38:43.000Z</time>
      </trkpt>
      <trkpt lat="47.34702" lon="-2.36396">
        <ele>121.40000152588</ele>
        <time>2022-04-14T08:38:44.000Z</time>
      </trkpt>
      <trkpt lat="47.34733" lon="-2.36381">
        <ele>121.80000305176</ele>
        <time>2022-04-14T08:38:51.000Z</time>
      </trkpt>
      <trkpt lat="47.34737" lon="-2.36378">
        <ele>122.19999694824</ele>
        <time>2022-04-14T08:38:52.000Z</time>
      </trkpt>
      <trkpt lat="47.34742" lon="-2.36375">
        <ele>122.59999847412</ele>
        <time>2022-04-14T08:38:53.000Z</time>
      </trkpt>
      <trkpt lat="47.34747" lon="-2.36372">
        <ele>123.19999694824</ele>
        <time>2022-04-14T08:38:54.000Z</time>
      </trkpt>
      <trkpt lat="47.34751" lon="-2.36369">
        <ele>123.59999847412</ele>
        <time>2022-04-14T08:38:55.000Z</time>
      </trkpt>
      <trkpt lat="47.34765" lon="-2.36362">
        <ele>123.59999847412</ele>
        <time>2022-04-14T08:38:58.000Z</time>
      </trkpt>
      <trkpt lat="47.34787" lon="-2.36348">
        <ele>123.59999847412</ele>
        <time>2022-04-14T08:39:03.000Z</time>
      </trkpt>
      <trkpt lat="47.34796" lon="-2.36341">
        <ele>123.59999847412</ele>
        <time>2022-04-14T08:39:05.000Z</time>
      </trkpt>
      <trkpt lat="47.3483" lon="-2.36322">
        <ele>123.59999847412</ele>
        <time>2022-04-14T08:39:13.000Z</time>
      </trkpt>
      <trkpt lat="47.34845" lon="-2.3633">
        <ele>123.59999847412</ele>
        <time>2022-04-14T08:39:17.000Z</time>
      </trkpt>
      <trkpt lat="47.34875" lon="-2.36347">
        <ele>123.59999847412</ele>
        <time>2022-04-14T08:39:24.000Z</time>
      </trkpt>
      <trkpt lat="47.34885" lon="-2.36352">
        <ele>123.59999847412</ele>
        <time>2022-04-14T08:39:26.000Z</time>
      </trkpt>
      <trkpt lat="47.34905" lon="-2.36364">
        <ele>123.59999847412</ele>
        <time>2022-04-14T08:39:30.000Z</time>
      </trkpt>
      <trkpt lat="47.34945" lon="-2.3639">
        <ele>123.59999847412</ele>
        <time>2022-04-14T08:39:37.000Z</time>
      </trkpt>
      <trkpt lat="47.34951" lon="-2.36394">
        <ele>123.19999694824</ele>
        <time>2022-04-14T08:39:38.000Z</time>
      </trkpt>
      <trkpt lat="47.34958" lon="-2.36398">
        <ele>122.80000305176</ele>
        <time>2022-04-14T08:39:39.000Z</time>
      </trkpt>
      <trkpt lat="47.34965" lon="-2.36403">
        <ele>122.40000152588</ele>
        <time>2022-04-14T08:39:40.000Z</time>
      </trkpt>
      <trkpt lat="47.34972" lon="-2.36407">
        <ele>122</ele>
        <time>2022-04-14T08:39:41.000Z</time>
      </trkpt>
      <trkpt lat="47.34978" lon="-2.36411">
        <ele>121.59999847412</ele>
        <time>2022-04-14T08:39:42.000Z</time>
      </trkpt>
      <trkpt lat="47.34985" lon="-2.36415">
        <ele>121</ele>
        <time>2022-04-14T08:39:43.000Z</time>
      </trkpt>
      <trkpt lat="47.34991" lon="-2.36419">
        <ele>120.59999847412</ele>
        <time>2022-04-14T08:39:44.000Z</time>
      </trkpt>
      <trkpt lat="47.34997" lon="-2.36425">
        <ele>119.80000305176</ele>
        <time>2022-04-14T08:39:45.000Z</time>
      </trkpt>
      <trkpt lat="47.35002" lon="-2.36432">
        <ele>119.40000152588</ele>
        <time>2022-04-14T08:39:46.000Z</time>
      </trkpt>
      <trkpt lat="47.35012" lon="-2.36458">
        <ele>119.40000152588</ele>
        <time>2022-04-14T08:39:49.000Z</time>
      </trkpt>
      <trkpt lat="47.35014" lon="-2.36468">
        <ele>119.40000152588</ele>
        <time>2022-04-14T08:39:50.000Z</time>
      </trkpt>
      <trkpt lat="47.35018" lon="-2.36476">
        <ele>119.40000152588</ele>
        <time>2022-04-14T08:39:51.000Z</time>
      </trkpt>
      <trkpt lat="47.35024" lon="-2.36492">
        <ele>119.40000152588</ele>
        <time>2022-04-14T08:39:53.000Z</time>
      </trkpt>
      <trkpt lat="47.35028" lon="-2.36499">
        <ele>119.40000152588</ele>
        <time>2022-04-14T08:39:54.000Z</time>
      </trkpt>
      <trkpt lat="47.35051" lon="-2.36539">
        <ele>119.40000152588</ele>
        <time>2022-04-14T08:40:00.000Z</time>
      </trkpt>
      <trkpt lat="47.3507" lon="-2.36585">
        <ele>119.40000152588</ele>
        <time>2022-04-14T08:40:06.000Z</time>
      </trkpt>
      <trkpt lat="47.35091" lon="-2.36648">
        <ele>119.40000152588</ele>
        <time>2022-04-14T08:40:14.000Z</time>
      </trkpt>
      <trkpt lat="47.35094" lon="-2.36656">
        <ele>119.80000305176</ele>
        <time>2022-04-14T08:40:15.000Z</time>
      </trkpt>
      <trkpt lat="47.35096" lon="-2.36664">
        <ele>120.19999694824</ele>
        <time>2022-04-14T08:40:16.000Z</time>
      </trkpt>
      <trkpt lat="47.35099" lon="-2.36671">
        <ele>120.59999847412</ele>
        <time>2022-04-14T08:40:17.000Z</time>
      </trkpt>
      <trkpt lat="47.35101" lon="-2.36679">
        <ele>121</ele>
        <time>2022-04-14T08:40:18.000Z</time>
      </trkpt>
      <trkpt lat="47.35104" lon="-2.36686">
        <ele>121.40000152588</ele>
        <time>2022-04-14T08:40:19.000Z</time>
      </trkpt>
      <trkpt lat="47.3511" lon="-2.36709">
        <ele>121.40000152588</ele>
        <time>2022-04-14T08:40:22.000Z</time>
      </trkpt>
      <trkpt lat="47.35124" lon="-2.36763">
        <ele>121.40000152588</ele>
        <time>2022-04-14T08:40:29.000Z</time>
      </trkpt>
      <trkpt lat="47.3513" lon="-2.36786">
        <ele>121.40000152588</ele>
        <time>2022-04-14T08:40:32.000Z</time>
      </trkpt>
      <trkpt lat="47.35137" lon="-2.36811">
        <ele>121.40000152588</ele>
        <time>2022-04-14T08:40:35.000Z</time>
      </trkpt>
      <trkpt lat="47.35148" lon="-2.36862">
        <ele>121.40000152588</ele>
        <time>2022-04-14T08:40:41.000Z</time>
      </trkpt>
      <trkpt lat="47.35165" lon="-2.3692">
        <ele>121.40000152588</ele>
        <time>2022-04-14T08:40:48.000Z</time>
      </trkpt>
      <trkpt lat="47.35185" lon="-2.3696">
        <ele>121.40000152588</ele>
        <time>2022-04-14T08:40:54.000Z</time>
      </trkpt>
      <trkpt lat="47.35191" lon="-2.36973">
        <ele>121.80000305176</ele>
        <time>2022-04-14T08:40:56.000Z</time>
      </trkpt>
      <trkpt lat="47.35195" lon="-2.3698">
        <ele>122.19999694824</ele>
        <time>2022-04-14T08:40:57.000Z</time>
      </trkpt>
      <trkpt lat="47.35198" lon="-2.36987">
        <ele>122.59999847412</ele>
        <time>2022-04-14T08:40:58.000Z</time>
      </trkpt>
      <trkpt lat="47.35201" lon="-2.36994">
        <ele>123</ele>
        <time>2022-04-14T08:40:59.000Z</time>
      </trkpt>
      <trkpt lat="47.35204" lon="-2.37001">
        <ele>123.40000152588</ele>
        <time>2022-04-14T08:41:00.000Z</time>
      </trkpt>
      <trkpt lat="47.35215" lon="-2.37034">
        <ele>123.40000152588</ele>
        <time>2022-04-14T08:41:04.000Z</time>
      </trkpt>
      <trkpt lat="47.3522" lon="-2.37051">
        <ele>123.40000152588</ele>
        <time>2022-04-14T08:41:06.000Z</time>
      </trkpt>
      <trkpt lat="47.35232" lon="-2.37112">
        <ele>123.40000152588</ele>
        <time>2022-04-14T08:41:13.000Z</time>
      </trkpt>
      <trkpt lat="47.35245" lon="-2.37164">
        <ele>123.40000152588</ele>
        <time>2022-04-14T08:41:19.000Z</time>
      </trkpt>
      <trkpt lat="47.35248" lon="-2.37171">
        <ele>123.40000152588</ele>
        <time>2022-04-14T08:41:20.000Z</time>
      </trkpt>
      <trkpt lat="47.3526" lon="-2.3719">
        <ele>123.40000152588</ele>
        <time>2022-04-14T08:41:23.000Z</time>
      </trkpt>
      <trkpt lat="47.35279" lon="-2.37219">
        <ele>123.40000152588</ele>
        <time>2022-04-14T08:41:29.000Z</time>
      </trkpt>
      <trkpt lat="47.35285" lon="-2.37238">
        <ele>123.40000152588</ele>
        <time>2022-04-14T08:41:33.000Z</time>
      </trkpt>
      <trkpt lat="47.35285" lon="-2.37273">
        <ele>123.40000152588</ele>
        <time>2022-04-14T08:41:38.000Z</time>
      </trkpt>
      <trkpt lat="47.35286" lon="-2.3732">
        <ele>123.40000152588</ele>
        <time>2022-04-14T08:41:45.000Z</time>
      </trkpt>
      <trkpt lat="47.35287" lon="-2.37384">
        <ele>123.40000152588</ele>
        <time>2022-04-14T08:41:54.000Z</time>
      </trkpt>
      <trkpt lat="47.35291" lon="-2.37446">
        <ele>123.40000152588</ele>
        <time>2022-04-14T08:42:02.000Z</time>
      </trkpt>
      <trkpt lat="47.35296" lon="-2.37485">
        <ele>123</ele>
        <time>2022-04-14T08:42:06.000Z</time>
      </trkpt>
      <trkpt lat="47.35298" lon="-2.37495">
        <ele>122.59999847412</ele>
        <time>2022-04-14T08:42:07.000Z</time>
      </trkpt>
      <trkpt lat="47.353" lon="-2.37505">
        <ele>122.19999694824</ele>
        <time>2022-04-14T08:42:08.000Z</time>
      </trkpt>
      <trkpt lat="47.35302" lon="-2.37516">
        <ele>121.59999847412</ele>
        <time>2022-04-14T08:42:09.000Z</time>
      </trkpt>
      <trkpt lat="47.35304" lon="-2.37526">
        <ele>121.19999694824</ele>
        <time>2022-04-14T08:42:10.000Z</time>
      </trkpt>
      <trkpt lat="47.35311" lon="-2.37565">
        <ele>121.19999694824</ele>
        <time>2022-04-14T08:42:14.000Z</time>
      </trkpt>
      <trkpt lat="47.3533" lon="-2.37639">
        <ele>121.19999694824</ele>
        <time>2022-04-14T08:42:22.000Z</time>
      </trkpt>
      <trkpt lat="47.35349" lon="-2.37712">
        <ele>121.19999694824</ele>
        <time>2022-04-14T08:42:30.000Z</time>
      </trkpt>
      <trkpt lat="47.35359" lon="-2.37747">
        <ele>120.80000305176</ele>
        <time>2022-04-14T08:42:34.000Z</time>
      </trkpt>
      <trkpt lat="47.35361" lon="-2.37755">
        <ele>120.40000152588</ele>
        <time>2022-04-14T08:42:35.000Z</time>
      </trkpt>
      <trkpt lat="47.35362" lon="-2.37763">
        <ele>120</ele>
        <time>2022-04-14T08:42:36.000Z</time>
      </trkpt>
      <trkpt lat="47.35364" lon="-2.3777">
        <ele>119.59999847412</ele>
        <time>2022-04-14T08:42:37.000Z</time>
      </trkpt>
      <trkpt lat="47.35365" lon="-2.37776">
        <ele>119.19999694824</ele>
        <time>2022-04-14T08:42:38.000Z</time>
      </trkpt>
      <trkpt lat="47.35365" lon="-2.37786">
        <ele>119.19999694824</ele>
        <time>2022-04-14T08:42:40.000Z</time>
      </trkpt>
      <trkpt lat="47.35357" lon="-2.37791">
        <ele>119.19999694824</ele>
        <time>2022-04-14T08:42:43.000Z</time>
      </trkpt>
      <trkpt lat="47.35339" lon="-2.37795">
        <ele>119.19999694824</ele>
        <time>2022-04-14T08:42:47.000Z</time>
      </trkpt>
      <trkpt lat="47.35311" lon="-2.37804">
        <ele>119.19999694824</ele>
        <time>2022-04-14T08:42:52.000Z</time>
      </trkpt>
      <trkpt lat="47.35275" lon="-2.3782">
        <ele>119.19999694824</ele>
        <time>2022-04-14T08:42:58.000Z</time>
      </trkpt>
      <trkpt lat="47.3527" lon="-2.37824">
        <ele>119.19999694824</ele>
        <time>2022-04-14T08:42:59.000Z</time>
      </trkpt>
      <trkpt lat="47.35236" lon="-2.37856">
        <ele>119.19999694824</ele>
        <time>2022-04-14T08:43:05.000Z</time>
      </trkpt>
      <trkpt lat="47.35224" lon="-2.37865">
        <ele>118.80000305176</ele>
        <time>2022-04-14T08:43:07.000Z</time>
      </trkpt>
      <trkpt lat="47.35218" lon="-2.3787">
        <ele>118.40000152588</ele>
        <time>2022-04-14T08:43:08.000Z</time>
      </trkpt>
      <trkpt lat="47.35211" lon="-2.37874">
        <ele>118</ele>
        <time>2022-04-14T08:43:09.000Z</time>
      </trkpt>
      <trkpt lat="47.35205" lon="-2.37878">
        <ele>117.59999847412</ele>
        <time>2022-04-14T08:43:10.000Z</time>
      </trkpt>
      <trkpt lat="47.35199" lon="-2.37882">
        <ele>117.19999694824</ele>
        <time>2022-04-14T08:43:11.000Z</time>
      </trkpt>
      <trkpt lat="47.35192" lon="-2.37887">
        <ele>117.19999694824</ele>
        <time>2022-04-14T08:43:12.000Z</time>
      </trkpt>
      <trkpt lat="47.35158" lon="-2.37913">
        <ele>117.19999694824</ele>
        <time>2022-04-14T08:43:18.000Z</time>
      </trkpt>
      <trkpt lat="47.35132" lon="-2.37933">
        <ele>117.19999694824</ele>
        <time>2022-04-14T08:43:23.000Z</time>
      </trkpt>
      <trkpt lat="47.35121" lon="-2.37941">
        <ele>117.19999694824</ele>
        <time>2022-04-14T08:43:25.000Z</time>
      </trkpt>
      <trkpt lat="47.35077" lon="-2.37976">
        <ele>117.19999694824</ele>
        <time>2022-04-14T08:43:33.000Z</time>
      </trkpt>
      <trkpt lat="47.3503" lon="-2.38015">
        <ele>117.19999694824</ele>
        <time>2022-04-14T08:43:42.000Z</time>
      </trkpt>
      <trkpt lat="47.34995" lon="-2.38044">
        <ele>117.19999694824</ele>
        <time>2022-04-14T08:43:49.000Z</time>
      </trkpt>
      <trkpt lat="47.34979" lon="-2.38055">
        <ele>117.19999694824</ele>
        <time>2022-04-14T08:43:53.000Z</time>
      </trkpt>
      <trkpt lat="47.34975" lon="-2.38055">
        <ele>117.19999694824</ele>
        <time>2022-04-14T08:43:54.000Z</time>
      </trkpt>
      <trkpt lat="47.34964" lon="-2.38045">
        <ele>117.19999694824</ele>
        <time>2022-04-14T08:43:57.000Z</time>
      </trkpt>
      <trkpt lat="47.34958" lon="-2.38033">
        <ele>117.19999694824</ele>
        <time>2022-04-14T08:43:59.000Z</time>
      </trkpt>
      <trkpt lat="47.34952" lon="-2.38021">
        <ele>117.19999694824</ele>
        <time>2022-04-14T08:44:01.000Z</time>
      </trkpt>
      <trkpt lat="47.34948" lon="-2.38015">
        <ele>117.19999694824</ele>
        <time>2022-04-14T08:44:02.000Z</time>
      </trkpt>
      <trkpt lat="47.34941" lon="-2.38003">
        <ele>117.59999847412</ele>
        <time>2022-04-14T08:44:04.000Z</time>
      </trkpt>
      <trkpt lat="47.34936" lon="-2.37998">
        <ele>118</ele>
        <time>2022-04-14T08:44:05.000Z</time>
      </trkpt>
      <trkpt lat="47.34932" lon="-2.37994">
        <ele>118.40000152588</ele>
        <time>2022-04-14T08:44:06.000Z</time>
      </trkpt>
      <trkpt lat="47.34927" lon="-2.37989">
        <ele>118.80000305176</ele>
        <time>2022-04-14T08:44:07.000Z</time>
      </trkpt>
      <trkpt lat="47.34922" lon="-2.37985">
        <ele>119.19999694824</ele>
        <time>2022-04-14T08:44:08.000Z</time>
      </trkpt>
      <trkpt lat="47.34902" lon="-2.3797">
        <ele>119.19999694824</ele>
        <time>2022-04-14T08:44:12.000Z</time>
      </trkpt>
      <trkpt lat="47.3487" lon="-2.37947">
        <ele>119.19999694824</ele>
        <time>2022-04-14T08:44:18.000Z</time>
      </trkpt>
      <trkpt lat="47.34834" lon="-2.37918">
        <ele>119.19999694824</ele>
        <time>2022-04-14T08:44:25.000Z</time>
      </trkpt>
      <trkpt lat="47.34802" lon="-2.37893">
        <ele>119.19999694824</ele>
        <time>2022-04-14T08:44:31.000Z</time>
      </trkpt>
      <trkpt lat="47.34774" lon="-2.37872">
        <ele>119.19999694824</ele>
        <time>2022-04-14T08:44:37.000Z</time>
      </trkpt>
      <trkpt lat="47.34756" lon="-2.37865">
        <ele>119.19999694824</ele>
        <time>2022-04-14T08:44:42.000Z</time>
      </trkpt>
      <trkpt lat="47.34749" lon="-2.37879">
        <ele>119.19999694824</ele>
        <time>2022-04-14T08:44:45.000Z</time>
      </trkpt>
      <trkpt lat="47.34747" lon="-2.37885">
        <ele>119.19999694824</ele>
        <time>2022-04-14T08:44:46.000Z</time>
      </trkpt>
      <trkpt lat="47.3474" lon="-2.37904">
        <ele>119.19999694824</ele>
        <time>2022-04-14T08:44:49.000Z</time>
      </trkpt>
      <trkpt lat="47.34731" lon="-2.37922">
        <ele>119.19999694824</ele>
        <time>2022-04-14T08:44:52.000Z</time>
      </trkpt>
      <trkpt lat="47.34719" lon="-2.37937">
        <ele>119.19999694824</ele>
        <time>2022-04-14T08:44:55.000Z</time>
      </trkpt>
      <trkpt lat="47.34711" lon="-2.37948">
        <ele>119.19999694824</ele>
        <time>2022-04-14T08:44:57.000Z</time>
      </trkpt>
      <trkpt lat="47.34675" lon="-2.37984">
        <ele>119.19999694824</ele>
        <time>2022-04-14T08:45:05.000Z</time>
      </trkpt>
      <trkpt lat="47.3467" lon="-2.37988">
        <ele>120</ele>
        <time>2022-04-14T08:45:06.000Z</time>
      </trkpt>
      <trkpt lat="47.34666" lon="-2.37992">
        <ele>120.40000152588</ele>
        <time>2022-04-14T08:45:07.000Z</time>
      </trkpt>
      <trkpt lat="47.34661" lon="-2.37996">
        <ele>121</ele>
        <time>2022-04-14T08:45:08.000Z</time>
      </trkpt>
      <trkpt lat="47.34657" lon="-2.38">
        <ele>121.40000152588</ele>
        <time>2022-04-14T08:45:09.000Z</time>
      </trkpt>
      <trkpt lat="47.34642" lon="-2.38011">
        <ele>121.40000152588</ele>
        <time>2022-04-14T08:45:12.000Z</time>
      </trkpt>
      <trkpt lat="47.34638" lon="-2.38015">
        <ele>121.40000152588</ele>
        <time>2022-04-14T08:45:13.000Z</time>
      </trkpt>
      <trkpt lat="47.34614" lon="-2.38037">
        <ele>121.40000152588</ele>
        <time>2022-04-14T08:45:18.000Z</time>
      </trkpt>
      <trkpt lat="47.34611" lon="-2.38043">
        <ele>121.40000152588</ele>
        <time>2022-04-14T08:45:19.000Z</time>
      </trkpt>
      <trkpt lat="47.34609" lon="-2.38049">
        <ele>121.40000152588</ele>
        <time>2022-04-14T08:45:20.000Z</time>
      </trkpt>
      <trkpt lat="47.34612" lon="-2.3807">
        <ele>121.40000152588</ele>
        <time>2022-04-14T08:45:23.000Z</time>
      </trkpt>
      <trkpt lat="47.34627" lon="-2.38095">
        <ele>121.40000152588</ele>
        <time>2022-04-14T08:45:27.000Z</time>
      </trkpt>
      <trkpt lat="47.34642" lon="-2.38123">
        <ele>121.40000152588</ele>
        <time>2022-04-14T08:45:31.000Z</time>
      </trkpt>
      <trkpt lat="47.34645" lon="-2.38132">
        <ele>121.40000152588</ele>
        <time>2022-04-14T08:45:32.000Z</time>
      </trkpt>
      <trkpt lat="47.34648" lon="-2.38149">
        <ele>121.40000152588</ele>
        <time>2022-04-14T08:45:34.000Z</time>
      </trkpt>
      <trkpt lat="47.34649" lon="-2.38165">
        <ele>121.40000152588</ele>
        <time>2022-04-14T08:45:36.000Z</time>
      </trkpt>
      <trkpt lat="47.3465" lon="-2.38219">
        <ele>121.40000152588</ele>
        <time>2022-04-14T08:45:43.000Z</time>
      </trkpt>
      <trkpt lat="47.3465" lon="-2.38273">
        <ele>121.40000152588</ele>
        <time>2022-04-14T08:45:50.000Z</time>
      </trkpt>
      <trkpt lat="47.34651" lon="-2.38322">
        <ele>121.40000152588</ele>
        <time>2022-04-14T08:45:56.000Z</time>
      </trkpt>
      <trkpt lat="47.34653" lon="-2.3838">
        <ele>121.40000152588</ele>
        <time>2022-04-14T08:46:03.000Z</time>
      </trkpt>
      <trkpt lat="47.34661" lon="-2.38417">
        <ele>121.40000152588</ele>
        <time>2022-04-14T08:46:08.000Z</time>
      </trkpt>
      <trkpt lat="47.34668" lon="-2.38441">
        <ele>121</ele>
        <time>2022-04-14T08:46:12.000Z</time>
      </trkpt>
      <trkpt lat="47.3467" lon="-2.38448">
        <ele>120.59999847412</ele>
        <time>2022-04-14T08:46:13.000Z</time>
      </trkpt>
      <trkpt lat="47.34672" lon="-2.38455">
        <ele>120.19999694824</ele>
        <time>2022-04-14T08:46:14.000Z</time>
      </trkpt>
      <trkpt lat="47.34673" lon="-2.38463">
        <ele>119.80000305176</ele>
        <time>2022-04-14T08:46:15.000Z</time>
      </trkpt>
      <trkpt lat="47.34675" lon="-2.3847">
        <ele>119.40000152588</ele>
        <time>2022-04-14T08:46:16.000Z</time>
      </trkpt>
      <trkpt lat="47.34678" lon="-2.38484">
        <ele>119.40000152588</ele>
        <time>2022-04-14T08:46:18.000Z</time>
      </trkpt>
      <trkpt lat="47.3468" lon="-2.38498">
        <ele>119.40000152588</ele>
        <time>2022-04-14T08:46:20.000Z</time>
      </trkpt>
      <trkpt lat="47.34684" lon="-2.38547">
        <ele>119.40000152588</ele>
        <time>2022-04-14T08:46:26.000Z</time>
      </trkpt>
      <trkpt lat="47.34684" lon="-2.3858">
        <ele>119.40000152588</ele>
        <time>2022-04-14T08:46:30.000Z</time>
      </trkpt>
      <trkpt lat="47.34684" lon="-2.38595">
        <ele>119.40000152588</ele>
        <time>2022-04-14T08:46:32.000Z</time>
      </trkpt>
      <trkpt lat="47.34684" lon="-2.38629">
        <ele>119.40000152588</ele>
        <time>2022-04-14T08:46:37.000Z</time>
      </trkpt>
      <trkpt lat="47.34684" lon="-2.38636">
        <ele>119.40000152588</ele>
        <time>2022-04-14T08:46:38.000Z</time>
      </trkpt>
      <trkpt lat="47.34686" lon="-2.38676">
        <ele>119.40000152588</ele>
        <time>2022-04-14T08:46:44.000Z</time>
      </trkpt>
      <trkpt lat="47.3469" lon="-2.38738">
        <ele>119.40000152588</ele>
        <time>2022-04-14T08:46:52.000Z</time>
      </trkpt>
      <trkpt lat="47.34691" lon="-2.38764">
        <ele>119.40000152588</ele>
        <time>2022-04-14T08:46:55.000Z</time>
      </trkpt>
      <trkpt lat="47.34692" lon="-2.3878">
        <ele>119</ele>
        <time>2022-04-14T08:46:57.000Z</time>
      </trkpt>
      <trkpt lat="47.34693" lon="-2.38788">
        <ele>118.59999847412</ele>
        <time>2022-04-14T08:46:58.000Z</time>
      </trkpt>
      <trkpt lat="47.34693" lon="-2.38795">
        <ele>118.19999694824</ele>
        <time>2022-04-14T08:46:59.000Z</time>
      </trkpt>
      <trkpt lat="47.34693" lon="-2.38801">
        <ele>117.80000305176</ele>
        <time>2022-04-14T08:47:00.000Z</time>
      </trkpt>
      <trkpt lat="47.34693" lon="-2.38808">
        <ele>117.40000152588</ele>
        <time>2022-04-14T08:47:01.000Z</time>
      </trkpt>
      <trkpt lat="47.34693" lon="-2.38821">
        <ele>117.40000152588</ele>
        <time>2022-04-14T08:47:03.000Z</time>
      </trkpt>
      <trkpt lat="47.34696" lon="-2.38864">
        <ele>117.40000152588</ele>
        <time>2022-04-14T08:47:09.000Z</time>
      </trkpt>
      <trkpt lat="47.34698" lon="-2.38899">
        <ele>117.40000152588</ele>
        <time>2022-04-14T08:47:14.000Z</time>
      </trkpt>
      <trkpt lat="47.34701" lon="-2.3894">
        <ele>117.40000152588</ele>
        <time>2022-04-14T08:47:21.000Z</time>
      </trkpt>
      <trkpt lat="47.34701" lon="-2.3896">
        <ele>117.40000152588</ele>
        <time>2022-04-14T08:47:26.000Z</time>
      </trkpt>
      <trkpt lat="47.34701" lon="-2.38991">
        <ele>117.40000152588</ele>
        <time>2022-04-14T08:47:32.000Z</time>
      </trkpt>
      <trkpt lat="47.34698" lon="-2.39017">
        <ele>117.40000152588</ele>
        <time>2022-04-14T08:47:37.000Z</time>
      </trkpt>
      <trkpt lat="47.34692" lon="-2.39051">
        <ele>117.40000152588</ele>
        <time>2022-04-14T08:47:43.000Z</time>
      </trkpt>
      <trkpt lat="47.34688" lon="-2.39083">
        <ele>117.80000305176</ele>
        <time>2022-04-14T08:47:49.000Z</time>
      </trkpt>
      <trkpt lat="47.34688" lon="-2.39089">
        <ele>118.19999694824</ele>
        <time>2022-04-14T08:47:50.000Z</time>
      </trkpt>
      <trkpt lat="47.34688" lon="-2.39095">
        <ele>118.59999847412</ele>
        <time>2022-04-14T08:47:51.000Z</time>
      </trkpt>
      <trkpt lat="47.34688" lon="-2.391">
        <ele>119</ele>
        <time>2022-04-14T08:47:52.000Z</time>
      </trkpt>
      <trkpt lat="47.34687" lon="-2.39106">
        <ele>119.40000152588</ele>
        <time>2022-04-14T08:47:53.000Z</time>
      </trkpt>
      <trkpt lat="47.34685" lon="-2.3913">
        <ele>119.40000152588</ele>
        <time>2022-04-14T08:47:57.000Z</time>
      </trkpt>
      <trkpt lat="47.34685" lon="-2.39167">
        <ele>119.40000152588</ele>
        <time>2022-04-14T08:48:03.000Z</time>
      </trkpt>
      <trkpt lat="47.34689" lon="-2.39199">
        <ele>119.40000152588</ele>
        <time>2022-04-14T08:48:09.000Z</time>
      </trkpt>
      <trkpt lat="47.34694" lon="-2.39222">
        <ele>119.40000152588</ele>
        <time>2022-04-14T08:48:13.000Z</time>
      </trkpt>
      <trkpt lat="47.34694" lon="-2.39234">
        <ele>119.40000152588</ele>
        <time>2022-04-14T08:48:15.000Z</time>
      </trkpt>
      <trkpt lat="47.3469" lon="-2.39244">
        <ele>119.40000152588</ele>
        <time>2022-04-14T08:48:17.000Z</time>
      </trkpt>
      <trkpt lat="47.34673" lon="-2.39277">
        <ele>119.40000152588</ele>
        <time>2022-04-14T08:48:23.000Z</time>
      </trkpt>
      <trkpt lat="47.34671" lon="-2.39282">
        <ele>120.19999694824</ele>
        <time>2022-04-14T08:48:24.000Z</time>
      </trkpt>
      <trkpt lat="47.34669" lon="-2.39287">
        <ele>120.59999847412</ele>
        <time>2022-04-14T08:48:25.000Z</time>
      </trkpt>
      <trkpt lat="47.34666" lon="-2.39292">
        <ele>121</ele>
        <time>2022-04-14T08:48:26.000Z</time>
      </trkpt>
      <trkpt lat="47.34663" lon="-2.39295">
        <ele>121.40000152588</ele>
        <time>2022-04-14T08:48:27.000Z</time>
      </trkpt>
      <trkpt lat="47.3466" lon="-2.39297">
        <ele>121.40000152588</ele>
        <time>2022-04-14T08:48:28.000Z</time>
      </trkpt>
      <trkpt lat="47.34649" lon="-2.39292">
        <ele>121.40000152588</ele>
        <time>2022-04-14T08:48:31.000Z</time>
      </trkpt>
      <trkpt lat="47.34642" lon="-2.39286">
        <ele>121.40000152588</ele>
        <time>2022-04-14T08:48:33.000Z</time>
      </trkpt>
      <trkpt lat="47.34624" lon="-2.3927">
        <ele>121.40000152588</ele>
        <time>2022-04-14T08:48:37.000Z</time>
      </trkpt>
      <trkpt lat="47.34593" lon="-2.39248">
        <ele>121.40000152588</ele>
        <time>2022-04-14T08:48:43.000Z</time>
      </trkpt>
      <trkpt lat="47.3456" lon="-2.39231">
        <ele>121.40000152588</ele>
        <time>2022-04-14T08:48:49.000Z</time>
      </trkpt>
      <trkpt lat="47.34555" lon="-2.3923">
        <ele>121.40000152588</ele>
        <time>2022-04-14T08:48:50.000Z</time>
      </trkpt>
      <trkpt lat="47.34516" lon="-2.39226">
        <ele>121.40000152588</ele>
        <time>2022-04-14T08:48:57.000Z</time>
      </trkpt>
      <trkpt lat="47.34511" lon="-2.39227">
        <ele>121.80000305176</ele>
        <time>2022-04-14T08:48:58.000Z</time>
      </trkpt>
      <trkpt lat="47.34506" lon="-2.39227">
        <ele>122.19999694824</ele>
        <time>2022-04-14T08:48:59.000Z</time>
      </trkpt>
      <trkpt lat="47.34501" lon="-2.39228">
        <ele>122.59999847412</ele>
        <time>2022-04-14T08:49:00.000Z</time>
      </trkpt>
      <trkpt lat="47.34496" lon="-2.39229">
        <ele>123</ele>
        <time>2022-04-14T08:49:01.000Z</time>
      </trkpt>
      <trkpt lat="47.34491" lon="-2.39231">
        <ele>123.40000152588</ele>
        <time>2022-04-14T08:49:02.000Z</time>
      </trkpt>
      <trkpt lat="47.34485" lon="-2.39232">
        <ele>123.40000152588</ele>
        <time>2022-04-14T08:49:03.000Z</time>
      </trkpt>
      <trkpt lat="47.3447" lon="-2.39236">
        <ele>123.80000305176</ele>
        <time>2022-04-14T08:49:06.000Z</time>
      </trkpt>
      <trkpt lat="47.34465" lon="-2.39238">
        <ele>124.19999694824</ele>
        <time>2022-04-14T08:49:07.000Z</time>
      </trkpt>
      <trkpt lat="47.3446" lon="-2.3924">
        <ele>124.80000305176</ele>
        <time>2022-04-14T08:49:08.000Z</time>
      </trkpt>
      <trkpt lat="47.34455" lon="-2.39242">
        <ele>125.19999694824</ele>
        <time>2022-04-14T08:49:09.000Z</time>
      </trkpt>
      <trkpt lat="47.3445" lon="-2.39243">
        <ele>125.59999847412</ele>
        <time>2022-04-14T08:49:10.000Z</time>
      </trkpt>
      <trkpt lat="47.3443" lon="-2.39249">
        <ele>125.59999847412</ele>
        <time>2022-04-14T08:49:14.000Z</time>
      </trkpt>
      <trkpt lat="47.34421" lon="-2.39251">
        <ele>126</ele>
        <time>2022-04-14T08:49:16.000Z</time>
      </trkpt>
      <trkpt lat="47.34416" lon="-2.39252">
        <ele>126.40000152588</ele>
        <time>2022-04-14T08:49:17.000Z</time>
      </trkpt>
      <trkpt lat="47.34412" lon="-2.39254">
        <ele>126.80000305176</ele>
        <time>2022-04-14T08:49:18.000Z</time>
      </trkpt>
      <trkpt lat="47.34407" lon="-2.39255">
        <ele>127.19999694824</ele>
        <time>2022-04-14T08:49:19.000Z</time>
      </trkpt>
      <trkpt lat="47.34403" lon="-2.39257">
        <ele>127.59999847412</ele>
        <time>2022-04-14T08:49:20.000Z</time>
      </trkpt>
      <trkpt lat="47.34393" lon="-2.39261">
        <ele>127.59999847412</ele>
        <time>2022-04-14T08:49:22.000Z</time>
      </trkpt>
      <trkpt lat="47.34385" lon="-2.39264">
        <ele>128</ele>
        <time>2022-04-14T08:49:24.000Z</time>
      </trkpt>
      <trkpt lat="47.34381" lon="-2.39266">
        <ele>128.39999389648</ele>
        <time>2022-04-14T08:49:25.000Z</time>
      </trkpt>
      <trkpt lat="47.34376" lon="-2.39269">
        <ele>129</ele>
        <time>2022-04-14T08:49:26.000Z</time>
      </trkpt>
      <trkpt lat="47.34372" lon="-2.39271">
        <ele>129.39999389648</ele>
        <time>2022-04-14T08:49:27.000Z</time>
      </trkpt>
      <trkpt lat="47.34368" lon="-2.39273">
        <ele>129.80000305176</ele>
        <time>2022-04-14T08:49:28.000Z</time>
      </trkpt>
      <trkpt lat="47.34364" lon="-2.39276">
        <ele>129.80000305176</ele>
        <time>2022-04-14T08:49:29.000Z</time>
      </trkpt>
      <trkpt lat="47.34341" lon="-2.39286">
        <ele>130.19999694824</ele>
        <time>2022-04-14T08:49:34.000Z</time>
      </trkpt>
      <trkpt lat="47.34337" lon="-2.39288">
        <ele>130.60000610352</ele>
        <time>2022-04-14T08:49:35.000Z</time>
      </trkpt>
      <trkpt lat="47.34333" lon="-2.39291">
        <ele>131</ele>
        <time>2022-04-14T08:49:36.000Z</time>
      </trkpt>
      <trkpt lat="47.34329" lon="-2.39293">
        <ele>131.39999389648</ele>
        <time>2022-04-14T08:49:37.000Z</time>
      </trkpt>
      <trkpt lat="47.34325" lon="-2.39295">
        <ele>131.80000305176</ele>
        <time>2022-04-14T08:49:38.000Z</time>
      </trkpt>
      <trkpt lat="47.34304" lon="-2.39307">
        <ele>131.80000305176</ele>
        <time>2022-04-14T08:49:43.000Z</time>
      </trkpt>
      <trkpt lat="47.34299" lon="-2.39309">
        <ele>132.39999389648</ele>
        <time>2022-04-14T08:49:44.000Z</time>
      </trkpt>
      <trkpt lat="47.34295" lon="-2.39312">
        <ele>132.80000305176</ele>
        <time>2022-04-14T08:49:45.000Z</time>
      </trkpt>
      <trkpt lat="47.3429" lon="-2.39314">
        <ele>133.19999694824</ele>
        <time>2022-04-14T08:49:46.000Z</time>
      </trkpt>
      <trkpt lat="47.34285" lon="-2.39316">
        <ele>133.60000610352</ele>
        <time>2022-04-14T08:49:47.000Z</time>
      </trkpt>
      <trkpt lat="47.34281" lon="-2.39319">
        <ele>134</ele>
        <time>2022-04-14T08:49:48.000Z</time>
      </trkpt>
      <trkpt lat="47.34276" lon="-2.39321">
        <ele>134</ele>
        <time>2022-04-14T08:49:49.000Z</time>
      </trkpt>
      <trkpt lat="47.34254" lon="-2.39335">
        <ele>134</ele>
        <time>2022-04-14T08:49:54.000Z</time>
      </trkpt>
      <trkpt lat="47.34246" lon="-2.39342">
        <ele>134</ele>
        <time>2022-04-14T08:49:56.000Z</time>
      </trkpt>
      <trkpt lat="47.34222" lon="-2.39361">
        <ele>134</ele>
        <time>2022-04-14T08:50:02.000Z</time>
      </trkpt>
      <trkpt lat="47.3421" lon="-2.39369">
        <ele>134.39999389648</ele>
        <time>2022-04-14T08:50:05.000Z</time>
      </trkpt>
      <trkpt lat="47.34206" lon="-2.39372">
        <ele>134.80000305176</ele>
        <time>2022-04-14T08:50:06.000Z</time>
      </trkpt>
      <trkpt lat="47.34202" lon="-2.39374">
        <ele>135.19999694824</ele>
        <time>2022-04-14T08:50:07.000Z</time>
      </trkpt>
      <trkpt lat="47.34198" lon="-2.39375">
        <ele>135.60000610352</ele>
        <time>2022-04-14T08:50:08.000Z</time>
      </trkpt>
      <trkpt lat="47.34194" lon="-2.39378">
        <ele>136</ele>
        <time>2022-04-14T08:50:09.000Z</time>
      </trkpt>
      <trkpt lat="47.3417" lon="-2.39394">
        <ele>136</ele>
        <time>2022-04-14T08:50:15.000Z</time>
      </trkpt>
      <trkpt lat="47.34154" lon="-2.39407">
        <ele>136</ele>
        <time>2022-04-14T08:50:19.000Z</time>
      </trkpt>
      <trkpt lat="47.34124" lon="-2.39426">
        <ele>136</ele>
        <time>2022-04-14T08:50:25.000Z</time>
      </trkpt>
      <trkpt lat="47.34108" lon="-2.39432">
        <ele>136</ele>
        <time>2022-04-14T08:50:28.000Z</time>
      </trkpt>
      <trkpt lat="47.34096" lon="-2.39426">
        <ele>136</ele>
        <time>2022-04-14T08:50:30.000Z</time>
      </trkpt>
      <trkpt lat="47.34088" lon="-2.39405">
        <ele>136</ele>
        <time>2022-04-14T08:50:33.000Z</time>
      </trkpt>
      <trkpt lat="47.34087" lon="-2.39397">
        <ele>136</ele>
        <time>2022-04-14T08:50:34.000Z</time>
      </trkpt>
      <trkpt lat="47.34081" lon="-2.39349">
        <ele>136</ele>
        <time>2022-04-14T08:50:40.000Z</time>
      </trkpt>
      <trkpt lat="47.34072" lon="-2.39297">
        <ele>136</ele>
        <time>2022-04-14T08:50:47.000Z</time>
      </trkpt>
      <trkpt lat="47.34071" lon="-2.39289">
        <ele>136</ele>
        <time>2022-04-14T08:50:48.000Z</time>
      </trkpt>
      <trkpt lat="47.34067" lon="-2.39273">
        <ele>136</ele>
        <time>2022-04-14T08:50:50.000Z</time>
      </trkpt>
      <trkpt lat="47.34058" lon="-2.39265">
        <ele>136</ele>
        <time>2022-04-14T08:50:52.000Z</time>
      </trkpt>
      <trkpt lat="47.3404" lon="-2.39261">
        <ele>136</ele>
        <time>2022-04-14T08:50:55.000Z</time>
      </trkpt>
      <trkpt lat="47.34034" lon="-2.3926">
        <ele>136</ele>
        <time>2022-04-14T08:50:56.000Z</time>
      </trkpt>
      <trkpt lat="47.34" lon="-2.39263">
        <ele>136</ele>
        <time>2022-04-14T08:51:02.000Z</time>
      </trkpt>
      <trkpt lat="47.33994" lon="-2.39263">
        <ele>136</ele>
        <time>2022-04-14T08:51:03.000Z</time>
      </trkpt>
      <trkpt lat="47.33966" lon="-2.39266">
        <ele>136</ele>
        <time>2022-04-14T08:51:08.000Z</time>
      </trkpt>
      <trkpt lat="47.33926" lon="-2.39272">
        <ele>136</ele>
        <time>2022-04-14T08:51:15.000Z</time>
      </trkpt>
      <trkpt lat="47.33899" lon="-2.39279">
        <ele>136</ele>
        <time>2022-04-14T08:51:20.000Z</time>
      </trkpt>
      <trkpt lat="47.33893" lon="-2.3928">
        <ele>136</ele>
        <time>2022-04-14T08:51:21.000Z</time>
      </trkpt>
      <trkpt lat="47.33881" lon="-2.39282">
        <ele>136.39999389648</ele>
        <time>2022-04-14T08:51:23.000Z</time>
      </trkpt>
      <trkpt lat="47.33875" lon="-2.39282">
        <ele>136.80000305176</ele>
        <time>2022-04-14T08:51:24.000Z</time>
      </trkpt>
      <trkpt lat="47.33869" lon="-2.39283">
        <ele>137.19999694824</ele>
        <time>2022-04-14T08:51:25.000Z</time>
      </trkpt>
      <trkpt lat="47.33864" lon="-2.39284">
        <ele>137.60000610352</ele>
        <time>2022-04-14T08:51:26.000Z</time>
      </trkpt>
      <trkpt lat="47.33858" lon="-2.39284">
        <ele>138.19999694824</ele>
        <time>2022-04-14T08:51:27.000Z</time>
      </trkpt>
      <trkpt lat="47.33829" lon="-2.39288">
        <ele>138.19999694824</ele>
        <time>2022-04-14T08:51:32.000Z</time>
      </trkpt>
      <trkpt lat="47.33789" lon="-2.39295">
        <ele>138.19999694824</ele>
        <time>2022-04-14T08:51:39.000Z</time>
      </trkpt>
      <trkpt lat="47.33763" lon="-2.393">
        <ele>138.60000610352</ele>
        <time>2022-04-14T08:51:44.000Z</time>
      </trkpt>
      <trkpt lat="47.33758" lon="-2.393">
        <ele>139</ele>
        <time>2022-04-14T08:51:45.000Z</time>
      </trkpt>
      <trkpt lat="47.33753" lon="-2.39301">
        <ele>139.39999389648</ele>
        <time>2022-04-14T08:51:46.000Z</time>
      </trkpt>
      <trkpt lat="47.33748" lon="-2.39302">
        <ele>139.80000305176</ele>
        <time>2022-04-14T08:51:47.000Z</time>
      </trkpt>
      <trkpt lat="47.33743" lon="-2.39302">
        <ele>140.19999694824</ele>
        <time>2022-04-14T08:51:48.000Z</time>
      </trkpt>
      <trkpt lat="47.33733" lon="-2.39304">
        <ele>140.19999694824</ele>
        <time>2022-04-14T08:51:50.000Z</time>
      </trkpt>
      <trkpt lat="47.33716" lon="-2.39306">
        <ele>140.19999694824</ele>
        <time>2022-04-14T08:51:53.000Z</time>
      </trkpt>
      <trkpt lat="47.33709" lon="-2.39318">
        <ele>140.19999694824</ele>
        <time>2022-04-14T08:51:55.000Z</time>
      </trkpt>
      <trkpt lat="47.33708" lon="-2.39333">
        <ele>140.19999694824</ele>
        <time>2022-04-14T08:51:57.000Z</time>
      </trkpt>
      <trkpt lat="47.33708" lon="-2.39341">
        <ele>140.19999694824</ele>
        <time>2022-04-14T08:51:58.000Z</time>
      </trkpt>
      <trkpt lat="47.33704" lon="-2.39378">
        <ele>140.19999694824</ele>
        <time>2022-04-14T08:52:04.000Z</time>
      </trkpt>
      <trkpt lat="47.33704" lon="-2.39384">
        <ele>140.60000610352</ele>
        <time>2022-04-14T08:52:05.000Z</time>
      </trkpt>
      <trkpt lat="47.33704" lon="-2.39389">
        <ele>141</ele>
        <time>2022-04-14T08:52:06.000Z</time>
      </trkpt>
      <trkpt lat="47.33704" lon="-2.39395">
        <ele>141.80000305176</ele>
        <time>2022-04-14T08:52:07.000Z</time>
      </trkpt>
      <trkpt lat="47.33704" lon="-2.394">
        <ele>142.19999694824</ele>
        <time>2022-04-14T08:52:08.000Z</time>
      </trkpt>
      <trkpt lat="47.33702" lon="-2.39411">
        <ele>142.19999694824</ele>
        <time>2022-04-14T08:52:10.000Z</time>
      </trkpt>
      <trkpt lat="47.33698" lon="-2.39444">
        <ele>142.19999694824</ele>
        <time>2022-04-14T08:52:16.000Z</time>
      </trkpt>
      <trkpt lat="47.33692" lon="-2.39466">
        <ele>142.19999694824</ele>
        <time>2022-04-14T08:52:21.000Z</time>
      </trkpt>
      <trkpt lat="47.33685" lon="-2.39499">
        <ele>142.19999694824</ele>
        <time>2022-04-14T08:52:28.000Z</time>
      </trkpt>
      <trkpt lat="47.33675" lon="-2.39529">
        <ele>142.19999694824</ele>
        <time>2022-04-14T08:52:34.000Z</time>
      </trkpt>
      <trkpt lat="47.33661" lon="-2.39572">
        <ele>142.19999694824</ele>
        <time>2022-04-14T08:52:41.000Z</time>
      </trkpt>
      <trkpt lat="47.33642" lon="-2.39627">
        <ele>142.19999694824</ele>
        <time>2022-04-14T08:52:49.000Z</time>
      </trkpt>
      <trkpt lat="47.33625" lon="-2.39662">
        <ele>142.19999694824</ele>
        <time>2022-04-14T08:52:54.000Z</time>
      </trkpt>
      <trkpt lat="47.33621" lon="-2.39668">
        <ele>142.19999694824</ele>
        <time>2022-04-14T08:52:55.000Z</time>
      </trkpt>
      <trkpt lat="47.33617" lon="-2.39674">
        <ele>141.19999694824</ele>
        <time>2022-04-14T08:52:56.000Z</time>
      </trkpt>
      <trkpt lat="47.33612" lon="-2.3968">
        <ele>140.80000305176</ele>
        <time>2022-04-14T08:52:57.000Z</time>
      </trkpt>
      <trkpt lat="47.33608" lon="-2.39686">
        <ele>140.39999389648</ele>
        <time>2022-04-14T08:52:58.000Z</time>
      </trkpt>
      <trkpt lat="47.33605" lon="-2.39693">
        <ele>140</ele>
        <time>2022-04-14T08:52:59.000Z</time>
      </trkpt>
      <trkpt lat="47.33598" lon="-2.39707">
        <ele>140</ele>
        <time>2022-04-14T08:53:01.000Z</time>
      </trkpt>
      <trkpt lat="47.3357" lon="-2.39746">
        <ele>140</ele>
        <time>2022-04-14T08:53:08.000Z</time>
      </trkpt>
      <trkpt lat="47.33558" lon="-2.39755">
        <ele>140</ele>
        <time>2022-04-14T08:53:11.000Z</time>
      </trkpt>
      <trkpt lat="47.33552" lon="-2.39765">
        <ele>140</ele>
        <time>2022-04-14T08:53:13.000Z</time>
      </trkpt>
      <trkpt lat="47.3353" lon="-2.39794">
        <ele>140</ele>
        <time>2022-04-14T08:53:19.000Z</time>
      </trkpt>
      <trkpt lat="47.33508" lon="-2.39828">
        <ele>140</ele>
        <time>2022-04-14T08:53:26.000Z</time>
      </trkpt>
      <trkpt lat="47.33488" lon="-2.39857">
        <ele>140</ele>
        <time>2022-04-14T08:53:32.000Z</time>
      </trkpt>
      <trkpt lat="47.33485" lon="-2.39862">
        <ele>140.39999389648</ele>
        <time>2022-04-14T08:53:33.000Z</time>
      </trkpt>
      <trkpt lat="47.33481" lon="-2.39866">
        <ele>140.80000305176</ele>
        <time>2022-04-14T08:53:34.000Z</time>
      </trkpt>
      <trkpt lat="47.33478" lon="-2.3987">
        <ele>141.19999694824</ele>
        <time>2022-04-14T08:53:35.000Z</time>
      </trkpt>
      <trkpt lat="47.33475" lon="-2.39875">
        <ele>141.60000610352</ele>
        <time>2022-04-14T08:53:36.000Z</time>
      </trkpt>
      <trkpt lat="47.33471" lon="-2.39878">
        <ele>142</ele>
        <time>2022-04-14T08:53:37.000Z</time>
      </trkpt>
      <trkpt lat="47.33468" lon="-2.39882">
        <ele>142</ele>
        <time>2022-04-14T08:53:38.000Z</time>
      </trkpt>
      <trkpt lat="47.33445" lon="-2.39912">
        <ele>142</ele>
        <time>2022-04-14T08:53:45.000Z</time>
      </trkpt>
      <trkpt lat="47.33434" lon="-2.39928">
        <ele>142.39999389648</ele>
        <time>2022-04-14T08:53:49.000Z</time>
      </trkpt>
      <trkpt lat="47.33431" lon="-2.39932">
        <ele>142.80000305176</ele>
        <time>2022-04-14T08:53:50.000Z</time>
      </trkpt>
      <trkpt lat="47.33429" lon="-2.39937">
        <ele>143.19999694824</ele>
        <time>2022-04-14T08:53:51.000Z</time>
      </trkpt>
      <trkpt lat="47.33426" lon="-2.39942">
        <ele>143.60000610352</ele>
        <time>2022-04-14T08:53:52.000Z</time>
      </trkpt>
      <trkpt lat="47.33423" lon="-2.39946">
        <ele>144.19999694824</ele>
        <time>2022-04-14T08:53:53.000Z</time>
      </trkpt>
      <trkpt lat="47.3341" lon="-2.39969">
        <ele>144.19999694824</ele>
        <time>2022-04-14T08:53:58.000Z</time>
      </trkpt>
      <trkpt lat="47.33396" lon="-2.39991">
        <ele>144.19999694824</ele>
        <time>2022-04-14T08:54:04.000Z</time>
      </trkpt>
      <trkpt lat="47.3338" lon="-2.40015">
        <ele>144.19999694824</ele>
        <time>2022-04-14T08:54:10.000Z</time>
      </trkpt>
      <trkpt lat="47.33375" lon="-2.40023">
        <ele>144.60000610352</ele>
        <time>2022-04-14T08:54:12.000Z</time>
      </trkpt>
      <trkpt lat="47.33373" lon="-2.40026">
        <ele>145</ele>
        <time>2022-04-14T08:54:13.000Z</time>
      </trkpt>
      <trkpt lat="47.3337" lon="-2.4003">
        <ele>145.39999389648</ele>
        <time>2022-04-14T08:54:14.000Z</time>
      </trkpt>
      <trkpt lat="47.33368" lon="-2.40036">
        <ele>145.80000305176</ele>
        <time>2022-04-14T08:54:15.000Z</time>
      </trkpt>
      <trkpt lat="47.33366" lon="-2.40041">
        <ele>146.19999694824</ele>
        <time>2022-04-14T08:54:16.000Z</time>
      </trkpt>
      <trkpt lat="47.33359" lon="-2.40075">
        <ele>146.19999694824</ele>
        <time>2022-04-14T08:54:22.000Z</time>
      </trkpt>
      <trkpt lat="47.33357" lon="-2.4009">
        <ele>146.19999694824</ele>
        <time>2022-04-14T08:54:26.000Z</time>
      </trkpt>
      <trkpt lat="47.33356" lon="-2.40092">
        <ele>146.19999694824</ele>
        <time>2022-04-14T08:54:28.000Z</time>
      </trkpt>
      <trkpt lat="47.33353" lon="-2.40102">
        <ele>148.19999694824</ele>
        <time>2022-04-14T09:02:19.000Z</time>
      </trkpt>
      <trkpt lat="47.33354" lon="-2.40104">
        <ele>148.19999694824</ele>
        <time>2022-04-14T09:02:20.000Z</time>
      </trkpt>
      <trkpt lat="47.33355" lon="-2.40125">
        <ele>148.19999694824</ele>
        <time>2022-04-14T09:02:26.000Z</time>
      </trkpt>
      <trkpt lat="47.33353" lon="-2.4016">
        <ele>148.19999694824</ele>
        <time>2022-04-14T09:02:32.000Z</time>
      </trkpt>
      <trkpt lat="47.33345" lon="-2.402">
        <ele>148.19999694824</ele>
        <time>2022-04-14T09:02:39.000Z</time>
      </trkpt>
      <trkpt lat="47.3334" lon="-2.40247">
        <ele>148.19999694824</ele>
        <time>2022-04-14T09:02:45.000Z</time>
      </trkpt>
      <trkpt lat="47.33332" lon="-2.40312">
        <ele>148.19999694824</ele>
        <time>2022-04-14T09:02:53.000Z</time>
      </trkpt>
      <trkpt lat="47.33329" lon="-2.40327">
        <ele>148.19999694824</ele>
        <time>2022-04-14T09:02:55.000Z</time>
      </trkpt>
      <trkpt lat="47.33321" lon="-2.40352">
        <ele>148.19999694824</ele>
        <time>2022-04-14T09:02:58.000Z</time>
      </trkpt>
      <trkpt lat="47.33315" lon="-2.4038">
        <ele>147.80000305176</ele>
        <time>2022-04-14T09:03:01.000Z</time>
      </trkpt>
      <trkpt lat="47.33316" lon="-2.40391">
        <ele>147.39999389648</ele>
        <time>2022-04-14T09:03:02.000Z</time>
      </trkpt>
      <trkpt lat="47.33317" lon="-2.40402">
        <ele>147</ele>
        <time>2022-04-14T09:03:03.000Z</time>
      </trkpt>
      <trkpt lat="47.33318" lon="-2.40412">
        <ele>146.60000610352</ele>
        <time>2022-04-14T09:03:04.000Z</time>
      </trkpt>
      <trkpt lat="47.33317" lon="-2.40423">
        <ele>146.19999694824</ele>
        <time>2022-04-14T09:03:05.000Z</time>
      </trkpt>
      <trkpt lat="47.33314" lon="-2.40444">
        <ele>146.19999694824</ele>
        <time>2022-04-14T09:03:07.000Z</time>
      </trkpt>
      <trkpt lat="47.33313" lon="-2.40455">
        <ele>145.80000305176</ele>
        <time>2022-04-14T09:03:08.000Z</time>
      </trkpt>
      <trkpt lat="47.33311" lon="-2.40467">
        <ele>145.39999389648</ele>
        <time>2022-04-14T09:03:09.000Z</time>
      </trkpt>
      <trkpt lat="47.3331" lon="-2.40479">
        <ele>145</ele>
        <time>2022-04-14T09:03:10.000Z</time>
      </trkpt>
      <trkpt lat="47.33309" lon="-2.40489">
        <ele>144.60000610352</ele>
        <time>2022-04-14T09:03:11.000Z</time>
      </trkpt>
      <trkpt lat="47.33307" lon="-2.40498">
        <ele>144.19999694824</ele>
        <time>2022-04-14T09:03:12.000Z</time>
      </trkpt>
      <trkpt lat="47.33303" lon="-2.40506">
        <ele>144.19999694824</ele>
        <time>2022-04-14T09:03:13.000Z</time>
      </trkpt>
      <trkpt lat="47.33282" lon="-2.40551">
        <ele>144.19999694824</ele>
        <time>2022-04-14T09:03:18.000Z</time>
      </trkpt>
      <trkpt lat="47.33265" lon="-2.40606">
        <ele>144.19999694824</ele>
        <time>2022-04-14T09:03:24.000Z</time>
      </trkpt>
      <trkpt lat="47.3325" lon="-2.40657">
        <ele>144.19999694824</ele>
        <time>2022-04-14T09:03:30.000Z</time>
      </trkpt>
      <trkpt lat="47.33239" lon="-2.40706">
        <ele>144.19999694824</ele>
        <time>2022-04-14T09:03:36.000Z</time>
      </trkpt>
      <trkpt lat="47.33238" lon="-2.40714">
        <ele>144.19999694824</ele>
        <time>2022-04-14T09:03:37.000Z</time>
      </trkpt>
      <trkpt lat="47.33233" lon="-2.40757">
        <ele>144.60000610352</ele>
        <time>2022-04-14T09:03:42.000Z</time>
      </trkpt>
      <trkpt lat="47.33232" lon="-2.40765">
        <ele>145</ele>
        <time>2022-04-14T09:03:43.000Z</time>
      </trkpt>
      <trkpt lat="47.3323" lon="-2.40772">
        <ele>145.60000610352</ele>
        <time>2022-04-14T09:03:44.000Z</time>
      </trkpt>
      <trkpt lat="47.33228" lon="-2.4078">
        <ele>146</ele>
        <time>2022-04-14T09:03:45.000Z</time>
      </trkpt>
      <trkpt lat="47.33226" lon="-2.40787">
        <ele>146.39999389648</ele>
        <time>2022-04-14T09:03:46.000Z</time>
      </trkpt>
      <trkpt lat="47.33214" lon="-2.40811">
        <ele>146.39999389648</ele>
        <time>2022-04-14T09:03:50.000Z</time>
      </trkpt>
      <trkpt lat="47.33203" lon="-2.40827">
        <ele>146.80000305176</ele>
        <time>2022-04-14T09:03:53.000Z</time>
      </trkpt>
      <trkpt lat="47.332" lon="-2.40833">
        <ele>147.19999694824</ele>
        <time>2022-04-14T09:03:54.000Z</time>
      </trkpt>
      <trkpt lat="47.33196" lon="-2.40839">
        <ele>147.60000610352</ele>
        <time>2022-04-14T09:03:55.000Z</time>
      </trkpt>
      <trkpt lat="47.33192" lon="-2.40844">
        <ele>148</ele>
        <time>2022-04-14T09:03:56.000Z</time>
      </trkpt>
      <trkpt lat="47.33188" lon="-2.40849">
        <ele>148.60000610352</ele>
        <time>2022-04-14T09:03:57.000Z</time>
      </trkpt>
      <trkpt lat="47.33165" lon="-2.40887">
        <ele>148.60000610352</ele>
        <time>2022-04-14T09:04:04.000Z</time>
      </trkpt>
      <trkpt lat="47.33159" lon="-2.40898">
        <ele>149</ele>
        <time>2022-04-14T09:04:06.000Z</time>
      </trkpt>
      <trkpt lat="47.33155" lon="-2.40904">
        <ele>149.39999389648</ele>
        <time>2022-04-14T09:04:07.000Z</time>
      </trkpt>
      <trkpt lat="47.33152" lon="-2.4091">
        <ele>149.80000305176</ele>
        <time>2022-04-14T09:04:08.000Z</time>
      </trkpt>
      <trkpt lat="47.33148" lon="-2.40916">
        <ele>150.19999694824</ele>
        <time>2022-04-14T09:04:09.000Z</time>
      </trkpt>
      <trkpt lat="47.33145" lon="-2.40923">
        <ele>150.60000610352</ele>
        <time>2022-04-14T09:04:10.000Z</time>
      </trkpt>
      <trkpt lat="47.33142" lon="-2.40929">
        <ele>150.60000610352</ele>
        <time>2022-04-14T09:04:11.000Z</time>
      </trkpt>
      <trkpt lat="47.33131" lon="-2.40947">
        <ele>150.60000610352</ele>
        <time>2022-04-14T09:04:14.000Z</time>
      </trkpt>
      <trkpt lat="47.33122" lon="-2.40967">
        <ele>150.60000610352</ele>
        <time>2022-04-14T09:04:17.000Z</time>
      </trkpt>
      <trkpt lat="47.33103" lon="-2.41021">
        <ele>150.60000610352</ele>
        <time>2022-04-14T09:04:25.000Z</time>
      </trkpt>
      <trkpt lat="47.33086" lon="-2.41073">
        <ele>150.60000610352</ele>
        <time>2022-04-14T09:04:32.000Z</time>
      </trkpt>
      <trkpt lat="47.33064" lon="-2.41129">
        <ele>150.60000610352</ele>
        <time>2022-04-14T09:04:40.000Z</time>
      </trkpt>
      <trkpt lat="47.33061" lon="-2.41136">
        <ele>151</ele>
        <time>2022-04-14T09:04:41.000Z</time>
      </trkpt>
      <trkpt lat="47.33057" lon="-2.41142">
        <ele>151.39999389648</ele>
        <time>2022-04-14T09:04:42.000Z</time>
      </trkpt>
      <trkpt lat="47.33054" lon="-2.41149">
        <ele>151.80000305176</ele>
        <time>2022-04-14T09:04:43.000Z</time>
      </trkpt>
      <trkpt lat="47.33051" lon="-2.41155">
        <ele>152.19999694824</ele>
        <time>2022-04-14T09:04:44.000Z</time>
      </trkpt>
      <trkpt lat="47.33048" lon="-2.4116">
        <ele>152.60000610352</ele>
        <time>2022-04-14T09:04:45.000Z</time>
      </trkpt>
      <trkpt lat="47.33044" lon="-2.41166">
        <ele>152.60000610352</ele>
        <time>2022-04-14T09:04:46.000Z</time>
      </trkpt>
      <trkpt lat="47.33041" lon="-2.41173">
        <ele>152.60000610352</ele>
        <time>2022-04-14T09:04:47.000Z</time>
      </trkpt>
      <trkpt lat="47.33031" lon="-2.41196">
        <ele>152.60000610352</ele>
        <time>2022-04-14T09:04:51.000Z</time>
      </trkpt>
      <trkpt lat="47.33011" lon="-2.41228">
        <ele>152.60000610352</ele>
        <time>2022-04-14T09:04:58.000Z</time>
      </trkpt>
      <trkpt lat="47.33001" lon="-2.41244">
        <ele>152.60000610352</ele>
        <time>2022-04-14T09:05:03.000Z</time>
      </trkpt>
      <trkpt lat="47.32985" lon="-2.41251">
        <ele>152.60000610352</ele>
        <time>2022-04-14T09:05:07.000Z</time>
      </trkpt>
      <trkpt lat="47.32959" lon="-2.41262">
        <ele>152.60000610352</ele>
        <time>2022-04-14T09:05:13.000Z</time>
      </trkpt>
      <trkpt lat="47.32935" lon="-2.41267">
        <ele>152.60000610352</ele>
        <time>2022-04-14T09:05:18.000Z</time>
      </trkpt>
      <trkpt lat="47.32931" lon="-2.41269">
        <ele>152.60000610352</ele>
        <time>2022-04-14T09:05:19.000Z</time>
      </trkpt>
      <trkpt lat="47.32922" lon="-2.41273">
        <ele>152.60000610352</ele>
        <time>2022-04-14T09:05:21.000Z</time>
      </trkpt>
      <trkpt lat="47.32913" lon="-2.41277">
        <ele>152.60000610352</ele>
        <time>2022-04-14T09:05:23.000Z</time>
      </trkpt>
      <trkpt lat="47.32909" lon="-2.41278">
        <ele>153</ele>
        <time>2022-04-14T09:05:24.000Z</time>
      </trkpt>
      <trkpt lat="47.32905" lon="-2.41278">
        <ele>153.39999389648</ele>
        <time>2022-04-14T09:05:25.000Z</time>
      </trkpt>
      <trkpt lat="47.329" lon="-2.41278">
        <ele>153.80000305176</ele>
        <time>2022-04-14T09:05:26.000Z</time>
      </trkpt>
      <trkpt lat="47.32895" lon="-2.41278">
        <ele>154.19999694824</ele>
        <time>2022-04-14T09:05:27.000Z</time>
      </trkpt>
      <trkpt lat="47.3289" lon="-2.41279">
        <ele>154.60000610352</ele>
        <time>2022-04-14T09:05:28.000Z</time>
      </trkpt>
      <trkpt lat="47.32845" lon="-2.41283">
        <ele>154.60000610352</ele>
        <time>2022-04-14T09:05:38.000Z</time>
      </trkpt>
      <trkpt lat="47.32829" lon="-2.41289">
        <ele>154.60000610352</ele>
        <time>2022-04-14T09:05:43.000Z</time>
      </trkpt>
      <trkpt lat="47.32815" lon="-2.41287">
        <ele>154.60000610352</ele>
        <time>2022-04-14T09:05:47.000Z</time>
      </trkpt>
      <trkpt lat="47.32794" lon="-2.41287">
        <ele>154.60000610352</ele>
        <time>2022-04-14T09:05:52.000Z</time>
      </trkpt>
      <trkpt lat="47.3277" lon="-2.41291">
        <ele>154.60000610352</ele>
        <time>2022-04-14T09:05:58.000Z</time>
      </trkpt>
      <trkpt lat="47.32749" lon="-2.41304">
        <ele>154.60000610352</ele>
        <time>2022-04-14T09:06:04.000Z</time>
      </trkpt>
      <trkpt lat="47.32742" lon="-2.41324">
        <ele>154.60000610352</ele>
        <time>2022-04-14T09:06:08.000Z</time>
      </trkpt>
      <trkpt lat="47.32735" lon="-2.41339">
        <ele>154.60000610352</ele>
        <time>2022-04-14T09:06:13.000Z</time>
      </trkpt>
      <trkpt lat="47.32727" lon="-2.41339">
        <ele>154.60000610352</ele>
        <time>2022-04-14T09:06:18.000Z</time>
      </trkpt>
      <trkpt lat="47.32712" lon="-2.41333">
        <ele>154.60000610352</ele>
        <time>2022-04-14T09:06:22.000Z</time>
      </trkpt>
      <trkpt lat="47.32703" lon="-2.41329">
        <ele>154.60000610352</ele>
        <time>2022-04-14T09:06:24.000Z</time>
      </trkpt>
      <trkpt lat="47.32697" lon="-2.41331">
        <ele>155</ele>
        <time>2022-04-14T09:06:25.000Z</time>
      </trkpt>
      <trkpt lat="47.32693" lon="-2.41333">
        <ele>155.60000610352</ele>
        <time>2022-04-14T09:06:26.000Z</time>
      </trkpt>
      <trkpt lat="47.32688" lon="-2.41334">
        <ele>156</ele>
        <time>2022-04-14T09:06:27.000Z</time>
      </trkpt>
      <trkpt lat="47.32684" lon="-2.41336">
        <ele>156.39999389648</ele>
        <time>2022-04-14T09:06:28.000Z</time>
      </trkpt>
      <trkpt lat="47.3268" lon="-2.41337">
        <ele>156.80000305176</ele>
        <time>2022-04-14T09:06:29.000Z</time>
      </trkpt>
      <trkpt lat="47.32676" lon="-2.4134">
        <ele>156.80000305176</ele>
        <time>2022-04-14T09:06:30.000Z</time>
      </trkpt>
      <trkpt lat="47.32668" lon="-2.41346">
        <ele>156.80000305176</ele>
        <time>2022-04-14T09:06:32.000Z</time>
      </trkpt>
      <trkpt lat="47.32634" lon="-2.41365">
        <ele>156.80000305176</ele>
        <time>2022-04-14T09:06:40.000Z</time>
      </trkpt>
      <trkpt lat="47.32605" lon="-2.41381">
        <ele>156.80000305176</ele>
        <time>2022-04-14T09:06:47.000Z</time>
      </trkpt>
      <trkpt lat="47.32594" lon="-2.41388">
        <ele>157.19999694824</ele>
        <time>2022-04-14T09:06:50.000Z</time>
      </trkpt>
      <trkpt lat="47.3259" lon="-2.4139">
        <ele>157.80000305176</ele>
        <time>2022-04-14T09:06:51.000Z</time>
      </trkpt>
      <trkpt lat="47.32587" lon="-2.41392">
        <ele>158.19999694824</ele>
        <time>2022-04-14T09:06:52.000Z</time>
      </trkpt>
      <trkpt lat="47.32584" lon="-2.41395">
        <ele>158.60000610352</ele>
        <time>2022-04-14T09:06:53.000Z</time>
      </trkpt>
      <trkpt lat="47.32582" lon="-2.41401">
        <ele>159</ele>
        <time>2022-04-14T09:06:54.000Z</time>
      </trkpt>
      <trkpt lat="47.32579" lon="-2.41434">
        <ele>159</ele>
        <time>2022-04-14T09:07:00.000Z</time>
      </trkpt>
      <trkpt lat="47.32578" lon="-2.4146">
        <ele>159</ele>
        <time>2022-04-14T09:07:06.000Z</time>
      </trkpt>
      <trkpt lat="47.32574" lon="-2.41467">
        <ele>159</ele>
        <time>2022-04-14T09:07:08.000Z</time>
      </trkpt>
      <trkpt lat="47.32566" lon="-2.41469">
        <ele>159</ele>
        <time>2022-04-14T09:07:10.000Z</time>
      </trkpt>
      <trkpt lat="47.32556" lon="-2.41463">
        <ele>159</ele>
        <time>2022-04-14T09:07:13.000Z</time>
      </trkpt>
      <trkpt lat="47.32553" lon="-2.41459">
        <ele>159</ele>
        <time>2022-04-14T09:07:14.000Z</time>
      </trkpt>
      <trkpt lat="47.3255" lon="-2.41454">
        <ele>159</ele>
        <time>2022-04-14T09:07:15.000Z</time>
      </trkpt>
      <trkpt lat="47.32543" lon="-2.41441">
        <ele>159</ele>
        <time>2022-04-14T09:07:18.000Z</time>
      </trkpt>
      <trkpt lat="47.32541" lon="-2.41436">
        <ele>159</ele>
        <time>2022-04-14T09:07:19.000Z</time>
      </trkpt>
      <trkpt lat="47.32538" lon="-2.41432">
        <ele>159</ele>
        <time>2022-04-14T09:07:20.000Z</time>
      </trkpt>
      <trkpt lat="47.32534" lon="-2.41427">
        <ele>159.39999389648</ele>
        <time>2022-04-14T09:07:21.000Z</time>
      </trkpt>
      <trkpt lat="47.32532" lon="-2.41423">
        <ele>159.80000305176</ele>
        <time>2022-04-14T09:07:22.000Z</time>
      </trkpt>
      <trkpt lat="47.32529" lon="-2.41418">
        <ele>160.19999694824</ele>
        <time>2022-04-14T09:07:23.000Z</time>
      </trkpt>
      <trkpt lat="47.32526" lon="-2.41413">
        <ele>160.60000610352</ele>
        <time>2022-04-14T09:07:24.000Z</time>
      </trkpt>
      <trkpt lat="47.32523" lon="-2.41408">
        <ele>161</ele>
        <time>2022-04-14T09:07:25.000Z</time>
      </trkpt>
      <trkpt lat="47.32515" lon="-2.41394">
        <ele>161</ele>
        <time>2022-04-14T09:07:28.000Z</time>
      </trkpt>
      <trkpt lat="47.32504" lon="-2.41375">
        <ele>161</ele>
        <time>2022-04-14T09:07:32.000Z</time>
      </trkpt>
      <trkpt lat="47.32479" lon="-2.41326">
        <ele>161</ele>
        <time>2022-04-14T09:07:42.000Z</time>
      </trkpt>
      <trkpt lat="47.32465" lon="-2.41304">
        <ele>161</ele>
        <time>2022-04-14T09:07:47.000Z</time>
      </trkpt>
      <trkpt lat="47.32462" lon="-2.413">
        <ele>161</ele>
        <time>2022-04-14T09:07:48.000Z</time>
      </trkpt>
      <trkpt lat="47.32445" lon="-2.41283">
        <ele>161</ele>
        <time>2022-04-14T09:07:54.000Z</time>
      </trkpt>
      <trkpt lat="47.32443" lon="-2.41284">
        <ele>161</ele>
        <time>2022-04-14T09:07:55.000Z</time>
      </trkpt>
      <trkpt lat="47.3243" lon="-2.41295">
        <ele>161</ele>
        <time>2022-04-14T09:08:00.000Z</time>
      </trkpt>
      <trkpt lat="47.32411" lon="-2.41295">
        <ele>161</ele>
        <time>2022-04-14T09:08:06.000Z</time>
      </trkpt>
      <trkpt lat="47.32405" lon="-2.41288">
        <ele>161</ele>
        <time>2022-04-14T09:08:10.000Z</time>
      </trkpt>
      <trkpt lat="47.32403" lon="-2.4129">
        <ele>161</ele>
        <time>2022-04-14T09:18:05.000Z</time>
      </trkpt>
      <trkpt lat="47.324" lon="-2.41293">
        <ele>161</ele>
        <time>2022-04-14T09:18:07.000Z</time>
      </trkpt>
      <trkpt lat="47.324" lon="-2.41293">
        <ele>161</ele>
        <time>2022-04-14T09:18:08.000Z</time>
      </trkpt>
      <trkpt lat="47.32401" lon="-2.41288">
        <ele>161</ele>
        <time>2022-04-14T09:21:47.000Z</time>
      </trkpt>
      <trkpt lat="47.32402" lon="-2.41286">
        <ele>161</ele>
        <time>2022-04-14T09:21:48.000Z</time>
      </trkpt>
      <trkpt lat="47.324" lon="-2.41271">
        <ele>161</ele>
        <time>2022-04-14T09:21:53.000Z</time>
      </trkpt>
      <trkpt lat="47.32399" lon="-2.41268">
        <ele>161</ele>
        <time>2022-04-14T09:21:55.000Z</time>
      </trkpt>
      <trkpt lat="47.32397" lon="-2.41262">
        <ele>161</ele>
        <time>2022-04-14T09:21:58.000Z</time>
      </trkpt>
      <trkpt lat="47.3239" lon="-2.41242">
        <ele>161</ele>
        <time>2022-04-14T09:22:03.000Z</time>
      </trkpt>
      <trkpt lat="47.32382" lon="-2.41219">
        <ele>161</ele>
        <time>2022-04-14T09:22:07.000Z</time>
      </trkpt>
      <trkpt lat="47.3238" lon="-2.41203">
        <ele>161</ele>
        <time>2022-04-14T09:22:10.000Z</time>
      </trkpt>
      <trkpt lat="47.32387" lon="-2.41192">
        <ele>161</ele>
        <time>2022-04-14T09:22:13.000Z</time>
      </trkpt>
      <trkpt lat="47.32399" lon="-2.41185">
        <ele>161</ele>
        <time>2022-04-14T09:22:18.000Z</time>
      </trkpt>
      <trkpt lat="47.32408" lon="-2.41184">
        <ele>161</ele>
        <time>2022-04-14T09:22:23.000Z</time>
      </trkpt>
      <trkpt lat="47.32417" lon="-2.41182">
        <ele>161</ele>
        <time>2022-04-14T09:22:28.000Z</time>
      </trkpt>
      <trkpt lat="47.32417" lon="-2.4118">
        <ele>161.39999389648</ele>
        <time>2022-04-14T09:22:29.000Z</time>
      </trkpt>
      <trkpt lat="47.32416" lon="-2.41179">
        <ele>161.80000305176</ele>
        <time>2022-04-14T09:22:30.000Z</time>
      </trkpt>
      <trkpt lat="47.32416" lon="-2.41178">
        <ele>162.19999694824</ele>
        <time>2022-04-14T09:22:31.000Z</time>
      </trkpt>
      <trkpt lat="47.32415" lon="-2.41177">
        <ele>162.60000610352</ele>
        <time>2022-04-14T09:22:32.000Z</time>
      </trkpt>
      <trkpt lat="47.32413" lon="-2.41174">
        <ele>163</ele>
        <time>2022-04-14T09:22:33.000Z</time>
      </trkpt>
      <trkpt lat="47.32409" lon="-2.41165">
        <ele>163</ele>
        <time>2022-04-14T09:22:35.000Z</time>
      </trkpt>
      <trkpt lat="47.324" lon="-2.41148">
        <ele>163</ele>
        <time>2022-04-14T09:22:38.000Z</time>
      </trkpt>
      <trkpt lat="47.32393" lon="-2.41135">
        <ele>163</ele>
        <time>2022-04-14T09:22:40.000Z</time>
      </trkpt>
      <trkpt lat="47.32387" lon="-2.41121">
        <ele>163.39999389648</ele>
        <time>2022-04-14T09:22:42.000Z</time>
      </trkpt>
      <trkpt lat="47.32384" lon="-2.41115">
        <ele>163.80000305176</ele>
        <time>2022-04-14T09:22:43.000Z</time>
      </trkpt>
      <trkpt lat="47.32381" lon="-2.41109">
        <ele>164.19999694824</ele>
        <time>2022-04-14T09:22:44.000Z</time>
      </trkpt>
      <trkpt lat="47.32377" lon="-2.41103">
        <ele>164.60000610352</ele>
        <time>2022-04-14T09:22:45.000Z</time>
      </trkpt>
      <trkpt lat="47.32374" lon="-2.41097">
        <ele>165</ele>
        <time>2022-04-14T09:22:46.000Z</time>
      </trkpt>
      <trkpt lat="47.32369" lon="-2.41084">
        <ele>165</ele>
        <time>2022-04-14T09:22:48.000Z</time>
      </trkpt>
      <trkpt lat="47.32364" lon="-2.41072">
        <ele>165</ele>
        <time>2022-04-14T09:22:50.000Z</time>
      </trkpt>
      <trkpt lat="47.32356" lon="-2.41061">
        <ele>165</ele>
        <time>2022-04-14T09:22:52.000Z</time>
      </trkpt>
      <trkpt lat="47.32349" lon="-2.41048">
        <ele>165</ele>
        <time>2022-04-14T09:22:54.000Z</time>
      </trkpt>
      <trkpt lat="47.32335" lon="-2.41022">
        <ele>165</ele>
        <time>2022-04-14T09:22:58.000Z</time>
      </trkpt>
      <trkpt lat="47.32301" lon="-2.40958">
        <ele>165</ele>
        <time>2022-04-14T09:23:08.000Z</time>
      </trkpt>
      <trkpt lat="47.32266" lon="-2.40894">
        <ele>164.60000610352</ele>
        <time>2022-04-14T09:23:17.000Z</time>
      </trkpt>
      <trkpt lat="47.32262" lon="-2.40887">
        <ele>164.19999694824</ele>
        <time>2022-04-14T09:23:18.000Z</time>
      </trkpt>
      <trkpt lat="47.32258" lon="-2.4088">
        <ele>163.80000305176</ele>
        <time>2022-04-14T09:23:19.000Z</time>
      </trkpt>
      <trkpt lat="47.32255" lon="-2.40874">
        <ele>163.39999389648</ele>
        <time>2022-04-14T09:23:20.000Z</time>
      </trkpt>
      <trkpt lat="47.32251" lon="-2.40867">
        <ele>163</ele>
        <time>2022-04-14T09:23:21.000Z</time>
      </trkpt>
      <trkpt lat="47.32227" lon="-2.40829">
        <ele>163</ele>
        <time>2022-04-14T09:23:27.000Z</time>
      </trkpt>
      <trkpt lat="47.32216" lon="-2.40815">
        <ele>163</ele>
        <time>2022-04-14T09:23:30.000Z</time>
      </trkpt>
      <trkpt lat="47.32213" lon="-2.40811">
        <ele>163</ele>
        <time>2022-04-14T09:23:31.000Z</time>
      </trkpt>
      <trkpt lat="47.32207" lon="-2.40802">
        <ele>163</ele>
        <time>2022-04-14T09:23:33.000Z</time>
      </trkpt>
      <trkpt lat="47.32199" lon="-2.40789">
        <ele>163</ele>
        <time>2022-04-14T09:23:36.000Z</time>
      </trkpt>
      <trkpt lat="47.32186" lon="-2.40773">
        <ele>163</ele>
        <time>2022-04-14T09:23:40.000Z</time>
      </trkpt>
      <trkpt lat="47.32178" lon="-2.40763">
        <ele>163</ele>
        <time>2022-04-14T09:23:42.000Z</time>
      </trkpt>
      <trkpt lat="47.3217" lon="-2.40752">
        <ele>163</ele>
        <time>2022-04-14T09:23:44.000Z</time>
      </trkpt>
      <trkpt lat="47.32143" lon="-2.40716">
        <ele>163</ele>
        <time>2022-04-14T09:23:50.000Z</time>
      </trkpt>
      <trkpt lat="47.32118" lon="-2.40686">
        <ele>163</ele>
        <time>2022-04-14T09:23:55.000Z</time>
      </trkpt>
      <trkpt lat="47.3208" lon="-2.40646">
        <ele>163</ele>
        <time>2022-04-14T09:24:02.000Z</time>
      </trkpt>
      <trkpt lat="47.32069" lon="-2.40635">
        <ele>162.60000610352</ele>
        <time>2022-04-14T09:24:04.000Z</time>
      </trkpt>
      <trkpt lat="47.32063" lon="-2.4063">
        <ele>162.19999694824</ele>
        <time>2022-04-14T09:24:05.000Z</time>
      </trkpt>
      <trkpt lat="47.32058" lon="-2.40625">
        <ele>161.80000305176</ele>
        <time>2022-04-14T09:24:06.000Z</time>
      </trkpt>
      <trkpt lat="47.32053" lon="-2.4062">
        <ele>161.39999389648</ele>
        <time>2022-04-14T09:24:07.000Z</time>
      </trkpt>
      <trkpt lat="47.32047" lon="-2.40615">
        <ele>161</ele>
        <time>2022-04-14T09:24:08.000Z</time>
      </trkpt>
      <trkpt lat="47.32013" lon="-2.40581">
        <ele>161</ele>
        <time>2022-04-14T09:24:14.000Z</time>
      </trkpt>
      <trkpt lat="47.31968" lon="-2.40548">
        <ele>161</ele>
        <time>2022-04-14T09:24:21.000Z</time>
      </trkpt>
      <trkpt lat="47.31937" lon="-2.40527">
        <ele>160.60000610352</ele>
        <time>2022-04-14T09:24:26.000Z</time>
      </trkpt>
      <trkpt lat="47.31931" lon="-2.40522">
        <ele>160.19999694824</ele>
        <time>2022-04-14T09:24:27.000Z</time>
      </trkpt>
      <trkpt lat="47.31926" lon="-2.40517">
        <ele>159.60000610352</ele>
        <time>2022-04-14T09:24:28.000Z</time>
      </trkpt>
      <trkpt lat="47.3192" lon="-2.40512">
        <ele>159.19999694824</ele>
        <time>2022-04-14T09:24:29.000Z</time>
      </trkpt>
      <trkpt lat="47.31914" lon="-2.40507">
        <ele>158.80000305176</ele>
        <time>2022-04-14T09:24:30.000Z</time>
      </trkpt>
      <trkpt lat="47.31902" lon="-2.40498">
        <ele>158.80000305176</ele>
        <time>2022-04-14T09:24:32.000Z</time>
      </trkpt>
      <trkpt lat="47.31857" lon="-2.40464">
        <ele>158.80000305176</ele>
        <time>2022-04-14T09:24:39.000Z</time>
      </trkpt>
      <trkpt lat="47.31844" lon="-2.40454">
        <ele>158.39999389648</ele>
        <time>2022-04-14T09:24:41.000Z</time>
      </trkpt>
      <trkpt lat="47.31838" lon="-2.40449">
        <ele>158</ele>
        <time>2022-04-14T09:24:42.000Z</time>
      </trkpt>
      <trkpt lat="47.31831" lon="-2.40445">
        <ele>157.60000610352</ele>
        <time>2022-04-14T09:24:43.000Z</time>
      </trkpt>
      <trkpt lat="47.31825" lon="-2.40441">
        <ele>157.19999694824</ele>
        <time>2022-04-14T09:24:44.000Z</time>
      </trkpt>
      <trkpt lat="47.31819" lon="-2.40436">
        <ele>156.80000305176</ele>
        <time>2022-04-14T09:24:45.000Z</time>
      </trkpt>
      <trkpt lat="47.31786" lon="-2.4041">
        <ele>156.80000305176</ele>
        <time>2022-04-14T09:24:50.000Z</time>
      </trkpt>
      <trkpt lat="47.31749" lon="-2.4038">
        <ele>156.39999389648</ele>
        <time>2022-04-14T09:24:56.000Z</time>
      </trkpt>
      <trkpt lat="47.31743" lon="-2.40376">
        <ele>156</ele>
        <time>2022-04-14T09:24:57.000Z</time>
      </trkpt>
      <trkpt lat="47.31737" lon="-2.40371">
        <ele>155.60000610352</ele>
        <time>2022-04-14T09:24:58.000Z</time>
      </trkpt>
      <trkpt lat="47.31731" lon="-2.40366">
        <ele>155.19999694824</ele>
        <time>2022-04-14T09:24:59.000Z</time>
      </trkpt>
      <trkpt lat="47.31725" lon="-2.40362">
        <ele>154.80000305176</ele>
        <time>2022-04-14T09:25:00.000Z</time>
      </trkpt>
      <trkpt lat="47.31705" lon="-2.40348">
        <ele>154.80000305176</ele>
        <time>2022-04-14T09:25:03.000Z</time>
      </trkpt>
      <trkpt lat="47.31685" lon="-2.40336">
        <ele>154.80000305176</ele>
        <time>2022-04-14T09:25:06.000Z</time>
      </trkpt>
      <trkpt lat="47.31679" lon="-2.40333">
        <ele>154.80000305176</ele>
        <time>2022-04-14T09:25:07.000Z</time>
      </trkpt>
      <trkpt lat="47.3167" lon="-2.40317">
        <ele>154.80000305176</ele>
        <time>2022-04-14T09:25:10.000Z</time>
      </trkpt>
      <trkpt lat="47.31665" lon="-2.40312">
        <ele>154.80000305176</ele>
        <time>2022-04-14T09:25:11.000Z</time>
      </trkpt>
      <trkpt lat="47.31655" lon="-2.40302">
        <ele>154.39999389648</ele>
        <time>2022-04-14T09:25:13.000Z</time>
      </trkpt>
      <trkpt lat="47.31649" lon="-2.40298">
        <ele>153.80000305176</ele>
        <time>2022-04-14T09:25:14.000Z</time>
      </trkpt>
      <trkpt lat="47.31644" lon="-2.40294">
        <ele>153.39999389648</ele>
        <time>2022-04-14T09:25:15.000Z</time>
      </trkpt>
      <trkpt lat="47.31638" lon="-2.4029">
        <ele>153</ele>
        <time>2022-04-14T09:25:16.000Z</time>
      </trkpt>
      <trkpt lat="47.31632" lon="-2.40286">
        <ele>152.39999389648</ele>
        <time>2022-04-14T09:25:17.000Z</time>
      </trkpt>
      <trkpt lat="47.31609" lon="-2.4027">
        <ele>152.39999389648</ele>
        <time>2022-04-14T09:25:21.000Z</time>
      </trkpt>
      <trkpt lat="47.3157" lon="-2.40241">
        <ele>152.39999389648</ele>
        <time>2022-04-14T09:25:28.000Z</time>
      </trkpt>
      <trkpt lat="47.31561" lon="-2.40233">
        <ele>152</ele>
        <time>2022-04-14T09:25:30.000Z</time>
      </trkpt>
      <trkpt lat="47.31556" lon="-2.4023">
        <ele>151.60000610352</ele>
        <time>2022-04-14T09:25:31.000Z</time>
      </trkpt>
      <trkpt lat="47.31551" lon="-2.40228">
        <ele>151.19999694824</ele>
        <time>2022-04-14T09:25:32.000Z</time>
      </trkpt>
      <trkpt lat="47.31546" lon="-2.40226">
        <ele>150.80000305176</ele>
        <time>2022-04-14T09:25:33.000Z</time>
      </trkpt>
      <trkpt lat="47.31541" lon="-2.40224">
        <ele>150.39999389648</ele>
        <time>2022-04-14T09:25:34.000Z</time>
      </trkpt>
      <trkpt lat="47.31532" lon="-2.40219">
        <ele>150.39999389648</ele>
        <time>2022-04-14T09:25:36.000Z</time>
      </trkpt>
      <trkpt lat="47.31518" lon="-2.40206">
        <ele>150.39999389648</ele>
        <time>2022-04-14T09:25:39.000Z</time>
      </trkpt>
      <trkpt lat="47.31491" lon="-2.40185">
        <ele>150</ele>
        <time>2022-04-14T09:25:45.000Z</time>
      </trkpt>
      <trkpt lat="47.31489" lon="-2.40183">
        <ele>149.60000610352</ele>
        <time>2022-04-14T09:25:46.000Z</time>
      </trkpt>
      <trkpt lat="47.31487" lon="-2.40182">
        <ele>149.19999694824</ele>
        <time>2022-04-14T09:25:47.000Z</time>
      </trkpt>
      <trkpt lat="47.31485" lon="-2.40181">
        <ele>148.80000305176</ele>
        <time>2022-04-14T09:25:48.000Z</time>
      </trkpt>
      <trkpt lat="47.31483" lon="-2.40179">
        <ele>148.39999389648</ele>
        <time>2022-04-14T09:25:49.000Z</time>
      </trkpt>
      <trkpt lat="47.3148" lon="-2.40177">
        <ele>148.39999389648</ele>
        <time>2022-04-14T09:25:50.000Z</time>
      </trkpt>
      <trkpt lat="47.31461" lon="-2.40167">
        <ele>148.39999389648</ele>
        <time>2022-04-14T09:25:56.000Z</time>
      </trkpt>
      <trkpt lat="47.31434" lon="-2.40145">
        <ele>148.39999389648</ele>
        <time>2022-04-14T09:26:02.000Z</time>
      </trkpt>
      <trkpt lat="47.31429" lon="-2.40141">
        <ele>148.39999389648</ele>
        <time>2022-04-14T09:26:03.000Z</time>
      </trkpt>
      <trkpt lat="47.31418" lon="-2.40134">
        <ele>148.39999389648</ele>
        <time>2022-04-14T09:26:05.000Z</time>
      </trkpt>
      <trkpt lat="47.31404" lon="-2.40127">
        <ele>148.39999389648</ele>
        <time>2022-04-14T09:26:08.000Z</time>
      </trkpt>
      <trkpt lat="47.31363" lon="-2.40103">
        <ele>148</ele>
        <time>2022-04-14T09:26:16.000Z</time>
      </trkpt>
      <trkpt lat="47.31358" lon="-2.401">
        <ele>147.60000610352</ele>
        <time>2022-04-14T09:26:17.000Z</time>
      </trkpt>
      <trkpt lat="47.31352" lon="-2.40096">
        <ele>147.19999694824</ele>
        <time>2022-04-14T09:26:18.000Z</time>
      </trkpt>
      <trkpt lat="47.31347" lon="-2.40093">
        <ele>146.80000305176</ele>
        <time>2022-04-14T09:26:19.000Z</time>
      </trkpt>
      <trkpt lat="47.31342" lon="-2.4009">
        <ele>146.39999389648</ele>
        <time>2022-04-14T09:26:20.000Z</time>
      </trkpt>
      <trkpt lat="47.31327" lon="-2.40084">
        <ele>146.39999389648</ele>
        <time>2022-04-14T09:26:23.000Z</time>
      </trkpt>
      <trkpt lat="47.31289" lon="-2.4007">
        <ele>146.39999389648</ele>
        <time>2022-04-14T09:26:31.000Z</time>
      </trkpt>
      <trkpt lat="47.31262" lon="-2.40065">
        <ele>146.39999389648</ele>
        <time>2022-04-14T09:26:36.000Z</time>
      </trkpt>
      <trkpt lat="47.31257" lon="-2.40063">
        <ele>146.39999389648</ele>
        <time>2022-04-14T09:26:37.000Z</time>
      </trkpt>
      <trkpt lat="47.31253" lon="-2.40059">
        <ele>146.39999389648</ele>
        <time>2022-04-14T09:26:40.000Z</time>
      </trkpt>
      <trkpt lat="47.31252" lon="-2.40056">
        <ele>146.39999389648</ele>
        <time>2022-04-14T09:26:43.000Z</time>
      </trkpt>
      <trkpt lat="47.31237" lon="-2.40045">
        <ele>146.39999389648</ele>
        <time>2022-04-14T09:27:01.000Z</time>
      </trkpt>
      <trkpt lat="47.31235" lon="-2.40044">
        <ele>146.39999389648</ele>
        <time>2022-04-14T09:27:02.000Z</time>
      </trkpt>
      <trkpt lat="47.31234" lon="-2.40042">
        <ele>146.39999389648</ele>
        <time>2022-04-14T09:27:03.000Z</time>
      </trkpt>
      <trkpt lat="47.31234" lon="-2.4004">
        <ele>146.39999389648</ele>
        <time>2022-04-14T09:27:05.000Z</time>
      </trkpt>
      <trkpt lat="47.31232" lon="-2.40031">
        <ele>144.19999694824</ele>
        <time>2022-04-14T09:41:18.000Z</time>
      </trkpt>
      <trkpt lat="47.31232" lon="-2.40029">
        <ele>144.19999694824</ele>
        <time>2022-04-14T09:41:19.000Z</time>
      </trkpt>
      <trkpt lat="47.31229" lon="-2.40019">
        <ele>144.19999694824</ele>
        <time>2022-04-14T09:41:23.000Z</time>
      </trkpt>
      <trkpt lat="47.31228" lon="-2.40015">
        <ele>144.60000610352</ele>
        <time>2022-04-14T09:41:25.000Z</time>
      </trkpt>
      <trkpt lat="47.31228" lon="-2.40013">
        <ele>145</ele>
        <time>2022-04-14T09:41:26.000Z</time>
      </trkpt>
      <trkpt lat="47.31228" lon="-2.40011">
        <ele>145.39999389648</ele>
        <time>2022-04-14T09:41:27.000Z</time>
      </trkpt>
      <trkpt lat="47.31227" lon="-2.40008">
        <ele>145.80000305176</ele>
        <time>2022-04-14T09:41:28.000Z</time>
      </trkpt>
      <trkpt lat="47.31227" lon="-2.40005">
        <ele>146.19999694824</ele>
        <time>2022-04-14T09:41:29.000Z</time>
      </trkpt>
      <trkpt lat="47.31226" lon="-2.40002">
        <ele>146.19999694824</ele>
        <time>2022-04-14T09:41:30.000Z</time>
      </trkpt>
      <trkpt lat="47.31222" lon="-2.39988">
        <ele>146.19999694824</ele>
        <time>2022-04-14T09:41:35.000Z</time>
      </trkpt>
      <trkpt lat="47.31216" lon="-2.39968">
        <ele>146.19999694824</ele>
        <time>2022-04-14T09:41:41.000Z</time>
      </trkpt>
      <trkpt lat="47.31215" lon="-2.39965">
        <ele>146.60000610352</ele>
        <time>2022-04-14T09:41:42.000Z</time>
      </trkpt>
      <trkpt lat="47.31214" lon="-2.39961">
        <ele>147.60000610352</ele>
        <time>2022-04-14T09:41:43.000Z</time>
      </trkpt>
      <trkpt lat="47.31213" lon="-2.39957">
        <ele>148</ele>
        <time>2022-04-14T09:41:44.000Z</time>
      </trkpt>
      <trkpt lat="47.31211" lon="-2.39953">
        <ele>148.39999389648</ele>
        <time>2022-04-14T09:41:45.000Z</time>
      </trkpt>
      <trkpt lat="47.31207" lon="-2.3994">
        <ele>148.39999389648</ele>
        <time>2022-04-14T09:41:48.000Z</time>
      </trkpt>
      <trkpt lat="47.31196" lon="-2.39908">
        <ele>148.39999389648</ele>
        <time>2022-04-14T09:41:55.000Z</time>
      </trkpt>
      <trkpt lat="47.31194" lon="-2.39903">
        <ele>148.80000305176</ele>
        <time>2022-04-14T09:41:56.000Z</time>
      </trkpt>
      <trkpt lat="47.31192" lon="-2.39898">
        <ele>149.19999694824</ele>
        <time>2022-04-14T09:41:57.000Z</time>
      </trkpt>
      <trkpt lat="47.31191" lon="-2.39892">
        <ele>149.60000610352</ele>
        <time>2022-04-14T09:41:58.000Z</time>
      </trkpt>
      <trkpt lat="47.3119" lon="-2.39889">
        <ele>150.19999694824</ele>
        <time>2022-04-14T09:41:59.000Z</time>
      </trkpt>
      <trkpt lat="47.31189" lon="-2.39886">
        <ele>150.60000610352</ele>
        <time>2022-04-14T09:42:00.000Z</time>
      </trkpt>
      <trkpt lat="47.31187" lon="-2.3988">
        <ele>151</ele>
        <time>2022-04-14T09:42:02.000Z</time>
      </trkpt>
      <trkpt lat="47.31186" lon="-2.39876">
        <ele>151.39999389648</ele>
        <time>2022-04-14T09:42:03.000Z</time>
      </trkpt>
      <trkpt lat="47.31183" lon="-2.39871">
        <ele>151.80000305176</ele>
        <time>2022-04-14T09:42:04.000Z</time>
      </trkpt>
      <trkpt lat="47.3118" lon="-2.39863">
        <ele>152.19999694824</ele>
        <time>2022-04-14T09:42:05.000Z</time>
      </trkpt>
      <trkpt lat="47.31178" lon="-2.39855">
        <ele>152.60000610352</ele>
        <time>2022-04-14T09:42:06.000Z</time>
      </trkpt>
      <trkpt lat="47.31172" lon="-2.39836">
        <ele>152.60000610352</ele>
        <time>2022-04-14T09:42:09.000Z</time>
      </trkpt>
      <trkpt lat="47.31166" lon="-2.39824">
        <ele>152.60000610352</ele>
        <time>2022-04-14T09:42:11.000Z</time>
      </trkpt>
      <trkpt lat="47.31147" lon="-2.39776">
        <ele>152.60000610352</ele>
        <time>2022-04-14T09:42:19.000Z</time>
      </trkpt>
      <trkpt lat="47.31127" lon="-2.39722">
        <ele>152.60000610352</ele>
        <time>2022-04-14T09:42:28.000Z</time>
      </trkpt>
      <trkpt lat="47.31111" lon="-2.39679">
        <ele>153</ele>
        <time>2022-04-14T09:42:35.000Z</time>
      </trkpt>
      <trkpt lat="47.31109" lon="-2.39673">
        <ele>153.39999389648</ele>
        <time>2022-04-14T09:42:36.000Z</time>
      </trkpt>
      <trkpt lat="47.31108" lon="-2.39667">
        <ele>153.80000305176</ele>
        <time>2022-04-14T09:42:37.000Z</time>
      </trkpt>
      <trkpt lat="47.31106" lon="-2.39661">
        <ele>154.19999694824</ele>
        <time>2022-04-14T09:42:38.000Z</time>
      </trkpt>
      <trkpt lat="47.31104" lon="-2.39655">
        <ele>154.60000610352</ele>
        <time>2022-04-14T09:42:39.000Z</time>
      </trkpt>
      <trkpt lat="47.31102" lon="-2.3965">
        <ele>154.60000610352</ele>
        <time>2022-04-14T09:42:40.000Z</time>
      </trkpt>
      <trkpt lat="47.31084" lon="-2.39599">
        <ele>154.60000610352</ele>
        <time>2022-04-14T09:42:48.000Z</time>
      </trkpt>
      <trkpt lat="47.31061" lon="-2.39534">
        <ele>154.60000610352</ele>
        <time>2022-04-14T09:42:57.000Z</time>
      </trkpt>
      <trkpt lat="47.31042" lon="-2.39478">
        <ele>154.60000610352</ele>
        <time>2022-04-14T09:43:03.000Z</time>
      </trkpt>
      <trkpt lat="47.31039" lon="-2.39469">
        <ele>154.19999694824</ele>
        <time>2022-04-14T09:43:04.000Z</time>
      </trkpt>
      <trkpt lat="47.31036" lon="-2.3946">
        <ele>153.80000305176</ele>
        <time>2022-04-14T09:43:05.000Z</time>
      </trkpt>
      <trkpt lat="47.31033" lon="-2.39451">
        <ele>153.39999389648</ele>
        <time>2022-04-14T09:43:06.000Z</time>
      </trkpt>
      <trkpt lat="47.3103" lon="-2.39443">
        <ele>153</ele>
        <time>2022-04-14T09:43:07.000Z</time>
      </trkpt>
      <trkpt lat="47.31028" lon="-2.39435">
        <ele>152.60000610352</ele>
        <time>2022-04-14T09:43:08.000Z</time>
      </trkpt>
      <trkpt lat="47.31023" lon="-2.3942">
        <ele>152.60000610352</ele>
        <time>2022-04-14T09:43:10.000Z</time>
      </trkpt>
      <trkpt lat="47.31003" lon="-2.39359">
        <ele>152.60000610352</ele>
        <time>2022-04-14T09:43:18.000Z</time>
      </trkpt>
      <trkpt lat="47.30985" lon="-2.39307">
        <ele>152.60000610352</ele>
        <time>2022-04-14T09:43:25.000Z</time>
      </trkpt>
      <trkpt lat="47.30982" lon="-2.39299">
        <ele>152.60000610352</ele>
        <time>2022-04-14T09:43:26.000Z</time>
      </trkpt>
      <trkpt lat="47.30974" lon="-2.39276">
        <ele>153</ele>
        <time>2022-04-14T09:43:29.000Z</time>
      </trkpt>
      <trkpt lat="47.30971" lon="-2.39268">
        <ele>153.39999389648</ele>
        <time>2022-04-14T09:43:30.000Z</time>
      </trkpt>
      <trkpt lat="47.30968" lon="-2.39261">
        <ele>153.80000305176</ele>
        <time>2022-04-14T09:43:31.000Z</time>
      </trkpt>
      <trkpt lat="47.30965" lon="-2.39254">
        <ele>154.19999694824</ele>
        <time>2022-04-14T09:43:32.000Z</time>
      </trkpt>
      <trkpt lat="47.30962" lon="-2.39247">
        <ele>154.60000610352</ele>
        <time>2022-04-14T09:43:33.000Z</time>
      </trkpt>
      <trkpt lat="47.30958" lon="-2.3924">
        <ele>154.60000610352</ele>
        <time>2022-04-14T09:43:34.000Z</time>
      </trkpt>
      <trkpt lat="47.30934" lon="-2.39182">
        <ele>154.60000610352</ele>
        <time>2022-04-14T09:43:42.000Z</time>
      </trkpt>
      <trkpt lat="47.30911" lon="-2.39124">
        <ele>154.60000610352</ele>
        <time>2022-04-14T09:43:50.000Z</time>
      </trkpt>
      <trkpt lat="47.30898" lon="-2.39077">
        <ele>154.60000610352</ele>
        <time>2022-04-14T09:43:56.000Z</time>
      </trkpt>
      <trkpt lat="47.30897" lon="-2.39069">
        <ele>154.60000610352</ele>
        <time>2022-04-14T09:43:57.000Z</time>
      </trkpt>
      <trkpt lat="47.30898" lon="-2.39017">
        <ele>154.60000610352</ele>
        <time>2022-04-14T09:44:03.000Z</time>
      </trkpt>
      <trkpt lat="47.30903" lon="-2.38984">
        <ele>154.60000610352</ele>
        <time>2022-04-14T09:44:07.000Z</time>
      </trkpt>
      <trkpt lat="47.30907" lon="-2.38969">
        <ele>154.60000610352</ele>
        <time>2022-04-14T09:44:09.000Z</time>
      </trkpt>
      <trkpt lat="47.30926" lon="-2.38919">
        <ele>154.60000610352</ele>
        <time>2022-04-14T09:44:16.000Z</time>
      </trkpt>
      <trkpt lat="47.3092" lon="-2.38897">
        <ele>154.60000610352</ele>
        <time>2022-04-14T09:44:19.000Z</time>
      </trkpt>
      <trkpt lat="47.30909" lon="-2.38885">
        <ele>154.60000610352</ele>
        <time>2022-04-14T09:44:22.000Z</time>
      </trkpt>
      <trkpt lat="47.30898" lon="-2.38882">
        <ele>154.60000610352</ele>
        <time>2022-04-14T09:44:26.000Z</time>
      </trkpt>
      <trkpt lat="47.30885" lon="-2.3889">
        <ele>154.60000610352</ele>
        <time>2022-04-14T09:44:30.000Z</time>
      </trkpt>
      <trkpt lat="47.30864" lon="-2.38889">
        <ele>154.60000610352</ele>
        <time>2022-04-14T09:44:34.000Z</time>
      </trkpt>
      <trkpt lat="47.30853" lon="-2.38893">
        <ele>154.19999694824</ele>
        <time>2022-04-14T09:44:36.000Z</time>
      </trkpt>
      <trkpt lat="47.30846" lon="-2.38896">
        <ele>153.60000610352</ele>
        <time>2022-04-14T09:44:37.000Z</time>
      </trkpt>
      <trkpt lat="47.3084" lon="-2.38901">
        <ele>153.19999694824</ele>
        <time>2022-04-14T09:44:38.000Z</time>
      </trkpt>
      <trkpt lat="47.30834" lon="-2.38905">
        <ele>152.80000305176</ele>
        <time>2022-04-14T09:44:39.000Z</time>
      </trkpt>
      <trkpt lat="47.30828" lon="-2.3891">
        <ele>152.39999389648</ele>
        <time>2022-04-14T09:44:40.000Z</time>
      </trkpt>
      <trkpt lat="47.30821" lon="-2.38915">
        <ele>152</ele>
        <time>2022-04-14T09:44:41.000Z</time>
      </trkpt>
      <trkpt lat="47.30815" lon="-2.38921">
        <ele>151.39999389648</ele>
        <time>2022-04-14T09:44:42.000Z</time>
      </trkpt>
      <trkpt lat="47.30809" lon="-2.38926">
        <ele>151</ele>
        <time>2022-04-14T09:44:43.000Z</time>
      </trkpt>
      <trkpt lat="47.30802" lon="-2.38931">
        <ele>150.60000610352</ele>
        <time>2022-04-14T09:44:44.000Z</time>
      </trkpt>
      <trkpt lat="47.30796" lon="-2.38936">
        <ele>150.19999694824</ele>
        <time>2022-04-14T09:44:45.000Z</time>
      </trkpt>
      <trkpt lat="47.30775" lon="-2.38952">
        <ele>150.19999694824</ele>
        <time>2022-04-14T09:44:49.000Z</time>
      </trkpt>
      <trkpt lat="47.30762" lon="-2.38964">
        <ele>150.19999694824</ele>
        <time>2022-04-14T09:44:52.000Z</time>
      </trkpt>
      <trkpt lat="47.30754" lon="-2.38974">
        <ele>150.19999694824</ele>
        <time>2022-04-14T09:44:54.000Z</time>
      </trkpt>
      <trkpt lat="47.30735" lon="-2.39">
        <ele>150.19999694824</ele>
        <time>2022-04-14T09:44:59.000Z</time>
      </trkpt>
      <trkpt lat="47.3073" lon="-2.39001">
        <ele>150.60000610352</ele>
        <time>2022-04-14T09:45:00.000Z</time>
      </trkpt>
      <trkpt lat="47.30725" lon="-2.39">
        <ele>151</ele>
        <time>2022-04-14T09:45:01.000Z</time>
      </trkpt>
      <trkpt lat="47.30721" lon="-2.38996">
        <ele>151.60000610352</ele>
        <time>2022-04-14T09:45:02.000Z</time>
      </trkpt>
      <trkpt lat="47.30716" lon="-2.38991">
        <ele>152</ele>
        <time>2022-04-14T09:45:03.000Z</time>
      </trkpt>
      <trkpt lat="47.30713" lon="-2.38984">
        <ele>152.39999389648</ele>
        <time>2022-04-14T09:45:04.000Z</time>
      </trkpt>
      <trkpt lat="47.30709" lon="-2.38978">
        <ele>152.39999389648</ele>
        <time>2022-04-14T09:45:05.000Z</time>
      </trkpt>
      <trkpt lat="47.30695" lon="-2.38956">
        <ele>152.39999389648</ele>
        <time>2022-04-14T09:45:08.000Z</time>
      </trkpt>
      <trkpt lat="47.3069" lon="-2.3893">
        <ele>152.39999389648</ele>
        <time>2022-04-14T09:45:11.000Z</time>
      </trkpt>
      <trkpt lat="47.30682" lon="-2.38914">
        <ele>152.80000305176</ele>
        <time>2022-04-14T09:45:14.000Z</time>
      </trkpt>
      <trkpt lat="47.30677" lon="-2.38916">
        <ele>153.19999694824</ele>
        <time>2022-04-14T09:45:15.000Z</time>
      </trkpt>
      <trkpt lat="47.30672" lon="-2.3892">
        <ele>153.60000610352</ele>
        <time>2022-04-14T09:45:16.000Z</time>
      </trkpt>
      <trkpt lat="47.30667" lon="-2.38924">
        <ele>154</ele>
        <time>2022-04-14T09:45:17.000Z</time>
      </trkpt>
      <trkpt lat="47.30662" lon="-2.38929">
        <ele>154.39999389648</ele>
        <time>2022-04-14T09:45:18.000Z</time>
      </trkpt>
      <trkpt lat="47.30657" lon="-2.38935">
        <ele>154.39999389648</ele>
        <time>2022-04-14T09:45:19.000Z</time>
      </trkpt>
      <trkpt lat="47.30646" lon="-2.38945">
        <ele>154.39999389648</ele>
        <time>2022-04-14T09:45:21.000Z</time>
      </trkpt>
      <trkpt lat="47.30606" lon="-2.38983">
        <ele>154.39999389648</ele>
        <time>2022-04-14T09:45:28.000Z</time>
      </trkpt>
      <trkpt lat="47.30582" lon="-2.39009">
        <ele>154</ele>
        <time>2022-04-14T09:45:32.000Z</time>
      </trkpt>
      <trkpt lat="47.30577" lon="-2.39016">
        <ele>153.60000610352</ele>
        <time>2022-04-14T09:45:33.000Z</time>
      </trkpt>
      <trkpt lat="47.30571" lon="-2.39023">
        <ele>153.19999694824</ele>
        <time>2022-04-14T09:45:34.000Z</time>
      </trkpt>
      <trkpt lat="47.30566" lon="-2.3903">
        <ele>152.80000305176</ele>
        <time>2022-04-14T09:45:35.000Z</time>
      </trkpt>
      <trkpt lat="47.30561" lon="-2.39036">
        <ele>152.39999389648</ele>
        <time>2022-04-14T09:45:36.000Z</time>
      </trkpt>
      <trkpt lat="47.30555" lon="-2.39042">
        <ele>152.39999389648</ele>
        <time>2022-04-14T09:45:37.000Z</time>
      </trkpt>
      <trkpt lat="47.30544" lon="-2.39053">
        <ele>152.39999389648</ele>
        <time>2022-04-14T09:45:39.000Z</time>
      </trkpt>
      <trkpt lat="47.3054" lon="-2.39058">
        <ele>152</ele>
        <time>2022-04-14T09:45:40.000Z</time>
      </trkpt>
      <trkpt lat="47.30534" lon="-2.39062">
        <ele>151.60000610352</ele>
        <time>2022-04-14T09:45:41.000Z</time>
      </trkpt>
      <trkpt lat="47.30529" lon="-2.39067">
        <ele>151.19999694824</ele>
        <time>2022-04-14T09:45:42.000Z</time>
      </trkpt>
      <trkpt lat="47.30524" lon="-2.39072">
        <ele>150.60000610352</ele>
        <time>2022-04-14T09:45:43.000Z</time>
      </trkpt>
      <trkpt lat="47.30519" lon="-2.39077">
        <ele>150.19999694824</ele>
        <time>2022-04-14T09:45:44.000Z</time>
      </trkpt>
      <trkpt lat="47.3048" lon="-2.39116">
        <ele>150.19999694824</ele>
        <time>2022-04-14T09:45:51.000Z</time>
      </trkpt>
      <trkpt lat="47.30475" lon="-2.39122">
        <ele>149.80000305176</ele>
        <time>2022-04-14T09:45:52.000Z</time>
      </trkpt>
      <trkpt lat="47.3047" lon="-2.39127">
        <ele>149.39999389648</ele>
        <time>2022-04-14T09:45:53.000Z</time>
      </trkpt>
      <trkpt lat="47.30464" lon="-2.39133">
        <ele>149</ele>
        <time>2022-04-14T09:45:54.000Z</time>
      </trkpt>
      <trkpt lat="47.30459" lon="-2.39139">
        <ele>148.39999389648</ele>
        <time>2022-04-14T09:45:55.000Z</time>
      </trkpt>
      <trkpt lat="47.30454" lon="-2.39145">
        <ele>148</ele>
        <time>2022-04-14T09:45:56.000Z</time>
      </trkpt>
      <trkpt lat="47.30443" lon="-2.39158">
        <ele>148</ele>
        <time>2022-04-14T09:45:58.000Z</time>
      </trkpt>
      <trkpt lat="47.3043" lon="-2.39169">
        <ele>148</ele>
        <time>2022-04-14T09:46:00.000Z</time>
      </trkpt>
      <trkpt lat="47.30416" lon="-2.39175">
        <ele>148</ele>
        <time>2022-04-14T09:46:02.000Z</time>
      </trkpt>
      <trkpt lat="47.30395" lon="-2.39171">
        <ele>148</ele>
        <time>2022-04-14T09:46:05.000Z</time>
      </trkpt>
      <trkpt lat="47.30388" lon="-2.39167">
        <ele>147.60000610352</ele>
        <time>2022-04-14T09:46:06.000Z</time>
      </trkpt>
      <trkpt lat="47.30383" lon="-2.39161">
        <ele>147.19999694824</ele>
        <time>2022-04-14T09:46:07.000Z</time>
      </trkpt>
      <trkpt lat="47.30378" lon="-2.39154">
        <ele>146.80000305176</ele>
        <time>2022-04-14T09:46:08.000Z</time>
      </trkpt>
      <trkpt lat="47.30374" lon="-2.39146">
        <ele>146.39999389648</ele>
        <time>2022-04-14T09:46:09.000Z</time>
      </trkpt>
      <trkpt lat="47.30371" lon="-2.39138">
        <ele>146</ele>
        <time>2022-04-14T09:46:10.000Z</time>
      </trkpt>
      <trkpt lat="47.30368" lon="-2.3913">
        <ele>146</ele>
        <time>2022-04-14T09:46:11.000Z</time>
      </trkpt>
      <trkpt lat="47.30365" lon="-2.39123">
        <ele>146</ele>
        <time>2022-04-14T09:46:12.000Z</time>
      </trkpt>
      <trkpt lat="47.30352" lon="-2.39068">
        <ele>146</ele>
        <time>2022-04-14T09:46:19.000Z</time>
      </trkpt>
      <trkpt lat="47.30342" lon="-2.39021">
        <ele>146</ele>
        <time>2022-04-14T09:46:25.000Z</time>
      </trkpt>
      <trkpt lat="47.30337" lon="-2.39003">
        <ele>146</ele>
        <time>2022-04-14T09:46:27.000Z</time>
      </trkpt>
      <trkpt lat="47.30327" lon="-2.38978">
        <ele>146</ele>
        <time>2022-04-14T09:46:30.000Z</time>
      </trkpt>
      <trkpt lat="47.30314" lon="-2.38955">
        <ele>146</ele>
        <time>2022-04-14T09:46:33.000Z</time>
      </trkpt>
      <trkpt lat="47.30287" lon="-2.38898">
        <ele>146</ele>
        <time>2022-04-14T09:46:40.000Z</time>
      </trkpt>
      <trkpt lat="47.30271" lon="-2.38854">
        <ele>145.60000610352</ele>
        <time>2022-04-14T09:46:45.000Z</time>
      </trkpt>
      <trkpt lat="47.30268" lon="-2.38845">
        <ele>145.19999694824</ele>
        <time>2022-04-14T09:46:46.000Z</time>
      </trkpt>
      <trkpt lat="47.30264" lon="-2.38836">
        <ele>144.80000305176</ele>
        <time>2022-04-14T09:46:47.000Z</time>
      </trkpt>
      <trkpt lat="47.3026" lon="-2.38827">
        <ele>144.19999694824</ele>
        <time>2022-04-14T09:46:48.000Z</time>
      </trkpt>
      <trkpt lat="47.30255" lon="-2.38819">
        <ele>143.80000305176</ele>
        <time>2022-04-14T09:46:49.000Z</time>
      </trkpt>
      <trkpt lat="47.30233" lon="-2.38786">
        <ele>143.39999389648</ele>
        <time>2022-04-14T09:46:53.000Z</time>
      </trkpt>
      <trkpt lat="47.30228" lon="-2.38779">
        <ele>143</ele>
        <time>2022-04-14T09:46:54.000Z</time>
      </trkpt>
      <trkpt lat="47.30222" lon="-2.38774">
        <ele>142.39999389648</ele>
        <time>2022-04-14T09:46:55.000Z</time>
      </trkpt>
      <trkpt lat="47.30216" lon="-2.38769">
        <ele>141.80000305176</ele>
        <time>2022-04-14T09:46:56.000Z</time>
      </trkpt>
      <trkpt lat="47.3021" lon="-2.38765">
        <ele>141</ele>
        <time>2022-04-14T09:46:57.000Z</time>
      </trkpt>
      <trkpt lat="47.30203" lon="-2.38763">
        <ele>140.39999389648</ele>
        <time>2022-04-14T09:46:58.000Z</time>
      </trkpt>
      <trkpt lat="47.30196" lon="-2.38763">
        <ele>139.39999389648</ele>
        <time>2022-04-14T09:46:59.000Z</time>
      </trkpt>
      <trkpt lat="47.30188" lon="-2.38772">
        <ele>138.60000610352</ele>
        <time>2022-04-14T09:47:00.000Z</time>
      </trkpt>
      <trkpt lat="47.30181" lon="-2.3878">
        <ele>137.80000305176</ele>
        <time>2022-04-14T09:47:01.000Z</time>
      </trkpt>
      <trkpt lat="47.30174" lon="-2.38788">
        <ele>137</ele>
        <time>2022-04-14T09:47:02.000Z</time>
      </trkpt>
      <trkpt lat="47.30167" lon="-2.38797">
        <ele>135.80000305176</ele>
        <time>2022-04-14T09:47:03.000Z</time>
      </trkpt>
      <trkpt lat="47.3016" lon="-2.38807">
        <ele>135.19999694824</ele>
        <time>2022-04-14T09:47:04.000Z</time>
      </trkpt>
      <trkpt lat="47.30153" lon="-2.38817">
        <ele>134.39999389648</ele>
        <time>2022-04-14T09:47:05.000Z</time>
      </trkpt>
      <trkpt lat="47.30148" lon="-2.38828">
        <ele>133.80000305176</ele>
        <time>2022-04-14T09:47:06.000Z</time>
      </trkpt>
      <trkpt lat="47.30142" lon="-2.38839">
        <ele>133.39999389648</ele>
        <time>2022-04-14T09:47:07.000Z</time>
      </trkpt>
      <trkpt lat="47.30136" lon="-2.3885">
        <ele>132.80000305176</ele>
        <time>2022-04-14T09:47:08.000Z</time>
      </trkpt>
      <trkpt lat="47.3013" lon="-2.38861">
        <ele>132.19999694824</ele>
        <time>2022-04-14T09:47:09.000Z</time>
      </trkpt>
      <trkpt lat="47.30124" lon="-2.38872">
        <ele>131.60000610352</ele>
        <time>2022-04-14T09:47:10.000Z</time>
      </trkpt>
      <trkpt lat="47.30112" lon="-2.38893">
        <ele>131.19999694824</ele>
        <time>2022-04-14T09:47:12.000Z</time>
      </trkpt>
      <trkpt lat="47.30106" lon="-2.38902">
        <ele>130.80000305176</ele>
        <time>2022-04-14T09:47:13.000Z</time>
      </trkpt>
      <trkpt lat="47.30099" lon="-2.38909">
        <ele>130.39999389648</ele>
        <time>2022-04-14T09:47:14.000Z</time>
      </trkpt>
      <trkpt lat="47.30092" lon="-2.38916">
        <ele>130</ele>
        <time>2022-04-14T09:47:15.000Z</time>
      </trkpt>
      <trkpt lat="47.30084" lon="-2.38924">
        <ele>129.60000610352</ele>
        <time>2022-04-14T09:47:16.000Z</time>
      </trkpt>
      <trkpt lat="47.30076" lon="-2.38931">
        <ele>129</ele>
        <time>2022-04-14T09:47:17.000Z</time>
      </trkpt>
      <trkpt lat="47.30069" lon="-2.38937">
        <ele>128.60000610352</ele>
        <time>2022-04-14T09:47:18.000Z</time>
      </trkpt>
      <trkpt lat="47.30062" lon="-2.38943">
        <ele>128.19999694824</ele>
        <time>2022-04-14T09:47:19.000Z</time>
      </trkpt>
      <trkpt lat="47.30055" lon="-2.38948">
        <ele>127.59999847412</ele>
        <time>2022-04-14T09:47:20.000Z</time>
      </trkpt>
      <trkpt lat="47.30049" lon="-2.38951">
        <ele>127</ele>
        <time>2022-04-14T09:47:21.000Z</time>
      </trkpt>
      <trkpt lat="47.30043" lon="-2.38953">
        <ele>126.59999847412</ele>
        <time>2022-04-14T09:47:22.000Z</time>
      </trkpt>
      <trkpt lat="47.30037" lon="-2.38957">
        <ele>126</ele>
        <time>2022-04-14T09:47:23.000Z</time>
      </trkpt>
      <trkpt lat="47.30032" lon="-2.3896">
        <ele>125.40000152588</ele>
        <time>2022-04-14T09:47:24.000Z</time>
      </trkpt>
      <trkpt lat="47.30028" lon="-2.38963">
        <ele>125</ele>
        <time>2022-04-14T09:47:25.000Z</time>
      </trkpt>
      <trkpt lat="47.30024" lon="-2.38965">
        <ele>124.40000152588</ele>
        <time>2022-04-14T09:47:26.000Z</time>
      </trkpt>
      <trkpt lat="47.30019" lon="-2.38966">
        <ele>123.80000305176</ele>
        <time>2022-04-14T09:47:27.000Z</time>
      </trkpt>
      <trkpt lat="47.30016" lon="-2.38965">
        <ele>122.80000305176</ele>
        <time>2022-04-14T09:47:28.000Z</time>
      </trkpt>
      <trkpt lat="47.30006" lon="-2.38958">
        <ele>122.80000305176</ele>
        <time>2022-04-14T09:47:33.000Z</time>
      </trkpt>
      <trkpt lat="47.30003" lon="-2.3894">
        <ele>122.80000305176</ele>
        <time>2022-04-14T09:47:38.000Z</time>
      </trkpt>
      <trkpt lat="47.30004" lon="-2.38909">
        <ele>122.80000305176</ele>
        <time>2022-04-14T09:47:44.000Z</time>
      </trkpt>
      <trkpt lat="47.30004" lon="-2.38883">
        <ele>123.19999694824</ele>
        <time>2022-04-14T09:47:48.000Z</time>
      </trkpt>
      <trkpt lat="47.30004" lon="-2.38876">
        <ele>123.59999847412</ele>
        <time>2022-04-14T09:47:49.000Z</time>
      </trkpt>
      <trkpt lat="47.30005" lon="-2.3887">
        <ele>124.19999694824</ele>
        <time>2022-04-14T09:47:50.000Z</time>
      </trkpt>
      <trkpt lat="47.30005" lon="-2.38863">
        <ele>124.59999847412</ele>
        <time>2022-04-14T09:47:51.000Z</time>
      </trkpt>
      <trkpt lat="47.30005" lon="-2.38856">
        <ele>125</ele>
        <time>2022-04-14T09:47:52.000Z</time>
      </trkpt>
      <trkpt lat="47.30006" lon="-2.38831">
        <ele>125</ele>
        <time>2022-04-14T09:47:56.000Z</time>
      </trkpt>
      <trkpt lat="47.30008" lon="-2.38812">
        <ele>125.40000152588</ele>
        <time>2022-04-14T09:47:59.000Z</time>
      </trkpt>
      <trkpt lat="47.30008" lon="-2.38806">
        <ele>125.80000305176</ele>
        <time>2022-04-14T09:48:00.000Z</time>
      </trkpt>
      <trkpt lat="47.30009" lon="-2.388">
        <ele>126.19999694824</ele>
        <time>2022-04-14T09:48:01.000Z</time>
      </trkpt>
      <trkpt lat="47.30009" lon="-2.38794">
        <ele>126.80000305176</ele>
        <time>2022-04-14T09:48:02.000Z</time>
      </trkpt>
      <trkpt lat="47.3001" lon="-2.38788">
        <ele>127.19999694824</ele>
        <time>2022-04-14T09:48:03.000Z</time>
      </trkpt>
      <trkpt lat="47.30011" lon="-2.38782">
        <ele>127.19999694824</ele>
        <time>2022-04-14T09:48:04.000Z</time>
      </trkpt>
      <trkpt lat="47.30012" lon="-2.38765">
        <ele>127.19999694824</ele>
        <time>2022-04-14T09:48:07.000Z</time>
      </trkpt>
      <trkpt lat="47.30014" lon="-2.38759">
        <ele>127.59999847412</ele>
        <time>2022-04-14T09:48:08.000Z</time>
      </trkpt>
      <trkpt lat="47.30015" lon="-2.38753">
        <ele>128</ele>
        <time>2022-04-14T09:48:09.000Z</time>
      </trkpt>
      <trkpt lat="47.30016" lon="-2.38748">
        <ele>128.39999389648</ele>
        <time>2022-04-14T09:48:10.000Z</time>
      </trkpt>
      <trkpt lat="47.30018" lon="-2.38743">
        <ele>128.80000305176</ele>
        <time>2022-04-14T09:48:11.000Z</time>
      </trkpt>
      <trkpt lat="47.30018" lon="-2.38737">
        <ele>129.19999694824</ele>
        <time>2022-04-14T09:48:12.000Z</time>
      </trkpt>
      <trkpt lat="47.3002" lon="-2.38726">
        <ele>129.19999694824</ele>
        <time>2022-04-14T09:48:14.000Z</time>
      </trkpt>
      <trkpt lat="47.30023" lon="-2.3871">
        <ele>129.60000610352</ele>
        <time>2022-04-14T09:48:17.000Z</time>
      </trkpt>
      <trkpt lat="47.30024" lon="-2.38704">
        <ele>130</ele>
        <time>2022-04-14T09:48:18.000Z</time>
      </trkpt>
      <trkpt lat="47.30025" lon="-2.38698">
        <ele>130.39999389648</ele>
        <time>2022-04-14T09:48:19.000Z</time>
      </trkpt>
      <trkpt lat="47.30026" lon="-2.38693">
        <ele>130.80000305176</ele>
        <time>2022-04-14T09:48:20.000Z</time>
      </trkpt>
      <trkpt lat="47.30027" lon="-2.38688">
        <ele>131.19999694824</ele>
        <time>2022-04-14T09:48:21.000Z</time>
      </trkpt>
      <trkpt lat="47.3003" lon="-2.38676">
        <ele>131.19999694824</ele>
        <time>2022-04-14T09:48:23.000Z</time>
      </trkpt>
      <trkpt lat="47.30027" lon="-2.38654">
        <ele>131.60000610352</ele>
        <time>2022-04-14T09:48:27.000Z</time>
      </trkpt>
      <trkpt lat="47.30027" lon="-2.38649">
        <ele>132</ele>
        <time>2022-04-14T09:48:28.000Z</time>
      </trkpt>
      <trkpt lat="47.30026" lon="-2.38643">
        <ele>132.39999389648</ele>
        <time>2022-04-14T09:48:29.000Z</time>
      </trkpt>
      <trkpt lat="47.30027" lon="-2.38638">
        <ele>132.80000305176</ele>
        <time>2022-04-14T09:48:30.000Z</time>
      </trkpt>
      <trkpt lat="47.30026" lon="-2.38632">
        <ele>133.19999694824</ele>
        <time>2022-04-14T09:48:31.000Z</time>
      </trkpt>
      <trkpt lat="47.30025" lon="-2.38615">
        <ele>133.19999694824</ele>
        <time>2022-04-14T09:48:34.000Z</time>
      </trkpt>
      <trkpt lat="47.30026" lon="-2.3859">
        <ele>133.19999694824</ele>
        <time>2022-04-14T09:48:39.000Z</time>
      </trkpt>
      <trkpt lat="47.30025" lon="-2.38584">
        <ele>133.60000610352</ele>
        <time>2022-04-14T09:48:40.000Z</time>
      </trkpt>
      <trkpt lat="47.30024" lon="-2.38579">
        <ele>134.60000610352</ele>
        <time>2022-04-14T09:48:41.000Z</time>
      </trkpt>
      <trkpt lat="47.30023" lon="-2.38574">
        <ele>135</ele>
        <time>2022-04-14T09:48:42.000Z</time>
      </trkpt>
      <trkpt lat="47.30022" lon="-2.38569">
        <ele>135.39999389648</ele>
        <time>2022-04-14T09:48:43.000Z</time>
      </trkpt>
      <trkpt lat="47.3002" lon="-2.38559">
        <ele>135.39999389648</ele>
        <time>2022-04-14T09:48:45.000Z</time>
      </trkpt>
      <trkpt lat="47.30019" lon="-2.38554">
        <ele>135.80000305176</ele>
        <time>2022-04-14T09:48:46.000Z</time>
      </trkpt>
      <trkpt lat="47.30019" lon="-2.38549">
        <ele>136.19999694824</ele>
        <time>2022-04-14T09:48:47.000Z</time>
      </trkpt>
      <trkpt lat="47.30018" lon="-2.38544">
        <ele>136.60000610352</ele>
        <time>2022-04-14T09:48:48.000Z</time>
      </trkpt>
      <trkpt lat="47.30017" lon="-2.38539">
        <ele>137</ele>
        <time>2022-04-14T09:48:49.000Z</time>
      </trkpt>
      <trkpt lat="47.30016" lon="-2.38534">
        <ele>137.60000610352</ele>
        <time>2022-04-14T09:48:50.000Z</time>
      </trkpt>
      <trkpt lat="47.30013" lon="-2.38519">
        <ele>137.60000610352</ele>
        <time>2022-04-14T09:48:53.000Z</time>
      </trkpt>
      <trkpt lat="47.30012" lon="-2.38514">
        <ele>138</ele>
        <time>2022-04-14T09:48:54.000Z</time>
      </trkpt>
      <trkpt lat="47.30011" lon="-2.38509">
        <ele>138.39999389648</ele>
        <time>2022-04-14T09:48:55.000Z</time>
      </trkpt>
      <trkpt lat="47.3001" lon="-2.38504">
        <ele>138.80000305176</ele>
        <time>2022-04-14T09:48:56.000Z</time>
      </trkpt>
      <trkpt lat="47.3001" lon="-2.38499">
        <ele>139.19999694824</ele>
        <time>2022-04-14T09:48:57.000Z</time>
      </trkpt>
      <trkpt lat="47.30009" lon="-2.38495">
        <ele>139.60000610352</ele>
        <time>2022-04-14T09:48:58.000Z</time>
      </trkpt>
      <trkpt lat="47.30008" lon="-2.38484">
        <ele>139.60000610352</ele>
        <time>2022-04-14T09:49:00.000Z</time>
      </trkpt>
      <trkpt lat="47.30005" lon="-2.3846">
        <ele>140</ele>
        <time>2022-04-14T09:49:04.000Z</time>
      </trkpt>
      <trkpt lat="47.30005" lon="-2.38454">
        <ele>140.39999389648</ele>
        <time>2022-04-14T09:49:05.000Z</time>
      </trkpt>
      <trkpt lat="47.30003" lon="-2.38447">
        <ele>141.19999694824</ele>
        <time>2022-04-14T09:49:06.000Z</time>
      </trkpt>
      <trkpt lat="47.30002" lon="-2.38441">
        <ele>141.60000610352</ele>
        <time>2022-04-14T09:49:07.000Z</time>
      </trkpt>
      <trkpt lat="47.29996" lon="-2.38391">
        <ele>141.60000610352</ele>
        <time>2022-04-14T09:49:14.000Z</time>
      </trkpt>
      <trkpt lat="47.29994" lon="-2.38339">
        <ele>141.60000610352</ele>
        <time>2022-04-14T09:49:21.000Z</time>
      </trkpt>
      <trkpt lat="47.29994" lon="-2.38303">
        <ele>141.60000610352</ele>
        <time>2022-04-14T09:49:26.000Z</time>
      </trkpt>
      <trkpt lat="47.29994" lon="-2.38288">
        <ele>141.60000610352</ele>
        <time>2022-04-14T09:49:28.000Z</time>
      </trkpt>
      <trkpt lat="47.29992" lon="-2.38229">
        <ele>141.60000610352</ele>
        <time>2022-04-14T09:49:35.000Z</time>
      </trkpt>
      <trkpt lat="47.29991" lon="-2.38191">
        <ele>141.19999694824</ele>
        <time>2022-04-14T09:49:39.000Z</time>
      </trkpt>
      <trkpt lat="47.2999" lon="-2.38181">
        <ele>140.80000305176</ele>
        <time>2022-04-14T09:49:40.000Z</time>
      </trkpt>
      <trkpt lat="47.2999" lon="-2.38171">
        <ele>140.19999694824</ele>
        <time>2022-04-14T09:49:41.000Z</time>
      </trkpt>
      <trkpt lat="47.29989" lon="-2.38161">
        <ele>139.80000305176</ele>
        <time>2022-04-14T09:49:42.000Z</time>
      </trkpt>
      <trkpt lat="47.29989" lon="-2.38151">
        <ele>139.39999389648</ele>
        <time>2022-04-14T09:49:43.000Z</time>
      </trkpt>
      <trkpt lat="47.29986" lon="-2.38085">
        <ele>139.39999389648</ele>
        <time>2022-04-14T09:49:49.000Z</time>
      </trkpt>
      <trkpt lat="47.29986" lon="-2.38074">
        <ele>139</ele>
        <time>2022-04-14T09:49:50.000Z</time>
      </trkpt>
      <trkpt lat="47.29986" lon="-2.38062">
        <ele>138.39999389648</ele>
        <time>2022-04-14T09:49:51.000Z</time>
      </trkpt>
      <trkpt lat="47.29986" lon="-2.3805">
        <ele>138</ele>
        <time>2022-04-14T09:49:52.000Z</time>
      </trkpt>
      <trkpt lat="47.29987" lon="-2.38038">
        <ele>137.60000610352</ele>
        <time>2022-04-14T09:49:53.000Z</time>
      </trkpt>
      <trkpt lat="47.29987" lon="-2.38026">
        <ele>137.19999694824</ele>
        <time>2022-04-14T09:49:54.000Z</time>
      </trkpt>
      <trkpt lat="47.29988" lon="-2.38002">
        <ele>137.19999694824</ele>
        <time>2022-04-14T09:49:56.000Z</time>
      </trkpt>
      <trkpt lat="47.29988" lon="-2.37962">
        <ele>137.19999694824</ele>
        <time>2022-04-14T09:50:00.000Z</time>
      </trkpt>
      <trkpt lat="47.29987" lon="-2.37953">
        <ele>137.19999694824</ele>
        <time>2022-04-14T09:50:01.000Z</time>
      </trkpt>
      <trkpt lat="47.29975" lon="-2.37929">
        <ele>137.19999694824</ele>
        <time>2022-04-14T09:50:04.000Z</time>
      </trkpt>
      <trkpt lat="47.29963" lon="-2.37917">
        <ele>137.19999694824</ele>
        <time>2022-04-14T09:50:06.000Z</time>
      </trkpt>
      <trkpt lat="47.29941" lon="-2.37892">
        <ele>137.19999694824</ele>
        <time>2022-04-14T09:50:10.000Z</time>
      </trkpt>
      <trkpt lat="47.29908" lon="-2.37855">
        <ele>137.19999694824</ele>
        <time>2022-04-14T09:50:17.000Z</time>
      </trkpt>
      <trkpt lat="47.29895" lon="-2.3784">
        <ele>137.60000610352</ele>
        <time>2022-04-14T09:50:21.000Z</time>
      </trkpt>
      <trkpt lat="47.29892" lon="-2.37837">
        <ele>138.19999694824</ele>
        <time>2022-04-14T09:50:22.000Z</time>
      </trkpt>
      <trkpt lat="47.29889" lon="-2.37833">
        <ele>138.60000610352</ele>
        <time>2022-04-14T09:50:23.000Z</time>
      </trkpt>
      <trkpt lat="47.29886" lon="-2.3783">
        <ele>139</ele>
        <time>2022-04-14T09:50:24.000Z</time>
      </trkpt>
      <trkpt lat="47.29884" lon="-2.37826">
        <ele>139.60000610352</ele>
        <time>2022-04-14T09:50:25.000Z</time>
      </trkpt>
      <trkpt lat="47.29879" lon="-2.37819">
        <ele>140</ele>
        <time>2022-04-14T09:50:27.000Z</time>
      </trkpt>
      <trkpt lat="47.29876" lon="-2.37816">
        <ele>140.39999389648</ele>
        <time>2022-04-14T09:50:28.000Z</time>
      </trkpt>
      <trkpt lat="47.29873" lon="-2.37813">
        <ele>140.80000305176</ele>
        <time>2022-04-14T09:50:29.000Z</time>
      </trkpt>
      <trkpt lat="47.2987" lon="-2.37814">
        <ele>141.39999389648</ele>
        <time>2022-04-14T09:50:30.000Z</time>
      </trkpt>
      <trkpt lat="47.29867" lon="-2.37817">
        <ele>141.80000305176</ele>
        <time>2022-04-14T09:50:31.000Z</time>
      </trkpt>
      <trkpt lat="47.29864" lon="-2.37827">
        <ele>141.80000305176</ele>
        <time>2022-04-14T09:50:33.000Z</time>
      </trkpt>
      <trkpt lat="47.29857" lon="-2.37842">
        <ele>141.80000305176</ele>
        <time>2022-04-14T09:50:36.000Z</time>
      </trkpt>
      <trkpt lat="47.2985" lon="-2.37858">
        <ele>141.80000305176</ele>
        <time>2022-04-14T09:50:39.000Z</time>
      </trkpt>
      <trkpt lat="47.29848" lon="-2.37863">
        <ele>141.80000305176</ele>
        <time>2022-04-14T09:50:40.000Z</time>
      </trkpt>
      <trkpt lat="47.29845" lon="-2.37869">
        <ele>141.80000305176</ele>
        <time>2022-04-14T09:50:41.000Z</time>
      </trkpt>
      <trkpt lat="47.29838" lon="-2.37877">
        <ele>141.80000305176</ele>
        <time>2022-04-14T09:50:43.000Z</time>
      </trkpt>
      <trkpt lat="47.2983" lon="-2.37885">
        <ele>141.80000305176</ele>
        <time>2022-04-14T09:50:45.000Z</time>
      </trkpt>
      <trkpt lat="47.29819" lon="-2.37894">
        <ele>142.19999694824</ele>
        <time>2022-04-14T09:50:48.000Z</time>
      </trkpt>
      <trkpt lat="47.29815" lon="-2.37896">
        <ele>142.60000610352</ele>
        <time>2022-04-14T09:50:49.000Z</time>
      </trkpt>
      <trkpt lat="47.29811" lon="-2.37898">
        <ele>143</ele>
        <time>2022-04-14T09:50:50.000Z</time>
      </trkpt>
      <trkpt lat="47.29807" lon="-2.379">
        <ele>143.39999389648</ele>
        <time>2022-04-14T09:50:51.000Z</time>
      </trkpt>
      <trkpt lat="47.29803" lon="-2.37902">
        <ele>143.80000305176</ele>
        <time>2022-04-14T09:50:52.000Z</time>
      </trkpt>
      <trkpt lat="47.29776" lon="-2.37917">
        <ele>143.80000305176</ele>
        <time>2022-04-14T09:50:58.000Z</time>
      </trkpt>
      <trkpt lat="47.29747" lon="-2.37945">
        <ele>143.80000305176</ele>
        <time>2022-04-14T09:51:04.000Z</time>
      </trkpt>
      <trkpt lat="47.29737" lon="-2.37965">
        <ele>143.80000305176</ele>
        <time>2022-04-14T09:51:07.000Z</time>
      </trkpt>
      <trkpt lat="47.29735" lon="-2.37972">
        <ele>143.80000305176</ele>
        <time>2022-04-14T09:51:08.000Z</time>
      </trkpt>
      <trkpt lat="47.29732" lon="-2.37978">
        <ele>143.39999389648</ele>
        <time>2022-04-14T09:51:09.000Z</time>
      </trkpt>
      <trkpt lat="47.2973" lon="-2.37984">
        <ele>142.60000610352</ele>
        <time>2022-04-14T09:51:10.000Z</time>
      </trkpt>
      <trkpt lat="47.29727" lon="-2.37991">
        <ele>142</ele>
        <time>2022-04-14T09:51:11.000Z</time>
      </trkpt>
      <trkpt lat="47.29727" lon="-2.37996">
        <ele>141.39999389648</ele>
        <time>2022-04-14T09:51:12.000Z</time>
      </trkpt>
      <trkpt lat="47.29727" lon="-2.38003">
        <ele>140.60000610352</ele>
        <time>2022-04-14T09:51:13.000Z</time>
      </trkpt>
      <trkpt lat="47.29729" lon="-2.38011">
        <ele>140</ele>
        <time>2022-04-14T09:51:14.000Z</time>
      </trkpt>
      <trkpt lat="47.2973" lon="-2.38018">
        <ele>139.19999694824</ele>
        <time>2022-04-14T09:51:15.000Z</time>
      </trkpt>
      <trkpt lat="47.29732" lon="-2.38025">
        <ele>138.19999694824</ele>
        <time>2022-04-14T09:51:16.000Z</time>
      </trkpt>
      <trkpt lat="47.29731" lon="-2.38031">
        <ele>137.39999389648</ele>
        <time>2022-04-14T09:51:17.000Z</time>
      </trkpt>
      <trkpt lat="47.29729" lon="-2.38036">
        <ele>136.60000610352</ele>
        <time>2022-04-14T09:51:18.000Z</time>
      </trkpt>
      <trkpt lat="47.29725" lon="-2.38041">
        <ele>135.60000610352</ele>
        <time>2022-04-14T09:51:19.000Z</time>
      </trkpt>
      <trkpt lat="47.29719" lon="-2.38045">
        <ele>135</ele>
        <time>2022-04-14T09:51:20.000Z</time>
      </trkpt>
      <trkpt lat="47.29713" lon="-2.38049">
        <ele>134.19999694824</ele>
        <time>2022-04-14T09:51:21.000Z</time>
      </trkpt>
      <trkpt lat="47.29707" lon="-2.38054">
        <ele>133.60000610352</ele>
        <time>2022-04-14T09:51:22.000Z</time>
      </trkpt>
      <trkpt lat="47.297" lon="-2.38059">
        <ele>132.80000305176</ele>
        <time>2022-04-14T09:51:23.000Z</time>
      </trkpt>
      <trkpt lat="47.29693" lon="-2.38065">
        <ele>132</ele>
        <time>2022-04-14T09:51:24.000Z</time>
      </trkpt>
      <trkpt lat="47.29687" lon="-2.38071">
        <ele>131.19999694824</ele>
        <time>2022-04-14T09:51:25.000Z</time>
      </trkpt>
      <trkpt lat="47.2968" lon="-2.38076">
        <ele>130.60000610352</ele>
        <time>2022-04-14T09:51:26.000Z</time>
      </trkpt>
      <trkpt lat="47.29672" lon="-2.3808">
        <ele>129.80000305176</ele>
        <time>2022-04-14T09:51:27.000Z</time>
      </trkpt>
      <trkpt lat="47.29665" lon="-2.38085">
        <ele>129</ele>
        <time>2022-04-14T09:51:28.000Z</time>
      </trkpt>
      <trkpt lat="47.29657" lon="-2.38089">
        <ele>128.39999389648</ele>
        <time>2022-04-14T09:51:29.000Z</time>
      </trkpt>
      <trkpt lat="47.29649" lon="-2.38093">
        <ele>127.59999847412</ele>
        <time>2022-04-14T09:51:30.000Z</time>
      </trkpt>
      <trkpt lat="47.29642" lon="-2.38097">
        <ele>126.80000305176</ele>
        <time>2022-04-14T09:51:31.000Z</time>
      </trkpt>
      <trkpt lat="47.29634" lon="-2.38102">
        <ele>126.19999694824</ele>
        <time>2022-04-14T09:51:32.000Z</time>
      </trkpt>
      <trkpt lat="47.29626" lon="-2.38106">
        <ele>125.40000152588</ele>
        <time>2022-04-14T09:51:33.000Z</time>
      </trkpt>
      <trkpt lat="47.29619" lon="-2.38109">
        <ele>124.19999694824</ele>
        <time>2022-04-14T09:51:34.000Z</time>
      </trkpt>
      <trkpt lat="47.29612" lon="-2.38112">
        <ele>123.80000305176</ele>
        <time>2022-04-14T09:51:35.000Z</time>
      </trkpt>
      <trkpt lat="47.29604" lon="-2.38114">
        <ele>123.19999694824</ele>
        <time>2022-04-14T09:51:36.000Z</time>
      </trkpt>
      <trkpt lat="47.29596" lon="-2.38116">
        <ele>122.59999847412</ele>
        <time>2022-04-14T09:51:37.000Z</time>
      </trkpt>
      <trkpt lat="47.29589" lon="-2.38118">
        <ele>122.19999694824</ele>
        <time>2022-04-14T09:51:38.000Z</time>
      </trkpt>
      <trkpt lat="47.29556" lon="-2.38125">
        <ele>121.80000305176</ele>
        <time>2022-04-14T09:51:42.000Z</time>
      </trkpt>
      <trkpt lat="47.29548" lon="-2.38126">
        <ele>121.19999694824</ele>
        <time>2022-04-14T09:51:43.000Z</time>
      </trkpt>
      <trkpt lat="47.2954" lon="-2.38126">
        <ele>120.80000305176</ele>
        <time>2022-04-14T09:51:44.000Z</time>
      </trkpt>
      <trkpt lat="47.29532" lon="-2.38126">
        <ele>120.40000152588</ele>
        <time>2022-04-14T09:51:45.000Z</time>
      </trkpt>
      <trkpt lat="47.29524" lon="-2.38126">
        <ele>119.80000305176</ele>
        <time>2022-04-14T09:51:46.000Z</time>
      </trkpt>
      <trkpt lat="47.29516" lon="-2.38125">
        <ele>119.80000305176</ele>
        <time>2022-04-14T09:51:47.000Z</time>
      </trkpt>
      <trkpt lat="47.29508" lon="-2.38124">
        <ele>119.40000152588</ele>
        <time>2022-04-14T09:51:48.000Z</time>
      </trkpt>
      <trkpt lat="47.29501" lon="-2.38123">
        <ele>119</ele>
        <time>2022-04-14T09:51:49.000Z</time>
      </trkpt>
      <trkpt lat="47.29493" lon="-2.38122">
        <ele>118.59999847412</ele>
        <time>2022-04-14T09:51:50.000Z</time>
      </trkpt>
      <trkpt lat="47.29485" lon="-2.38125">
        <ele>118</ele>
        <time>2022-04-14T09:51:51.000Z</time>
      </trkpt>
      <trkpt lat="47.29477" lon="-2.38129">
        <ele>117.59999847412</ele>
        <time>2022-04-14T09:51:52.000Z</time>
      </trkpt>
      <trkpt lat="47.29459" lon="-2.38145">
        <ele>117.59999847412</ele>
        <time>2022-04-14T09:51:55.000Z</time>
      </trkpt>
      <trkpt lat="47.29453" lon="-2.38148">
        <ele>117.19999694824</ele>
        <time>2022-04-14T09:51:56.000Z</time>
      </trkpt>
      <trkpt lat="47.29448" lon="-2.3815">
        <ele>116.80000305176</ele>
        <time>2022-04-14T09:51:57.000Z</time>
      </trkpt>
      <trkpt lat="47.29444" lon="-2.38151">
        <ele>116.40000152588</ele>
        <time>2022-04-14T09:51:58.000Z</time>
      </trkpt>
      <trkpt lat="47.29443" lon="-2.38149">
        <ele>115.40000152588</ele>
        <time>2022-04-14T09:51:59.000Z</time>
      </trkpt>
      <trkpt lat="47.29442" lon="-2.38147">
        <ele>115</ele>
        <time>2022-04-14T09:52:01.000Z</time>
      </trkpt>
      <trkpt lat="47.29442" lon="-2.38146">
        <ele>114.59999847412</ele>
        <time>2022-04-14T09:52:02.000Z</time>
      </trkpt>
      <trkpt lat="47.2944" lon="-2.38144">
        <ele>114.19999694824</ele>
        <time>2022-04-14T09:52:03.000Z</time>
      </trkpt>
      <trkpt lat="47.29437" lon="-2.38141">
        <ele>113.80000305176</ele>
        <time>2022-04-14T09:52:04.000Z</time>
      </trkpt>
      <trkpt lat="47.29435" lon="-2.38137">
        <ele>113.40000152588</ele>
        <time>2022-04-14T09:52:05.000Z</time>
      </trkpt>
      <trkpt lat="47.29431" lon="-2.38126">
        <ele>113.40000152588</ele>
        <time>2022-04-14T09:52:07.000Z</time>
      </trkpt>
      <trkpt lat="47.2943" lon="-2.38119">
        <ele>113.40000152588</ele>
        <time>2022-04-14T09:52:08.000Z</time>
      </trkpt>
      <trkpt lat="47.29417" lon="-2.38082">
        <ele>113.40000152588</ele>
        <time>2022-04-14T09:52:13.000Z</time>
      </trkpt>
      <trkpt lat="47.29398" lon="-2.38026">
        <ele>113.40000152588</ele>
        <time>2022-04-14T09:52:20.000Z</time>
      </trkpt>
      <trkpt lat="47.29382" lon="-2.3798">
        <ele>113.40000152588</ele>
        <time>2022-04-14T09:52:27.000Z</time>
      </trkpt>
      <trkpt lat="47.29369" lon="-2.37942">
        <ele>113.40000152588</ele>
        <time>2022-04-14T09:52:34.000Z</time>
      </trkpt>
      <trkpt lat="47.29364" lon="-2.37925">
        <ele>113.80000305176</ele>
        <time>2022-04-14T09:52:37.000Z</time>
      </trkpt>
      <trkpt lat="47.29361" lon="-2.37919">
        <ele>114.19999694824</ele>
        <time>2022-04-14T09:52:38.000Z</time>
      </trkpt>
      <trkpt lat="47.29358" lon="-2.37913">
        <ele>114.80000305176</ele>
        <time>2022-04-14T09:52:39.000Z</time>
      </trkpt>
      <trkpt lat="47.29356" lon="-2.37906">
        <ele>115.19999694824</ele>
        <time>2022-04-14T09:52:40.000Z</time>
      </trkpt>
      <trkpt lat="47.29353" lon="-2.37899">
        <ele>115.59999847412</ele>
        <time>2022-04-14T09:52:41.000Z</time>
      </trkpt>
      <trkpt lat="47.2934" lon="-2.37857">
        <ele>115.59999847412</ele>
        <time>2022-04-14T09:52:47.000Z</time>
      </trkpt>
      <trkpt lat="47.29338" lon="-2.37849">
        <ele>116.59999847412</ele>
        <time>2022-04-14T09:52:48.000Z</time>
      </trkpt>
      <trkpt lat="47.29336" lon="-2.37842">
        <ele>117</ele>
        <time>2022-04-14T09:52:49.000Z</time>
      </trkpt>
      <trkpt lat="47.29335" lon="-2.37834">
        <ele>117.40000152588</ele>
        <time>2022-04-14T09:52:50.000Z</time>
      </trkpt>
      <trkpt lat="47.29333" lon="-2.37827">
        <ele>117.80000305176</ele>
        <time>2022-04-14T09:52:51.000Z</time>
      </trkpt>
      <trkpt lat="47.29332" lon="-2.37804">
        <ele>117.80000305176</ele>
        <time>2022-04-14T09:52:54.000Z</time>
      </trkpt>
      <trkpt lat="47.29332" lon="-2.37776">
        <ele>117.80000305176</ele>
        <time>2022-04-14T09:52:58.000Z</time>
      </trkpt>
      <trkpt lat="47.29331" lon="-2.37763">
        <ele>118.19999694824</ele>
        <time>2022-04-14T09:53:00.000Z</time>
      </trkpt>
      <trkpt lat="47.29331" lon="-2.37756">
        <ele>118.59999847412</ele>
        <time>2022-04-14T09:53:01.000Z</time>
      </trkpt>
      <trkpt lat="47.2933" lon="-2.37748">
        <ele>119</ele>
        <time>2022-04-14T09:53:02.000Z</time>
      </trkpt>
      <trkpt lat="47.2933" lon="-2.37742">
        <ele>119.40000152588</ele>
        <time>2022-04-14T09:53:03.000Z</time>
      </trkpt>
      <trkpt lat="47.29329" lon="-2.37735">
        <ele>119.80000305176</ele>
        <time>2022-04-14T09:53:04.000Z</time>
      </trkpt>
      <trkpt lat="47.29329" lon="-2.37715">
        <ele>119.80000305176</ele>
        <time>2022-04-14T09:53:07.000Z</time>
      </trkpt>
      <trkpt lat="47.29328" lon="-2.37708">
        <ele>120.40000152588</ele>
        <time>2022-04-14T09:53:08.000Z</time>
      </trkpt>
      <trkpt lat="47.29328" lon="-2.37702">
        <ele>120.80000305176</ele>
        <time>2022-04-14T09:53:09.000Z</time>
      </trkpt>
      <trkpt lat="47.29328" lon="-2.37697">
        <ele>121.19999694824</ele>
        <time>2022-04-14T09:53:10.000Z</time>
      </trkpt>
      <trkpt lat="47.29328" lon="-2.37692">
        <ele>121.59999847412</ele>
        <time>2022-04-14T09:53:11.000Z</time>
      </trkpt>
      <trkpt lat="47.29328" lon="-2.37687">
        <ele>122</ele>
        <time>2022-04-14T09:53:12.000Z</time>
      </trkpt>
      <trkpt lat="47.29329" lon="-2.37683">
        <ele>122</ele>
        <time>2022-04-14T09:53:13.000Z</time>
      </trkpt>
      <trkpt lat="47.29329" lon="-2.37668">
        <ele>122.40000152588</ele>
        <time>2022-04-14T09:53:16.000Z</time>
      </trkpt>
      <trkpt lat="47.29329" lon="-2.37663">
        <ele>122.80000305176</ele>
        <time>2022-04-14T09:53:17.000Z</time>
      </trkpt>
      <trkpt lat="47.29329" lon="-2.37657">
        <ele>123.19999694824</ele>
        <time>2022-04-14T09:53:18.000Z</time>
      </trkpt>
      <trkpt lat="47.29328" lon="-2.37651">
        <ele>123.59999847412</ele>
        <time>2022-04-14T09:53:19.000Z</time>
      </trkpt>
      <trkpt lat="47.29326" lon="-2.37645">
        <ele>124</ele>
        <time>2022-04-14T09:53:20.000Z</time>
      </trkpt>
      <trkpt lat="47.29318" lon="-2.3762">
        <ele>124</ele>
        <time>2022-04-14T09:53:24.000Z</time>
      </trkpt>
      <trkpt lat="47.29315" lon="-2.37614">
        <ele>124</ele>
        <time>2022-04-14T09:53:25.000Z</time>
      </trkpt>
      <trkpt lat="47.29302" lon="-2.3759">
        <ele>124</ele>
        <time>2022-04-14T09:53:29.000Z</time>
      </trkpt>
      <trkpt lat="47.29276" lon="-2.37548">
        <ele>124</ele>
        <time>2022-04-14T09:53:35.000Z</time>
      </trkpt>
      <trkpt lat="47.29257" lon="-2.37515">
        <ele>124</ele>
        <time>2022-04-14T09:53:40.000Z</time>
      </trkpt>
      <trkpt lat="47.29252" lon="-2.37511">
        <ele>124</ele>
        <time>2022-04-14T09:53:41.000Z</time>
      </trkpt>
      <trkpt lat="47.29245" lon="-2.37499">
        <ele>124</ele>
        <time>2022-04-14T09:53:43.000Z</time>
      </trkpt>
      <trkpt lat="47.29238" lon="-2.37488">
        <ele>124</ele>
        <time>2022-04-14T09:53:45.000Z</time>
      </trkpt>
      <trkpt lat="47.29234" lon="-2.37482">
        <ele>124.40000152588</ele>
        <time>2022-04-14T09:53:46.000Z</time>
      </trkpt>
      <trkpt lat="47.29231" lon="-2.37476">
        <ele>125</ele>
        <time>2022-04-14T09:53:47.000Z</time>
      </trkpt>
      <trkpt lat="47.29227" lon="-2.37471">
        <ele>125.40000152588</ele>
        <time>2022-04-14T09:53:48.000Z</time>
      </trkpt>
      <trkpt lat="47.29223" lon="-2.37466">
        <ele>125.80000305176</ele>
        <time>2022-04-14T09:53:49.000Z</time>
      </trkpt>
      <trkpt lat="47.2922" lon="-2.37459">
        <ele>126.19999694824</ele>
        <time>2022-04-14T09:53:50.000Z</time>
      </trkpt>
      <trkpt lat="47.29216" lon="-2.37454">
        <ele>126.19999694824</ele>
        <time>2022-04-14T09:53:51.000Z</time>
      </trkpt>
      <trkpt lat="47.29202" lon="-2.37431">
        <ele>126.19999694824</ele>
        <time>2022-04-14T09:53:55.000Z</time>
      </trkpt>
      <trkpt lat="47.29196" lon="-2.3742">
        <ele>126.59999847412</ele>
        <time>2022-04-14T09:53:57.000Z</time>
      </trkpt>
      <trkpt lat="47.29193" lon="-2.37415">
        <ele>127</ele>
        <time>2022-04-14T09:53:58.000Z</time>
      </trkpt>
      <trkpt lat="47.29189" lon="-2.37409">
        <ele>127.40000152588</ele>
        <time>2022-04-14T09:53:59.000Z</time>
      </trkpt>
      <trkpt lat="47.29185" lon="-2.37403">
        <ele>127.80000305176</ele>
        <time>2022-04-14T09:54:00.000Z</time>
      </trkpt>
      <trkpt lat="47.29182" lon="-2.37398">
        <ele>128.19999694824</ele>
        <time>2022-04-14T09:54:01.000Z</time>
      </trkpt>
      <trkpt lat="47.29178" lon="-2.37393">
        <ele>128.19999694824</ele>
        <time>2022-04-14T09:54:02.000Z</time>
      </trkpt>
      <trkpt lat="47.2916" lon="-2.37358">
        <ele>128.19999694824</ele>
        <time>2022-04-14T09:54:08.000Z</time>
      </trkpt>
      <trkpt lat="47.29142" lon="-2.37321">
        <ele>128.60000610352</ele>
        <time>2022-04-14T09:54:14.000Z</time>
      </trkpt>
      <trkpt lat="47.29138" lon="-2.37316">
        <ele>129</ele>
        <time>2022-04-14T09:54:15.000Z</time>
      </trkpt>
      <trkpt lat="47.29134" lon="-2.37311">
        <ele>129.60000610352</ele>
        <time>2022-04-14T09:54:16.000Z</time>
      </trkpt>
      <trkpt lat="47.2913" lon="-2.37306">
        <ele>130</ele>
        <time>2022-04-14T09:54:17.000Z</time>
      </trkpt>
      <trkpt lat="47.29125" lon="-2.37301">
        <ele>130.39999389648</ele>
        <time>2022-04-14T09:54:18.000Z</time>
      </trkpt>
      <trkpt lat="47.29121" lon="-2.37296">
        <ele>130.39999389648</ele>
        <time>2022-04-14T09:54:19.000Z</time>
      </trkpt>
      <trkpt lat="47.29088" lon="-2.37262">
        <ele>130.39999389648</ele>
        <time>2022-04-14T09:54:26.000Z</time>
      </trkpt>
      <trkpt lat="47.29059" lon="-2.37232">
        <ele>130.39999389648</ele>
        <time>2022-04-14T09:54:32.000Z</time>
      </trkpt>
      <trkpt lat="47.29025" lon="-2.37196">
        <ele>129.80000305176</ele>
        <time>2022-04-14T09:54:39.000Z</time>
      </trkpt>
      <trkpt lat="47.29019" lon="-2.37191">
        <ele>129.39999389648</ele>
        <time>2022-04-14T09:54:40.000Z</time>
      </trkpt>
      <trkpt lat="47.29014" lon="-2.37185">
        <ele>129</ele>
        <time>2022-04-14T09:54:41.000Z</time>
      </trkpt>
      <trkpt lat="47.29009" lon="-2.37179">
        <ele>128.60000610352</ele>
        <time>2022-04-14T09:54:42.000Z</time>
      </trkpt>
      <trkpt lat="47.29006" lon="-2.37174">
        <ele>128</ele>
        <time>2022-04-14T09:54:43.000Z</time>
      </trkpt>
      <trkpt lat="47.29003" lon="-2.37172">
        <ele>127.59999847412</ele>
        <time>2022-04-14T09:54:44.000Z</time>
      </trkpt>
      <trkpt lat="47.29" lon="-2.3717">
        <ele>127.19999694824</ele>
        <time>2022-04-14T09:54:45.000Z</time>
      </trkpt>
      <trkpt lat="47.28997" lon="-2.3717">
        <ele>126.80000305176</ele>
        <time>2022-04-14T09:54:46.000Z</time>
      </trkpt>
      <trkpt lat="47.28992" lon="-2.37171">
        <ele>126.40000152588</ele>
        <time>2022-04-14T09:54:47.000Z</time>
      </trkpt>
      <trkpt lat="47.28989" lon="-2.37174">
        <ele>126</ele>
        <time>2022-04-14T09:54:48.000Z</time>
      </trkpt>
      <trkpt lat="47.28986" lon="-2.37176">
        <ele>125.59999847412</ele>
        <time>2022-04-14T09:54:49.000Z</time>
      </trkpt>
      <trkpt lat="47.28984" lon="-2.37178">
        <ele>125</ele>
        <time>2022-04-14T09:54:50.000Z</time>
      </trkpt>
      <trkpt lat="47.28982" lon="-2.3718">
        <ele>124.59999847412</ele>
        <time>2022-04-14T09:54:51.000Z</time>
      </trkpt>
      <trkpt lat="47.28981" lon="-2.37182">
        <ele>123.59999847412</ele>
        <time>2022-04-14T09:54:52.000Z</time>
      </trkpt>
      <trkpt lat="47.28979" lon="-2.37183">
        <ele>123.59999847412</ele>
        <time>2022-04-14T09:54:55.000Z</time>
      </trkpt>
      <trkpt lat="47.28977" lon="-2.37184">
        <ele>123.59999847412</ele>
        <time>2022-04-14T09:55:39.000Z</time>
      </trkpt>
      <trkpt lat="47.28963" lon="-2.372">
        <ele>123.59999847412</ele>
        <time>2022-04-14T09:55:45.000Z</time>
      </trkpt>
      <trkpt lat="47.28959" lon="-2.37202">
        <ele>123.19999694824</ele>
        <time>2022-04-14T09:55:46.000Z</time>
      </trkpt>
      <trkpt lat="47.28954" lon="-2.37203">
        <ele>122.80000305176</ele>
        <time>2022-04-14T09:55:47.000Z</time>
      </trkpt>
      <trkpt lat="47.28949" lon="-2.37205">
        <ele>122.19999694824</ele>
        <time>2022-04-14T09:55:48.000Z</time>
      </trkpt>
      <trkpt lat="47.28945" lon="-2.37207">
        <ele>121.80000305176</ele>
        <time>2022-04-14T09:55:49.000Z</time>
      </trkpt>
      <trkpt lat="47.2894" lon="-2.37207">
        <ele>121.40000152588</ele>
        <time>2022-04-14T09:55:50.000Z</time>
      </trkpt>
      <trkpt lat="47.28931" lon="-2.37211">
        <ele>121.40000152588</ele>
        <time>2022-04-14T09:55:52.000Z</time>
      </trkpt>
      <trkpt lat="47.28922" lon="-2.37214">
        <ele>121.40000152588</ele>
        <time>2022-04-14T09:55:54.000Z</time>
      </trkpt>
      <trkpt lat="47.28908" lon="-2.37221">
        <ele>121</ele>
        <time>2022-04-14T09:55:57.000Z</time>
      </trkpt>
      <trkpt lat="47.28903" lon="-2.37223">
        <ele>120.59999847412</ele>
        <time>2022-04-14T09:55:58.000Z</time>
      </trkpt>
      <trkpt lat="47.28898" lon="-2.37226">
        <ele>120.19999694824</ele>
        <time>2022-04-14T09:55:59.000Z</time>
      </trkpt>
      <trkpt lat="47.28893" lon="-2.37229">
        <ele>119.59999847412</ele>
        <time>2022-04-14T09:56:00.000Z</time>
      </trkpt>
      <trkpt lat="47.28887" lon="-2.37232">
        <ele>119.19999694824</ele>
        <time>2022-04-14T09:56:01.000Z</time>
      </trkpt>
      <trkpt lat="47.28881" lon="-2.37233">
        <ele>119.19999694824</ele>
        <time>2022-04-14T09:56:02.000Z</time>
      </trkpt>
      <trkpt lat="47.28862" lon="-2.37242">
        <ele>118.80000305176</ele>
        <time>2022-04-14T09:56:06.000Z</time>
      </trkpt>
      <trkpt lat="47.28859" lon="-2.37242">
        <ele>118.40000152588</ele>
        <time>2022-04-14T09:56:07.000Z</time>
      </trkpt>
      <trkpt lat="47.28855" lon="-2.37243">
        <ele>118</ele>
        <time>2022-04-14T09:56:08.000Z</time>
      </trkpt>
      <trkpt lat="47.28851" lon="-2.37244">
        <ele>117.40000152588</ele>
        <time>2022-04-14T09:56:09.000Z</time>
      </trkpt>
      <trkpt lat="47.28847" lon="-2.37242">
        <ele>117</ele>
        <time>2022-04-14T09:56:10.000Z</time>
      </trkpt>
      <trkpt lat="47.28844" lon="-2.3724">
        <ele>117</ele>
        <time>2022-04-14T09:56:11.000Z</time>
      </trkpt>
      <trkpt lat="47.28838" lon="-2.37219">
        <ele>117</ele>
        <time>2022-04-14T09:56:15.000Z</time>
      </trkpt>
      <trkpt lat="47.28837" lon="-2.37203">
        <ele>117</ele>
        <time>2022-04-14T09:56:18.000Z</time>
      </trkpt>
      <trkpt lat="47.28836" lon="-2.37196">
        <ele>117</ele>
        <time>2022-04-14T09:56:19.000Z</time>
      </trkpt>
      <trkpt lat="47.28831" lon="-2.37163">
        <ele>117</ele>
        <time>2022-04-14T09:56:24.000Z</time>
      </trkpt>
      <trkpt lat="47.28828" lon="-2.37137">
        <ele>117</ele>
        <time>2022-04-14T09:56:28.000Z</time>
      </trkpt>
      <trkpt lat="47.28828" lon="-2.37124">
        <ele>117</ele>
        <time>2022-04-14T09:56:30.000Z</time>
      </trkpt>
      <trkpt lat="47.28828" lon="-2.37109">
        <ele>117</ele>
        <time>2022-04-14T09:56:34.000Z</time>
      </trkpt>
      <trkpt lat="47.28826" lon="-2.37109">
        <ele>117.40000152588</ele>
        <time>2022-04-14T09:56:37.000Z</time>
      </trkpt>
      <trkpt lat="47.28826" lon="-2.37109">
        <ele>118</ele>
        <time>2022-04-14T09:56:38.000Z</time>
      </trkpt>
      <trkpt lat="47.28824" lon="-2.37111">
        <ele>118.40000152588</ele>
        <time>2022-04-14T09:56:39.000Z</time>
      </trkpt>
      <trkpt lat="47.28823" lon="-2.37112">
        <ele>118.80000305176</ele>
        <time>2022-04-14T09:56:40.000Z</time>
      </trkpt>
      <trkpt lat="47.28821" lon="-2.37113">
        <ele>119.19999694824</ele>
        <time>2022-04-14T09:56:41.000Z</time>
      </trkpt>
      <trkpt lat="47.28816" lon="-2.37113">
        <ele>119.59999847412</ele>
        <time>2022-04-14T09:56:43.000Z</time>
      </trkpt>
      <trkpt lat="47.28813" lon="-2.37113">
        <ele>120</ele>
        <time>2022-04-14T09:56:44.000Z</time>
      </trkpt>
      <trkpt lat="47.28811" lon="-2.37114">
        <ele>120.59999847412</ele>
        <time>2022-04-14T09:56:45.000Z</time>
      </trkpt>
      <trkpt lat="47.28809" lon="-2.37114">
        <ele>121</ele>
        <time>2022-04-14T09:56:46.000Z</time>
      </trkpt>
      <trkpt lat="47.28807" lon="-2.37114">
        <ele>121.40000152588</ele>
        <time>2022-04-14T09:56:47.000Z</time>
      </trkpt>
      <trkpt lat="47.28803" lon="-2.37113">
        <ele>121.80000305176</ele>
        <time>2022-04-14T09:56:49.000Z</time>
      </trkpt>
      <trkpt lat="47.28802" lon="-2.37111">
        <ele>122.19999694824</ele>
        <time>2022-04-14T09:56:50.000Z</time>
      </trkpt>
      <trkpt lat="47.28801" lon="-2.37109">
        <ele>122.80000305176</ele>
        <time>2022-04-14T09:56:51.000Z</time>
      </trkpt>
      <trkpt lat="47.288" lon="-2.37106">
        <ele>123.19999694824</ele>
        <time>2022-04-14T09:56:52.000Z</time>
      </trkpt>
      <trkpt lat="47.28799" lon="-2.37103">
        <ele>123.59999847412</ele>
        <time>2022-04-14T09:56:53.000Z</time>
      </trkpt>
      <trkpt lat="47.28799" lon="-2.371">
        <ele>123.59999847412</ele>
        <time>2022-04-14T09:56:54.000Z</time>
      </trkpt>
      <trkpt lat="47.28793" lon="-2.3708">
        <ele>124</ele>
        <time>2022-04-14T09:57:00.000Z</time>
      </trkpt>
      <trkpt lat="47.28793" lon="-2.37077">
        <ele>124.40000152588</ele>
        <time>2022-04-14T09:57:01.000Z</time>
      </trkpt>
      <trkpt lat="47.28792" lon="-2.37075">
        <ele>125</ele>
        <time>2022-04-14T09:57:02.000Z</time>
      </trkpt>
      <trkpt lat="47.28792" lon="-2.37073">
        <ele>125.40000152588</ele>
        <time>2022-04-14T09:57:03.000Z</time>
      </trkpt>
      <trkpt lat="47.28791" lon="-2.37071">
        <ele>125.80000305176</ele>
        <time>2022-04-14T09:57:04.000Z</time>
      </trkpt>
      <trkpt lat="47.28785" lon="-2.37056">
        <ele>126.19999694824</ele>
        <time>2022-04-14T09:57:08.000Z</time>
      </trkpt>
      <trkpt lat="47.28785" lon="-2.37052">
        <ele>126.59999847412</ele>
        <time>2022-04-14T09:57:09.000Z</time>
      </trkpt>
      <trkpt lat="47.28783" lon="-2.37049">
        <ele>127</ele>
        <time>2022-04-14T09:57:10.000Z</time>
      </trkpt>
      <trkpt lat="47.28782" lon="-2.37045">
        <ele>127.59999847412</ele>
        <time>2022-04-14T09:57:11.000Z</time>
      </trkpt>
      <trkpt lat="47.28781" lon="-2.37041">
        <ele>128</ele>
        <time>2022-04-14T09:57:12.000Z</time>
      </trkpt>
      <trkpt lat="47.28777" lon="-2.37032">
        <ele>128</ele>
        <time>2022-04-14T09:57:15.000Z</time>
      </trkpt>
      <trkpt lat="47.28769" lon="-2.37009">
        <ele>128.39999389648</ele>
        <time>2022-04-14T09:57:20.000Z</time>
      </trkpt>
      <trkpt lat="47.28766" lon="-2.37005">
        <ele>128.80000305176</ele>
        <time>2022-04-14T09:57:21.000Z</time>
      </trkpt>
      <trkpt lat="47.28764" lon="-2.37">
        <ele>129.19999694824</ele>
        <time>2022-04-14T09:57:22.000Z</time>
      </trkpt>
      <trkpt lat="47.28762" lon="-2.36996">
        <ele>129.60000610352</ele>
        <time>2022-04-14T09:57:23.000Z</time>
      </trkpt>
      <trkpt lat="47.2876" lon="-2.36991">
        <ele>130.19999694824</ele>
        <time>2022-04-14T09:57:24.000Z</time>
      </trkpt>
      <trkpt lat="47.28758" lon="-2.36985">
        <ele>130.19999694824</ele>
        <time>2022-04-14T09:57:25.000Z</time>
      </trkpt>
      <trkpt lat="47.28751" lon="-2.36958">
        <ele>129.60000610352</ele>
        <time>2022-04-14T09:57:30.000Z</time>
      </trkpt>
      <trkpt lat="47.2875" lon="-2.36951">
        <ele>129.19999694824</ele>
        <time>2022-04-14T09:57:31.000Z</time>
      </trkpt>
      <trkpt lat="47.28748" lon="-2.36944">
        <ele>128.60000610352</ele>
        <time>2022-04-14T09:57:32.000Z</time>
      </trkpt>
      <trkpt lat="47.28745" lon="-2.36939">
        <ele>128.19999694824</ele>
        <time>2022-04-14T09:57:33.000Z</time>
      </trkpt>
      <trkpt lat="47.28743" lon="-2.36934">
        <ele>127.59999847412</ele>
        <time>2022-04-14T09:57:34.000Z</time>
      </trkpt>
      <trkpt lat="47.2874" lon="-2.3693">
        <ele>127.19999694824</ele>
        <time>2022-04-14T09:57:35.000Z</time>
      </trkpt>
      <trkpt lat="47.28738" lon="-2.36927">
        <ele>126.59999847412</ele>
        <time>2022-04-14T09:57:36.000Z</time>
      </trkpt>
      <trkpt lat="47.28735" lon="-2.36926">
        <ele>126</ele>
        <time>2022-04-14T09:57:37.000Z</time>
      </trkpt>
      <trkpt lat="47.28732" lon="-2.36923">
        <ele>125.59999847412</ele>
        <time>2022-04-14T09:57:38.000Z</time>
      </trkpt>
      <trkpt lat="47.28724" lon="-2.36912">
        <ele>125.59999847412</ele>
        <time>2022-04-14T09:57:41.000Z</time>
      </trkpt>
      <trkpt lat="47.28721" lon="-2.36904">
        <ele>125.59999847412</ele>
        <time>2022-04-14T09:57:43.000Z</time>
      </trkpt>
      <trkpt lat="47.28712" lon="-2.36884">
        <ele>125.59999847412</ele>
        <time>2022-04-14T09:57:47.000Z</time>
      </trkpt>
      <trkpt lat="47.28703" lon="-2.36872">
        <ele>126</ele>
        <time>2022-04-14T09:57:49.000Z</time>
      </trkpt>
      <trkpt lat="47.28698" lon="-2.36865">
        <ele>126.40000152588</ele>
        <time>2022-04-14T09:57:50.000Z</time>
      </trkpt>
      <trkpt lat="47.28694" lon="-2.3686">
        <ele>126.80000305176</ele>
        <time>2022-04-14T09:57:51.000Z</time>
      </trkpt>
      <trkpt lat="47.28691" lon="-2.36854">
        <ele>127.19999694824</ele>
        <time>2022-04-14T09:57:52.000Z</time>
      </trkpt>
      <trkpt lat="47.28689" lon="-2.36849">
        <ele>127.59999847412</ele>
        <time>2022-04-14T09:57:53.000Z</time>
      </trkpt>
      <trkpt lat="47.28686" lon="-2.36843">
        <ele>127.59999847412</ele>
        <time>2022-04-14T09:57:54.000Z</time>
      </trkpt>
      <trkpt lat="47.28672" lon="-2.36814">
        <ele>127.59999847412</ele>
        <time>2022-04-14T09:58:00.000Z</time>
      </trkpt>
      <trkpt lat="47.28666" lon="-2.36802">
        <ele>128</ele>
        <time>2022-04-14T09:58:03.000Z</time>
      </trkpt>
      <trkpt lat="47.28664" lon="-2.36799">
        <ele>128.39999389648</ele>
        <time>2022-04-14T09:58:04.000Z</time>
      </trkpt>
      <trkpt lat="47.28663" lon="-2.36797">
        <ele>128.80000305176</ele>
        <time>2022-04-14T09:58:05.000Z</time>
      </trkpt>
      <trkpt lat="47.2866" lon="-2.36796">
        <ele>129.19999694824</ele>
        <time>2022-04-14T09:58:06.000Z</time>
      </trkpt>
      <trkpt lat="47.28656" lon="-2.36796">
        <ele>129.60000610352</ele>
        <time>2022-04-14T09:58:07.000Z</time>
      </trkpt>
      <trkpt lat="47.28648" lon="-2.36801">
        <ele>129.60000610352</ele>
        <time>2022-04-14T09:58:09.000Z</time>
      </trkpt>
      <trkpt lat="47.28644" lon="-2.36804">
        <ele>129.60000610352</ele>
        <time>2022-04-14T09:58:10.000Z</time>
      </trkpt>
      <trkpt lat="47.28632" lon="-2.36816">
        <ele>129.60000610352</ele>
        <time>2022-04-14T09:58:13.000Z</time>
      </trkpt>
      <trkpt lat="47.28627" lon="-2.36821">
        <ele>129.60000610352</ele>
        <time>2022-04-14T09:58:14.000Z</time>
      </trkpt>
      <trkpt lat="47.28615" lon="-2.36835">
        <ele>129.19999694824</ele>
        <time>2022-04-14T09:58:17.000Z</time>
      </trkpt>
      <trkpt lat="47.2861" lon="-2.36839">
        <ele>128.80000305176</ele>
        <time>2022-04-14T09:58:18.000Z</time>
      </trkpt>
      <trkpt lat="47.28605" lon="-2.36842">
        <ele>128.39999389648</ele>
        <time>2022-04-14T09:58:19.000Z</time>
      </trkpt>
      <trkpt lat="47.28601" lon="-2.36843">
        <ele>128</ele>
        <time>2022-04-14T09:58:20.000Z</time>
      </trkpt>
      <trkpt lat="47.28598" lon="-2.36842">
        <ele>127.59999847412</ele>
        <time>2022-04-14T09:58:21.000Z</time>
      </trkpt>
      <trkpt lat="47.28596" lon="-2.3684">
        <ele>127.59999847412</ele>
        <time>2022-04-14T09:58:22.000Z</time>
      </trkpt>
      <trkpt lat="47.28593" lon="-2.36835">
        <ele>127.59999847412</ele>
        <time>2022-04-14T09:58:24.000Z</time>
      </trkpt>
      <trkpt lat="47.28589" lon="-2.36824">
        <ele>127.59999847412</ele>
        <time>2022-04-14T09:58:27.000Z</time>
      </trkpt>
      <trkpt lat="47.28582" lon="-2.36812">
        <ele>127.59999847412</ele>
        <time>2022-04-14T09:58:32.000Z</time>
      </trkpt>
      <trkpt lat="47.28579" lon="-2.36801">
        <ele>127.59999847412</ele>
        <time>2022-04-14T09:58:37.000Z</time>
      </trkpt>
      <trkpt lat="47.28568" lon="-2.36784">
        <ele>127.59999847412</ele>
        <time>2022-04-14T09:58:43.000Z</time>
      </trkpt>
      <trkpt lat="47.28555" lon="-2.36756">
        <ele>127.59999847412</ele>
        <time>2022-04-14T09:58:49.000Z</time>
      </trkpt>
      <trkpt lat="47.28552" lon="-2.3675">
        <ele>127.59999847412</ele>
        <time>2022-04-14T09:58:51.000Z</time>
      </trkpt>
      <trkpt lat="47.28552" lon="-2.36745">
        <ele>127.59999847412</ele>
        <time>2022-04-14T09:58:53.000Z</time>
      </trkpt>
      <trkpt lat="47.28548" lon="-2.36734">
        <ele>127.59999847412</ele>
        <time>2022-04-14T09:58:57.000Z</time>
      </trkpt>
      <trkpt lat="47.28544" lon="-2.36727">
        <ele>128.39999389648</ele>
        <time>2022-04-14T09:58:59.000Z</time>
      </trkpt>
      <trkpt lat="47.28543" lon="-2.36723">
        <ele>128.80000305176</ele>
        <time>2022-04-14T09:59:00.000Z</time>
      </trkpt>
      <trkpt lat="47.28541" lon="-2.3672">
        <ele>129.19999694824</ele>
        <time>2022-04-14T09:59:01.000Z</time>
      </trkpt>
      <trkpt lat="47.28539" lon="-2.36716">
        <ele>129.60000610352</ele>
        <time>2022-04-14T09:59:02.000Z</time>
      </trkpt>
      <trkpt lat="47.28538" lon="-2.36713">
        <ele>129.60000610352</ele>
        <time>2022-04-14T09:59:03.000Z</time>
      </trkpt>
      <trkpt lat="47.28528" lon="-2.36703">
        <ele>129.60000610352</ele>
        <time>2022-04-14T09:59:07.000Z</time>
      </trkpt>
      <trkpt lat="47.28521" lon="-2.36694">
        <ele>130</ele>
        <time>2022-04-14T09:59:10.000Z</time>
      </trkpt>
      <trkpt lat="47.2852" lon="-2.36691">
        <ele>130.39999389648</ele>
        <time>2022-04-14T09:59:11.000Z</time>
      </trkpt>
      <trkpt lat="47.28519" lon="-2.36687">
        <ele>131</ele>
        <time>2022-04-14T09:59:12.000Z</time>
      </trkpt>
      <trkpt lat="47.28519" lon="-2.36683">
        <ele>131.39999389648</ele>
        <time>2022-04-14T09:59:13.000Z</time>
      </trkpt>
      <trkpt lat="47.2852" lon="-2.36681">
        <ele>131.80000305176</ele>
        <time>2022-04-14T09:59:14.000Z</time>
      </trkpt>
      <trkpt lat="47.28522" lon="-2.36671">
        <ele>131.80000305176</ele>
        <time>2022-04-14T09:59:18.000Z</time>
      </trkpt>
      <trkpt lat="47.28513" lon="-2.36665">
        <ele>131.80000305176</ele>
        <time>2022-04-14T09:59:21.000Z</time>
      </trkpt>
      <trkpt lat="47.28509" lon="-2.36665">
        <ele>131.80000305176</ele>
        <time>2022-04-14T09:59:22.000Z</time>
      </trkpt>
      <trkpt lat="47.28492" lon="-2.36655">
        <ele>131.80000305176</ele>
        <time>2022-04-14T09:59:27.000Z</time>
      </trkpt>
      <trkpt lat="47.28482" lon="-2.36622">
        <ele>131.80000305176</ele>
        <time>2022-04-14T09:59:32.000Z</time>
      </trkpt>
      <trkpt lat="47.2848" lon="-2.36616">
        <ele>132.19999694824</ele>
        <time>2022-04-14T09:59:33.000Z</time>
      </trkpt>
      <trkpt lat="47.28478" lon="-2.36609">
        <ele>132.60000610352</ele>
        <time>2022-04-14T09:59:34.000Z</time>
      </trkpt>
      <trkpt lat="47.28476" lon="-2.36602">
        <ele>133</ele>
        <time>2022-04-14T09:59:35.000Z</time>
      </trkpt>
      <trkpt lat="47.28475" lon="-2.36596">
        <ele>133.39999389648</ele>
        <time>2022-04-14T09:59:36.000Z</time>
      </trkpt>
      <trkpt lat="47.28474" lon="-2.36589">
        <ele>133.80000305176</ele>
        <time>2022-04-14T09:59:37.000Z</time>
      </trkpt>
      <trkpt lat="47.28471" lon="-2.36577">
        <ele>133.80000305176</ele>
        <time>2022-04-14T09:59:39.000Z</time>
      </trkpt>
      <trkpt lat="47.28474" lon="-2.36558">
        <ele>133.80000305176</ele>
        <time>2022-04-14T09:59:42.000Z</time>
      </trkpt>
      <trkpt lat="47.28484" lon="-2.36544">
        <ele>133.80000305176</ele>
        <time>2022-04-14T09:59:45.000Z</time>
      </trkpt>
      <trkpt lat="47.28492" lon="-2.36536">
        <ele>133.80000305176</ele>
        <time>2022-04-14T09:59:47.000Z</time>
      </trkpt>
      <trkpt lat="47.28509" lon="-2.36516">
        <ele>133.80000305176</ele>
        <time>2022-04-14T09:59:52.000Z</time>
      </trkpt>
      <trkpt lat="47.28521" lon="-2.36502">
        <ele>133.80000305176</ele>
        <time>2022-04-14T09:59:56.000Z</time>
      </trkpt>
      <trkpt lat="47.28521" lon="-2.36497">
        <ele>134.39999389648</ele>
        <time>2022-04-14T09:59:57.000Z</time>
      </trkpt>
      <trkpt lat="47.2852" lon="-2.36493">
        <ele>134.80000305176</ele>
        <time>2022-04-14T09:59:58.000Z</time>
      </trkpt>
      <trkpt lat="47.2852" lon="-2.36488">
        <ele>135.19999694824</ele>
        <time>2022-04-14T09:59:59.000Z</time>
      </trkpt>
      <trkpt lat="47.2852" lon="-2.36483">
        <ele>135.80000305176</ele>
        <time>2022-04-14T10:00:00.000Z</time>
      </trkpt>
      <trkpt lat="47.28519" lon="-2.36479">
        <ele>136.19999694824</ele>
        <time>2022-04-14T10:00:01.000Z</time>
      </trkpt>
      <trkpt lat="47.28513" lon="-2.36464">
        <ele>136.19999694824</ele>
        <time>2022-04-14T10:00:04.000Z</time>
      </trkpt>
      <trkpt lat="47.28511" lon="-2.36459">
        <ele>136.19999694824</ele>
        <time>2022-04-14T10:00:05.000Z</time>
      </trkpt>
      <trkpt lat="47.28505" lon="-2.36451">
        <ele>136.19999694824</ele>
        <time>2022-04-14T10:00:07.000Z</time>
      </trkpt>
      <trkpt lat="47.28497" lon="-2.36445">
        <ele>136.19999694824</ele>
        <time>2022-04-14T10:00:09.000Z</time>
      </trkpt>
      <trkpt lat="47.28488" lon="-2.36438">
        <ele>136.19999694824</ele>
        <time>2022-04-14T10:00:11.000Z</time>
      </trkpt>
      <trkpt lat="47.28479" lon="-2.36429">
        <ele>136.19999694824</ele>
        <time>2022-04-14T10:00:14.000Z</time>
      </trkpt>
      <trkpt lat="47.28475" lon="-2.36423">
        <ele>136.60000610352</ele>
        <time>2022-04-14T10:00:16.000Z</time>
      </trkpt>
      <trkpt lat="47.28473" lon="-2.3642">
        <ele>137</ele>
        <time>2022-04-14T10:00:17.000Z</time>
      </trkpt>
      <trkpt lat="47.28472" lon="-2.36416">
        <ele>137.60000610352</ele>
        <time>2022-04-14T10:00:18.000Z</time>
      </trkpt>
      <trkpt lat="47.28469" lon="-2.36412">
        <ele>138</ele>
        <time>2022-04-14T10:00:19.000Z</time>
      </trkpt>
      <trkpt lat="47.28465" lon="-2.36408">
        <ele>138.39999389648</ele>
        <time>2022-04-14T10:00:20.000Z</time>
      </trkpt>
      <trkpt lat="47.28454" lon="-2.36394">
        <ele>138.39999389648</ele>
        <time>2022-04-14T10:00:23.000Z</time>
      </trkpt>
      <trkpt lat="47.2845" lon="-2.3639">
        <ele>138.39999389648</ele>
        <time>2022-04-14T10:00:24.000Z</time>
      </trkpt>
      <trkpt lat="47.28437" lon="-2.36378">
        <ele>138.39999389648</ele>
        <time>2022-04-14T10:00:27.000Z</time>
      </trkpt>
      <trkpt lat="47.28433" lon="-2.36372">
        <ele>138</ele>
        <time>2022-04-14T10:00:28.000Z</time>
      </trkpt>
      <trkpt lat="47.28429" lon="-2.36365">
        <ele>137.60000610352</ele>
        <time>2022-04-14T10:00:29.000Z</time>
      </trkpt>
      <trkpt lat="47.28425" lon="-2.36359">
        <ele>137.19999694824</ele>
        <time>2022-04-14T10:00:30.000Z</time>
      </trkpt>
      <trkpt lat="47.28421" lon="-2.36354">
        <ele>136.80000305176</ele>
        <time>2022-04-14T10:00:31.000Z</time>
      </trkpt>
      <trkpt lat="47.28417" lon="-2.3635">
        <ele>136.39999389648</ele>
        <time>2022-04-14T10:00:32.000Z</time>
      </trkpt>
      <trkpt lat="47.28413" lon="-2.36345">
        <ele>136.39999389648</ele>
        <time>2022-04-14T10:00:33.000Z</time>
      </trkpt>
      <trkpt lat="47.28409" lon="-2.36341">
        <ele>136.39999389648</ele>
        <time>2022-04-14T10:00:34.000Z</time>
      </trkpt>
      <trkpt lat="47.284" lon="-2.36331">
        <ele>136.39999389648</ele>
        <time>2022-04-14T10:00:36.000Z</time>
      </trkpt>
      <trkpt lat="47.28391" lon="-2.36322">
        <ele>136.39999389648</ele>
        <time>2022-04-14T10:00:38.000Z</time>
      </trkpt>
      <trkpt lat="47.28386" lon="-2.36321">
        <ele>136</ele>
        <time>2022-04-14T10:00:39.000Z</time>
      </trkpt>
      <trkpt lat="47.28381" lon="-2.36319">
        <ele>135.60000610352</ele>
        <time>2022-04-14T10:00:40.000Z</time>
      </trkpt>
      <trkpt lat="47.28376" lon="-2.36316">
        <ele>135</ele>
        <time>2022-04-14T10:00:41.000Z</time>
      </trkpt>
      <trkpt lat="47.28373" lon="-2.3631">
        <ele>134.60000610352</ele>
        <time>2022-04-14T10:00:42.000Z</time>
      </trkpt>
      <trkpt lat="47.2837" lon="-2.36304">
        <ele>134.19999694824</ele>
        <time>2022-04-14T10:00:43.000Z</time>
      </trkpt>
      <trkpt lat="47.28368" lon="-2.36292">
        <ele>134.19999694824</ele>
        <time>2022-04-14T10:00:45.000Z</time>
      </trkpt>
      <trkpt lat="47.28368" lon="-2.36279">
        <ele>133.80000305176</ele>
        <time>2022-04-14T10:00:47.000Z</time>
      </trkpt>
      <trkpt lat="47.28369" lon="-2.36274">
        <ele>133.39999389648</ele>
        <time>2022-04-14T10:00:48.000Z</time>
      </trkpt>
      <trkpt lat="47.2837" lon="-2.36269">
        <ele>133</ele>
        <time>2022-04-14T10:00:49.000Z</time>
      </trkpt>
      <trkpt lat="47.28372" lon="-2.36265">
        <ele>132.60000610352</ele>
        <time>2022-04-14T10:00:50.000Z</time>
      </trkpt>
      <trkpt lat="47.28374" lon="-2.36262">
        <ele>132.19999694824</ele>
        <time>2022-04-14T10:00:51.000Z</time>
      </trkpt>
      <trkpt lat="47.28376" lon="-2.36259">
        <ele>132.19999694824</ele>
        <time>2022-04-14T10:00:52.000Z</time>
      </trkpt>
      <trkpt lat="47.28386" lon="-2.36247">
        <ele>132.19999694824</ele>
        <time>2022-04-14T10:00:56.000Z</time>
      </trkpt>
      <trkpt lat="47.28387" lon="-2.36244">
        <ele>132.60000610352</ele>
        <time>2022-04-14T10:00:57.000Z</time>
      </trkpt>
      <trkpt lat="47.28389" lon="-2.36241">
        <ele>133.19999694824</ele>
        <time>2022-04-14T10:00:58.000Z</time>
      </trkpt>
      <trkpt lat="47.2839" lon="-2.36237">
        <ele>133.60000610352</ele>
        <time>2022-04-14T10:00:59.000Z</time>
      </trkpt>
      <trkpt lat="47.28392" lon="-2.36234">
        <ele>134</ele>
        <time>2022-04-14T10:01:00.000Z</time>
      </trkpt>
      <trkpt lat="47.28394" lon="-2.36231">
        <ele>134.39999389648</ele>
        <time>2022-04-14T10:01:01.000Z</time>
      </trkpt>
      <trkpt lat="47.28396" lon="-2.36229">
        <ele>134.39999389648</ele>
        <time>2022-04-14T10:01:02.000Z</time>
      </trkpt>
      <trkpt lat="47.28398" lon="-2.36227">
        <ele>134.80000305176</ele>
        <time>2022-04-14T10:01:03.000Z</time>
      </trkpt>
      <trkpt lat="47.28401" lon="-2.36224">
        <ele>135.19999694824</ele>
        <time>2022-04-14T10:01:04.000Z</time>
      </trkpt>
      <trkpt lat="47.28403" lon="-2.36222">
        <ele>135.60000610352</ele>
        <time>2022-04-14T10:01:05.000Z</time>
      </trkpt>
      <trkpt lat="47.28404" lon="-2.36219">
        <ele>136</ele>
        <time>2022-04-14T10:01:06.000Z</time>
      </trkpt>
      <trkpt lat="47.28407" lon="-2.36217">
        <ele>136.39999389648</ele>
        <time>2022-04-14T10:01:07.000Z</time>
      </trkpt>
      <trkpt lat="47.2841" lon="-2.36216">
        <ele>136.39999389648</ele>
        <time>2022-04-14T10:01:08.000Z</time>
      </trkpt>
      <trkpt lat="47.28426" lon="-2.36208">
        <ele>136.80000305176</ele>
        <time>2022-04-14T10:01:14.000Z</time>
      </trkpt>
      <trkpt lat="47.28427" lon="-2.36206">
        <ele>137.19999694824</ele>
        <time>2022-04-14T10:01:15.000Z</time>
      </trkpt>
      <trkpt lat="47.28429" lon="-2.36205">
        <ele>137.80000305176</ele>
        <time>2022-04-14T10:01:16.000Z</time>
      </trkpt>
      <trkpt lat="47.2843" lon="-2.36205">
        <ele>138.19999694824</ele>
        <time>2022-04-14T10:01:17.000Z</time>
      </trkpt>
      <trkpt lat="47.28431" lon="-2.36206">
        <ele>138.60000610352</ele>
        <time>2022-04-14T10:01:18.000Z</time>
      </trkpt>
      <trkpt lat="47.28436" lon="-2.36203">
        <ele>138.60000610352</ele>
        <time>2022-04-14T10:01:30.000Z</time>
      </trkpt>
      <trkpt lat="47.28438" lon="-2.36195">
        <ele>138.60000610352</ele>
        <time>2022-04-14T10:01:34.000Z</time>
      </trkpt>
      <trkpt lat="47.28439" lon="-2.36186">
        <ele>139</ele>
        <time>2022-04-14T10:01:37.000Z</time>
      </trkpt>
      <trkpt lat="47.2844" lon="-2.36182">
        <ele>139.39999389648</ele>
        <time>2022-04-14T10:01:38.000Z</time>
      </trkpt>
      <trkpt lat="47.28442" lon="-2.36177">
        <ele>140</ele>
        <time>2022-04-14T10:01:39.000Z</time>
      </trkpt>
      <trkpt lat="47.28442" lon="-2.36173">
        <ele>140.39999389648</ele>
        <time>2022-04-14T10:01:40.000Z</time>
      </trkpt>
      <trkpt lat="47.28443" lon="-2.36169">
        <ele>140.80000305176</ele>
        <time>2022-04-14T10:01:41.000Z</time>
      </trkpt>
      <trkpt lat="47.28444" lon="-2.36165">
        <ele>140.80000305176</ele>
        <time>2022-04-14T10:01:42.000Z</time>
      </trkpt>
      <trkpt lat="47.28442" lon="-2.36157">
        <ele>141.19999694824</ele>
        <time>2022-04-14T10:01:44.000Z</time>
      </trkpt>
      <trkpt lat="47.28441" lon="-2.36154">
        <ele>141.60000610352</ele>
        <time>2022-04-14T10:01:45.000Z</time>
      </trkpt>
      <trkpt lat="47.28439" lon="-2.3615">
        <ele>142</ele>
        <time>2022-04-14T10:01:46.000Z</time>
      </trkpt>
      <trkpt lat="47.28439" lon="-2.36146">
        <ele>142.39999389648</ele>
        <time>2022-04-14T10:01:47.000Z</time>
      </trkpt>
      <trkpt lat="47.28439" lon="-2.36141">
        <ele>142.80000305176</ele>
        <time>2022-04-14T10:01:48.000Z</time>
      </trkpt>
      <trkpt lat="47.28438" lon="-2.36133">
        <ele>142.80000305176</ele>
        <time>2022-04-14T10:01:50.000Z</time>
      </trkpt>
      <trkpt lat="47.28436" lon="-2.36122">
        <ele>143.19999694824</ele>
        <time>2022-04-14T10:01:53.000Z</time>
      </trkpt>
      <trkpt lat="47.28436" lon="-2.36118">
        <ele>143.80000305176</ele>
        <time>2022-04-14T10:01:54.000Z</time>
      </trkpt>
      <trkpt lat="47.28436" lon="-2.36113">
        <ele>144.19999694824</ele>
        <time>2022-04-14T10:01:55.000Z</time>
      </trkpt>
      <trkpt lat="47.28436" lon="-2.36108">
        <ele>144.60000610352</ele>
        <time>2022-04-14T10:01:56.000Z</time>
      </trkpt>
      <trkpt lat="47.28436" lon="-2.36104">
        <ele>145</ele>
        <time>2022-04-14T10:01:57.000Z</time>
      </trkpt>
      <trkpt lat="47.28434" lon="-2.36086">
        <ele>145</ele>
        <time>2022-04-14T10:02:01.000Z</time>
      </trkpt>
      <trkpt lat="47.28434" lon="-2.36073">
        <ele>145.39999389648</ele>
        <time>2022-04-14T10:02:04.000Z</time>
      </trkpt>
      <trkpt lat="47.28434" lon="-2.36069">
        <ele>145.80000305176</ele>
        <time>2022-04-14T10:02:05.000Z</time>
      </trkpt>
      <trkpt lat="47.28433" lon="-2.36065">
        <ele>146.19999694824</ele>
        <time>2022-04-14T10:02:06.000Z</time>
      </trkpt>
      <trkpt lat="47.28433" lon="-2.3606">
        <ele>146.80000305176</ele>
        <time>2022-04-14T10:02:07.000Z</time>
      </trkpt>
      <trkpt lat="47.28433" lon="-2.36056">
        <ele>147.19999694824</ele>
        <time>2022-04-14T10:02:08.000Z</time>
      </trkpt>
      <trkpt lat="47.28433" lon="-2.36041">
        <ele>147.19999694824</ele>
        <time>2022-04-14T10:02:12.000Z</time>
      </trkpt>
      <trkpt lat="47.28436" lon="-2.3603">
        <ele>147.60000610352</ele>
        <time>2022-04-14T10:02:15.000Z</time>
      </trkpt>
      <trkpt lat="47.28436" lon="-2.36026">
        <ele>148</ele>
        <time>2022-04-14T10:02:16.000Z</time>
      </trkpt>
      <trkpt lat="47.28437" lon="-2.36023">
        <ele>148.80000305176</ele>
        <time>2022-04-14T10:02:17.000Z</time>
      </trkpt>
      <trkpt lat="47.28438" lon="-2.36021">
        <ele>149.19999694824</ele>
        <time>2022-04-14T10:02:18.000Z</time>
      </trkpt>
      <trkpt lat="47.2844" lon="-2.3602">
        <ele>149.19999694824</ele>
        <time>2022-04-14T10:02:20.000Z</time>
      </trkpt>
      <trkpt lat="47.28444" lon="-2.36012">
        <ele>149.19999694824</ele>
        <time>2022-04-14T10:02:24.000Z</time>
      </trkpt>
      <trkpt lat="47.28447" lon="-2.35996">
        <ele>149.19999694824</ele>
        <time>2022-04-14T10:02:28.000Z</time>
      </trkpt>
      <trkpt lat="47.28446" lon="-2.35992">
        <ele>149.19999694824</ele>
        <time>2022-04-14T10:02:29.000Z</time>
      </trkpt>
      <trkpt lat="47.28441" lon="-2.3599">
        <ele>149.19999694824</ele>
        <time>2022-04-14T10:02:32.000Z</time>
      </trkpt>
      <trkpt lat="47.28432" lon="-2.35994">
        <ele>149.19999694824</ele>
        <time>2022-04-14T10:02:35.000Z</time>
      </trkpt>
      <trkpt lat="47.28424" lon="-2.35999">
        <ele>149.19999694824</ele>
        <time>2022-04-14T10:02:37.000Z</time>
      </trkpt>
      <trkpt lat="47.28416" lon="-2.36005">
        <ele>149.19999694824</ele>
        <time>2022-04-14T10:02:39.000Z</time>
      </trkpt>
      <trkpt lat="47.28408" lon="-2.36014">
        <ele>149.19999694824</ele>
        <time>2022-04-14T10:02:42.000Z</time>
      </trkpt>
      <trkpt lat="47.28391" lon="-2.3602">
        <ele>149.19999694824</ele>
        <time>2022-04-14T10:02:47.000Z</time>
      </trkpt>
      <trkpt lat="47.28378" lon="-2.36022">
        <ele>148.60000610352</ele>
        <time>2022-04-14T10:02:50.000Z</time>
      </trkpt>
      <trkpt lat="47.28372" lon="-2.36022">
        <ele>148</ele>
        <time>2022-04-14T10:02:51.000Z</time>
      </trkpt>
      <trkpt lat="47.28366" lon="-2.36023">
        <ele>147.60000610352</ele>
        <time>2022-04-14T10:02:52.000Z</time>
      </trkpt>
      <trkpt lat="47.28359" lon="-2.36024">
        <ele>147</ele>
        <time>2022-04-14T10:02:53.000Z</time>
      </trkpt>
      <trkpt lat="47.28352" lon="-2.36026">
        <ele>146.39999389648</ele>
        <time>2022-04-14T10:02:54.000Z</time>
      </trkpt>
      <trkpt lat="47.28345" lon="-2.36029">
        <ele>145.80000305176</ele>
        <time>2022-04-14T10:02:55.000Z</time>
      </trkpt>
      <trkpt lat="47.2834" lon="-2.36033">
        <ele>145.19999694824</ele>
        <time>2022-04-14T10:02:56.000Z</time>
      </trkpt>
      <trkpt lat="47.28335" lon="-2.36037">
        <ele>144.60000610352</ele>
        <time>2022-04-14T10:02:57.000Z</time>
      </trkpt>
      <trkpt lat="47.2833" lon="-2.36041">
        <ele>144</ele>
        <time>2022-04-14T10:02:58.000Z</time>
      </trkpt>
      <trkpt lat="47.28325" lon="-2.36045">
        <ele>143.39999389648</ele>
        <time>2022-04-14T10:02:59.000Z</time>
      </trkpt>
      <trkpt lat="47.2832" lon="-2.36049">
        <ele>142.80000305176</ele>
        <time>2022-04-14T10:03:00.000Z</time>
      </trkpt>
      <trkpt lat="47.28316" lon="-2.3605">
        <ele>142.19999694824</ele>
        <time>2022-04-14T10:03:01.000Z</time>
      </trkpt>
      <trkpt lat="47.28312" lon="-2.36049">
        <ele>141.60000610352</ele>
        <time>2022-04-14T10:03:02.000Z</time>
      </trkpt>
      <trkpt lat="47.28304" lon="-2.36047">
        <ele>141.60000610352</ele>
        <time>2022-04-14T10:03:04.000Z</time>
      </trkpt>
      <trkpt lat="47.28291" lon="-2.36043">
        <ele>141.60000610352</ele>
        <time>2022-04-14T10:03:07.000Z</time>
      </trkpt>
      <trkpt lat="47.28287" lon="-2.36039">
        <ele>141.19999694824</ele>
        <time>2022-04-14T10:03:08.000Z</time>
      </trkpt>
      <trkpt lat="47.28284" lon="-2.36034">
        <ele>140.80000305176</ele>
        <time>2022-04-14T10:03:09.000Z</time>
      </trkpt>
      <trkpt lat="47.28281" lon="-2.36027">
        <ele>140</ele>
        <time>2022-04-14T10:03:10.000Z</time>
      </trkpt>
      <trkpt lat="47.28279" lon="-2.3602">
        <ele>139.39999389648</ele>
        <time>2022-04-14T10:03:11.000Z</time>
      </trkpt>
      <trkpt lat="47.28277" lon="-2.36013">
        <ele>138.39999389648</ele>
        <time>2022-04-14T10:03:12.000Z</time>
      </trkpt>
      <trkpt lat="47.28276" lon="-2.36006">
        <ele>137.60000610352</ele>
        <time>2022-04-14T10:03:13.000Z</time>
      </trkpt>
      <trkpt lat="47.28277" lon="-2.35999">
        <ele>136.80000305176</ele>
        <time>2022-04-14T10:03:14.000Z</time>
      </trkpt>
      <trkpt lat="47.28277" lon="-2.35992">
        <ele>136</ele>
        <time>2022-04-14T10:03:15.000Z</time>
      </trkpt>
      <trkpt lat="47.28278" lon="-2.35985">
        <ele>135</ele>
        <time>2022-04-14T10:03:16.000Z</time>
      </trkpt>
      <trkpt lat="47.28278" lon="-2.3598">
        <ele>134.19999694824</ele>
        <time>2022-04-14T10:03:17.000Z</time>
      </trkpt>
      <trkpt lat="47.28277" lon="-2.35975">
        <ele>133.39999389648</ele>
        <time>2022-04-14T10:03:18.000Z</time>
      </trkpt>
      <trkpt lat="47.28276" lon="-2.3597">
        <ele>132.60000610352</ele>
        <time>2022-04-14T10:03:19.000Z</time>
      </trkpt>
      <trkpt lat="47.28269" lon="-2.35947">
        <ele>132.60000610352</ele>
        <time>2022-04-14T10:03:24.000Z</time>
      </trkpt>
      <trkpt lat="47.28258" lon="-2.35925">
        <ele>133</ele>
        <time>2022-04-14T10:03:30.000Z</time>
      </trkpt>
      <trkpt lat="47.28257" lon="-2.35922">
        <ele>133.39999389648</ele>
        <time>2022-04-14T10:03:31.000Z</time>
      </trkpt>
      <trkpt lat="47.28255" lon="-2.35919">
        <ele>134.39999389648</ele>
        <time>2022-04-14T10:03:32.000Z</time>
      </trkpt>
      <trkpt lat="47.28253" lon="-2.35916">
        <ele>134.80000305176</ele>
        <time>2022-04-14T10:03:33.000Z</time>
      </trkpt>
      <trkpt lat="47.28249" lon="-2.35915">
        <ele>134.80000305176</ele>
        <time>2022-04-14T10:03:34.000Z</time>
      </trkpt>
      <trkpt lat="47.28235" lon="-2.35916">
        <ele>134.80000305176</ele>
        <time>2022-04-14T10:03:37.000Z</time>
      </trkpt>
      <trkpt lat="47.28226" lon="-2.35913">
        <ele>134.80000305176</ele>
        <time>2022-04-14T10:03:39.000Z</time>
      </trkpt>
      <trkpt lat="47.28218" lon="-2.35908">
        <ele>134.80000305176</ele>
        <time>2022-04-14T10:03:41.000Z</time>
      </trkpt>
      <trkpt lat="47.28214" lon="-2.35905">
        <ele>134.39999389648</ele>
        <time>2022-04-14T10:03:42.000Z</time>
      </trkpt>
      <trkpt lat="47.28212" lon="-2.359">
        <ele>133.80000305176</ele>
        <time>2022-04-14T10:03:43.000Z</time>
      </trkpt>
      <trkpt lat="47.2821" lon="-2.35895">
        <ele>133.39999389648</ele>
        <time>2022-04-14T10:03:44.000Z</time>
      </trkpt>
      <trkpt lat="47.28208" lon="-2.3589">
        <ele>133</ele>
        <time>2022-04-14T10:03:45.000Z</time>
      </trkpt>
      <trkpt lat="47.28206" lon="-2.35885">
        <ele>132.60000610352</ele>
        <time>2022-04-14T10:03:46.000Z</time>
      </trkpt>
      <trkpt lat="47.28201" lon="-2.35868">
        <ele>132.60000610352</ele>
        <time>2022-04-14T10:03:49.000Z</time>
      </trkpt>
      <trkpt lat="47.28189" lon="-2.3585">
        <ele>132.60000610352</ele>
        <time>2022-04-14T10:03:53.000Z</time>
      </trkpt>
      <trkpt lat="47.28179" lon="-2.3582">
        <ele>132.60000610352</ele>
        <time>2022-04-14T10:03:59.000Z</time>
      </trkpt>
      <trkpt lat="47.28173" lon="-2.35803">
        <ele>132.60000610352</ele>
        <time>2022-04-14T10:04:04.000Z</time>
      </trkpt>
      <trkpt lat="47.28165" lon="-2.35784">
        <ele>132.60000610352</ele>
        <time>2022-04-14T10:04:09.000Z</time>
      </trkpt>
      <trkpt lat="47.28151" lon="-2.35761">
        <ele>132.60000610352</ele>
        <time>2022-04-14T10:04:14.000Z</time>
      </trkpt>
      <trkpt lat="47.28144" lon="-2.35753">
        <ele>132.60000610352</ele>
        <time>2022-04-14T10:04:16.000Z</time>
      </trkpt>
      <trkpt lat="47.28139" lon="-2.35751">
        <ele>132.60000610352</ele>
        <time>2022-04-14T10:04:18.000Z</time>
      </trkpt>
      <trkpt lat="47.28119" lon="-2.35746">
        <ele>132.60000610352</ele>
        <time>2022-04-14T10:04:22.000Z</time>
      </trkpt>
      <trkpt lat="47.28114" lon="-2.35747">
        <ele>132.19999694824</ele>
        <time>2022-04-14T10:04:23.000Z</time>
      </trkpt>
      <trkpt lat="47.28111" lon="-2.35749">
        <ele>131.80000305176</ele>
        <time>2022-04-14T10:04:24.000Z</time>
      </trkpt>
      <trkpt lat="47.28108" lon="-2.35752">
        <ele>131.39999389648</ele>
        <time>2022-04-14T10:04:25.000Z</time>
      </trkpt>
      <trkpt lat="47.28105" lon="-2.35755">
        <ele>131</ele>
        <time>2022-04-14T10:04:26.000Z</time>
      </trkpt>
      <trkpt lat="47.28104" lon="-2.35759">
        <ele>130.60000610352</ele>
        <time>2022-04-14T10:04:27.000Z</time>
      </trkpt>
      <trkpt lat="47.28096" lon="-2.3578">
        <ele>130.60000610352</ele>
        <time>2022-04-14T10:04:32.000Z</time>
      </trkpt>
      <trkpt lat="47.28085" lon="-2.35796">
        <ele>130.60000610352</ele>
        <time>2022-04-14T10:04:37.000Z</time>
      </trkpt>
      <trkpt lat="47.28079" lon="-2.358">
        <ele>130.60000610352</ele>
        <time>2022-04-14T10:04:40.000Z</time>
      </trkpt>
      <trkpt lat="47.28077" lon="-2.35798">
        <ele>130.60000610352</ele>
        <time>2022-04-14T10:04:41.000Z</time>
      </trkpt>
      <trkpt lat="47.28076" lon="-2.35789">
        <ele>130.60000610352</ele>
        <time>2022-04-14T10:04:44.000Z</time>
      </trkpt>
      <trkpt lat="47.28078" lon="-2.35779">
        <ele>131</ele>
        <time>2022-04-14T10:04:47.000Z</time>
      </trkpt>
      <trkpt lat="47.28079" lon="-2.35776">
        <ele>131.39999389648</ele>
        <time>2022-04-14T10:04:48.000Z</time>
      </trkpt>
      <trkpt lat="47.2808" lon="-2.35773">
        <ele>131.80000305176</ele>
        <time>2022-04-14T10:04:49.000Z</time>
      </trkpt>
      <trkpt lat="47.28082" lon="-2.35769">
        <ele>132.19999694824</ele>
        <time>2022-04-14T10:04:50.000Z</time>
      </trkpt>
      <trkpt lat="47.28083" lon="-2.35766">
        <ele>132.60000610352</ele>
        <time>2022-04-14T10:04:51.000Z</time>
      </trkpt>
      <trkpt lat="47.28085" lon="-2.35742">
        <ele>132.60000610352</ele>
        <time>2022-04-14T10:04:56.000Z</time>
      </trkpt>
      <trkpt lat="47.28088" lon="-2.35728">
        <ele>133</ele>
        <time>2022-04-14T10:04:59.000Z</time>
      </trkpt>
      <trkpt lat="47.2809" lon="-2.35724">
        <ele>133.39999389648</ele>
        <time>2022-04-14T10:05:00.000Z</time>
      </trkpt>
      <trkpt lat="47.28091" lon="-2.35721">
        <ele>133.80000305176</ele>
        <time>2022-04-14T10:05:01.000Z</time>
      </trkpt>
      <trkpt lat="47.28092" lon="-2.35717">
        <ele>134.19999694824</ele>
        <time>2022-04-14T10:05:02.000Z</time>
      </trkpt>
      <trkpt lat="47.28092" lon="-2.35713">
        <ele>134.80000305176</ele>
        <time>2022-04-14T10:05:03.000Z</time>
      </trkpt>
      <trkpt lat="47.28091" lon="-2.35699">
        <ele>134.80000305176</ele>
        <time>2022-04-14T10:05:06.000Z</time>
      </trkpt>
      <trkpt lat="47.28084" lon="-2.35667">
        <ele>134.80000305176</ele>
        <time>2022-04-14T10:05:11.000Z</time>
      </trkpt>
      <trkpt lat="47.28079" lon="-2.35648">
        <ele>134.19999694824</ele>
        <time>2022-04-14T10:05:14.000Z</time>
      </trkpt>
      <trkpt lat="47.28077" lon="-2.35641">
        <ele>133.80000305176</ele>
        <time>2022-04-14T10:05:15.000Z</time>
      </trkpt>
      <trkpt lat="47.28076" lon="-2.35634">
        <ele>133.39999389648</ele>
        <time>2022-04-14T10:05:16.000Z</time>
      </trkpt>
      <trkpt lat="47.28076" lon="-2.35627">
        <ele>132.80000305176</ele>
        <time>2022-04-14T10:05:17.000Z</time>
      </trkpt>
      <trkpt lat="47.28075" lon="-2.3562">
        <ele>132.39999389648</ele>
        <time>2022-04-14T10:05:18.000Z</time>
      </trkpt>
      <trkpt lat="47.28074" lon="-2.35614">
        <ele>131.80000305176</ele>
        <time>2022-04-14T10:05:19.000Z</time>
      </trkpt>
      <trkpt lat="47.28072" lon="-2.35608">
        <ele>131.19999694824</ele>
        <time>2022-04-14T10:05:20.000Z</time>
      </trkpt>
      <trkpt lat="47.2807" lon="-2.35603">
        <ele>130.60000610352</ele>
        <time>2022-04-14T10:05:21.000Z</time>
      </trkpt>
      <trkpt lat="47.2807" lon="-2.35602">
        <ele>130</ele>
        <time>2022-04-14T10:05:22.000Z</time>
      </trkpt>
      <trkpt lat="47.2807" lon="-2.356">
        <ele>130</ele>
        <time>2022-04-14T10:05:23.000Z</time>
      </trkpt>
      <trkpt lat="47.28068" lon="-2.35587">
        <ele>130</ele>
        <time>2022-04-14T10:19:08.000Z</time>
      </trkpt>
      <trkpt lat="47.28066" lon="-2.35584">
        <ele>130</ele>
        <time>2022-04-14T10:19:09.000Z</time>
      </trkpt>
      <trkpt lat="47.28052" lon="-2.3558">
        <ele>130</ele>
        <time>2022-04-14T10:19:14.000Z</time>
      </trkpt>
      <trkpt lat="47.28044" lon="-2.35578">
        <ele>130</ele>
        <time>2022-04-14T10:19:16.000Z</time>
      </trkpt>
      <trkpt lat="47.28033" lon="-2.35576">
        <ele>130</ele>
        <time>2022-04-14T10:19:18.000Z</time>
      </trkpt>
      <trkpt lat="47.28028" lon="-2.35576">
        <ele>130</ele>
        <time>2022-04-14T10:19:19.000Z</time>
      </trkpt>
      <trkpt lat="47.28006" lon="-2.3558">
        <ele>130</ele>
        <time>2022-04-14T10:19:23.000Z</time>
      </trkpt>
      <trkpt lat="47.27979" lon="-2.35585">
        <ele>130</ele>
        <time>2022-04-14T10:19:28.000Z</time>
      </trkpt>
      <trkpt lat="47.27973" lon="-2.35582">
        <ele>130</ele>
        <time>2022-04-14T10:19:29.000Z</time>
      </trkpt>
      <trkpt lat="47.27961" lon="-2.3558">
        <ele>130</ele>
        <time>2022-04-14T10:19:31.000Z</time>
      </trkpt>
      <trkpt lat="47.27955" lon="-2.35581">
        <ele>129.60000610352</ele>
        <time>2022-04-14T10:19:32.000Z</time>
      </trkpt>
      <trkpt lat="47.27948" lon="-2.35582">
        <ele>129.19999694824</ele>
        <time>2022-04-14T10:19:33.000Z</time>
      </trkpt>
      <trkpt lat="47.27943" lon="-2.35584">
        <ele>128.80000305176</ele>
        <time>2022-04-14T10:19:34.000Z</time>
      </trkpt>
      <trkpt lat="47.27937" lon="-2.35586">
        <ele>128</ele>
        <time>2022-04-14T10:19:35.000Z</time>
      </trkpt>
      <trkpt lat="47.2792" lon="-2.35589">
        <ele>128</ele>
        <time>2022-04-14T10:19:38.000Z</time>
      </trkpt>
      <trkpt lat="47.2787" lon="-2.35601">
        <ele>127.59999847412</ele>
        <time>2022-04-14T10:19:46.000Z</time>
      </trkpt>
      <trkpt lat="47.27864" lon="-2.35603">
        <ele>127.19999694824</ele>
        <time>2022-04-14T10:19:47.000Z</time>
      </trkpt>
      <trkpt lat="47.27857" lon="-2.35604">
        <ele>126.80000305176</ele>
        <time>2022-04-14T10:19:48.000Z</time>
      </trkpt>
      <trkpt lat="47.27851" lon="-2.35606">
        <ele>126.40000152588</ele>
        <time>2022-04-14T10:19:49.000Z</time>
      </trkpt>
      <trkpt lat="47.27845" lon="-2.35607">
        <ele>125.80000305176</ele>
        <time>2022-04-14T10:19:50.000Z</time>
      </trkpt>
      <trkpt lat="47.27839" lon="-2.35607">
        <ele>125.80000305176</ele>
        <time>2022-04-14T10:19:51.000Z</time>
      </trkpt>
      <trkpt lat="47.27827" lon="-2.3561">
        <ele>125.80000305176</ele>
        <time>2022-04-14T10:19:53.000Z</time>
      </trkpt>
      <trkpt lat="47.27797" lon="-2.3562">
        <ele>125.40000152588</ele>
        <time>2022-04-14T10:19:58.000Z</time>
      </trkpt>
      <trkpt lat="47.2779" lon="-2.35623">
        <ele>124.80000305176</ele>
        <time>2022-04-14T10:19:59.000Z</time>
      </trkpt>
      <trkpt lat="47.27785" lon="-2.35626">
        <ele>123.80000305176</ele>
        <time>2022-04-14T10:20:00.000Z</time>
      </trkpt>
      <trkpt lat="47.27779" lon="-2.3563">
        <ele>123.40000152588</ele>
        <time>2022-04-14T10:20:01.000Z</time>
      </trkpt>
      <trkpt lat="47.27767" lon="-2.3564">
        <ele>123.40000152588</ele>
        <time>2022-04-14T10:20:03.000Z</time>
      </trkpt>
      <trkpt lat="47.27752" lon="-2.35658">
        <ele>123.40000152588</ele>
        <time>2022-04-14T10:20:06.000Z</time>
      </trkpt>
      <trkpt lat="47.27725" lon="-2.35698">
        <ele>123.40000152588</ele>
        <time>2022-04-14T10:20:12.000Z</time>
      </trkpt>
      <trkpt lat="47.2772" lon="-2.35704">
        <ele>123</ele>
        <time>2022-04-14T10:20:13.000Z</time>
      </trkpt>
      <trkpt lat="47.27715" lon="-2.3571">
        <ele>122.40000152588</ele>
        <time>2022-04-14T10:20:14.000Z</time>
      </trkpt>
      <trkpt lat="47.2771" lon="-2.35716">
        <ele>122</ele>
        <time>2022-04-14T10:20:15.000Z</time>
      </trkpt>
      <trkpt lat="47.27705" lon="-2.35721">
        <ele>121.59999847412</ele>
        <time>2022-04-14T10:20:16.000Z</time>
      </trkpt>
      <trkpt lat="47.277" lon="-2.35725">
        <ele>121.19999694824</ele>
        <time>2022-04-14T10:20:17.000Z</time>
      </trkpt>
      <trkpt lat="47.27694" lon="-2.35729">
        <ele>121.19999694824</ele>
        <time>2022-04-14T10:20:18.000Z</time>
      </trkpt>
      <trkpt lat="47.27684" lon="-2.35738">
        <ele>121.19999694824</ele>
        <time>2022-04-14T10:20:20.000Z</time>
      </trkpt>
      <trkpt lat="47.27675" lon="-2.35747">
        <ele>121.19999694824</ele>
        <time>2022-04-14T10:20:22.000Z</time>
      </trkpt>
      <trkpt lat="47.27663" lon="-2.35737">
        <ele>120.40000152588</ele>
        <time>2022-04-14T10:20:25.000Z</time>
      </trkpt>
      <trkpt lat="47.27658" lon="-2.35731">
        <ele>120</ele>
        <time>2022-04-14T10:20:26.000Z</time>
      </trkpt>
      <trkpt lat="47.27653" lon="-2.35726">
        <ele>119.59999847412</ele>
        <time>2022-04-14T10:20:27.000Z</time>
      </trkpt>
      <trkpt lat="47.27647" lon="-2.35722">
        <ele>119.19999694824</ele>
        <time>2022-04-14T10:20:28.000Z</time>
      </trkpt>
      <trkpt lat="47.2764" lon="-2.35719">
        <ele>119.19999694824</ele>
        <time>2022-04-14T10:20:29.000Z</time>
      </trkpt>
      <trkpt lat="47.2762" lon="-2.35712">
        <ele>119.19999694824</ele>
        <time>2022-04-14T10:20:32.000Z</time>
      </trkpt>
      <trkpt lat="47.27605" lon="-2.35708">
        <ele>119.19999694824</ele>
        <time>2022-04-14T10:20:34.000Z</time>
      </trkpt>
      <trkpt lat="47.27568" lon="-2.357">
        <ele>119.19999694824</ele>
        <time>2022-04-14T10:20:40.000Z</time>
      </trkpt>
      <trkpt lat="47.27562" lon="-2.35699">
        <ele>118.80000305176</ele>
        <time>2022-04-14T10:20:41.000Z</time>
      </trkpt>
      <trkpt lat="47.27555" lon="-2.35698">
        <ele>118.40000152588</ele>
        <time>2022-04-14T10:20:42.000Z</time>
      </trkpt>
      <trkpt lat="47.27548" lon="-2.35697">
        <ele>118</ele>
        <time>2022-04-14T10:20:43.000Z</time>
      </trkpt>
      <trkpt lat="47.27542" lon="-2.35695">
        <ele>117.40000152588</ele>
        <time>2022-04-14T10:20:44.000Z</time>
      </trkpt>
      <trkpt lat="47.27535" lon="-2.35693">
        <ele>117</ele>
        <time>2022-04-14T10:20:45.000Z</time>
      </trkpt>
      <trkpt lat="47.27528" lon="-2.35691">
        <ele>117</ele>
        <time>2022-04-14T10:20:46.000Z</time>
      </trkpt>
      <trkpt lat="47.27521" lon="-2.3569">
        <ele>117</ele>
        <time>2022-04-14T10:20:47.000Z</time>
      </trkpt>
      <trkpt lat="47.27488" lon="-2.35683">
        <ele>116.59999847412</ele>
        <time>2022-04-14T10:20:52.000Z</time>
      </trkpt>
      <trkpt lat="47.27481" lon="-2.35681">
        <ele>116.19999694824</ele>
        <time>2022-04-14T10:20:53.000Z</time>
      </trkpt>
      <trkpt lat="47.27475" lon="-2.3568">
        <ele>115.80000305176</ele>
        <time>2022-04-14T10:20:54.000Z</time>
      </trkpt>
      <trkpt lat="47.27468" lon="-2.35679">
        <ele>115.40000152588</ele>
        <time>2022-04-14T10:20:55.000Z</time>
      </trkpt>
      <trkpt lat="47.27462" lon="-2.35678">
        <ele>115</ele>
        <time>2022-04-14T10:20:56.000Z</time>
      </trkpt>
      <trkpt lat="47.27449" lon="-2.35675">
        <ele>115</ele>
        <time>2022-04-14T10:20:58.000Z</time>
      </trkpt>
      <trkpt lat="47.27408" lon="-2.35668">
        <ele>115</ele>
        <time>2022-04-14T10:21:05.000Z</time>
      </trkpt>
      <trkpt lat="47.27383" lon="-2.35679">
        <ele>115</ele>
        <time>2022-04-14T10:21:09.000Z</time>
      </trkpt>
      <trkpt lat="47.27345" lon="-2.35708">
        <ele>114.59999847412</ele>
        <time>2022-04-14T10:21:16.000Z</time>
      </trkpt>
      <trkpt lat="47.27339" lon="-2.35713">
        <ele>114.19999694824</ele>
        <time>2022-04-14T10:21:17.000Z</time>
      </trkpt>
      <trkpt lat="47.27334" lon="-2.35717">
        <ele>113.80000305176</ele>
        <time>2022-04-14T10:21:18.000Z</time>
      </trkpt>
      <trkpt lat="47.27329" lon="-2.35722">
        <ele>113.19999694824</ele>
        <time>2022-04-14T10:21:19.000Z</time>
      </trkpt>
      <trkpt lat="47.27325" lon="-2.35726">
        <ele>112.80000305176</ele>
        <time>2022-04-14T10:21:20.000Z</time>
      </trkpt>
      <trkpt lat="47.27319" lon="-2.35732">
        <ele>112.80000305176</ele>
        <time>2022-04-14T10:21:22.000Z</time>
      </trkpt>
      <trkpt lat="47.27308" lon="-2.3574">
        <ele>112.80000305176</ele>
        <time>2022-04-14T10:21:26.000Z</time>
      </trkpt>
      <trkpt lat="47.273" lon="-2.35727">
        <ele>112.80000305176</ele>
        <time>2022-04-14T10:21:29.000Z</time>
      </trkpt>
      <trkpt lat="47.27293" lon="-2.35708">
        <ele>112.80000305176</ele>
        <time>2022-04-14T10:21:32.000Z</time>
      </trkpt>
      <trkpt lat="47.27289" lon="-2.35701">
        <ele>112.80000305176</ele>
        <time>2022-04-14T10:21:33.000Z</time>
      </trkpt>
      <trkpt lat="47.27277" lon="-2.35673">
        <ele>112.80000305176</ele>
        <time>2022-04-14T10:21:37.000Z</time>
      </trkpt>
      <trkpt lat="47.27258" lon="-2.35628">
        <ele>113.19999694824</ele>
        <time>2022-04-14T10:21:43.000Z</time>
      </trkpt>
      <trkpt lat="47.27255" lon="-2.35621">
        <ele>113.80000305176</ele>
        <time>2022-04-14T10:21:44.000Z</time>
      </trkpt>
      <trkpt lat="47.27252" lon="-2.35615">
        <ele>114.19999694824</ele>
        <time>2022-04-14T10:21:45.000Z</time>
      </trkpt>
      <trkpt lat="47.27249" lon="-2.35608">
        <ele>114.59999847412</ele>
        <time>2022-04-14T10:21:46.000Z</time>
      </trkpt>
      <trkpt lat="47.27246" lon="-2.35602">
        <ele>115</ele>
        <time>2022-04-14T10:21:47.000Z</time>
      </trkpt>
      <trkpt lat="47.27228" lon="-2.35561">
        <ele>115</ele>
        <time>2022-04-14T10:21:53.000Z</time>
      </trkpt>
      <trkpt lat="47.272" lon="-2.35502">
        <ele>115</ele>
        <time>2022-04-14T10:22:02.000Z</time>
      </trkpt>
      <trkpt lat="47.2718" lon="-2.3546">
        <ele>115</ele>
        <time>2022-04-14T10:22:08.000Z</time>
      </trkpt>
      <trkpt lat="47.27161" lon="-2.35422">
        <ele>115</ele>
        <time>2022-04-14T10:22:14.000Z</time>
      </trkpt>
      <trkpt lat="47.27137" lon="-2.35378">
        <ele>115</ele>
        <time>2022-04-14T10:22:21.000Z</time>
      </trkpt>
      <trkpt lat="47.27113" lon="-2.35339">
        <ele>115</ele>
        <time>2022-04-14T10:22:27.000Z</time>
      </trkpt>
      <trkpt lat="47.27085" lon="-2.35293">
        <ele>115</ele>
        <time>2022-04-14T10:22:34.000Z</time>
      </trkpt>
      <trkpt lat="47.2705" lon="-2.3524">
        <ele>115</ele>
        <time>2022-04-14T10:22:42.000Z</time>
      </trkpt>
      <trkpt lat="47.27016" lon="-2.35186">
        <ele>115</ele>
        <time>2022-04-14T10:22:50.000Z</time>
      </trkpt>
      <trkpt lat="47.27012" lon="-2.3518">
        <ele>115</ele>
        <time>2022-04-14T10:22:51.000Z</time>
      </trkpt>
      <trkpt lat="47.26982" lon="-2.35135">
        <ele>115</ele>
        <time>2022-04-14T10:22:58.000Z</time>
      </trkpt>
      <trkpt lat="47.26948" lon="-2.35083">
        <ele>115</ele>
        <time>2022-04-14T10:23:06.000Z</time>
      </trkpt>
      <trkpt lat="47.26917" lon="-2.35036">
        <ele>115</ele>
        <time>2022-04-14T10:23:13.000Z</time>
      </trkpt>
      <trkpt lat="47.26891" lon="-2.34995">
        <ele>115</ele>
        <time>2022-04-14T10:23:19.000Z</time>
      </trkpt>
      <trkpt lat="47.2686" lon="-2.34948">
        <ele>115</ele>
        <time>2022-04-14T10:23:26.000Z</time>
      </trkpt>
      <trkpt lat="47.26826" lon="-2.34895">
        <ele>115</ele>
        <time>2022-04-14T10:23:34.000Z</time>
      </trkpt>
      <trkpt lat="47.26809" lon="-2.34869">
        <ele>115</ele>
        <time>2022-04-14T10:23:38.000Z</time>
      </trkpt>
      <trkpt lat="47.26796" lon="-2.3485">
        <ele>115</ele>
        <time>2022-04-14T10:23:41.000Z</time>
      </trkpt>
      <trkpt lat="47.26769" lon="-2.34814">
        <ele>115</ele>
        <time>2022-04-14T10:23:47.000Z</time>
      </trkpt>
      <trkpt lat="47.26755" lon="-2.34795">
        <ele>115</ele>
        <time>2022-04-14T10:23:50.000Z</time>
      </trkpt>
      <trkpt lat="47.26745" lon="-2.34782">
        <ele>115</ele>
        <time>2022-04-14T10:23:52.000Z</time>
      </trkpt>
      <trkpt lat="47.2672" lon="-2.34753">
        <ele>115</ele>
        <time>2022-04-14T10:23:57.000Z</time>
      </trkpt>
      <trkpt lat="47.26693" lon="-2.34719">
        <ele>115</ele>
        <time>2022-04-14T10:24:03.000Z</time>
      </trkpt>
      <trkpt lat="47.26659" lon="-2.34679">
        <ele>115</ele>
        <time>2022-04-14T10:24:10.000Z</time>
      </trkpt>
      <trkpt lat="47.26622" lon="-2.34632">
        <ele>115</ele>
        <time>2022-04-14T10:24:18.000Z</time>
      </trkpt>
      <trkpt lat="47.26578" lon="-2.34579">
        <ele>115</ele>
        <time>2022-04-14T10:24:27.000Z</time>
      </trkpt>
      <trkpt lat="47.26573" lon="-2.34574">
        <ele>115</ele>
        <time>2022-04-14T10:24:28.000Z</time>
      </trkpt>
      <trkpt lat="47.26528" lon="-2.34527">
        <ele>115</ele>
        <time>2022-04-14T10:24:37.000Z</time>
      </trkpt>
      <trkpt lat="47.26484" lon="-2.34495">
        <ele>115</ele>
        <time>2022-04-14T10:24:45.000Z</time>
      </trkpt>
      <trkpt lat="47.26433" lon="-2.3446">
        <ele>115</ele>
        <time>2022-04-14T10:24:54.000Z</time>
      </trkpt>
      <trkpt lat="47.26428" lon="-2.34456">
        <ele>115</ele>
        <time>2022-04-14T10:24:55.000Z</time>
      </trkpt>
      <trkpt lat="47.26385" lon="-2.34423">
        <ele>115</ele>
        <time>2022-04-14T10:25:03.000Z</time>
      </trkpt>
      <trkpt lat="47.26344" lon="-2.34387">
        <ele>115</ele>
        <time>2022-04-14T10:25:11.000Z</time>
      </trkpt>
      <trkpt lat="47.26333" lon="-2.34379">
        <ele>115</ele>
        <time>2022-04-14T10:25:13.000Z</time>
      </trkpt>
      <trkpt lat="47.26327" lon="-2.34378">
        <ele>115</ele>
        <time>2022-04-14T10:25:14.000Z</time>
      </trkpt>
      <trkpt lat="47.26321" lon="-2.34375">
        <ele>115</ele>
        <time>2022-04-14T10:25:15.000Z</time>
      </trkpt>
      <trkpt lat="47.26308" lon="-2.34356">
        <ele>115</ele>
        <time>2022-04-14T10:25:18.000Z</time>
      </trkpt>
      <trkpt lat="47.26282" lon="-2.34327">
        <ele>115</ele>
        <time>2022-04-14T10:25:23.000Z</time>
      </trkpt>
      <trkpt lat="47.26241" lon="-2.34283">
        <ele>115</ele>
        <time>2022-04-14T10:25:31.000Z</time>
      </trkpt>
      <trkpt lat="47.26196" lon="-2.34236">
        <ele>115</ele>
        <time>2022-04-14T10:25:40.000Z</time>
      </trkpt>
      <trkpt lat="47.26156" lon="-2.34196">
        <ele>115</ele>
        <time>2022-04-14T10:25:48.000Z</time>
      </trkpt>
      <trkpt lat="47.2614" lon="-2.34182">
        <ele>115</ele>
        <time>2022-04-14T10:25:51.000Z</time>
      </trkpt>
      <trkpt lat="47.26128" lon="-2.34176">
        <ele>115</ele>
        <time>2022-04-14T10:25:53.000Z</time>
      </trkpt>
      <trkpt lat="47.26124" lon="-2.34171">
        <ele>115</ele>
        <time>2022-04-14T10:25:54.000Z</time>
      </trkpt>
      <trkpt lat="47.26108" lon="-2.34157">
        <ele>115</ele>
        <time>2022-04-14T10:25:57.000Z</time>
      </trkpt>
      <trkpt lat="47.26072" lon="-2.34139">
        <ele>115</ele>
        <time>2022-04-14T10:26:03.000Z</time>
      </trkpt>
      <trkpt lat="47.2602" lon="-2.34113">
        <ele>115</ele>
        <time>2022-04-14T10:26:12.000Z</time>
      </trkpt>
      <trkpt lat="47.25969" lon="-2.34088">
        <ele>115</ele>
        <time>2022-04-14T10:26:21.000Z</time>
      </trkpt>
      <trkpt lat="47.25936" lon="-2.34074">
        <ele>115</ele>
        <time>2022-04-14T10:26:27.000Z</time>
      </trkpt>
      <trkpt lat="47.25918" lon="-2.34068">
        <ele>115</ele>
        <time>2022-04-14T10:26:30.000Z</time>
      </trkpt>
      <trkpt lat="47.25905" lon="-2.34065">
        <ele>115</ele>
        <time>2022-04-14T10:26:32.000Z</time>
      </trkpt>
      <trkpt lat="47.25894" lon="-2.34042">
        <ele>115</ele>
        <time>2022-04-14T10:26:35.000Z</time>
      </trkpt>
      <trkpt lat="47.25899" lon="-2.34015">
        <ele>115</ele>
        <time>2022-04-14T10:26:38.000Z</time>
      </trkpt>
      <trkpt lat="47.25902" lon="-2.34006">
        <ele>115</ele>
        <time>2022-04-14T10:26:39.000Z</time>
      </trkpt>
      <trkpt lat="47.25917" lon="-2.33963">
        <ele>115</ele>
        <time>2022-04-14T10:26:44.000Z</time>
      </trkpt>
      <trkpt lat="47.2593" lon="-2.33933">
        <ele>114.59999847412</ele>
        <time>2022-04-14T10:26:48.000Z</time>
      </trkpt>
      <trkpt lat="47.25934" lon="-2.33928">
        <ele>114</ele>
        <time>2022-04-14T10:26:49.000Z</time>
      </trkpt>
      <trkpt lat="47.25938" lon="-2.33924">
        <ele>113.59999847412</ele>
        <time>2022-04-14T10:26:50.000Z</time>
      </trkpt>
      <trkpt lat="47.25941" lon="-2.33919">
        <ele>113.19999694824</ele>
        <time>2022-04-14T10:26:51.000Z</time>
      </trkpt>
      <trkpt lat="47.25943" lon="-2.33914">
        <ele>112.80000305176</ele>
        <time>2022-04-14T10:26:52.000Z</time>
      </trkpt>
      <trkpt lat="47.25947" lon="-2.339">
        <ele>112.80000305176</ele>
        <time>2022-04-14T10:26:54.000Z</time>
      </trkpt>
      <trkpt lat="47.25952" lon="-2.33881">
        <ele>112.80000305176</ele>
        <time>2022-04-14T10:26:57.000Z</time>
      </trkpt>
      <trkpt lat="47.25954" lon="-2.33872">
        <ele>112.80000305176</ele>
        <time>2022-04-14T10:26:59.000Z</time>
      </trkpt>
      <trkpt lat="47.2596" lon="-2.33858">
        <ele>112.80000305176</ele>
        <time>2022-04-14T10:27:04.000Z</time>
      </trkpt>
      <trkpt lat="47.25963" lon="-2.33851">
        <ele>112.80000305176</ele>
        <time>2022-04-14T10:27:11.000Z</time>
      </trkpt>
      <trkpt lat="47.25966" lon="-2.33846">
        <ele>112.80000305176</ele>
        <time>2022-04-14T10:27:16.000Z</time>
      </trkpt>
      <trkpt lat="47.25969" lon="-2.33837">
        <ele>112.80000305176</ele>
        <time>2022-04-14T10:27:19.000Z</time>
      </trkpt>
      <trkpt lat="47.25974" lon="-2.3383">
        <ele>112.80000305176</ele>
        <time>2022-04-14T10:27:23.000Z</time>
      </trkpt>
      <trkpt lat="47.25974" lon="-2.33828">
        <ele>112.80000305176</ele>
        <time>2022-04-14T10:27:24.000Z</time>
      </trkpt>
      <trkpt lat="47.25975" lon="-2.33827">
        <ele>112.80000305176</ele>
        <time>2022-04-14T10:27:25.000Z</time>
      </trkpt>
      <trkpt lat="47.25979" lon="-2.33816">
        <ele>112.80000305176</ele>
        <time>2022-04-14T10:27:28.000Z</time>
      </trkpt>
      <trkpt lat="47.25981" lon="-2.33809">
        <ele>112.80000305176</ele>
        <time>2022-04-14T10:27:29.000Z</time>
      </trkpt>
      <trkpt lat="47.25985" lon="-2.33795">
        <ele>112.80000305176</ele>
        <time>2022-04-14T10:27:31.000Z</time>
      </trkpt>
      <trkpt lat="47.25986" lon="-2.33787">
        <ele>112.80000305176</ele>
        <time>2022-04-14T10:27:32.000Z</time>
      </trkpt>
      <trkpt lat="47.25998" lon="-2.33746">
        <ele>112.80000305176</ele>
        <time>2022-04-14T10:27:38.000Z</time>
      </trkpt>
      <trkpt lat="47.26014" lon="-2.33696">
        <ele>112.80000305176</ele>
        <time>2022-04-14T10:27:45.000Z</time>
      </trkpt>
      <trkpt lat="47.26015" lon="-2.33689">
        <ele>112.80000305176</ele>
        <time>2022-04-14T10:27:46.000Z</time>
      </trkpt>
      <trkpt lat="47.26018" lon="-2.33676">
        <ele>112.80000305176</ele>
        <time>2022-04-14T10:27:48.000Z</time>
      </trkpt>
      <trkpt lat="47.26023" lon="-2.33667">
        <ele>112.80000305176</ele>
        <time>2022-04-14T10:27:50.000Z</time>
      </trkpt>
      <trkpt lat="47.2603" lon="-2.33666">
        <ele>112.80000305176</ele>
        <time>2022-04-14T10:27:52.000Z</time>
      </trkpt>
      <trkpt lat="47.26034" lon="-2.33666">
        <ele>112.80000305176</ele>
        <time>2022-04-14T10:27:53.000Z</time>
      </trkpt>
      <trkpt lat="47.26052" lon="-2.33663">
        <ele>112.80000305176</ele>
        <time>2022-04-14T10:27:58.000Z</time>
      </trkpt>
      <trkpt lat="47.26059" lon="-2.3364">
        <ele>112.80000305176</ele>
        <time>2022-04-14T10:28:03.000Z</time>
      </trkpt>
      <trkpt lat="47.26062" lon="-2.33635">
        <ele>112.80000305176</ele>
        <time>2022-04-14T10:28:06.000Z</time>
      </trkpt>
      <trkpt lat="47.26063" lon="-2.33636">
        <ele>112.80000305176</ele>
        <time>2022-04-14T10:28:07.000Z</time>
      </trkpt>
      <trkpt lat="47.26064" lon="-2.33638">
        <ele>112.80000305176</ele>
        <time>2022-04-14T10:28:10.000Z</time>
      </trkpt>
      <trkpt lat="47.26065" lon="-2.33639">
        <ele>112.80000305176</ele>
        <time>2022-04-14T10:28:11.000Z</time>
      </trkpt>
      <trkpt lat="47.26068" lon="-2.3364">
        <ele>112.80000305176</ele>
        <time>2022-04-14T10:28:12.000Z</time>
      </trkpt>
      <trkpt lat="47.26077" lon="-2.33633">
        <ele>112.80000305176</ele>
        <time>2022-04-14T10:28:15.000Z</time>
      </trkpt>
      <trkpt lat="47.26078" lon="-2.33628">
        <ele>112.80000305176</ele>
        <time>2022-04-14T10:28:16.000Z</time>
      </trkpt>
      <trkpt lat="47.26084" lon="-2.33605">
        <ele>112.80000305176</ele>
        <time>2022-04-14T10:28:20.000Z</time>
      </trkpt>
      <trkpt lat="47.26089" lon="-2.33593">
        <ele>112.80000305176</ele>
        <time>2022-04-14T10:28:22.000Z</time>
      </trkpt>
      <trkpt lat="47.26102" lon="-2.33564">
        <ele>112.80000305176</ele>
        <time>2022-04-14T10:28:27.000Z</time>
      </trkpt>
      <trkpt lat="47.26108" lon="-2.33553">
        <ele>112.80000305176</ele>
        <time>2022-04-14T10:28:29.000Z</time>
      </trkpt>
      <trkpt lat="47.26136" lon="-2.33502">
        <ele>112.80000305176</ele>
        <time>2022-04-14T10:28:38.000Z</time>
      </trkpt>
      <trkpt lat="47.26142" lon="-2.33476">
        <ele>112.80000305176</ele>
        <time>2022-04-14T10:28:42.000Z</time>
      </trkpt>
      <trkpt lat="47.26143" lon="-2.33464">
        <ele>112.80000305176</ele>
        <time>2022-04-14T10:28:44.000Z</time>
      </trkpt>
      <trkpt lat="47.26143" lon="-2.33458">
        <ele>112.80000305176</ele>
        <time>2022-04-14T10:28:47.000Z</time>
      </trkpt>
      <trkpt lat="47.26141" lon="-2.33452">
        <ele>112.80000305176</ele>
        <time>2022-04-14T10:28:52.000Z</time>
      </trkpt>
      <trkpt lat="47.26139" lon="-2.3345">
        <ele>112.80000305176</ele>
        <time>2022-04-14T10:28:53.000Z</time>
      </trkpt>
      <trkpt lat="47.26133" lon="-2.33444">
        <ele>112.80000305176</ele>
        <time>2022-04-14T10:28:56.000Z</time>
      </trkpt>
      <trkpt lat="47.26129" lon="-2.33435">
        <ele>112.80000305176</ele>
        <time>2022-04-14T10:28:58.000Z</time>
      </trkpt>
      <trkpt lat="47.26118" lon="-2.33413">
        <ele>112.80000305176</ele>
        <time>2022-04-14T10:29:04.000Z</time>
      </trkpt>
      <trkpt lat="47.26104" lon="-2.33391">
        <ele>112.80000305176</ele>
        <time>2022-04-14T10:29:10.000Z</time>
      </trkpt>
      <trkpt lat="47.26095" lon="-2.33378">
        <ele>112.80000305176</ele>
        <time>2022-04-14T10:29:13.000Z</time>
      </trkpt>
      <trkpt lat="47.26083" lon="-2.33366">
        <ele>112.80000305176</ele>
        <time>2022-04-14T10:29:16.000Z</time>
      </trkpt>
      <trkpt lat="47.26071" lon="-2.3334">
        <ele>112.80000305176</ele>
        <time>2022-04-14T10:29:20.000Z</time>
      </trkpt>
      <trkpt lat="47.26068" lon="-2.33332">
        <ele>112.80000305176</ele>
        <time>2022-04-14T10:29:21.000Z</time>
      </trkpt>
      <trkpt lat="47.26048" lon="-2.33276">
        <ele>112.80000305176</ele>
        <time>2022-04-14T10:29:28.000Z</time>
      </trkpt>
      <trkpt lat="47.26022" lon="-2.33203">
        <ele>112.80000305176</ele>
        <time>2022-04-14T10:29:37.000Z</time>
      </trkpt>
      <trkpt lat="47.25997" lon="-2.33129">
        <ele>112.80000305176</ele>
        <time>2022-04-14T10:29:46.000Z</time>
      </trkpt>
      <trkpt lat="47.25991" lon="-2.33113">
        <ele>112.80000305176</ele>
        <time>2022-04-14T10:29:48.000Z</time>
      </trkpt>
      <trkpt lat="47.25986" lon="-2.33087">
        <ele>112.80000305176</ele>
        <time>2022-04-14T10:29:51.000Z</time>
      </trkpt>
      <trkpt lat="47.25971" lon="-2.33059">
        <ele>112.80000305176</ele>
        <time>2022-04-14T10:29:55.000Z</time>
      </trkpt>
      <trkpt lat="47.25967" lon="-2.33042">
        <ele>112.80000305176</ele>
        <time>2022-04-14T10:29:57.000Z</time>
      </trkpt>
      <trkpt lat="47.25956" lon="-2.33009">
        <ele>112.80000305176</ele>
        <time>2022-04-14T10:30:01.000Z</time>
      </trkpt>
      <trkpt lat="47.25935" lon="-2.32951">
        <ele>112.80000305176</ele>
        <time>2022-04-14T10:30:08.000Z</time>
      </trkpt>
      <trkpt lat="47.25914" lon="-2.32894">
        <ele>112.80000305176</ele>
        <time>2022-04-14T10:30:15.000Z</time>
      </trkpt>
      <trkpt lat="47.25891" lon="-2.32829">
        <ele>112.80000305176</ele>
        <time>2022-04-14T10:30:23.000Z</time>
      </trkpt>
      <trkpt lat="47.25869" lon="-2.32756">
        <ele>112.80000305176</ele>
        <time>2022-04-14T10:30:32.000Z</time>
      </trkpt>
      <trkpt lat="47.25862" lon="-2.32733">
        <ele>112.80000305176</ele>
        <time>2022-04-14T10:30:35.000Z</time>
      </trkpt>
      <trkpt lat="47.25861" lon="-2.32718">
        <ele>112.80000305176</ele>
        <time>2022-04-14T10:30:37.000Z</time>
      </trkpt>
      <trkpt lat="47.25853" lon="-2.327">
        <ele>112.80000305176</ele>
        <time>2022-04-14T10:30:40.000Z</time>
      </trkpt>
      <trkpt lat="47.25845" lon="-2.32677">
        <ele>112.80000305176</ele>
        <time>2022-04-14T10:30:43.000Z</time>
      </trkpt>
      <trkpt lat="47.25843" lon="-2.32669">
        <ele>112.80000305176</ele>
        <time>2022-04-14T10:30:44.000Z</time>
      </trkpt>
      <trkpt lat="47.25827" lon="-2.32605">
        <ele>112.80000305176</ele>
        <time>2022-04-14T10:30:52.000Z</time>
      </trkpt>
      <trkpt lat="47.25819" lon="-2.32572">
        <ele>112.80000305176</ele>
        <time>2022-04-14T10:30:56.000Z</time>
      </trkpt>
      <trkpt lat="47.25815" lon="-2.32555">
        <ele>112.80000305176</ele>
        <time>2022-04-14T10:30:58.000Z</time>
      </trkpt>
      <trkpt lat="47.25799" lon="-2.32486">
        <ele>112.80000305176</ele>
        <time>2022-04-14T10:31:07.000Z</time>
      </trkpt>
      <trkpt lat="47.25798" lon="-2.32479">
        <ele>112.80000305176</ele>
        <time>2022-04-14T10:31:08.000Z</time>
      </trkpt>
      <trkpt lat="47.25801" lon="-2.32469">
        <ele>112.80000305176</ele>
        <time>2022-04-14T10:31:10.000Z</time>
      </trkpt>
      <trkpt lat="47.25809" lon="-2.32464">
        <ele>112.80000305176</ele>
        <time>2022-04-14T10:31:13.000Z</time>
      </trkpt>
      <trkpt lat="47.25812" lon="-2.32464">
        <ele>112.80000305176</ele>
        <time>2022-04-14T10:31:14.000Z</time>
      </trkpt>
      <trkpt lat="47.25826" lon="-2.32465">
        <ele>112.80000305176</ele>
        <time>2022-04-14T10:31:17.000Z</time>
      </trkpt>
      <trkpt lat="47.25852" lon="-2.32472">
        <ele>112.80000305176</ele>
        <time>2022-04-14T10:31:22.000Z</time>
      </trkpt>
      <trkpt lat="47.25857" lon="-2.32471">
        <ele>112.80000305176</ele>
        <time>2022-04-14T10:31:23.000Z</time>
      </trkpt>
      <trkpt lat="47.25879" lon="-2.32468">
        <ele>112.80000305176</ele>
        <time>2022-04-14T10:31:27.000Z</time>
      </trkpt>
      <trkpt lat="47.25885" lon="-2.32466">
        <ele>112.80000305176</ele>
        <time>2022-04-14T10:31:28.000Z</time>
      </trkpt>
      <trkpt lat="47.259" lon="-2.32452">
        <ele>112.80000305176</ele>
        <time>2022-04-14T10:31:31.000Z</time>
      </trkpt>
      <trkpt lat="47.25931" lon="-2.32411">
        <ele>112.80000305176</ele>
        <time>2022-04-14T10:31:38.000Z</time>
      </trkpt>
      <trkpt lat="47.25967" lon="-2.32365">
        <ele>112.80000305176</ele>
        <time>2022-04-14T10:31:46.000Z</time>
      </trkpt>
      <trkpt lat="47.26008" lon="-2.32316">
        <ele>112.80000305176</ele>
        <time>2022-04-14T10:31:55.000Z</time>
      </trkpt>
      <trkpt lat="47.26038" lon="-2.32278">
        <ele>112.80000305176</ele>
        <time>2022-04-14T10:32:02.000Z</time>
      </trkpt>
      <trkpt lat="47.26072" lon="-2.32241">
        <ele>112.80000305176</ele>
        <time>2022-04-14T10:32:09.000Z</time>
      </trkpt>
      <trkpt lat="47.26082" lon="-2.32229">
        <ele>112.80000305176</ele>
        <time>2022-04-14T10:32:11.000Z</time>
      </trkpt>
      <trkpt lat="47.26098" lon="-2.32203">
        <ele>112.80000305176</ele>
        <time>2022-04-14T10:32:15.000Z</time>
      </trkpt>
      <trkpt lat="47.2612" lon="-2.32149">
        <ele>112.80000305176</ele>
        <time>2022-04-14T10:32:22.000Z</time>
      </trkpt>
      <trkpt lat="47.26127" lon="-2.32125">
        <ele>112.80000305176</ele>
        <time>2022-04-14T10:32:25.000Z</time>
      </trkpt>
      <trkpt lat="47.2613" lon="-2.32109">
        <ele>112.80000305176</ele>
        <time>2022-04-14T10:32:27.000Z</time>
      </trkpt>
      <trkpt lat="47.26146" lon="-2.32053">
        <ele>112.80000305176</ele>
        <time>2022-04-14T10:32:34.000Z</time>
      </trkpt>
      <trkpt lat="47.26153" lon="-2.32032">
        <ele>112.80000305176</ele>
        <time>2022-04-14T10:32:37.000Z</time>
      </trkpt>
      <trkpt lat="47.26161" lon="-2.32022">
        <ele>112.80000305176</ele>
        <time>2022-04-14T10:32:39.000Z</time>
      </trkpt>
      <trkpt lat="47.26175" lon="-2.32021">
        <ele>112.80000305176</ele>
        <time>2022-04-14T10:32:42.000Z</time>
      </trkpt>
      <trkpt lat="47.26187" lon="-2.32025">
        <ele>112.80000305176</ele>
        <time>2022-04-14T10:32:46.000Z</time>
      </trkpt>
      <trkpt lat="47.26193" lon="-2.3202">
        <ele>112.80000305176</ele>
        <time>2022-04-14T10:32:50.000Z</time>
      </trkpt>
      <trkpt lat="47.26197" lon="-2.32006">
        <ele>112.80000305176</ele>
        <time>2022-04-14T10:32:54.000Z</time>
      </trkpt>
      <trkpt lat="47.26204" lon="-2.31995">
        <ele>112.80000305176</ele>
        <time>2022-04-14T10:32:59.000Z</time>
      </trkpt>
      <trkpt lat="47.2621" lon="-2.31985">
        <ele>112.80000305176</ele>
        <time>2022-04-14T10:33:02.000Z</time>
      </trkpt>
      <trkpt lat="47.26213" lon="-2.31983">
        <ele>112.80000305176</ele>
        <time>2022-04-14T10:33:03.000Z</time>
      </trkpt>
      <trkpt lat="47.26221" lon="-2.3198">
        <ele>112.80000305176</ele>
        <time>2022-04-14T10:33:05.000Z</time>
      </trkpt>
      <trkpt lat="47.26225" lon="-2.31977">
        <ele>112.80000305176</ele>
        <time>2022-04-14T10:33:06.000Z</time>
      </trkpt>
      <trkpt lat="47.26238" lon="-2.31951">
        <ele>112.80000305176</ele>
        <time>2022-04-14T10:33:11.000Z</time>
      </trkpt>
      <trkpt lat="47.26244" lon="-2.31942">
        <ele>112.80000305176</ele>
        <time>2022-04-14T10:33:13.000Z</time>
      </trkpt>
      <trkpt lat="47.2625" lon="-2.31934">
        <ele>112.80000305176</ele>
        <time>2022-04-14T10:33:15.000Z</time>
      </trkpt>
      <trkpt lat="47.26269" lon="-2.3191">
        <ele>112.80000305176</ele>
        <time>2022-04-14T10:33:21.000Z</time>
      </trkpt>
      <trkpt lat="47.26288" lon="-2.31894">
        <ele>112.80000305176</ele>
        <time>2022-04-14T10:33:26.000Z</time>
      </trkpt>
      <trkpt lat="47.26289" lon="-2.31888">
        <ele>112.80000305176</ele>
        <time>2022-04-14T10:33:27.000Z</time>
      </trkpt>
      <trkpt lat="47.2629" lon="-2.31875">
        <ele>112.80000305176</ele>
        <time>2022-04-14T10:33:29.000Z</time>
      </trkpt>
      <trkpt lat="47.26295" lon="-2.31839">
        <ele>112.80000305176</ele>
        <time>2022-04-14T10:33:35.000Z</time>
      </trkpt>
      <trkpt lat="47.26295" lon="-2.31811">
        <ele>112.80000305176</ele>
        <time>2022-04-14T10:33:40.000Z</time>
      </trkpt>
      <trkpt lat="47.26299" lon="-2.31807">
        <ele>112.80000305176</ele>
        <time>2022-04-14T10:33:43.000Z</time>
      </trkpt>
      <trkpt lat="47.263" lon="-2.31812">
        <ele>112.80000305176</ele>
        <time>2022-04-14T10:33:46.000Z</time>
      </trkpt>
      <trkpt lat="47.26299" lon="-2.31817">
        <ele>112.80000305176</ele>
        <time>2022-04-14T10:33:49.000Z</time>
      </trkpt>
      <trkpt lat="47.26297" lon="-2.31817">
        <ele>112.80000305176</ele>
        <time>2022-04-14T10:33:52.000Z</time>
      </trkpt>
      <trkpt lat="47.26297" lon="-2.31816">
        <ele>112.80000305176</ele>
        <time>2022-04-14T10:34:31.000Z</time>
      </trkpt>
      <trkpt lat="47.26299" lon="-2.318">
        <ele>112.80000305176</ele>
        <time>2022-04-14T10:34:36.000Z</time>
      </trkpt>
      <trkpt lat="47.26299" lon="-2.31789">
        <ele>112.80000305176</ele>
        <time>2022-04-14T10:34:38.000Z</time>
      </trkpt>
      <trkpt lat="47.263" lon="-2.31762">
        <ele>112.80000305176</ele>
        <time>2022-04-14T10:34:43.000Z</time>
      </trkpt>
      <trkpt lat="47.26299" lon="-2.31724">
        <ele>112.80000305176</ele>
        <time>2022-04-14T10:34:49.000Z</time>
      </trkpt>
      <trkpt lat="47.26302" lon="-2.31719">
        <ele>112.80000305176</ele>
        <time>2022-04-14T10:34:50.000Z</time>
      </trkpt>
      <trkpt lat="47.26309" lon="-2.31714">
        <ele>112.80000305176</ele>
        <time>2022-04-14T10:34:52.000Z</time>
      </trkpt>
      <trkpt lat="47.26331" lon="-2.31705">
        <ele>113.19999694824</ele>
        <time>2022-04-14T10:34:58.000Z</time>
      </trkpt>
      <trkpt lat="47.26333" lon="-2.317">
        <ele>113.80000305176</ele>
        <time>2022-04-14T10:34:59.000Z</time>
      </trkpt>
      <trkpt lat="47.26335" lon="-2.31695">
        <ele>114.19999694824</ele>
        <time>2022-04-14T10:35:00.000Z</time>
      </trkpt>
      <trkpt lat="47.26337" lon="-2.31692">
        <ele>114.59999847412</ele>
        <time>2022-04-14T10:35:01.000Z</time>
      </trkpt>
      <trkpt lat="47.26339" lon="-2.3169">
        <ele>115</ele>
        <time>2022-04-14T10:35:02.000Z</time>
      </trkpt>
      <trkpt lat="47.26341" lon="-2.31688">
        <ele>115</ele>
        <time>2022-04-14T10:35:03.000Z</time>
      </trkpt>
      <trkpt lat="47.26354" lon="-2.3168">
        <ele>115</ele>
        <time>2022-04-14T10:35:08.000Z</time>
      </trkpt>
      <trkpt lat="47.26367" lon="-2.31672">
        <ele>115</ele>
        <time>2022-04-14T10:35:13.000Z</time>
      </trkpt>
      <trkpt lat="47.2637" lon="-2.31671">
        <ele>115.40000152588</ele>
        <time>2022-04-14T10:35:14.000Z</time>
      </trkpt>
      <trkpt lat="47.26374" lon="-2.3167">
        <ele>115.80000305176</ele>
        <time>2022-04-14T10:35:15.000Z</time>
      </trkpt>
      <trkpt lat="47.26377" lon="-2.31668">
        <ele>116.19999694824</ele>
        <time>2022-04-14T10:35:16.000Z</time>
      </trkpt>
      <trkpt lat="47.2638" lon="-2.31666">
        <ele>117</ele>
        <time>2022-04-14T10:35:17.000Z</time>
      </trkpt>
      <trkpt lat="47.26386" lon="-2.31663">
        <ele>117</ele>
        <time>2022-04-14T10:35:19.000Z</time>
      </trkpt>
      <trkpt lat="47.26398" lon="-2.31656">
        <ele>117</ele>
        <time>2022-04-14T10:35:24.000Z</time>
      </trkpt>
      <trkpt lat="47.26406" lon="-2.31648">
        <ele>117</ele>
        <time>2022-04-14T10:35:27.000Z</time>
      </trkpt>
      <trkpt lat="47.26407" lon="-2.31644">
        <ele>117</ele>
        <time>2022-04-14T10:35:28.000Z</time>
      </trkpt>
      <trkpt lat="47.26408" lon="-2.31631">
        <ele>117</ele>
        <time>2022-04-14T10:35:31.000Z</time>
      </trkpt>
      <trkpt lat="47.26408" lon="-2.31616">
        <ele>117</ele>
        <time>2022-04-14T10:35:34.000Z</time>
      </trkpt>
      <trkpt lat="47.26409" lon="-2.31586">
        <ele>117</ele>
        <time>2022-04-14T10:35:40.000Z</time>
      </trkpt>
      <trkpt lat="47.26409" lon="-2.31558">
        <ele>117</ele>
        <time>2022-04-14T10:35:46.000Z</time>
      </trkpt>
      <trkpt lat="47.26411" lon="-2.31552">
        <ele>117</ele>
        <time>2022-04-14T10:35:48.000Z</time>
      </trkpt>
      <trkpt lat="47.26414" lon="-2.31552">
        <ele>117.40000152588</ele>
        <time>2022-04-14T10:35:50.000Z</time>
      </trkpt>
      <trkpt lat="47.26415" lon="-2.31552">
        <ele>117.80000305176</ele>
        <time>2022-04-14T10:35:51.000Z</time>
      </trkpt>
      <trkpt lat="47.26415" lon="-2.31552">
        <ele>118.19999694824</ele>
        <time>2022-04-14T10:35:52.000Z</time>
      </trkpt>
      <trkpt lat="47.26415" lon="-2.31552">
        <ele>118.80000305176</ele>
        <time>2022-04-14T10:35:53.000Z</time>
      </trkpt>
      <trkpt lat="47.2642" lon="-2.3155">
        <ele>119.19999694824</ele>
        <time>2022-04-14T10:36:12.000Z</time>
      </trkpt>
      <trkpt lat="47.26429" lon="-2.31552">
        <ele>119.19999694824</ele>
        <time>2022-04-14T10:36:19.000Z</time>
      </trkpt>
      <trkpt lat="47.2643" lon="-2.31554">
        <ele>119.19999694824</ele>
        <time>2022-04-14T10:36:23.000Z</time>
      </trkpt>
      <trkpt lat="47.26421" lon="-2.31549">
        <ele>121.19999694824</ele>
        <time>2022-04-14T11:23:56.000Z</time>
      </trkpt>
      <trkpt lat="47.26406" lon="-2.31543">
        <ele>121.19999694824</ele>
        <time>2022-04-14T11:24:03.000Z</time>
      </trkpt>
      <trkpt lat="47.26386" lon="-2.31541">
        <ele>121.19999694824</ele>
        <time>2022-04-14T11:24:13.000Z</time>
      </trkpt>
      <trkpt lat="47.26384" lon="-2.31543">
        <ele>121.19999694824</ele>
        <time>2022-04-14T11:24:19.000Z</time>
      </trkpt>
      <trkpt lat="47.26403" lon="-2.31563">
        <ele>121.19999694824</ele>
        <time>2022-04-14T11:25:25.000Z</time>
      </trkpt>
      <trkpt lat="47.26413" lon="-2.31562">
        <ele>121.19999694824</ele>
        <time>2022-04-14T11:32:21.000Z</time>
      </trkpt>
      <trkpt lat="47.26413" lon="-2.31564">
        <ele>121.19999694824</ele>
        <time>2022-04-14T11:32:25.000Z</time>
      </trkpt>
      <trkpt lat="47.26405" lon="-2.31566">
        <ele>121.19999694824</ele>
        <time>2022-04-14T11:36:13.000Z</time>
      </trkpt>
      <trkpt lat="47.26401" lon="-2.31568">
        <ele>121.19999694824</ele>
        <time>2022-04-14T11:36:16.000Z</time>
      </trkpt>
      <trkpt lat="47.26389" lon="-2.31566">
        <ele>121.19999694824</ele>
        <time>2022-04-14T11:36:44.000Z</time>
      </trkpt>
    </trkseg>
  </trk>
</gpx>